<?xml version="1.0" encoding="UTF-8" standalone="no" ?>
<gpx xmlns="http://www.topografix.com/GPX/1/1" xmlns:xsi="http://www.w3.org/2001/XMLSchema-instance" xsi:schemaLocation="http://www.topografix.com/GPX/1/1 http://www.topografix.com/GPX/1/1/gpx.xsd" version="1.1" creator="VisuGPX - https://www.visugpx.com">
  <metadata>
    <name>83 - D+  - Baudinard</name>
    <desc><![CDATA[83 - D+  - Baudinard - pont Sylvestre - Grottes]]></desc>
  </metadata>
  <trk>
    <name><![CDATA[Baudinard - Gorges - pont Sylvestre - Grottes 2025-02-09]]></name>
    <trkseg>
      <trkpt lat="43.73612" lon="6.13972">
        <ele>494</ele>
        <time>2025-02-09T07:53:10Z</time>
      </trkpt>
      <trkpt lat="43.73612" lon="6.13972">
        <ele>494</ele>
        <time>2025-02-09T07:53:10Z</time>
      </trkpt>
      <trkpt lat="43.73613" lon="6.13973">
        <ele>490.3</ele>
        <time>2025-02-09T07:53:11Z</time>
      </trkpt>
      <trkpt lat="43.73613" lon="6.13982">
        <ele>480.9</ele>
        <time>2025-02-09T07:53:21Z</time>
      </trkpt>
      <trkpt lat="43.73612" lon="6.13981">
        <ele>479.8</ele>
        <time>2025-02-09T07:53:22Z</time>
      </trkpt>
      <trkpt lat="43.73614" lon="6.13991">
        <ele>488</ele>
        <time>2025-02-09T07:54:36Z</time>
      </trkpt>
      <trkpt lat="43.73614" lon="6.13989">
        <ele>488</ele>
        <time>2025-02-09T07:54:38Z</time>
      </trkpt>
      <trkpt lat="43.73614" lon="6.13989">
        <ele>488</ele>
        <time>2025-02-09T07:54:40Z</time>
      </trkpt>
      <trkpt lat="43.73611" lon="6.13985">
        <ele>488</ele>
        <time>2025-02-09T07:54:41Z</time>
      </trkpt>
      <trkpt lat="43.73609" lon="6.13988">
        <ele>488</ele>
        <time>2025-02-09T07:54:51Z</time>
      </trkpt>
      <trkpt lat="43.73609" lon="6.13988">
        <ele>488</ele>
        <time>2025-02-09T07:55:02Z</time>
      </trkpt>
      <trkpt lat="43.73609" lon="6.13988">
        <ele>488</ele>
        <time>2025-02-09T07:55:03Z</time>
      </trkpt>
      <trkpt lat="43.73608" lon="6.13987">
        <ele>488</ele>
        <time>2025-02-09T07:55:06Z</time>
      </trkpt>
      <trkpt lat="43.73608" lon="6.13987">
        <ele>488</ele>
        <time>2025-02-09T07:55:07Z</time>
      </trkpt>
      <trkpt lat="43.73608" lon="6.13987">
        <ele>488</ele>
        <time>2025-02-09T07:55:09Z</time>
      </trkpt>
      <trkpt lat="43.73608" lon="6.13987">
        <ele>488</ele>
        <time>2025-02-09T07:55:10Z</time>
      </trkpt>
      <trkpt lat="43.73608" lon="6.13986">
        <ele>488.2</ele>
        <time>2025-02-09T07:55:11Z</time>
      </trkpt>
      <trkpt lat="43.73608" lon="6.13986">
        <ele>488.2</ele>
        <time>2025-02-09T07:55:12Z</time>
      </trkpt>
      <trkpt lat="43.73608" lon="6.13986">
        <ele>488.2</ele>
        <time>2025-02-09T07:55:18Z</time>
      </trkpt>
      <trkpt lat="43.73608" lon="6.13986">
        <ele>488.2</ele>
        <time>2025-02-09T07:55:19Z</time>
      </trkpt>
      <trkpt lat="43.73608" lon="6.13985">
        <ele>488.3</ele>
        <time>2025-02-09T07:55:20Z</time>
      </trkpt>
      <trkpt lat="43.73608" lon="6.13985">
        <ele>488.3</ele>
        <time>2025-02-09T07:55:21Z</time>
      </trkpt>
      <trkpt lat="43.73608" lon="6.13985">
        <ele>488.5</ele>
        <time>2025-02-09T07:55:28Z</time>
      </trkpt>
      <trkpt lat="43.73607" lon="6.13984">
        <ele>489.2</ele>
        <time>2025-02-09T07:55:32Z</time>
      </trkpt>
      <trkpt lat="43.73607" lon="6.13985">
        <ele>489.1</ele>
        <time>2025-02-09T07:55:34Z</time>
      </trkpt>
      <trkpt lat="43.73607" lon="6.13985">
        <ele>489.2</ele>
        <time>2025-02-09T07:55:36Z</time>
      </trkpt>
      <trkpt lat="43.73607" lon="6.13984">
        <ele>489.3</ele>
        <time>2025-02-09T07:55:43Z</time>
      </trkpt>
      <trkpt lat="43.73607" lon="6.13984">
        <ele>489.6</ele>
        <time>2025-02-09T07:55:45Z</time>
      </trkpt>
      <trkpt lat="43.73608" lon="6.13984">
        <ele>489.9</ele>
        <time>2025-02-09T07:55:48Z</time>
      </trkpt>
      <trkpt lat="43.73607" lon="6.13984">
        <ele>490.7</ele>
        <time>2025-02-09T07:55:56Z</time>
      </trkpt>
      <trkpt lat="43.73607" lon="6.13985">
        <ele>490.7</ele>
        <time>2025-02-09T07:55:58Z</time>
      </trkpt>
      <trkpt lat="43.73606" lon="6.13985">
        <ele>490.7</ele>
        <time>2025-02-09T07:56:02Z</time>
      </trkpt>
      <trkpt lat="43.73606" lon="6.13985">
        <ele>490.6</ele>
        <time>2025-02-09T07:56:03Z</time>
      </trkpt>
      <trkpt lat="43.73606" lon="6.13985">
        <ele>490.6</ele>
        <time>2025-02-09T07:56:04Z</time>
      </trkpt>
      <trkpt lat="43.73606" lon="6.13985">
        <ele>490.6</ele>
        <time>2025-02-09T07:56:07Z</time>
      </trkpt>
      <trkpt lat="43.73606" lon="6.13985">
        <ele>490.6</ele>
        <time>2025-02-09T07:56:08Z</time>
      </trkpt>
      <trkpt lat="43.73606" lon="6.13985">
        <ele>490.6</ele>
        <time>2025-02-09T07:56:09Z</time>
      </trkpt>
      <trkpt lat="43.73606" lon="6.13986">
        <ele>490.6</ele>
        <time>2025-02-09T07:56:12Z</time>
      </trkpt>
      <trkpt lat="43.73606" lon="6.13986">
        <ele>490.4</ele>
        <time>2025-02-09T07:56:19Z</time>
      </trkpt>
      <trkpt lat="43.73606" lon="6.13987">
        <ele>490.3</ele>
        <time>2025-02-09T07:56:22Z</time>
      </trkpt>
      <trkpt lat="43.73606" lon="6.13986">
        <ele>490.4</ele>
        <time>2025-02-09T07:56:29Z</time>
      </trkpt>
      <trkpt lat="43.73606" lon="6.13986">
        <ele>490.5</ele>
        <time>2025-02-09T07:56:30Z</time>
      </trkpt>
      <trkpt lat="43.73606" lon="6.13987">
        <ele>490.5</ele>
        <time>2025-02-09T07:56:31Z</time>
      </trkpt>
      <trkpt lat="43.73606" lon="6.13988">
        <ele>491.1</ele>
        <time>2025-02-09T07:56:35Z</time>
      </trkpt>
      <trkpt lat="43.73606" lon="6.13988">
        <ele>492.8</ele>
        <time>2025-02-09T07:56:45Z</time>
      </trkpt>
      <trkpt lat="43.73606" lon="6.13988">
        <ele>492.9</ele>
        <time>2025-02-09T07:56:47Z</time>
      </trkpt>
      <trkpt lat="43.73606" lon="6.13988">
        <ele>493</ele>
        <time>2025-02-09T07:56:55Z</time>
      </trkpt>
      <trkpt lat="43.73606" lon="6.13988">
        <ele>493.4</ele>
        <time>2025-02-09T07:56:59Z</time>
      </trkpt>
      <trkpt lat="43.73606" lon="6.13987">
        <ele>493.5</ele>
        <time>2025-02-09T07:57:00Z</time>
      </trkpt>
      <trkpt lat="43.73606" lon="6.13987">
        <ele>493.7</ele>
        <time>2025-02-09T07:57:03Z</time>
      </trkpt>
      <trkpt lat="43.73606" lon="6.13987">
        <ele>493.8</ele>
        <time>2025-02-09T07:57:04Z</time>
      </trkpt>
      <trkpt lat="43.73605" lon="6.13985">
        <ele>494.3</ele>
        <time>2025-02-09T07:57:09Z</time>
      </trkpt>
      <trkpt lat="43.73605" lon="6.13985">
        <ele>494.3</ele>
        <time>2025-02-09T07:57:10Z</time>
      </trkpt>
      <trkpt lat="43.73606" lon="6.13985">
        <ele>494.6</ele>
        <time>2025-02-09T07:57:13Z</time>
      </trkpt>
      <trkpt lat="43.73606" lon="6.13985">
        <ele>495</ele>
        <time>2025-02-09T07:57:25Z</time>
      </trkpt>
      <trkpt lat="43.73602" lon="6.13977">
        <ele>498.5</ele>
        <time>2025-02-09T07:57:43Z</time>
      </trkpt>
      <trkpt lat="43.73602" lon="6.13977">
        <ele>498.6</ele>
        <time>2025-02-09T07:57:44Z</time>
      </trkpt>
      <trkpt lat="43.73599" lon="6.13964">
        <ele>500.2</ele>
        <time>2025-02-09T07:57:55Z</time>
      </trkpt>
      <trkpt lat="43.73595" lon="6.13953">
        <ele>501.1</ele>
        <time>2025-02-09T07:58:04Z</time>
      </trkpt>
      <trkpt lat="43.73592" lon="6.13941">
        <ele>501.5</ele>
        <time>2025-02-09T07:58:13Z</time>
      </trkpt>
      <trkpt lat="43.73591" lon="6.1393">
        <ele>502.3</ele>
        <time>2025-02-09T07:58:24Z</time>
      </trkpt>
      <trkpt lat="43.73591" lon="6.1393">
        <ele>502.4</ele>
        <time>2025-02-09T07:58:25Z</time>
      </trkpt>
      <trkpt lat="43.7359" lon="6.13916">
        <ele>503.2</ele>
        <time>2025-02-09T07:58:34Z</time>
      </trkpt>
      <trkpt lat="43.73587" lon="6.13903">
        <ele>503.8</ele>
        <time>2025-02-09T07:58:41Z</time>
      </trkpt>
      <trkpt lat="43.73588" lon="6.1389">
        <ele>504.4</ele>
        <time>2025-02-09T07:58:48Z</time>
      </trkpt>
      <trkpt lat="43.73589" lon="6.13877">
        <ele>504.4</ele>
        <time>2025-02-09T07:58:57Z</time>
      </trkpt>
      <trkpt lat="43.73586" lon="6.13864">
        <ele>505.1</ele>
        <time>2025-02-09T07:59:07Z</time>
      </trkpt>
      <trkpt lat="43.73585" lon="6.13863">
        <ele>505.3</ele>
        <time>2025-02-09T07:59:12Z</time>
      </trkpt>
      <trkpt lat="43.73585" lon="6.13863">
        <ele>505.3</ele>
        <time>2025-02-09T07:59:15Z</time>
      </trkpt>
      <trkpt lat="43.73585" lon="6.13863">
        <ele>505.3</ele>
        <time>2025-02-09T07:59:16Z</time>
      </trkpt>
      <trkpt lat="43.73585" lon="6.13863">
        <ele>505.3</ele>
        <time>2025-02-09T07:59:21Z</time>
      </trkpt>
      <trkpt lat="43.73585" lon="6.13863">
        <ele>505.3</ele>
        <time>2025-02-09T07:59:22Z</time>
      </trkpt>
      <trkpt lat="43.73585" lon="6.13864">
        <ele>505.4</ele>
        <time>2025-02-09T07:59:25Z</time>
      </trkpt>
      <trkpt lat="43.73585" lon="6.13864">
        <ele>505.4</ele>
        <time>2025-02-09T07:59:26Z</time>
      </trkpt>
      <trkpt lat="43.73585" lon="6.13864">
        <ele>505.5</ele>
        <time>2025-02-09T07:59:38Z</time>
      </trkpt>
      <trkpt lat="43.7358" lon="6.13851">
        <ele>506.1</ele>
        <time>2025-02-09T07:59:47Z</time>
      </trkpt>
      <trkpt lat="43.73578" lon="6.13838">
        <ele>506.7</ele>
        <time>2025-02-09T07:59:55Z</time>
      </trkpt>
      <trkpt lat="43.7358" lon="6.13825">
        <ele>507.5</ele>
        <time>2025-02-09T08:00:02Z</time>
      </trkpt>
      <trkpt lat="43.7358" lon="6.13812">
        <ele>508.4</ele>
        <time>2025-02-09T08:00:11Z</time>
      </trkpt>
      <trkpt lat="43.73577" lon="6.13799">
        <ele>509</ele>
        <time>2025-02-09T08:00:19Z</time>
      </trkpt>
      <trkpt lat="43.73574" lon="6.13787">
        <ele>508.5</ele>
        <time>2025-02-09T08:00:26Z</time>
      </trkpt>
      <trkpt lat="43.73573" lon="6.13774">
        <ele>509.9</ele>
        <time>2025-02-09T08:00:33Z</time>
      </trkpt>
      <trkpt lat="43.73573" lon="6.13761">
        <ele>510.9</ele>
        <time>2025-02-09T08:00:41Z</time>
      </trkpt>
      <trkpt lat="43.73574" lon="6.13748">
        <ele>511.8</ele>
        <time>2025-02-09T08:00:49Z</time>
      </trkpt>
      <trkpt lat="43.73574" lon="6.13735">
        <ele>512.4</ele>
        <time>2025-02-09T08:00:57Z</time>
      </trkpt>
      <trkpt lat="43.73574" lon="6.13722">
        <ele>512.9</ele>
        <time>2025-02-09T08:01:05Z</time>
      </trkpt>
      <trkpt lat="43.73575" lon="6.1371">
        <ele>513.6</ele>
        <time>2025-02-09T08:01:14Z</time>
      </trkpt>
      <trkpt lat="43.73573" lon="6.13696">
        <ele>513.4</ele>
        <time>2025-02-09T08:01:21Z</time>
      </trkpt>
      <trkpt lat="43.73569" lon="6.13685">
        <ele>514.2</ele>
        <time>2025-02-09T08:01:28Z</time>
      </trkpt>
      <trkpt lat="43.73564" lon="6.13674">
        <ele>516</ele>
        <time>2025-02-09T08:01:38Z</time>
      </trkpt>
      <trkpt lat="43.73556" lon="6.13666">
        <ele>516.2</ele>
        <time>2025-02-09T08:01:47Z</time>
      </trkpt>
      <trkpt lat="43.73548" lon="6.13659">
        <ele>516.3</ele>
        <time>2025-02-09T08:01:56Z</time>
      </trkpt>
      <trkpt lat="43.73541" lon="6.13649">
        <ele>516.1</ele>
        <time>2025-02-09T08:02:06Z</time>
      </trkpt>
      <trkpt lat="43.73534" lon="6.13641">
        <ele>516.3</ele>
        <time>2025-02-09T08:02:14Z</time>
      </trkpt>
      <trkpt lat="43.73527" lon="6.13632">
        <ele>516.8</ele>
        <time>2025-02-09T08:02:22Z</time>
      </trkpt>
      <trkpt lat="43.73517" lon="6.13631">
        <ele>519.2</ele>
        <time>2025-02-09T08:02:26Z</time>
      </trkpt>
      <trkpt lat="43.73508" lon="6.13628">
        <ele>520.7</ele>
        <time>2025-02-09T08:02:32Z</time>
      </trkpt>
      <trkpt lat="43.73498" lon="6.13625">
        <ele>522.3</ele>
        <time>2025-02-09T08:02:39Z</time>
      </trkpt>
      <trkpt lat="43.7349" lon="6.13622">
        <ele>523.4</ele>
        <time>2025-02-09T08:02:47Z</time>
      </trkpt>
      <trkpt lat="43.73481" lon="6.13619">
        <ele>524.8</ele>
        <time>2025-02-09T08:02:55Z</time>
      </trkpt>
      <trkpt lat="43.73471" lon="6.13618">
        <ele>525</ele>
        <time>2025-02-09T08:03:03Z</time>
      </trkpt>
      <trkpt lat="43.73462" lon="6.13615">
        <ele>526.7</ele>
        <time>2025-02-09T08:03:12Z</time>
      </trkpt>
      <trkpt lat="43.73453" lon="6.13609">
        <ele>527</ele>
        <time>2025-02-09T08:03:24Z</time>
      </trkpt>
      <trkpt lat="43.73449" lon="6.13606">
        <ele>527.8</ele>
        <time>2025-02-09T08:03:34Z</time>
      </trkpt>
      <trkpt lat="43.73449" lon="6.13606">
        <ele>527.8</ele>
        <time>2025-02-09T08:03:35Z</time>
      </trkpt>
      <trkpt lat="43.73445" lon="6.13606">
        <ele>527.6</ele>
        <time>2025-02-09T08:03:41Z</time>
      </trkpt>
      <trkpt lat="43.73445" lon="6.13606">
        <ele>527.7</ele>
        <time>2025-02-09T08:03:42Z</time>
      </trkpt>
      <trkpt lat="43.73436" lon="6.13609">
        <ele>529.6</ele>
        <time>2025-02-09T08:03:59Z</time>
      </trkpt>
      <trkpt lat="43.73426" lon="6.13609">
        <ele>532.3</ele>
        <time>2025-02-09T08:04:16Z</time>
      </trkpt>
      <trkpt lat="43.73418" lon="6.13612">
        <ele>535.1</ele>
        <time>2025-02-09T08:04:38Z</time>
      </trkpt>
      <trkpt lat="43.7341" lon="6.13605">
        <ele>535.7</ele>
        <time>2025-02-09T08:04:53Z</time>
      </trkpt>
      <trkpt lat="43.73401" lon="6.136">
        <ele>537.2</ele>
        <time>2025-02-09T08:05:06Z</time>
      </trkpt>
      <trkpt lat="43.73395" lon="6.13597">
        <ele>536.9</ele>
        <time>2025-02-09T08:05:13Z</time>
      </trkpt>
      <trkpt lat="43.73395" lon="6.13597">
        <ele>536.9</ele>
        <time>2025-02-09T08:05:15Z</time>
      </trkpt>
      <trkpt lat="43.73395" lon="6.13597">
        <ele>536.9</ele>
        <time>2025-02-09T08:05:16Z</time>
      </trkpt>
      <trkpt lat="43.73395" lon="6.13597">
        <ele>536.9</ele>
        <time>2025-02-09T08:05:23Z</time>
      </trkpt>
      <trkpt lat="43.73387" lon="6.13606">
        <ele>538</ele>
        <time>2025-02-09T08:05:35Z</time>
      </trkpt>
      <trkpt lat="43.7338" lon="6.13614">
        <ele>539</ele>
        <time>2025-02-09T08:05:47Z</time>
      </trkpt>
      <trkpt lat="43.73372" lon="6.13622">
        <ele>540.4</ele>
        <time>2025-02-09T08:05:59Z</time>
      </trkpt>
      <trkpt lat="43.73374" lon="6.13635">
        <ele>541.8</ele>
        <time>2025-02-09T08:06:13Z</time>
      </trkpt>
      <trkpt lat="43.73374" lon="6.13639">
        <ele>542.4</ele>
        <time>2025-02-09T08:06:19Z</time>
      </trkpt>
      <trkpt lat="43.73375" lon="6.13639">
        <ele>542.6</ele>
        <time>2025-02-09T08:06:21Z</time>
      </trkpt>
      <trkpt lat="43.73376" lon="6.13642">
        <ele>542.6</ele>
        <time>2025-02-09T08:06:33Z</time>
      </trkpt>
      <trkpt lat="43.73376" lon="6.13642">
        <ele>542.6</ele>
        <time>2025-02-09T08:06:34Z</time>
      </trkpt>
      <trkpt lat="43.7337" lon="6.13652">
        <ele>542.6</ele>
        <time>2025-02-09T08:06:46Z</time>
      </trkpt>
      <trkpt lat="43.73369" lon="6.13665">
        <ele>543.3</ele>
        <time>2025-02-09T08:06:56Z</time>
      </trkpt>
      <trkpt lat="43.73366" lon="6.13678">
        <ele>543.3</ele>
        <time>2025-02-09T08:07:14Z</time>
      </trkpt>
      <trkpt lat="43.73366" lon="6.13678">
        <ele>543.3</ele>
        <time>2025-02-09T08:07:15Z</time>
      </trkpt>
      <trkpt lat="43.73366" lon="6.13677">
        <ele>543.4</ele>
        <time>2025-02-09T08:07:16Z</time>
      </trkpt>
      <trkpt lat="43.73359" lon="6.13685">
        <ele>543.8</ele>
        <time>2025-02-09T08:07:28Z</time>
      </trkpt>
      <trkpt lat="43.73363" lon="6.13692">
        <ele>544.6</ele>
        <time>2025-02-09T08:07:47Z</time>
      </trkpt>
      <trkpt lat="43.73363" lon="6.13693">
        <ele>544.7</ele>
        <time>2025-02-09T08:07:48Z</time>
      </trkpt>
      <trkpt lat="43.73393" lon="6.13694">
        <ele>546.1</ele>
        <time>2025-02-09T08:09:11Z</time>
      </trkpt>
      <trkpt lat="43.73387" lon="6.13683">
        <ele>548.3</ele>
        <time>2025-02-09T08:09:13Z</time>
      </trkpt>
      <trkpt lat="43.73377" lon="6.13689">
        <ele>545.3</ele>
        <time>2025-02-09T08:09:15Z</time>
      </trkpt>
      <trkpt lat="43.73367" lon="6.13695">
        <ele>537.5</ele>
        <time>2025-02-09T08:09:19Z</time>
      </trkpt>
      <trkpt lat="43.7336" lon="6.13684">
        <ele>541.1</ele>
        <time>2025-02-09T08:09:25Z</time>
      </trkpt>
      <trkpt lat="43.73362" lon="6.13671">
        <ele>541.2</ele>
        <time>2025-02-09T08:09:44Z</time>
      </trkpt>
      <trkpt lat="43.7337" lon="6.13677">
        <ele>545.6</ele>
        <time>2025-02-09T08:09:58Z</time>
      </trkpt>
      <trkpt lat="43.73371" lon="6.13677">
        <ele>545.6</ele>
        <time>2025-02-09T08:09:59Z</time>
      </trkpt>
      <trkpt lat="43.7337" lon="6.13678">
        <ele>549.3</ele>
        <time>2025-02-09T08:10:18Z</time>
      </trkpt>
      <trkpt lat="43.7337" lon="6.13678">
        <ele>549.4</ele>
        <time>2025-02-09T08:10:19Z</time>
      </trkpt>
      <trkpt lat="43.7337" lon="6.13681">
        <ele>550.8</ele>
        <time>2025-02-09T08:10:31Z</time>
      </trkpt>
      <trkpt lat="43.73369" lon="6.13681">
        <ele>551</ele>
        <time>2025-02-09T08:10:32Z</time>
      </trkpt>
      <trkpt lat="43.73374" lon="6.13682">
        <ele>552.7</ele>
        <time>2025-02-09T08:10:54Z</time>
      </trkpt>
      <trkpt lat="43.73374" lon="6.13684">
        <ele>552.6</ele>
        <time>2025-02-09T08:10:55Z</time>
      </trkpt>
      <trkpt lat="43.73367" lon="6.13694">
        <ele>555.4</ele>
        <time>2025-02-09T08:11:49Z</time>
      </trkpt>
      <trkpt lat="43.7337" lon="6.13697">
        <ele>556.3</ele>
        <time>2025-02-09T08:12:04Z</time>
      </trkpt>
      <trkpt lat="43.7337" lon="6.13698">
        <ele>556.4</ele>
        <time>2025-02-09T08:12:05Z</time>
      </trkpt>
      <trkpt lat="43.73371" lon="6.13699">
        <ele>556.8</ele>
        <time>2025-02-09T08:12:10Z</time>
      </trkpt>
      <trkpt lat="43.73371" lon="6.137">
        <ele>556.8</ele>
        <time>2025-02-09T08:12:11Z</time>
      </trkpt>
      <trkpt lat="43.73362" lon="6.13697">
        <ele>558</ele>
        <time>2025-02-09T08:12:24Z</time>
      </trkpt>
      <trkpt lat="43.7337" lon="6.13704">
        <ele>558.9</ele>
        <time>2025-02-09T08:12:37Z</time>
      </trkpt>
      <trkpt lat="43.73379" lon="6.13707">
        <ele>560.2</ele>
        <time>2025-02-09T08:12:51Z</time>
      </trkpt>
      <trkpt lat="43.73382" lon="6.13706">
        <ele>560.3</ele>
        <time>2025-02-09T08:12:56Z</time>
      </trkpt>
      <trkpt lat="43.73383" lon="6.13706">
        <ele>560.2</ele>
        <time>2025-02-09T08:12:57Z</time>
      </trkpt>
      <trkpt lat="43.73386" lon="6.137">
        <ele>562</ele>
        <time>2025-02-09T08:13:03Z</time>
      </trkpt>
      <trkpt lat="43.73387" lon="6.13701">
        <ele>562.3</ele>
        <time>2025-02-09T08:13:04Z</time>
      </trkpt>
      <trkpt lat="43.73386" lon="6.13703">
        <ele>562.8</ele>
        <time>2025-02-09T08:13:19Z</time>
      </trkpt>
      <trkpt lat="43.73385" lon="6.13704">
        <ele>562.6</ele>
        <time>2025-02-09T08:13:20Z</time>
      </trkpt>
      <trkpt lat="43.73389" lon="6.13705">
        <ele>565.7</ele>
        <time>2025-02-09T08:13:38Z</time>
      </trkpt>
      <trkpt lat="43.73389" lon="6.13704">
        <ele>566</ele>
        <time>2025-02-09T08:13:40Z</time>
      </trkpt>
      <trkpt lat="43.73389" lon="6.13704">
        <ele>566.1</ele>
        <time>2025-02-09T08:13:41Z</time>
      </trkpt>
      <trkpt lat="43.73389" lon="6.13705">
        <ele>566.2</ele>
        <time>2025-02-09T08:13:42Z</time>
      </trkpt>
      <trkpt lat="43.73393" lon="6.13706">
        <ele>567.4</ele>
        <time>2025-02-09T08:13:51Z</time>
      </trkpt>
      <trkpt lat="43.73394" lon="6.13706">
        <ele>567.4</ele>
        <time>2025-02-09T08:13:52Z</time>
      </trkpt>
      <trkpt lat="43.73403" lon="6.13709">
        <ele>569.6</ele>
        <time>2025-02-09T08:14:08Z</time>
      </trkpt>
      <trkpt lat="43.73411" lon="6.13715">
        <ele>572.7</ele>
        <time>2025-02-09T08:14:27Z</time>
      </trkpt>
      <trkpt lat="43.7342" lon="6.13721">
        <ele>573.4</ele>
        <time>2025-02-09T08:14:41Z</time>
      </trkpt>
      <trkpt lat="43.73422" lon="6.13729">
        <ele>574</ele>
        <time>2025-02-09T08:14:55Z</time>
      </trkpt>
      <trkpt lat="43.73422" lon="6.1373">
        <ele>573.9</ele>
        <time>2025-02-09T08:14:56Z</time>
      </trkpt>
      <trkpt lat="43.73417" lon="6.13733">
        <ele>575.5</ele>
        <time>2025-02-09T08:15:05Z</time>
      </trkpt>
      <trkpt lat="43.73417" lon="6.13733">
        <ele>575.6</ele>
        <time>2025-02-09T08:15:06Z</time>
      </trkpt>
      <trkpt lat="43.7342" lon="6.13738">
        <ele>576.9</ele>
        <time>2025-02-09T08:15:19Z</time>
      </trkpt>
      <trkpt lat="43.7342" lon="6.13739">
        <ele>577</ele>
        <time>2025-02-09T08:15:20Z</time>
      </trkpt>
      <trkpt lat="43.7342" lon="6.13739">
        <ele>577.7</ele>
        <time>2025-02-09T08:15:23Z</time>
      </trkpt>
      <trkpt lat="43.7342" lon="6.13739">
        <ele>577.7</ele>
        <time>2025-02-09T08:15:24Z</time>
      </trkpt>
      <trkpt lat="43.7342" lon="6.13739">
        <ele>577.7</ele>
        <time>2025-02-09T08:15:25Z</time>
      </trkpt>
      <trkpt lat="43.7342" lon="6.13739">
        <ele>577.6</ele>
        <time>2025-02-09T08:15:26Z</time>
      </trkpt>
      <trkpt lat="43.73422" lon="6.13737">
        <ele>577.4</ele>
        <time>2025-02-09T08:15:34Z</time>
      </trkpt>
      <trkpt lat="43.73423" lon="6.13737">
        <ele>577.5</ele>
        <time>2025-02-09T08:15:35Z</time>
      </trkpt>
      <trkpt lat="43.73422" lon="6.13738">
        <ele>578.1</ele>
        <time>2025-02-09T08:15:39Z</time>
      </trkpt>
      <trkpt lat="43.73422" lon="6.13738">
        <ele>578.2</ele>
        <time>2025-02-09T08:15:40Z</time>
      </trkpt>
      <trkpt lat="43.7342" lon="6.13741">
        <ele>578.9</ele>
        <time>2025-02-09T08:15:50Z</time>
      </trkpt>
      <trkpt lat="43.73419" lon="6.13741">
        <ele>579</ele>
        <time>2025-02-09T08:15:51Z</time>
      </trkpt>
      <trkpt lat="43.73417" lon="6.13741">
        <ele>580</ele>
        <time>2025-02-09T08:16:01Z</time>
      </trkpt>
      <trkpt lat="43.73417" lon="6.13741">
        <ele>580.2</ele>
        <time>2025-02-09T08:16:02Z</time>
      </trkpt>
      <trkpt lat="43.73417" lon="6.13741">
        <ele>580.3</ele>
        <time>2025-02-09T08:16:03Z</time>
      </trkpt>
      <trkpt lat="43.73417" lon="6.13741">
        <ele>580.4</ele>
        <time>2025-02-09T08:16:04Z</time>
      </trkpt>
      <trkpt lat="43.73421" lon="6.13742">
        <ele>581.2</ele>
        <time>2025-02-09T08:16:22Z</time>
      </trkpt>
      <trkpt lat="43.73421" lon="6.13741">
        <ele>581.2</ele>
        <time>2025-02-09T08:16:23Z</time>
      </trkpt>
      <trkpt lat="43.73419" lon="6.13746">
        <ele>581.8</ele>
        <time>2025-02-09T08:16:34Z</time>
      </trkpt>
      <trkpt lat="43.73419" lon="6.13746">
        <ele>581.8</ele>
        <time>2025-02-09T08:16:35Z</time>
      </trkpt>
      <trkpt lat="43.73419" lon="6.13746">
        <ele>582.1</ele>
        <time>2025-02-09T08:16:46Z</time>
      </trkpt>
      <trkpt lat="43.73418" lon="6.13746">
        <ele>582.1</ele>
        <time>2025-02-09T08:16:52Z</time>
      </trkpt>
      <trkpt lat="43.73416" lon="6.13741">
        <ele>582</ele>
        <time>2025-02-09T08:17:03Z</time>
      </trkpt>
      <trkpt lat="43.73416" lon="6.13742">
        <ele>582</ele>
        <time>2025-02-09T08:17:04Z</time>
      </trkpt>
      <trkpt lat="43.73414" lon="6.13744">
        <ele>582.6</ele>
        <time>2025-02-09T08:17:21Z</time>
      </trkpt>
      <trkpt lat="43.73414" lon="6.13745">
        <ele>582.7</ele>
        <time>2025-02-09T08:17:22Z</time>
      </trkpt>
      <trkpt lat="43.73415" lon="6.13746">
        <ele>582.9</ele>
        <time>2025-02-09T08:17:25Z</time>
      </trkpt>
      <trkpt lat="43.73414" lon="6.13745">
        <ele>583</ele>
        <time>2025-02-09T08:17:26Z</time>
      </trkpt>
      <trkpt lat="43.73414" lon="6.13745">
        <ele>583.1</ele>
        <time>2025-02-09T08:17:27Z</time>
      </trkpt>
      <trkpt lat="43.73414" lon="6.13744">
        <ele>583.2</ele>
        <time>2025-02-09T08:17:28Z</time>
      </trkpt>
      <trkpt lat="43.73415" lon="6.13743">
        <ele>583.7</ele>
        <time>2025-02-09T08:17:37Z</time>
      </trkpt>
      <trkpt lat="43.73415" lon="6.13743">
        <ele>583.6</ele>
        <time>2025-02-09T08:17:38Z</time>
      </trkpt>
      <trkpt lat="43.73409" lon="6.13745">
        <ele>584.6</ele>
        <time>2025-02-09T08:17:50Z</time>
      </trkpt>
      <trkpt lat="43.7341" lon="6.13745">
        <ele>584.6</ele>
        <time>2025-02-09T08:17:51Z</time>
      </trkpt>
      <trkpt lat="43.7341" lon="6.13745">
        <ele>584.7</ele>
        <time>2025-02-09T08:17:52Z</time>
      </trkpt>
      <trkpt lat="43.7341" lon="6.13745">
        <ele>584.6</ele>
        <time>2025-02-09T08:17:53Z</time>
      </trkpt>
      <trkpt lat="43.7341" lon="6.13745">
        <ele>584.6</ele>
        <time>2025-02-09T08:17:54Z</time>
      </trkpt>
      <trkpt lat="43.73409" lon="6.13745">
        <ele>584.6</ele>
        <time>2025-02-09T08:17:55Z</time>
      </trkpt>
      <trkpt lat="43.73411" lon="6.13742">
        <ele>584.1</ele>
        <time>2025-02-09T08:18:01Z</time>
      </trkpt>
      <trkpt lat="43.7341" lon="6.13742">
        <ele>584</ele>
        <time>2025-02-09T08:18:02Z</time>
      </trkpt>
      <trkpt lat="43.73406" lon="6.13753">
        <ele>584.4</ele>
        <time>2025-02-09T08:18:30Z</time>
      </trkpt>
      <trkpt lat="43.73407" lon="6.13766">
        <ele>583.7</ele>
        <time>2025-02-09T08:18:42Z</time>
      </trkpt>
      <trkpt lat="43.73411" lon="6.13778">
        <ele>583.3</ele>
        <time>2025-02-09T08:18:53Z</time>
      </trkpt>
      <trkpt lat="43.73408" lon="6.13791">
        <ele>583.5</ele>
        <time>2025-02-09T08:19:02Z</time>
      </trkpt>
      <trkpt lat="43.7341" lon="6.13804">
        <ele>584.1</ele>
        <time>2025-02-09T08:19:10Z</time>
      </trkpt>
      <trkpt lat="43.73407" lon="6.13816">
        <ele>585.1</ele>
        <time>2025-02-09T08:19:20Z</time>
      </trkpt>
      <trkpt lat="43.73414" lon="6.13826">
        <ele>584.9</ele>
        <time>2025-02-09T08:19:29Z</time>
      </trkpt>
      <trkpt lat="43.73416" lon="6.13838">
        <ele>585.8</ele>
        <time>2025-02-09T08:19:40Z</time>
      </trkpt>
      <trkpt lat="43.73423" lon="6.13847">
        <ele>585.7</ele>
        <time>2025-02-09T08:19:50Z</time>
      </trkpt>
      <trkpt lat="43.73414" lon="6.13854">
        <ele>585.7</ele>
        <time>2025-02-09T08:20:05Z</time>
      </trkpt>
      <trkpt lat="43.73408" lon="6.13862">
        <ele>585.8</ele>
        <time>2025-02-09T08:20:15Z</time>
      </trkpt>
      <trkpt lat="43.73399" lon="6.13866">
        <ele>587.1</ele>
        <time>2025-02-09T08:20:33Z</time>
      </trkpt>
      <trkpt lat="43.7339" lon="6.13868">
        <ele>587.7</ele>
        <time>2025-02-09T08:20:44Z</time>
      </trkpt>
      <trkpt lat="43.73381" lon="6.13873">
        <ele>589.1</ele>
        <time>2025-02-09T08:20:56Z</time>
      </trkpt>
      <trkpt lat="43.73379" lon="6.13875">
        <ele>589.8</ele>
        <time>2025-02-09T08:21:01Z</time>
      </trkpt>
      <trkpt lat="43.73379" lon="6.13875">
        <ele>589.9</ele>
        <time>2025-02-09T08:21:02Z</time>
      </trkpt>
      <trkpt lat="43.73371" lon="6.13881">
        <ele>592.2</ele>
        <time>2025-02-09T08:21:13Z</time>
      </trkpt>
      <trkpt lat="43.73364" lon="6.1389">
        <ele>593.2</ele>
        <time>2025-02-09T08:21:25Z</time>
      </trkpt>
      <trkpt lat="43.73355" lon="6.13886">
        <ele>596.3</ele>
        <time>2025-02-09T08:21:47Z</time>
      </trkpt>
      <trkpt lat="43.73345" lon="6.13887">
        <ele>596.9</ele>
        <time>2025-02-09T08:21:59Z</time>
      </trkpt>
      <trkpt lat="43.73345" lon="6.13889">
        <ele>597.6</ele>
        <time>2025-02-09T08:22:03Z</time>
      </trkpt>
      <trkpt lat="43.73345" lon="6.13889">
        <ele>597.7</ele>
        <time>2025-02-09T08:22:04Z</time>
      </trkpt>
      <trkpt lat="43.73343" lon="6.13888">
        <ele>597.6</ele>
        <time>2025-02-09T08:22:07Z</time>
      </trkpt>
      <trkpt lat="43.73344" lon="6.13888">
        <ele>597.8</ele>
        <time>2025-02-09T08:22:09Z</time>
      </trkpt>
      <trkpt lat="43.73347" lon="6.13892">
        <ele>599</ele>
        <time>2025-02-09T08:22:23Z</time>
      </trkpt>
      <trkpt lat="43.73347" lon="6.13892">
        <ele>599</ele>
        <time>2025-02-09T08:22:24Z</time>
      </trkpt>
      <trkpt lat="43.73345" lon="6.13893">
        <ele>599.5</ele>
        <time>2025-02-09T08:22:34Z</time>
      </trkpt>
      <trkpt lat="43.73345" lon="6.13893">
        <ele>599.4</ele>
        <time>2025-02-09T08:22:35Z</time>
      </trkpt>
      <trkpt lat="43.73339" lon="6.13896">
        <ele>600.8</ele>
        <time>2025-02-09T08:22:53Z</time>
      </trkpt>
      <trkpt lat="43.73339" lon="6.13896">
        <ele>601</ele>
        <time>2025-02-09T08:22:54Z</time>
      </trkpt>
      <trkpt lat="43.73339" lon="6.13896">
        <ele>601.2</ele>
        <time>2025-02-09T08:23:00Z</time>
      </trkpt>
      <trkpt lat="43.73339" lon="6.13896">
        <ele>601.1</ele>
        <time>2025-02-09T08:23:02Z</time>
      </trkpt>
      <trkpt lat="43.73339" lon="6.13896">
        <ele>601</ele>
        <time>2025-02-09T08:23:03Z</time>
      </trkpt>
      <trkpt lat="43.73339" lon="6.13895">
        <ele>601</ele>
        <time>2025-02-09T08:23:04Z</time>
      </trkpt>
      <trkpt lat="43.73331" lon="6.13887">
        <ele>601.1</ele>
        <time>2025-02-09T08:23:18Z</time>
      </trkpt>
      <trkpt lat="43.73321" lon="6.13883">
        <ele>601.2</ele>
        <time>2025-02-09T08:23:29Z</time>
      </trkpt>
      <trkpt lat="43.73312" lon="6.13879">
        <ele>601.1</ele>
        <time>2025-02-09T08:23:41Z</time>
      </trkpt>
      <trkpt lat="43.73303" lon="6.13878">
        <ele>601.2</ele>
        <time>2025-02-09T08:23:49Z</time>
      </trkpt>
      <trkpt lat="43.73293" lon="6.13876">
        <ele>601.9</ele>
        <time>2025-02-09T08:23:58Z</time>
      </trkpt>
      <trkpt lat="43.73284" lon="6.13874">
        <ele>602</ele>
        <time>2025-02-09T08:24:11Z</time>
      </trkpt>
      <trkpt lat="43.73275" lon="6.13877">
        <ele>602.9</ele>
        <time>2025-02-09T08:24:20Z</time>
      </trkpt>
      <trkpt lat="43.73266" lon="6.13878">
        <ele>603.9</ele>
        <time>2025-02-09T08:24:30Z</time>
      </trkpt>
      <trkpt lat="43.73257" lon="6.13881">
        <ele>604.4</ele>
        <time>2025-02-09T08:24:39Z</time>
      </trkpt>
      <trkpt lat="43.7325" lon="6.13888">
        <ele>605.6</ele>
        <time>2025-02-09T08:24:48Z</time>
      </trkpt>
      <trkpt lat="43.7324" lon="6.13891">
        <ele>606.6</ele>
        <time>2025-02-09T08:24:57Z</time>
      </trkpt>
      <trkpt lat="43.73233" lon="6.13899">
        <ele>607.9</ele>
        <time>2025-02-09T08:25:06Z</time>
      </trkpt>
      <trkpt lat="43.73225" lon="6.13906">
        <ele>609.4</ele>
        <time>2025-02-09T08:25:18Z</time>
      </trkpt>
      <trkpt lat="43.73216" lon="6.13911">
        <ele>610.1</ele>
        <time>2025-02-09T08:25:27Z</time>
      </trkpt>
      <trkpt lat="43.73208" lon="6.13917">
        <ele>610.7</ele>
        <time>2025-02-09T08:25:35Z</time>
      </trkpt>
      <trkpt lat="43.73199" lon="6.13918">
        <ele>612.6</ele>
        <time>2025-02-09T08:25:49Z</time>
      </trkpt>
      <trkpt lat="43.73192" lon="6.13926">
        <ele>613.6</ele>
        <time>2025-02-09T08:25:57Z</time>
      </trkpt>
      <trkpt lat="43.73183" lon="6.1393">
        <ele>614.3</ele>
        <time>2025-02-09T08:26:08Z</time>
      </trkpt>
      <trkpt lat="43.73174" lon="6.13928">
        <ele>615.1</ele>
        <time>2025-02-09T08:26:16Z</time>
      </trkpt>
      <trkpt lat="43.73164" lon="6.13926">
        <ele>615.6</ele>
        <time>2025-02-09T08:26:27Z</time>
      </trkpt>
      <trkpt lat="43.73157" lon="6.1393">
        <ele>616.7</ele>
        <time>2025-02-09T08:26:42Z</time>
      </trkpt>
      <trkpt lat="43.73156" lon="6.1393">
        <ele>616.8</ele>
        <time>2025-02-09T08:26:43Z</time>
      </trkpt>
      <trkpt lat="43.73157" lon="6.1393">
        <ele>616.8</ele>
        <time>2025-02-09T08:26:45Z</time>
      </trkpt>
      <trkpt lat="43.73156" lon="6.13931">
        <ele>616.6</ele>
        <time>2025-02-09T08:26:47Z</time>
      </trkpt>
      <trkpt lat="43.73159" lon="6.13931">
        <ele>617.3</ele>
        <time>2025-02-09T08:26:58Z</time>
      </trkpt>
      <trkpt lat="43.73159" lon="6.13932">
        <ele>617.3</ele>
        <time>2025-02-09T08:26:59Z</time>
      </trkpt>
      <trkpt lat="43.7316" lon="6.13932">
        <ele>617.4</ele>
        <time>2025-02-09T08:27:01Z</time>
      </trkpt>
      <trkpt lat="43.7316" lon="6.13932">
        <ele>617.6</ele>
        <time>2025-02-09T08:27:26Z</time>
      </trkpt>
      <trkpt lat="43.7316" lon="6.13932">
        <ele>617.7</ele>
        <time>2025-02-09T08:27:27Z</time>
      </trkpt>
      <trkpt lat="43.7316" lon="6.13932">
        <ele>617.9</ele>
        <time>2025-02-09T08:27:28Z</time>
      </trkpt>
      <trkpt lat="43.7316" lon="6.13932">
        <ele>618.3</ele>
        <time>2025-02-09T08:27:30Z</time>
      </trkpt>
      <trkpt lat="43.7316" lon="6.13932">
        <ele>618.4</ele>
        <time>2025-02-09T08:27:31Z</time>
      </trkpt>
      <trkpt lat="43.7316" lon="6.13933">
        <ele>618.7</ele>
        <time>2025-02-09T08:27:34Z</time>
      </trkpt>
      <trkpt lat="43.7316" lon="6.13933">
        <ele>618.7</ele>
        <time>2025-02-09T08:27:35Z</time>
      </trkpt>
      <trkpt lat="43.7316" lon="6.13933">
        <ele>618.7</ele>
        <time>2025-02-09T08:27:37Z</time>
      </trkpt>
      <trkpt lat="43.7316" lon="6.13933">
        <ele>618.6</ele>
        <time>2025-02-09T08:27:39Z</time>
      </trkpt>
      <trkpt lat="43.73155" lon="6.13936">
        <ele>618.8</ele>
        <time>2025-02-09T08:27:51Z</time>
      </trkpt>
      <trkpt lat="43.73155" lon="6.13937">
        <ele>618.9</ele>
        <time>2025-02-09T08:27:53Z</time>
      </trkpt>
      <trkpt lat="43.73154" lon="6.13937">
        <ele>618.7</ele>
        <time>2025-02-09T08:28:01Z</time>
      </trkpt>
      <trkpt lat="43.73154" lon="6.13937">
        <ele>618.8</ele>
        <time>2025-02-09T08:28:02Z</time>
      </trkpt>
      <trkpt lat="43.73156" lon="6.13932">
        <ele>617.3</ele>
        <time>2025-02-09T08:28:20Z</time>
      </trkpt>
      <trkpt lat="43.73156" lon="6.13932">
        <ele>617.3</ele>
        <time>2025-02-09T08:28:21Z</time>
      </trkpt>
      <trkpt lat="43.73158" lon="6.13933">
        <ele>619.1</ele>
        <time>2025-02-09T08:28:59Z</time>
      </trkpt>
      <trkpt lat="43.73158" lon="6.13933">
        <ele>619.2</ele>
        <time>2025-02-09T08:29:00Z</time>
      </trkpt>
      <trkpt lat="43.73157" lon="6.13937">
        <ele>621.2</ele>
        <time>2025-02-09T08:29:13Z</time>
      </trkpt>
      <trkpt lat="43.73156" lon="6.13936">
        <ele>621.3</ele>
        <time>2025-02-09T08:29:14Z</time>
      </trkpt>
      <trkpt lat="43.73157" lon="6.13935">
        <ele>621.9</ele>
        <time>2025-02-09T08:29:34Z</time>
      </trkpt>
      <trkpt lat="43.73158" lon="6.13936">
        <ele>622</ele>
        <time>2025-02-09T08:29:35Z</time>
      </trkpt>
      <trkpt lat="43.73158" lon="6.13936">
        <ele>622.2</ele>
        <time>2025-02-09T08:29:37Z</time>
      </trkpt>
      <trkpt lat="43.73158" lon="6.13937">
        <ele>622.3</ele>
        <time>2025-02-09T08:29:38Z</time>
      </trkpt>
      <trkpt lat="43.73159" lon="6.13934">
        <ele>622.8</ele>
        <time>2025-02-09T08:29:48Z</time>
      </trkpt>
      <trkpt lat="43.73159" lon="6.13934">
        <ele>622.8</ele>
        <time>2025-02-09T08:29:49Z</time>
      </trkpt>
      <trkpt lat="43.73151" lon="6.13927">
        <ele>626.1</ele>
        <time>2025-02-09T08:30:44Z</time>
      </trkpt>
      <trkpt lat="43.7315" lon="6.13927">
        <ele>626.2</ele>
        <time>2025-02-09T08:30:47Z</time>
      </trkpt>
      <trkpt lat="43.7315" lon="6.13926">
        <ele>626.4</ele>
        <time>2025-02-09T08:30:49Z</time>
      </trkpt>
      <trkpt lat="43.73149" lon="6.13925">
        <ele>626.6</ele>
        <time>2025-02-09T08:30:54Z</time>
      </trkpt>
      <trkpt lat="43.73149" lon="6.13925">
        <ele>626.5</ele>
        <time>2025-02-09T08:30:55Z</time>
      </trkpt>
      <trkpt lat="43.73148" lon="6.13925">
        <ele>626.6</ele>
        <time>2025-02-09T08:30:58Z</time>
      </trkpt>
      <trkpt lat="43.73148" lon="6.13925">
        <ele>626.6</ele>
        <time>2025-02-09T08:30:59Z</time>
      </trkpt>
      <trkpt lat="43.73148" lon="6.13926">
        <ele>626.7</ele>
        <time>2025-02-09T08:31:01Z</time>
      </trkpt>
      <trkpt lat="43.73148" lon="6.13926">
        <ele>626.7</ele>
        <time>2025-02-09T08:31:02Z</time>
      </trkpt>
      <trkpt lat="43.73152" lon="6.13927">
        <ele>626.8</ele>
        <time>2025-02-09T08:31:24Z</time>
      </trkpt>
      <trkpt lat="43.73152" lon="6.13927">
        <ele>626.8</ele>
        <time>2025-02-09T08:31:25Z</time>
      </trkpt>
      <trkpt lat="43.73143" lon="6.13928">
        <ele>627</ele>
        <time>2025-02-09T08:31:38Z</time>
      </trkpt>
      <trkpt lat="43.73134" lon="6.13928">
        <ele>627.5</ele>
        <time>2025-02-09T08:31:52Z</time>
      </trkpt>
      <trkpt lat="43.73125" lon="6.13932">
        <ele>628</ele>
        <time>2025-02-09T08:32:08Z</time>
      </trkpt>
      <trkpt lat="43.73115" lon="6.13931">
        <ele>628.8</ele>
        <time>2025-02-09T08:32:16Z</time>
      </trkpt>
      <trkpt lat="43.73106" lon="6.1393">
        <ele>628.9</ele>
        <time>2025-02-09T08:32:25Z</time>
      </trkpt>
      <trkpt lat="43.73097" lon="6.13929">
        <ele>628.4</ele>
        <time>2025-02-09T08:32:38Z</time>
      </trkpt>
      <trkpt lat="43.73097" lon="6.13929">
        <ele>628.3</ele>
        <time>2025-02-09T08:32:39Z</time>
      </trkpt>
      <trkpt lat="43.73087" lon="6.13929">
        <ele>628.1</ele>
        <time>2025-02-09T08:32:49Z</time>
      </trkpt>
      <trkpt lat="43.73079" lon="6.13923">
        <ele>627.7</ele>
        <time>2025-02-09T08:32:58Z</time>
      </trkpt>
      <trkpt lat="43.73069" lon="6.13921">
        <ele>627.6</ele>
        <time>2025-02-09T08:33:07Z</time>
      </trkpt>
      <trkpt lat="43.73059" lon="6.13921">
        <ele>628.5</ele>
        <time>2025-02-09T08:33:17Z</time>
      </trkpt>
      <trkpt lat="43.7305" lon="6.13923">
        <ele>628.9</ele>
        <time>2025-02-09T08:33:26Z</time>
      </trkpt>
      <trkpt lat="43.7304" lon="6.13924">
        <ele>630.1</ele>
        <time>2025-02-09T08:33:35Z</time>
      </trkpt>
      <trkpt lat="43.73036" lon="6.13923">
        <ele>631.5</ele>
        <time>2025-02-09T08:33:45Z</time>
      </trkpt>
      <trkpt lat="43.73036" lon="6.13922">
        <ele>631.7</ele>
        <time>2025-02-09T08:33:50Z</time>
      </trkpt>
      <trkpt lat="43.73036" lon="6.13922">
        <ele>631.6</ele>
        <time>2025-02-09T08:33:53Z</time>
      </trkpt>
      <trkpt lat="43.73036" lon="6.13922">
        <ele>631.5</ele>
        <time>2025-02-09T08:33:54Z</time>
      </trkpt>
      <trkpt lat="43.73026" lon="6.13924">
        <ele>632.3</ele>
        <time>2025-02-09T08:34:03Z</time>
      </trkpt>
      <trkpt lat="43.73016" lon="6.13922">
        <ele>631.9</ele>
        <time>2025-02-09T08:34:12Z</time>
      </trkpt>
      <trkpt lat="43.73007" lon="6.13919">
        <ele>631.5</ele>
        <time>2025-02-09T08:34:21Z</time>
      </trkpt>
      <trkpt lat="43.72998" lon="6.13918">
        <ele>632.2</ele>
        <time>2025-02-09T08:34:30Z</time>
      </trkpt>
      <trkpt lat="43.72988" lon="6.13918">
        <ele>632.9</ele>
        <time>2025-02-09T08:34:38Z</time>
      </trkpt>
      <trkpt lat="43.72979" lon="6.13917">
        <ele>633.5</ele>
        <time>2025-02-09T08:34:46Z</time>
      </trkpt>
      <trkpt lat="43.7297" lon="6.13916">
        <ele>633.7</ele>
        <time>2025-02-09T08:34:53Z</time>
      </trkpt>
      <trkpt lat="43.7296" lon="6.13914">
        <ele>634.2</ele>
        <time>2025-02-09T08:35:02Z</time>
      </trkpt>
      <trkpt lat="43.7295" lon="6.13913">
        <ele>634.8</ele>
        <time>2025-02-09T08:35:12Z</time>
      </trkpt>
      <trkpt lat="43.72941" lon="6.13912">
        <ele>635.6</ele>
        <time>2025-02-09T08:35:22Z</time>
      </trkpt>
      <trkpt lat="43.72931" lon="6.13909">
        <ele>636.7</ele>
        <time>2025-02-09T08:35:31Z</time>
      </trkpt>
      <trkpt lat="43.72923" lon="6.13902">
        <ele>638.4</ele>
        <time>2025-02-09T08:35:41Z</time>
      </trkpt>
      <trkpt lat="43.72926" lon="6.13889">
        <ele>639.9</ele>
        <time>2025-02-09T08:35:49Z</time>
      </trkpt>
      <trkpt lat="43.72927" lon="6.13875">
        <ele>642</ele>
        <time>2025-02-09T08:35:59Z</time>
      </trkpt>
      <trkpt lat="43.72924" lon="6.13863">
        <ele>642.4</ele>
        <time>2025-02-09T08:36:08Z</time>
      </trkpt>
      <trkpt lat="43.72918" lon="6.13853">
        <ele>643.3</ele>
        <time>2025-02-09T08:36:17Z</time>
      </trkpt>
      <trkpt lat="43.72911" lon="6.13844">
        <ele>644.4</ele>
        <time>2025-02-09T08:36:27Z</time>
      </trkpt>
      <trkpt lat="43.72903" lon="6.13838">
        <ele>646.1</ele>
        <time>2025-02-09T08:36:41Z</time>
      </trkpt>
      <trkpt lat="43.72893" lon="6.13836">
        <ele>647.3</ele>
        <time>2025-02-09T08:36:49Z</time>
      </trkpt>
      <trkpt lat="43.72884" lon="6.13837">
        <ele>648.7</ele>
        <time>2025-02-09T08:36:58Z</time>
      </trkpt>
      <trkpt lat="43.72875" lon="6.1384">
        <ele>650.5</ele>
        <time>2025-02-09T08:37:07Z</time>
      </trkpt>
      <trkpt lat="43.72866" lon="6.13844">
        <ele>652.3</ele>
        <time>2025-02-09T08:37:17Z</time>
      </trkpt>
      <trkpt lat="43.72856" lon="6.13844">
        <ele>653.5</ele>
        <time>2025-02-09T08:37:28Z</time>
      </trkpt>
      <trkpt lat="43.72847" lon="6.13839">
        <ele>653.9</ele>
        <time>2025-02-09T08:37:41Z</time>
      </trkpt>
      <trkpt lat="43.72844" lon="6.13827">
        <ele>655.2</ele>
        <time>2025-02-09T08:37:50Z</time>
      </trkpt>
      <trkpt lat="43.72848" lon="6.13814">
        <ele>656.2</ele>
        <time>2025-02-09T08:38:00Z</time>
      </trkpt>
      <trkpt lat="43.7285" lon="6.13801">
        <ele>657.6</ele>
        <time>2025-02-09T08:38:08Z</time>
      </trkpt>
      <trkpt lat="43.72848" lon="6.13788">
        <ele>658.5</ele>
        <time>2025-02-09T08:38:17Z</time>
      </trkpt>
      <trkpt lat="43.72839" lon="6.13784">
        <ele>659.5</ele>
        <time>2025-02-09T08:38:24Z</time>
      </trkpt>
      <trkpt lat="43.7283" lon="6.1378">
        <ele>660.1</ele>
        <time>2025-02-09T08:38:33Z</time>
      </trkpt>
      <trkpt lat="43.72821" lon="6.13781">
        <ele>661.7</ele>
        <time>2025-02-09T08:38:41Z</time>
      </trkpt>
      <trkpt lat="43.72811" lon="6.13782">
        <ele>663</ele>
        <time>2025-02-09T08:38:50Z</time>
      </trkpt>
      <trkpt lat="43.72802" lon="6.13782">
        <ele>665.5</ele>
        <time>2025-02-09T08:39:00Z</time>
      </trkpt>
      <trkpt lat="43.72792" lon="6.13783">
        <ele>665.9</ele>
        <time>2025-02-09T08:39:07Z</time>
      </trkpt>
      <trkpt lat="43.72783" lon="6.13784">
        <ele>666.1</ele>
        <time>2025-02-09T08:39:14Z</time>
      </trkpt>
      <trkpt lat="43.72773" lon="6.13784">
        <ele>666.6</ele>
        <time>2025-02-09T08:39:25Z</time>
      </trkpt>
      <trkpt lat="43.72763" lon="6.13784">
        <ele>667.8</ele>
        <time>2025-02-09T08:39:36Z</time>
      </trkpt>
      <trkpt lat="43.72754" lon="6.13788">
        <ele>668.1</ele>
        <time>2025-02-09T08:39:46Z</time>
      </trkpt>
      <trkpt lat="43.72744" lon="6.13791">
        <ele>668.9</ele>
        <time>2025-02-09T08:39:55Z</time>
      </trkpt>
      <trkpt lat="43.72735" lon="6.13791">
        <ele>669.9</ele>
        <time>2025-02-09T08:40:04Z</time>
      </trkpt>
      <trkpt lat="43.72725" lon="6.13794">
        <ele>671.8</ele>
        <time>2025-02-09T08:40:17Z</time>
      </trkpt>
      <trkpt lat="43.72716" lon="6.13794">
        <ele>672.8</ele>
        <time>2025-02-09T08:40:26Z</time>
      </trkpt>
      <trkpt lat="43.72706" lon="6.13794">
        <ele>673.2</ele>
        <time>2025-02-09T08:40:34Z</time>
      </trkpt>
      <trkpt lat="43.72697" lon="6.13794">
        <ele>673.9</ele>
        <time>2025-02-09T08:40:43Z</time>
      </trkpt>
      <trkpt lat="43.72687" lon="6.13793">
        <ele>674.6</ele>
        <time>2025-02-09T08:40:52Z</time>
      </trkpt>
      <trkpt lat="43.72677" lon="6.13792">
        <ele>675.8</ele>
        <time>2025-02-09T08:41:02Z</time>
      </trkpt>
      <trkpt lat="43.72668" lon="6.13792">
        <ele>677.7</ele>
        <time>2025-02-09T08:41:11Z</time>
      </trkpt>
      <trkpt lat="43.72659" lon="6.13792">
        <ele>679.1</ele>
        <time>2025-02-09T08:41:20Z</time>
      </trkpt>
      <trkpt lat="43.72649" lon="6.13792">
        <ele>680.4</ele>
        <time>2025-02-09T08:41:31Z</time>
      </trkpt>
      <trkpt lat="43.72641" lon="6.13794">
        <ele>682.2</ele>
        <time>2025-02-09T08:41:44Z</time>
      </trkpt>
      <trkpt lat="43.72632" lon="6.13798">
        <ele>682.7</ele>
        <time>2025-02-09T08:41:52Z</time>
      </trkpt>
      <trkpt lat="43.72622" lon="6.13799">
        <ele>683.7</ele>
        <time>2025-02-09T08:42:02Z</time>
      </trkpt>
      <trkpt lat="43.72613" lon="6.13798">
        <ele>684.7</ele>
        <time>2025-02-09T08:42:10Z</time>
      </trkpt>
      <trkpt lat="43.72604" lon="6.13797">
        <ele>686.4</ele>
        <time>2025-02-09T08:42:20Z</time>
      </trkpt>
      <trkpt lat="43.72595" lon="6.13798">
        <ele>686.9</ele>
        <time>2025-02-09T08:42:29Z</time>
      </trkpt>
      <trkpt lat="43.72585" lon="6.138">
        <ele>688.4</ele>
        <time>2025-02-09T08:42:39Z</time>
      </trkpt>
      <trkpt lat="43.72575" lon="6.13803">
        <ele>689.2</ele>
        <time>2025-02-09T08:42:48Z</time>
      </trkpt>
      <trkpt lat="43.72566" lon="6.13804">
        <ele>690.9</ele>
        <time>2025-02-09T08:42:59Z</time>
      </trkpt>
      <trkpt lat="43.72557" lon="6.13807">
        <ele>692.9</ele>
        <time>2025-02-09T08:43:07Z</time>
      </trkpt>
      <trkpt lat="43.72548" lon="6.13812">
        <ele>693.5</ele>
        <time>2025-02-09T08:43:17Z</time>
      </trkpt>
      <trkpt lat="43.72538" lon="6.13816">
        <ele>693.2</ele>
        <time>2025-02-09T08:43:26Z</time>
      </trkpt>
      <trkpt lat="43.72529" lon="6.13816">
        <ele>693.3</ele>
        <time>2025-02-09T08:43:34Z</time>
      </trkpt>
      <trkpt lat="43.7252" lon="6.13815">
        <ele>693.5</ele>
        <time>2025-02-09T08:43:44Z</time>
      </trkpt>
      <trkpt lat="43.7251" lon="6.13814">
        <ele>693.9</ele>
        <time>2025-02-09T08:43:52Z</time>
      </trkpt>
      <trkpt lat="43.725" lon="6.13812">
        <ele>694.4</ele>
        <time>2025-02-09T08:44:00Z</time>
      </trkpt>
      <trkpt lat="43.72491" lon="6.13811">
        <ele>695</ele>
        <time>2025-02-09T08:44:08Z</time>
      </trkpt>
      <trkpt lat="43.72482" lon="6.13809">
        <ele>695.3</ele>
        <time>2025-02-09T08:44:16Z</time>
      </trkpt>
      <trkpt lat="43.72473" lon="6.13805">
        <ele>696.1</ele>
        <time>2025-02-09T08:44:26Z</time>
      </trkpt>
      <trkpt lat="43.72464" lon="6.13801">
        <ele>697.2</ele>
        <time>2025-02-09T08:44:35Z</time>
      </trkpt>
      <trkpt lat="43.72455" lon="6.13805">
        <ele>697.8</ele>
        <time>2025-02-09T08:44:46Z</time>
      </trkpt>
      <trkpt lat="43.72447" lon="6.13813">
        <ele>698</ele>
        <time>2025-02-09T08:44:56Z</time>
      </trkpt>
      <trkpt lat="43.72442" lon="6.1382">
        <ele>698.8</ele>
        <time>2025-02-09T08:45:12Z</time>
      </trkpt>
      <trkpt lat="43.72442" lon="6.1382">
        <ele>698.7</ele>
        <time>2025-02-09T08:45:17Z</time>
      </trkpt>
      <trkpt lat="43.72442" lon="6.13817">
        <ele>698.9</ele>
        <time>2025-02-09T08:45:29Z</time>
      </trkpt>
      <trkpt lat="43.72441" lon="6.13817">
        <ele>698.8</ele>
        <time>2025-02-09T08:45:32Z</time>
      </trkpt>
      <trkpt lat="43.72442" lon="6.13818">
        <ele>698.6</ele>
        <time>2025-02-09T08:45:38Z</time>
      </trkpt>
      <trkpt lat="43.72442" lon="6.13818">
        <ele>698.6</ele>
        <time>2025-02-09T08:45:39Z</time>
      </trkpt>
      <trkpt lat="43.72445" lon="6.13822">
        <ele>699.6</ele>
        <time>2025-02-09T08:45:52Z</time>
      </trkpt>
      <trkpt lat="43.72445" lon="6.13822">
        <ele>699.6</ele>
        <time>2025-02-09T08:45:53Z</time>
      </trkpt>
      <trkpt lat="43.72445" lon="6.13822">
        <ele>699.6</ele>
        <time>2025-02-09T08:45:54Z</time>
      </trkpt>
      <trkpt lat="43.72446" lon="6.13822">
        <ele>699.4</ele>
        <time>2025-02-09T08:45:55Z</time>
      </trkpt>
      <trkpt lat="43.72436" lon="6.13825">
        <ele>700.2</ele>
        <time>2025-02-09T08:46:17Z</time>
      </trkpt>
      <trkpt lat="43.72427" lon="6.13829">
        <ele>700.9</ele>
        <time>2025-02-09T08:46:29Z</time>
      </trkpt>
      <trkpt lat="43.72421" lon="6.1384">
        <ele>702.4</ele>
        <time>2025-02-09T08:46:39Z</time>
      </trkpt>
      <trkpt lat="43.72416" lon="6.13851">
        <ele>703.3</ele>
        <time>2025-02-09T08:46:49Z</time>
      </trkpt>
      <trkpt lat="43.72411" lon="6.13862">
        <ele>704</ele>
        <time>2025-02-09T08:46:58Z</time>
      </trkpt>
      <trkpt lat="43.72404" lon="6.13872">
        <ele>703.7</ele>
        <time>2025-02-09T08:47:07Z</time>
      </trkpt>
      <trkpt lat="43.72408" lon="6.13879">
        <ele>704.1</ele>
        <time>2025-02-09T08:47:24Z</time>
      </trkpt>
      <trkpt lat="43.72408" lon="6.1388">
        <ele>704.2</ele>
        <time>2025-02-09T08:47:26Z</time>
      </trkpt>
      <trkpt lat="43.72407" lon="6.1388">
        <ele>704.7</ele>
        <time>2025-02-09T08:47:49Z</time>
      </trkpt>
      <trkpt lat="43.72407" lon="6.1388">
        <ele>704.6</ele>
        <time>2025-02-09T08:47:50Z</time>
      </trkpt>
      <trkpt lat="43.72408" lon="6.1388">
        <ele>704.3</ele>
        <time>2025-02-09T08:47:53Z</time>
      </trkpt>
      <trkpt lat="43.72408" lon="6.1388">
        <ele>704.3</ele>
        <time>2025-02-09T08:47:55Z</time>
      </trkpt>
      <trkpt lat="43.72408" lon="6.1388">
        <ele>704.3</ele>
        <time>2025-02-09T08:47:56Z</time>
      </trkpt>
      <trkpt lat="43.72408" lon="6.1388">
        <ele>704.3</ele>
        <time>2025-02-09T08:47:57Z</time>
      </trkpt>
      <trkpt lat="43.72408" lon="6.13879">
        <ele>704</ele>
        <time>2025-02-09T08:48:13Z</time>
      </trkpt>
      <trkpt lat="43.72408" lon="6.13879">
        <ele>703.9</ele>
        <time>2025-02-09T08:48:14Z</time>
      </trkpt>
      <trkpt lat="43.72408" lon="6.13883">
        <ele>704.4</ele>
        <time>2025-02-09T08:48:23Z</time>
      </trkpt>
      <trkpt lat="43.72407" lon="6.13884">
        <ele>704.5</ele>
        <time>2025-02-09T08:48:28Z</time>
      </trkpt>
      <trkpt lat="43.72407" lon="6.13897">
        <ele>705.8</ele>
        <time>2025-02-09T08:48:38Z</time>
      </trkpt>
      <trkpt lat="43.72398" lon="6.13903">
        <ele>707.2</ele>
        <time>2025-02-09T08:48:50Z</time>
      </trkpt>
      <trkpt lat="43.72396" lon="6.13903">
        <ele>707.4</ele>
        <time>2025-02-09T08:48:56Z</time>
      </trkpt>
      <trkpt lat="43.72396" lon="6.13903">
        <ele>707.4</ele>
        <time>2025-02-09T08:48:58Z</time>
      </trkpt>
      <trkpt lat="43.72389" lon="6.13894">
        <ele>707.6</ele>
        <time>2025-02-09T08:49:26Z</time>
      </trkpt>
      <trkpt lat="43.7239" lon="6.1389">
        <ele>707.8</ele>
        <time>2025-02-09T08:49:33Z</time>
      </trkpt>
      <trkpt lat="43.7239" lon="6.1389">
        <ele>707.9</ele>
        <time>2025-02-09T08:49:34Z</time>
      </trkpt>
      <trkpt lat="43.7239" lon="6.1389">
        <ele>707.9</ele>
        <time>2025-02-09T08:49:40Z</time>
      </trkpt>
      <trkpt lat="43.7239" lon="6.1389">
        <ele>708</ele>
        <time>2025-02-09T08:49:41Z</time>
      </trkpt>
      <trkpt lat="43.7239" lon="6.13891">
        <ele>707.5</ele>
        <time>2025-02-09T08:49:44Z</time>
      </trkpt>
      <trkpt lat="43.72389" lon="6.1389">
        <ele>707.4</ele>
        <time>2025-02-09T08:49:45Z</time>
      </trkpt>
      <trkpt lat="43.7239" lon="6.13889">
        <ele>707.7</ele>
        <time>2025-02-09T08:49:51Z</time>
      </trkpt>
      <trkpt lat="43.7239" lon="6.1389">
        <ele>707.8</ele>
        <time>2025-02-09T08:49:52Z</time>
      </trkpt>
      <trkpt lat="43.7239" lon="6.1389">
        <ele>708</ele>
        <time>2025-02-09T08:49:53Z</time>
      </trkpt>
      <trkpt lat="43.7239" lon="6.1389">
        <ele>708</ele>
        <time>2025-02-09T08:49:54Z</time>
      </trkpt>
      <trkpt lat="43.72389" lon="6.13893">
        <ele>708.2</ele>
        <time>2025-02-09T08:50:03Z</time>
      </trkpt>
      <trkpt lat="43.72389" lon="6.13893">
        <ele>708.3</ele>
        <time>2025-02-09T08:50:04Z</time>
      </trkpt>
      <trkpt lat="43.72388" lon="6.13893">
        <ele>708.3</ele>
        <time>2025-02-09T08:50:06Z</time>
      </trkpt>
      <trkpt lat="43.72388" lon="6.13893">
        <ele>708.3</ele>
        <time>2025-02-09T08:50:07Z</time>
      </trkpt>
      <trkpt lat="43.72388" lon="6.13893">
        <ele>708.2</ele>
        <time>2025-02-09T08:50:08Z</time>
      </trkpt>
      <trkpt lat="43.72388" lon="6.13893">
        <ele>708.2</ele>
        <time>2025-02-09T08:50:09Z</time>
      </trkpt>
      <trkpt lat="43.72392" lon="6.13891">
        <ele>708.6</ele>
        <time>2025-02-09T08:50:29Z</time>
      </trkpt>
      <trkpt lat="43.72391" lon="6.13891">
        <ele>708.5</ele>
        <time>2025-02-09T08:50:30Z</time>
      </trkpt>
      <trkpt lat="43.72388" lon="6.13891">
        <ele>708.6</ele>
        <time>2025-02-09T08:50:43Z</time>
      </trkpt>
      <trkpt lat="43.72388" lon="6.13891">
        <ele>708.6</ele>
        <time>2025-02-09T08:50:45Z</time>
      </trkpt>
      <trkpt lat="43.72388" lon="6.13891">
        <ele>708.8</ele>
        <time>2025-02-09T08:50:46Z</time>
      </trkpt>
      <trkpt lat="43.72388" lon="6.13891">
        <ele>708.9</ele>
        <time>2025-02-09T08:50:47Z</time>
      </trkpt>
      <trkpt lat="43.72388" lon="6.1389">
        <ele>708.9</ele>
        <time>2025-02-09T08:50:49Z</time>
      </trkpt>
      <trkpt lat="43.72388" lon="6.1389">
        <ele>708.8</ele>
        <time>2025-02-09T08:50:50Z</time>
      </trkpt>
      <trkpt lat="43.72386" lon="6.13888">
        <ele>711</ele>
        <time>2025-02-09T08:51:21Z</time>
      </trkpt>
      <trkpt lat="43.72386" lon="6.13888">
        <ele>711.2</ele>
        <time>2025-02-09T08:51:22Z</time>
      </trkpt>
      <trkpt lat="43.72385" lon="6.13889">
        <ele>711.6</ele>
        <time>2025-02-09T08:51:28Z</time>
      </trkpt>
      <trkpt lat="43.72385" lon="6.13889">
        <ele>712.1</ele>
        <time>2025-02-09T08:51:30Z</time>
      </trkpt>
      <trkpt lat="43.72385" lon="6.13891">
        <ele>712.7</ele>
        <time>2025-02-09T08:51:33Z</time>
      </trkpt>
      <trkpt lat="43.72385" lon="6.13891">
        <ele>712.8</ele>
        <time>2025-02-09T08:51:34Z</time>
      </trkpt>
      <trkpt lat="43.72386" lon="6.13891">
        <ele>713.1</ele>
        <time>2025-02-09T08:51:39Z</time>
      </trkpt>
      <trkpt lat="43.72386" lon="6.13891">
        <ele>713.1</ele>
        <time>2025-02-09T08:51:44Z</time>
      </trkpt>
      <trkpt lat="43.72386" lon="6.13893">
        <ele>712.7</ele>
        <time>2025-02-09T08:51:50Z</time>
      </trkpt>
      <trkpt lat="43.72386" lon="6.13892">
        <ele>712.7</ele>
        <time>2025-02-09T08:51:51Z</time>
      </trkpt>
      <trkpt lat="43.72385" lon="6.13892">
        <ele>712.3</ele>
        <time>2025-02-09T08:51:58Z</time>
      </trkpt>
      <trkpt lat="43.72386" lon="6.13892">
        <ele>712.2</ele>
        <time>2025-02-09T08:51:59Z</time>
      </trkpt>
      <trkpt lat="43.72376" lon="6.13895">
        <ele>711.7</ele>
        <time>2025-02-09T08:52:11Z</time>
      </trkpt>
      <trkpt lat="43.72369" lon="6.13903">
        <ele>711.3</ele>
        <time>2025-02-09T08:52:28Z</time>
      </trkpt>
      <trkpt lat="43.72361" lon="6.1391">
        <ele>711.4</ele>
        <time>2025-02-09T08:52:41Z</time>
      </trkpt>
      <trkpt lat="43.72355" lon="6.1392">
        <ele>711.6</ele>
        <time>2025-02-09T08:52:53Z</time>
      </trkpt>
      <trkpt lat="43.72347" lon="6.13929">
        <ele>711.7</ele>
        <time>2025-02-09T08:53:02Z</time>
      </trkpt>
      <trkpt lat="43.72349" lon="6.13941">
        <ele>712.1</ele>
        <time>2025-02-09T08:53:14Z</time>
      </trkpt>
      <trkpt lat="43.72357" lon="6.13946">
        <ele>711.7</ele>
        <time>2025-02-09T08:53:30Z</time>
      </trkpt>
      <trkpt lat="43.72359" lon="6.13945">
        <ele>711.3</ele>
        <time>2025-02-09T08:53:37Z</time>
      </trkpt>
      <trkpt lat="43.72359" lon="6.13945">
        <ele>711.3</ele>
        <time>2025-02-09T08:53:38Z</time>
      </trkpt>
      <trkpt lat="43.72361" lon="6.13944">
        <ele>711.1</ele>
        <time>2025-02-09T08:53:43Z</time>
      </trkpt>
      <trkpt lat="43.72361" lon="6.13944">
        <ele>711.1</ele>
        <time>2025-02-09T08:53:44Z</time>
      </trkpt>
      <trkpt lat="43.72357" lon="6.13944">
        <ele>710.8</ele>
        <time>2025-02-09T08:53:56Z</time>
      </trkpt>
      <trkpt lat="43.72357" lon="6.13944">
        <ele>710.8</ele>
        <time>2025-02-09T08:53:57Z</time>
      </trkpt>
      <trkpt lat="43.72357" lon="6.13944">
        <ele>711.4</ele>
        <time>2025-02-09T08:54:01Z</time>
      </trkpt>
      <trkpt lat="43.72357" lon="6.13944">
        <ele>711.4</ele>
        <time>2025-02-09T08:54:02Z</time>
      </trkpt>
      <trkpt lat="43.72357" lon="6.13943">
        <ele>711.4</ele>
        <time>2025-02-09T08:54:04Z</time>
      </trkpt>
      <trkpt lat="43.72357" lon="6.13943">
        <ele>711.4</ele>
        <time>2025-02-09T08:54:05Z</time>
      </trkpt>
      <trkpt lat="43.72356" lon="6.13942">
        <ele>711.3</ele>
        <time>2025-02-09T08:54:11Z</time>
      </trkpt>
      <trkpt lat="43.72356" lon="6.13942">
        <ele>711.6</ele>
        <time>2025-02-09T08:54:20Z</time>
      </trkpt>
      <trkpt lat="43.72356" lon="6.13942">
        <ele>711.6</ele>
        <time>2025-02-09T08:54:22Z</time>
      </trkpt>
      <trkpt lat="43.72356" lon="6.13943">
        <ele>711.7</ele>
        <time>2025-02-09T08:54:24Z</time>
      </trkpt>
      <trkpt lat="43.72356" lon="6.13943">
        <ele>711.6</ele>
        <time>2025-02-09T08:54:28Z</time>
      </trkpt>
      <trkpt lat="43.72356" lon="6.13944">
        <ele>711.7</ele>
        <time>2025-02-09T08:54:30Z</time>
      </trkpt>
      <trkpt lat="43.72356" lon="6.13945">
        <ele>711.7</ele>
        <time>2025-02-09T08:54:36Z</time>
      </trkpt>
      <trkpt lat="43.72356" lon="6.13946">
        <ele>711.7</ele>
        <time>2025-02-09T08:54:37Z</time>
      </trkpt>
      <trkpt lat="43.72356" lon="6.13945">
        <ele>711.2</ele>
        <time>2025-02-09T08:54:42Z</time>
      </trkpt>
      <trkpt lat="43.72355" lon="6.13945">
        <ele>711.1</ele>
        <time>2025-02-09T08:54:43Z</time>
      </trkpt>
      <trkpt lat="43.72356" lon="6.13945">
        <ele>710.8</ele>
        <time>2025-02-09T08:54:45Z</time>
      </trkpt>
      <trkpt lat="43.72356" lon="6.13945">
        <ele>710.8</ele>
        <time>2025-02-09T08:54:50Z</time>
      </trkpt>
      <trkpt lat="43.72356" lon="6.13945">
        <ele>710.7</ele>
        <time>2025-02-09T08:54:51Z</time>
      </trkpt>
      <trkpt lat="43.72356" lon="6.13945">
        <ele>710.6</ele>
        <time>2025-02-09T08:54:52Z</time>
      </trkpt>
      <trkpt lat="43.72356" lon="6.13945">
        <ele>710.6</ele>
        <time>2025-02-09T08:54:53Z</time>
      </trkpt>
      <trkpt lat="43.72356" lon="6.13945">
        <ele>710.7</ele>
        <time>2025-02-09T08:54:54Z</time>
      </trkpt>
      <trkpt lat="43.72356" lon="6.13946">
        <ele>710.5</ele>
        <time>2025-02-09T08:54:57Z</time>
      </trkpt>
      <trkpt lat="43.72356" lon="6.13947">
        <ele>710.5</ele>
        <time>2025-02-09T08:54:58Z</time>
      </trkpt>
      <trkpt lat="43.72356" lon="6.13947">
        <ele>710.4</ele>
        <time>2025-02-09T08:55:00Z</time>
      </trkpt>
      <trkpt lat="43.72356" lon="6.13947">
        <ele>710.6</ele>
        <time>2025-02-09T08:55:01Z</time>
      </trkpt>
      <trkpt lat="43.72354" lon="6.13948">
        <ele>709.9</ele>
        <time>2025-02-09T08:55:16Z</time>
      </trkpt>
      <trkpt lat="43.72354" lon="6.13948">
        <ele>709.8</ele>
        <time>2025-02-09T08:55:17Z</time>
      </trkpt>
      <trkpt lat="43.72354" lon="6.13948">
        <ele>709.5</ele>
        <time>2025-02-09T08:55:18Z</time>
      </trkpt>
      <trkpt lat="43.72354" lon="6.13948">
        <ele>709.4</ele>
        <time>2025-02-09T08:55:19Z</time>
      </trkpt>
      <trkpt lat="43.72354" lon="6.13948">
        <ele>709.4</ele>
        <time>2025-02-09T08:55:20Z</time>
      </trkpt>
      <trkpt lat="43.72354" lon="6.13948">
        <ele>709.4</ele>
        <time>2025-02-09T08:55:26Z</time>
      </trkpt>
      <trkpt lat="43.72354" lon="6.13948">
        <ele>709.5</ele>
        <time>2025-02-09T08:55:27Z</time>
      </trkpt>
      <trkpt lat="43.72354" lon="6.13948">
        <ele>709.6</ele>
        <time>2025-02-09T08:55:29Z</time>
      </trkpt>
      <trkpt lat="43.72354" lon="6.13948">
        <ele>709.8</ele>
        <time>2025-02-09T08:55:30Z</time>
      </trkpt>
      <trkpt lat="43.72354" lon="6.13948">
        <ele>710.4</ele>
        <time>2025-02-09T08:55:35Z</time>
      </trkpt>
      <trkpt lat="43.72355" lon="6.13948">
        <ele>713.5</ele>
        <time>2025-02-09T08:55:59Z</time>
      </trkpt>
      <trkpt lat="43.72355" lon="6.13948">
        <ele>713.5</ele>
        <time>2025-02-09T08:56:01Z</time>
      </trkpt>
      <trkpt lat="43.72354" lon="6.13946">
        <ele>713.3</ele>
        <time>2025-02-09T08:56:12Z</time>
      </trkpt>
      <trkpt lat="43.72355" lon="6.13945">
        <ele>713.3</ele>
        <time>2025-02-09T08:56:13Z</time>
      </trkpt>
      <trkpt lat="43.72354" lon="6.13947">
        <ele>713.7</ele>
        <time>2025-02-09T08:56:16Z</time>
      </trkpt>
      <trkpt lat="43.72355" lon="6.13947">
        <ele>713.4</ele>
        <time>2025-02-09T08:56:20Z</time>
      </trkpt>
      <trkpt lat="43.72355" lon="6.13948">
        <ele>713.4</ele>
        <time>2025-02-09T08:56:22Z</time>
      </trkpt>
      <trkpt lat="43.72355" lon="6.13947">
        <ele>713.3</ele>
        <time>2025-02-09T08:56:23Z</time>
      </trkpt>
      <trkpt lat="43.72355" lon="6.13948">
        <ele>712.5</ele>
        <time>2025-02-09T08:56:27Z</time>
      </trkpt>
      <trkpt lat="43.72355" lon="6.13948">
        <ele>712.2</ele>
        <time>2025-02-09T08:56:28Z</time>
      </trkpt>
      <trkpt lat="43.72355" lon="6.13947">
        <ele>711.9</ele>
        <time>2025-02-09T08:56:30Z</time>
      </trkpt>
      <trkpt lat="43.72355" lon="6.13947">
        <ele>711.8</ele>
        <time>2025-02-09T08:56:33Z</time>
      </trkpt>
      <trkpt lat="43.72356" lon="6.13946">
        <ele>711.3</ele>
        <time>2025-02-09T08:56:42Z</time>
      </trkpt>
      <trkpt lat="43.72356" lon="6.13945">
        <ele>711.4</ele>
        <time>2025-02-09T08:56:44Z</time>
      </trkpt>
      <trkpt lat="43.72356" lon="6.13946">
        <ele>710.8</ele>
        <time>2025-02-09T08:56:52Z</time>
      </trkpt>
      <trkpt lat="43.72356" lon="6.13945">
        <ele>710.7</ele>
        <time>2025-02-09T08:56:53Z</time>
      </trkpt>
      <trkpt lat="43.72354" lon="6.13945">
        <ele>711.2</ele>
        <time>2025-02-09T08:56:58Z</time>
      </trkpt>
      <trkpt lat="43.72354" lon="6.13945">
        <ele>711.1</ele>
        <time>2025-02-09T08:56:59Z</time>
      </trkpt>
      <trkpt lat="43.72356" lon="6.13943">
        <ele>709.7</ele>
        <time>2025-02-09T08:57:17Z</time>
      </trkpt>
      <trkpt lat="43.72356" lon="6.13943">
        <ele>709.6</ele>
        <time>2025-02-09T08:57:18Z</time>
      </trkpt>
      <trkpt lat="43.72355" lon="6.13945">
        <ele>709.6</ele>
        <time>2025-02-09T08:57:22Z</time>
      </trkpt>
      <trkpt lat="43.72355" lon="6.13946">
        <ele>709.8</ele>
        <time>2025-02-09T08:57:23Z</time>
      </trkpt>
      <trkpt lat="43.72354" lon="6.13945">
        <ele>709.6</ele>
        <time>2025-02-09T08:57:36Z</time>
      </trkpt>
      <trkpt lat="43.72354" lon="6.13946">
        <ele>709.6</ele>
        <time>2025-02-09T08:57:37Z</time>
      </trkpt>
      <trkpt lat="43.72354" lon="6.13946">
        <ele>709.5</ele>
        <time>2025-02-09T08:57:38Z</time>
      </trkpt>
      <trkpt lat="43.72354" lon="6.13946">
        <ele>709.3</ele>
        <time>2025-02-09T08:57:39Z</time>
      </trkpt>
      <trkpt lat="43.72354" lon="6.13946">
        <ele>709.1</ele>
        <time>2025-02-09T08:57:40Z</time>
      </trkpt>
      <trkpt lat="43.72354" lon="6.13946">
        <ele>709.1</ele>
        <time>2025-02-09T08:57:41Z</time>
      </trkpt>
      <trkpt lat="43.72355" lon="6.13946">
        <ele>709.1</ele>
        <time>2025-02-09T08:57:44Z</time>
      </trkpt>
      <trkpt lat="43.72355" lon="6.13946">
        <ele>709.1</ele>
        <time>2025-02-09T08:57:45Z</time>
      </trkpt>
      <trkpt lat="43.72355" lon="6.13946">
        <ele>709.2</ele>
        <time>2025-02-09T08:57:49Z</time>
      </trkpt>
      <trkpt lat="43.72355" lon="6.13945">
        <ele>709.1</ele>
        <time>2025-02-09T08:57:50Z</time>
      </trkpt>
      <trkpt lat="43.72355" lon="6.13946">
        <ele>709.1</ele>
        <time>2025-02-09T08:57:52Z</time>
      </trkpt>
      <trkpt lat="43.72355" lon="6.13946">
        <ele>709.2</ele>
        <time>2025-02-09T08:57:53Z</time>
      </trkpt>
      <trkpt lat="43.72355" lon="6.13946">
        <ele>709.2</ele>
        <time>2025-02-09T08:57:54Z</time>
      </trkpt>
      <trkpt lat="43.72356" lon="6.13946">
        <ele>709.1</ele>
        <time>2025-02-09T08:57:56Z</time>
      </trkpt>
      <trkpt lat="43.72356" lon="6.13946">
        <ele>709.1</ele>
        <time>2025-02-09T08:57:58Z</time>
      </trkpt>
      <trkpt lat="43.72356" lon="6.13946">
        <ele>708.8</ele>
        <time>2025-02-09T08:58:03Z</time>
      </trkpt>
      <trkpt lat="43.72356" lon="6.13946">
        <ele>709</ele>
        <time>2025-02-09T08:58:13Z</time>
      </trkpt>
      <trkpt lat="43.72356" lon="6.13945">
        <ele>709</ele>
        <time>2025-02-09T08:58:14Z</time>
      </trkpt>
      <trkpt lat="43.72352" lon="6.13941">
        <ele>710.2</ele>
        <time>2025-02-09T08:58:33Z</time>
      </trkpt>
      <trkpt lat="43.72352" lon="6.13941">
        <ele>710.5</ele>
        <time>2025-02-09T08:58:34Z</time>
      </trkpt>
      <trkpt lat="43.72352" lon="6.13941">
        <ele>710.5</ele>
        <time>2025-02-09T08:58:35Z</time>
      </trkpt>
      <trkpt lat="43.72351" lon="6.13942">
        <ele>710.4</ele>
        <time>2025-02-09T08:58:36Z</time>
      </trkpt>
      <trkpt lat="43.72351" lon="6.13942">
        <ele>710.4</ele>
        <time>2025-02-09T08:58:39Z</time>
      </trkpt>
      <trkpt lat="43.72351" lon="6.13942">
        <ele>710.4</ele>
        <time>2025-02-09T08:58:40Z</time>
      </trkpt>
      <trkpt lat="43.72344" lon="6.13933">
        <ele>711</ele>
        <time>2025-02-09T08:58:59Z</time>
      </trkpt>
      <trkpt lat="43.72337" lon="6.13925">
        <ele>711.6</ele>
        <time>2025-02-09T08:59:13Z</time>
      </trkpt>
      <trkpt lat="43.72332" lon="6.13914">
        <ele>711.7</ele>
        <time>2025-02-09T08:59:23Z</time>
      </trkpt>
      <trkpt lat="43.72334" lon="6.13902">
        <ele>711.1</ele>
        <time>2025-02-09T08:59:32Z</time>
      </trkpt>
      <trkpt lat="43.72335" lon="6.13891">
        <ele>711.5</ele>
        <time>2025-02-09T08:59:54Z</time>
      </trkpt>
      <trkpt lat="43.72335" lon="6.1389">
        <ele>711.5</ele>
        <time>2025-02-09T08:59:55Z</time>
      </trkpt>
      <trkpt lat="43.72336" lon="6.13889">
        <ele>711.1</ele>
        <time>2025-02-09T08:59:59Z</time>
      </trkpt>
      <trkpt lat="43.72336" lon="6.13889">
        <ele>711.1</ele>
        <time>2025-02-09T09:00:00Z</time>
      </trkpt>
      <trkpt lat="43.72329" lon="6.13879">
        <ele>710.6</ele>
        <time>2025-02-09T09:00:26Z</time>
      </trkpt>
      <trkpt lat="43.72321" lon="6.13875">
        <ele>709.9</ele>
        <time>2025-02-09T09:00:38Z</time>
      </trkpt>
      <trkpt lat="43.72317" lon="6.13864">
        <ele>709.4</ele>
        <time>2025-02-09T09:00:52Z</time>
      </trkpt>
      <trkpt lat="43.72317" lon="6.13856">
        <ele>708.6</ele>
        <time>2025-02-09T09:01:03Z</time>
      </trkpt>
      <trkpt lat="43.72318" lon="6.13856">
        <ele>708.6</ele>
        <time>2025-02-09T09:01:04Z</time>
      </trkpt>
      <trkpt lat="43.72324" lon="6.13852">
        <ele>707.5</ele>
        <time>2025-02-09T09:01:20Z</time>
      </trkpt>
      <trkpt lat="43.72324" lon="6.13852">
        <ele>707.3</ele>
        <time>2025-02-09T09:01:21Z</time>
      </trkpt>
      <trkpt lat="43.72323" lon="6.13852">
        <ele>707.4</ele>
        <time>2025-02-09T09:01:27Z</time>
      </trkpt>
      <trkpt lat="43.72323" lon="6.13852">
        <ele>707.4</ele>
        <time>2025-02-09T09:01:32Z</time>
      </trkpt>
      <trkpt lat="43.72323" lon="6.1385">
        <ele>706.9</ele>
        <time>2025-02-09T09:01:48Z</time>
      </trkpt>
      <trkpt lat="43.72323" lon="6.1385">
        <ele>706.9</ele>
        <time>2025-02-09T09:01:49Z</time>
      </trkpt>
      <trkpt lat="43.72324" lon="6.13856">
        <ele>706.6</ele>
        <time>2025-02-09T09:02:17Z</time>
      </trkpt>
      <trkpt lat="43.72323" lon="6.13856">
        <ele>706.5</ele>
        <time>2025-02-09T09:02:18Z</time>
      </trkpt>
      <trkpt lat="43.72322" lon="6.13852">
        <ele>705.4</ele>
        <time>2025-02-09T09:02:33Z</time>
      </trkpt>
      <trkpt lat="43.72323" lon="6.13852">
        <ele>705.4</ele>
        <time>2025-02-09T09:02:34Z</time>
      </trkpt>
      <trkpt lat="43.72323" lon="6.13852">
        <ele>705.5</ele>
        <time>2025-02-09T09:02:35Z</time>
      </trkpt>
      <trkpt lat="43.72322" lon="6.13853">
        <ele>705.5</ele>
        <time>2025-02-09T09:02:36Z</time>
      </trkpt>
      <trkpt lat="43.72323" lon="6.13854">
        <ele>705.5</ele>
        <time>2025-02-09T09:02:39Z</time>
      </trkpt>
      <trkpt lat="43.72322" lon="6.13854">
        <ele>705.3</ele>
        <time>2025-02-09T09:02:40Z</time>
      </trkpt>
      <trkpt lat="43.72322" lon="6.13854">
        <ele>705.2</ele>
        <time>2025-02-09T09:02:41Z</time>
      </trkpt>
      <trkpt lat="43.72322" lon="6.13854">
        <ele>705.2</ele>
        <time>2025-02-09T09:02:42Z</time>
      </trkpt>
      <trkpt lat="43.72322" lon="6.13855">
        <ele>704.9</ele>
        <time>2025-02-09T09:02:45Z</time>
      </trkpt>
      <trkpt lat="43.72322" lon="6.13855">
        <ele>704.7</ele>
        <time>2025-02-09T09:02:48Z</time>
      </trkpt>
      <trkpt lat="43.72323" lon="6.13856">
        <ele>704.5</ele>
        <time>2025-02-09T09:02:57Z</time>
      </trkpt>
      <trkpt lat="43.72323" lon="6.13856">
        <ele>704.5</ele>
        <time>2025-02-09T09:02:59Z</time>
      </trkpt>
      <trkpt lat="43.72324" lon="6.13857">
        <ele>703.9</ele>
        <time>2025-02-09T09:03:06Z</time>
      </trkpt>
      <trkpt lat="43.72324" lon="6.13856">
        <ele>703.8</ele>
        <time>2025-02-09T09:03:07Z</time>
      </trkpt>
      <trkpt lat="43.72324" lon="6.13855">
        <ele>703.4</ele>
        <time>2025-02-09T09:03:14Z</time>
      </trkpt>
      <trkpt lat="43.72323" lon="6.13855">
        <ele>703.5</ele>
        <time>2025-02-09T09:03:15Z</time>
      </trkpt>
      <trkpt lat="43.72323" lon="6.13854">
        <ele>703.4</ele>
        <time>2025-02-09T09:03:19Z</time>
      </trkpt>
      <trkpt lat="43.72323" lon="6.13854">
        <ele>703.4</ele>
        <time>2025-02-09T09:03:20Z</time>
      </trkpt>
      <trkpt lat="43.72322" lon="6.13853">
        <ele>703.3</ele>
        <time>2025-02-09T09:03:23Z</time>
      </trkpt>
      <trkpt lat="43.72322" lon="6.13853">
        <ele>703.2</ele>
        <time>2025-02-09T09:03:27Z</time>
      </trkpt>
      <trkpt lat="43.72322" lon="6.13852">
        <ele>703.3</ele>
        <time>2025-02-09T09:03:29Z</time>
      </trkpt>
      <trkpt lat="43.72322" lon="6.13852">
        <ele>703.3</ele>
        <time>2025-02-09T09:03:31Z</time>
      </trkpt>
      <trkpt lat="43.72322" lon="6.13852">
        <ele>703.3</ele>
        <time>2025-02-09T09:03:35Z</time>
      </trkpt>
      <trkpt lat="43.72322" lon="6.13852">
        <ele>703.4</ele>
        <time>2025-02-09T09:03:36Z</time>
      </trkpt>
      <trkpt lat="43.72322" lon="6.13853">
        <ele>703.4</ele>
        <time>2025-02-09T09:03:42Z</time>
      </trkpt>
      <trkpt lat="43.72322" lon="6.13853">
        <ele>703.4</ele>
        <time>2025-02-09T09:03:43Z</time>
      </trkpt>
      <trkpt lat="43.72322" lon="6.13853">
        <ele>703.3</ele>
        <time>2025-02-09T09:03:44Z</time>
      </trkpt>
      <trkpt lat="43.72321" lon="6.13853">
        <ele>703.3</ele>
        <time>2025-02-09T09:03:45Z</time>
      </trkpt>
      <trkpt lat="43.72321" lon="6.13853">
        <ele>704</ele>
        <time>2025-02-09T09:03:57Z</time>
      </trkpt>
      <trkpt lat="43.72321" lon="6.13853">
        <ele>703.9</ele>
        <time>2025-02-09T09:03:58Z</time>
      </trkpt>
      <trkpt lat="43.72318" lon="6.13855">
        <ele>703.6</ele>
        <time>2025-02-09T09:04:15Z</time>
      </trkpt>
      <trkpt lat="43.72318" lon="6.13855">
        <ele>703.7</ele>
        <time>2025-02-09T09:04:16Z</time>
      </trkpt>
      <trkpt lat="43.7231" lon="6.13862">
        <ele>704.7</ele>
        <time>2025-02-09T09:04:38Z</time>
      </trkpt>
      <trkpt lat="43.72304" lon="6.13872">
        <ele>705.7</ele>
        <time>2025-02-09T09:04:49Z</time>
      </trkpt>
      <trkpt lat="43.72299" lon="6.13884">
        <ele>705.6</ele>
        <time>2025-02-09T09:04:58Z</time>
      </trkpt>
      <trkpt lat="43.72293" lon="6.13892">
        <ele>706.3</ele>
        <time>2025-02-09T09:05:11Z</time>
      </trkpt>
      <trkpt lat="43.72283" lon="6.13894">
        <ele>705.3</ele>
        <time>2025-02-09T09:05:22Z</time>
      </trkpt>
      <trkpt lat="43.72274" lon="6.13892">
        <ele>705.1</ele>
        <time>2025-02-09T09:05:31Z</time>
      </trkpt>
      <trkpt lat="43.72265" lon="6.13892">
        <ele>704.6</ele>
        <time>2025-02-09T09:05:42Z</time>
      </trkpt>
      <trkpt lat="43.72255" lon="6.1389">
        <ele>704.6</ele>
        <time>2025-02-09T09:05:53Z</time>
      </trkpt>
      <trkpt lat="43.72246" lon="6.13886">
        <ele>704.3</ele>
        <time>2025-02-09T09:06:02Z</time>
      </trkpt>
      <trkpt lat="43.72237" lon="6.13884">
        <ele>704.3</ele>
        <time>2025-02-09T09:06:10Z</time>
      </trkpt>
      <trkpt lat="43.72228" lon="6.13882">
        <ele>704.1</ele>
        <time>2025-02-09T09:06:18Z</time>
      </trkpt>
      <trkpt lat="43.72218" lon="6.13882">
        <ele>704</ele>
        <time>2025-02-09T09:06:26Z</time>
      </trkpt>
      <trkpt lat="43.72208" lon="6.1388">
        <ele>703.9</ele>
        <time>2025-02-09T09:06:35Z</time>
      </trkpt>
      <trkpt lat="43.72198" lon="6.1388">
        <ele>702.5</ele>
        <time>2025-02-09T09:06:44Z</time>
      </trkpt>
      <trkpt lat="43.72188" lon="6.13878">
        <ele>701.4</ele>
        <time>2025-02-09T09:06:53Z</time>
      </trkpt>
      <trkpt lat="43.72179" lon="6.13875">
        <ele>700.7</ele>
        <time>2025-02-09T09:07:02Z</time>
      </trkpt>
      <trkpt lat="43.7217" lon="6.13873">
        <ele>700.5</ele>
        <time>2025-02-09T09:07:10Z</time>
      </trkpt>
      <trkpt lat="43.7216" lon="6.13871">
        <ele>699.9</ele>
        <time>2025-02-09T09:07:18Z</time>
      </trkpt>
      <trkpt lat="43.72151" lon="6.13872">
        <ele>699.6</ele>
        <time>2025-02-09T09:07:24Z</time>
      </trkpt>
      <trkpt lat="43.72141" lon="6.13872">
        <ele>698.9</ele>
        <time>2025-02-09T09:07:33Z</time>
      </trkpt>
      <trkpt lat="43.7213" lon="6.13867">
        <ele>698.5</ele>
        <time>2025-02-09T09:07:42Z</time>
      </trkpt>
      <trkpt lat="43.72121" lon="6.13865">
        <ele>697.7</ele>
        <time>2025-02-09T09:07:49Z</time>
      </trkpt>
      <trkpt lat="43.72111" lon="6.13864">
        <ele>696.6</ele>
        <time>2025-02-09T09:07:55Z</time>
      </trkpt>
      <trkpt lat="43.72102" lon="6.13861">
        <ele>696</ele>
        <time>2025-02-09T09:08:04Z</time>
      </trkpt>
      <trkpt lat="43.72093" lon="6.13858">
        <ele>695.6</ele>
        <time>2025-02-09T09:08:12Z</time>
      </trkpt>
      <trkpt lat="43.72084" lon="6.13857">
        <ele>695.1</ele>
        <time>2025-02-09T09:08:20Z</time>
      </trkpt>
      <trkpt lat="43.72075" lon="6.13853">
        <ele>694.1</ele>
        <time>2025-02-09T09:08:29Z</time>
      </trkpt>
      <trkpt lat="43.72064" lon="6.13851">
        <ele>694.3</ele>
        <time>2025-02-09T09:08:36Z</time>
      </trkpt>
      <trkpt lat="43.72054" lon="6.13848">
        <ele>694.3</ele>
        <time>2025-02-09T09:08:43Z</time>
      </trkpt>
      <trkpt lat="43.72045" lon="6.13847">
        <ele>693.3</ele>
        <time>2025-02-09T09:08:51Z</time>
      </trkpt>
      <trkpt lat="43.72035" lon="6.13845">
        <ele>692.6</ele>
        <time>2025-02-09T09:09:01Z</time>
      </trkpt>
      <trkpt lat="43.72025" lon="6.13842">
        <ele>692.4</ele>
        <time>2025-02-09T09:09:09Z</time>
      </trkpt>
      <trkpt lat="43.72027" lon="6.13829">
        <ele>689.8</ele>
        <time>2025-02-09T09:09:35Z</time>
      </trkpt>
      <trkpt lat="43.72033" lon="6.13819">
        <ele>690.9</ele>
        <time>2025-02-09T09:09:48Z</time>
      </trkpt>
      <trkpt lat="43.72037" lon="6.13807">
        <ele>691.3</ele>
        <time>2025-02-09T09:09:59Z</time>
      </trkpt>
      <trkpt lat="43.72042" lon="6.13796">
        <ele>691</ele>
        <time>2025-02-09T09:10:08Z</time>
      </trkpt>
      <trkpt lat="43.72043" lon="6.13783">
        <ele>691</ele>
        <time>2025-02-09T09:10:17Z</time>
      </trkpt>
      <trkpt lat="43.72048" lon="6.13772">
        <ele>690.4</ele>
        <time>2025-02-09T09:10:26Z</time>
      </trkpt>
      <trkpt lat="43.72055" lon="6.13764">
        <ele>690.2</ele>
        <time>2025-02-09T09:10:39Z</time>
      </trkpt>
      <trkpt lat="43.72063" lon="6.13757">
        <ele>690.4</ele>
        <time>2025-02-09T09:10:47Z</time>
      </trkpt>
      <trkpt lat="43.72071" lon="6.1375">
        <ele>690.5</ele>
        <time>2025-02-09T09:10:56Z</time>
      </trkpt>
      <trkpt lat="43.72078" lon="6.13741">
        <ele>690</ele>
        <time>2025-02-09T09:11:04Z</time>
      </trkpt>
      <trkpt lat="43.72084" lon="6.13731">
        <ele>689.1</ele>
        <time>2025-02-09T09:11:12Z</time>
      </trkpt>
      <trkpt lat="43.72093" lon="6.13725">
        <ele>689</ele>
        <time>2025-02-09T09:11:28Z</time>
      </trkpt>
      <trkpt lat="43.72101" lon="6.13719">
        <ele>690.5</ele>
        <time>2025-02-09T09:11:38Z</time>
      </trkpt>
      <trkpt lat="43.72108" lon="6.13711">
        <ele>689.8</ele>
        <time>2025-02-09T09:11:49Z</time>
      </trkpt>
      <trkpt lat="43.72116" lon="6.137">
        <ele>688.6</ele>
        <time>2025-02-09T09:11:55Z</time>
      </trkpt>
      <trkpt lat="43.72123" lon="6.1369">
        <ele>686.8</ele>
        <time>2025-02-09T09:11:58Z</time>
      </trkpt>
      <trkpt lat="43.72132" lon="6.13692">
        <ele>687.2</ele>
        <time>2025-02-09T09:12:05Z</time>
      </trkpt>
      <trkpt lat="43.72141" lon="6.13693">
        <ele>687.3</ele>
        <time>2025-02-09T09:12:15Z</time>
      </trkpt>
      <trkpt lat="43.7215" lon="6.13693">
        <ele>687</ele>
        <time>2025-02-09T09:12:22Z</time>
      </trkpt>
      <trkpt lat="43.72159" lon="6.13696">
        <ele>687.5</ele>
        <time>2025-02-09T09:12:31Z</time>
      </trkpt>
      <trkpt lat="43.72168" lon="6.13698">
        <ele>687.9</ele>
        <time>2025-02-09T09:12:38Z</time>
      </trkpt>
      <trkpt lat="43.72179" lon="6.13699">
        <ele>688.9</ele>
        <time>2025-02-09T09:12:44Z</time>
      </trkpt>
      <trkpt lat="43.72187" lon="6.13704">
        <ele>688.5</ele>
        <time>2025-02-09T09:12:57Z</time>
      </trkpt>
      <trkpt lat="43.72196" lon="6.13703">
        <ele>689.1</ele>
        <time>2025-02-09T09:13:08Z</time>
      </trkpt>
      <trkpt lat="43.72205" lon="6.13698">
        <ele>689.3</ele>
        <time>2025-02-09T09:13:15Z</time>
      </trkpt>
      <trkpt lat="43.72213" lon="6.1369">
        <ele>688</ele>
        <time>2025-02-09T09:13:25Z</time>
      </trkpt>
      <trkpt lat="43.72219" lon="6.1368">
        <ele>687.9</ele>
        <time>2025-02-09T09:13:37Z</time>
      </trkpt>
      <trkpt lat="43.72228" lon="6.13673">
        <ele>688.1</ele>
        <time>2025-02-09T09:13:45Z</time>
      </trkpt>
      <trkpt lat="43.72236" lon="6.13667">
        <ele>687.8</ele>
        <time>2025-02-09T09:13:53Z</time>
      </trkpt>
      <trkpt lat="43.72246" lon="6.13662">
        <ele>688.2</ele>
        <time>2025-02-09T09:14:02Z</time>
      </trkpt>
      <trkpt lat="43.72255" lon="6.13655">
        <ele>688.6</ele>
        <time>2025-02-09T09:14:12Z</time>
      </trkpt>
      <trkpt lat="43.72264" lon="6.13651">
        <ele>688.7</ele>
        <time>2025-02-09T09:14:18Z</time>
      </trkpt>
      <trkpt lat="43.72271" lon="6.13641">
        <ele>688.4</ele>
        <time>2025-02-09T09:14:27Z</time>
      </trkpt>
      <trkpt lat="43.7228" lon="6.13634">
        <ele>688.3</ele>
        <time>2025-02-09T09:14:36Z</time>
      </trkpt>
      <trkpt lat="43.72287" lon="6.13624">
        <ele>688.1</ele>
        <time>2025-02-09T09:14:47Z</time>
      </trkpt>
      <trkpt lat="43.72294" lon="6.13615">
        <ele>687.4</ele>
        <time>2025-02-09T09:14:56Z</time>
      </trkpt>
      <trkpt lat="43.72303" lon="6.1361">
        <ele>686.5</ele>
        <time>2025-02-09T09:15:05Z</time>
      </trkpt>
      <trkpt lat="43.72313" lon="6.13604">
        <ele>685.5</ele>
        <time>2025-02-09T09:15:14Z</time>
      </trkpt>
      <trkpt lat="43.72322" lon="6.13599">
        <ele>684.3</ele>
        <time>2025-02-09T09:15:26Z</time>
      </trkpt>
      <trkpt lat="43.7233" lon="6.13593">
        <ele>684.1</ele>
        <time>2025-02-09T09:15:36Z</time>
      </trkpt>
      <trkpt lat="43.72339" lon="6.13588">
        <ele>683.2</ele>
        <time>2025-02-09T09:15:50Z</time>
      </trkpt>
      <trkpt lat="43.72348" lon="6.13584">
        <ele>683.6</ele>
        <time>2025-02-09T09:16:01Z</time>
      </trkpt>
      <trkpt lat="43.72358" lon="6.13583">
        <ele>682.2</ele>
        <time>2025-02-09T09:16:11Z</time>
      </trkpt>
      <trkpt lat="43.72367" lon="6.13578">
        <ele>681.5</ele>
        <time>2025-02-09T09:16:19Z</time>
      </trkpt>
      <trkpt lat="43.72375" lon="6.13569">
        <ele>679.9</ele>
        <time>2025-02-09T09:16:25Z</time>
      </trkpt>
      <trkpt lat="43.72383" lon="6.13561">
        <ele>679.4</ele>
        <time>2025-02-09T09:16:35Z</time>
      </trkpt>
      <trkpt lat="43.72391" lon="6.13557">
        <ele>679.3</ele>
        <time>2025-02-09T09:16:46Z</time>
      </trkpt>
      <trkpt lat="43.72394" lon="6.13556">
        <ele>679.3</ele>
        <time>2025-02-09T09:16:50Z</time>
      </trkpt>
      <trkpt lat="43.72395" lon="6.13555">
        <ele>679.3</ele>
        <time>2025-02-09T09:16:51Z</time>
      </trkpt>
      <trkpt lat="43.72396" lon="6.13554">
        <ele>679.2</ele>
        <time>2025-02-09T09:16:53Z</time>
      </trkpt>
      <trkpt lat="43.72396" lon="6.13554">
        <ele>679.2</ele>
        <time>2025-02-09T09:16:54Z</time>
      </trkpt>
      <trkpt lat="43.72405" lon="6.13547">
        <ele>678.8</ele>
        <time>2025-02-09T09:17:05Z</time>
      </trkpt>
      <trkpt lat="43.7241" lon="6.13538">
        <ele>678.1</ele>
        <time>2025-02-09T09:17:16Z</time>
      </trkpt>
      <trkpt lat="43.7241" lon="6.13538">
        <ele>678</ele>
        <time>2025-02-09T09:17:17Z</time>
      </trkpt>
      <trkpt lat="43.72409" lon="6.13538">
        <ele>677.9</ele>
        <time>2025-02-09T09:17:20Z</time>
      </trkpt>
      <trkpt lat="43.72411" lon="6.13536">
        <ele>677.5</ele>
        <time>2025-02-09T09:17:21Z</time>
      </trkpt>
      <trkpt lat="43.72413" lon="6.13532">
        <ele>676.8</ele>
        <time>2025-02-09T09:17:33Z</time>
      </trkpt>
      <trkpt lat="43.72413" lon="6.13531">
        <ele>676.8</ele>
        <time>2025-02-09T09:17:34Z</time>
      </trkpt>
      <trkpt lat="43.72413" lon="6.1353">
        <ele>675.6</ele>
        <time>2025-02-09T09:17:40Z</time>
      </trkpt>
      <trkpt lat="43.72413" lon="6.1353">
        <ele>675.5</ele>
        <time>2025-02-09T09:17:41Z</time>
      </trkpt>
      <trkpt lat="43.72413" lon="6.1353">
        <ele>675.3</ele>
        <time>2025-02-09T09:17:43Z</time>
      </trkpt>
      <trkpt lat="43.72413" lon="6.1353">
        <ele>675.1</ele>
        <time>2025-02-09T09:17:44Z</time>
      </trkpt>
      <trkpt lat="43.72413" lon="6.13531">
        <ele>675</ele>
        <time>2025-02-09T09:17:45Z</time>
      </trkpt>
      <trkpt lat="43.72413" lon="6.13531">
        <ele>674.9</ele>
        <time>2025-02-09T09:17:46Z</time>
      </trkpt>
      <trkpt lat="43.72413" lon="6.13532">
        <ele>674.8</ele>
        <time>2025-02-09T09:17:48Z</time>
      </trkpt>
      <trkpt lat="43.72412" lon="6.13532">
        <ele>675</ele>
        <time>2025-02-09T09:17:49Z</time>
      </trkpt>
      <trkpt lat="43.72404" lon="6.13526">
        <ele>675.3</ele>
        <time>2025-02-09T09:17:58Z</time>
      </trkpt>
      <trkpt lat="43.72395" lon="6.13528">
        <ele>676.2</ele>
        <time>2025-02-09T09:18:08Z</time>
      </trkpt>
      <trkpt lat="43.72386" lon="6.13524">
        <ele>676.2</ele>
        <time>2025-02-09T09:18:19Z</time>
      </trkpt>
      <trkpt lat="43.72377" lon="6.1352">
        <ele>675.6</ele>
        <time>2025-02-09T09:18:32Z</time>
      </trkpt>
      <trkpt lat="43.72369" lon="6.13514">
        <ele>675.4</ele>
        <time>2025-02-09T09:18:41Z</time>
      </trkpt>
      <trkpt lat="43.72363" lon="6.13506">
        <ele>673.8</ele>
        <time>2025-02-09T09:18:58Z</time>
      </trkpt>
      <trkpt lat="43.72363" lon="6.13507">
        <ele>673.8</ele>
        <time>2025-02-09T09:19:00Z</time>
      </trkpt>
      <trkpt lat="43.72357" lon="6.13497">
        <ele>672.3</ele>
        <time>2025-02-09T09:19:17Z</time>
      </trkpt>
      <trkpt lat="43.72351" lon="6.13487">
        <ele>672.1</ele>
        <time>2025-02-09T09:19:30Z</time>
      </trkpt>
      <trkpt lat="43.72351" lon="6.13475">
        <ele>672.3</ele>
        <time>2025-02-09T09:19:42Z</time>
      </trkpt>
      <trkpt lat="43.72355" lon="6.13462">
        <ele>672</ele>
        <time>2025-02-09T09:19:54Z</time>
      </trkpt>
      <trkpt lat="43.72357" lon="6.1345">
        <ele>671.7</ele>
        <time>2025-02-09T09:20:03Z</time>
      </trkpt>
      <trkpt lat="43.7236" lon="6.13438">
        <ele>670.4</ele>
        <time>2025-02-09T09:20:16Z</time>
      </trkpt>
      <trkpt lat="43.72361" lon="6.13432">
        <ele>669.9</ele>
        <time>2025-02-09T09:20:22Z</time>
      </trkpt>
      <trkpt lat="43.72362" lon="6.13432">
        <ele>669.8</ele>
        <time>2025-02-09T09:20:23Z</time>
      </trkpt>
      <trkpt lat="43.72362" lon="6.13432">
        <ele>669.6</ele>
        <time>2025-02-09T09:20:24Z</time>
      </trkpt>
      <trkpt lat="43.72362" lon="6.13431">
        <ele>669.5</ele>
        <time>2025-02-09T09:20:25Z</time>
      </trkpt>
      <trkpt lat="43.72367" lon="6.13421">
        <ele>668.6</ele>
        <time>2025-02-09T09:20:38Z</time>
      </trkpt>
      <trkpt lat="43.72373" lon="6.13411">
        <ele>667.2</ele>
        <time>2025-02-09T09:20:47Z</time>
      </trkpt>
      <trkpt lat="43.7238" lon="6.13404">
        <ele>666.4</ele>
        <time>2025-02-09T09:20:54Z</time>
      </trkpt>
      <trkpt lat="43.7238" lon="6.13403">
        <ele>666</ele>
        <time>2025-02-09T09:20:56Z</time>
      </trkpt>
      <trkpt lat="43.7238" lon="6.13403">
        <ele>665.9</ele>
        <time>2025-02-09T09:20:57Z</time>
      </trkpt>
      <trkpt lat="43.72381" lon="6.13401">
        <ele>665.4</ele>
        <time>2025-02-09T09:21:01Z</time>
      </trkpt>
      <trkpt lat="43.72381" lon="6.134">
        <ele>665.3</ele>
        <time>2025-02-09T09:21:02Z</time>
      </trkpt>
      <trkpt lat="43.72389" lon="6.13393">
        <ele>663.5</ele>
        <time>2025-02-09T09:21:16Z</time>
      </trkpt>
      <trkpt lat="43.72393" lon="6.13387">
        <ele>662.3</ele>
        <time>2025-02-09T09:21:24Z</time>
      </trkpt>
      <trkpt lat="43.72393" lon="6.13387">
        <ele>662.1</ele>
        <time>2025-02-09T09:21:25Z</time>
      </trkpt>
      <trkpt lat="43.72393" lon="6.13388">
        <ele>661.8</ele>
        <time>2025-02-09T09:21:27Z</time>
      </trkpt>
      <trkpt lat="43.72393" lon="6.13388">
        <ele>661.5</ele>
        <time>2025-02-09T09:21:28Z</time>
      </trkpt>
      <trkpt lat="43.72394" lon="6.13387">
        <ele>660.5</ele>
        <time>2025-02-09T09:21:35Z</time>
      </trkpt>
      <trkpt lat="43.72394" lon="6.13387">
        <ele>660.4</ele>
        <time>2025-02-09T09:21:36Z</time>
      </trkpt>
      <trkpt lat="43.72402" lon="6.13381">
        <ele>659.2</ele>
        <time>2025-02-09T09:21:48Z</time>
      </trkpt>
      <trkpt lat="43.72409" lon="6.13372">
        <ele>658.3</ele>
        <time>2025-02-09T09:22:00Z</time>
      </trkpt>
      <trkpt lat="43.72417" lon="6.13364">
        <ele>656.7</ele>
        <time>2025-02-09T09:22:17Z</time>
      </trkpt>
      <trkpt lat="43.72424" lon="6.13355">
        <ele>655.4</ele>
        <time>2025-02-09T09:22:27Z</time>
      </trkpt>
      <trkpt lat="43.72433" lon="6.1335">
        <ele>654.3</ele>
        <time>2025-02-09T09:22:40Z</time>
      </trkpt>
      <trkpt lat="43.72439" lon="6.13347">
        <ele>653.4</ele>
        <time>2025-02-09T09:22:49Z</time>
      </trkpt>
      <trkpt lat="43.72439" lon="6.13346">
        <ele>653.2</ele>
        <time>2025-02-09T09:22:50Z</time>
      </trkpt>
      <trkpt lat="43.72442" lon="6.13334">
        <ele>652.3</ele>
        <time>2025-02-09T09:23:01Z</time>
      </trkpt>
      <trkpt lat="43.72446" lon="6.13322">
        <ele>651.4</ele>
        <time>2025-02-09T09:23:11Z</time>
      </trkpt>
      <trkpt lat="43.72448" lon="6.1331">
        <ele>650.1</ele>
        <time>2025-02-09T09:23:24Z</time>
      </trkpt>
      <trkpt lat="43.72455" lon="6.13301">
        <ele>650.7</ele>
        <time>2025-02-09T09:23:38Z</time>
      </trkpt>
      <trkpt lat="43.72463" lon="6.13293">
        <ele>650.3</ele>
        <time>2025-02-09T09:23:51Z</time>
      </trkpt>
      <trkpt lat="43.72472" lon="6.13287">
        <ele>649.1</ele>
        <time>2025-02-09T09:23:56Z</time>
      </trkpt>
      <trkpt lat="43.7248" lon="6.13279">
        <ele>648.3</ele>
        <time>2025-02-09T09:24:02Z</time>
      </trkpt>
      <trkpt lat="43.72485" lon="6.13268">
        <ele>647.1</ele>
        <time>2025-02-09T09:24:07Z</time>
      </trkpt>
      <trkpt lat="43.72493" lon="6.13259">
        <ele>646.1</ele>
        <time>2025-02-09T09:24:15Z</time>
      </trkpt>
      <trkpt lat="43.72499" lon="6.13249">
        <ele>645</ele>
        <time>2025-02-09T09:24:25Z</time>
      </trkpt>
      <trkpt lat="43.72504" lon="6.13239">
        <ele>644</ele>
        <time>2025-02-09T09:24:36Z</time>
      </trkpt>
      <trkpt lat="43.72509" lon="6.13228">
        <ele>641.9</ele>
        <time>2025-02-09T09:24:47Z</time>
      </trkpt>
      <trkpt lat="43.72514" lon="6.13216">
        <ele>640.6</ele>
        <time>2025-02-09T09:24:55Z</time>
      </trkpt>
      <trkpt lat="43.72516" lon="6.13204">
        <ele>638.9</ele>
        <time>2025-02-09T09:25:06Z</time>
      </trkpt>
      <trkpt lat="43.72523" lon="6.13195">
        <ele>638</ele>
        <time>2025-02-09T09:25:11Z</time>
      </trkpt>
      <trkpt lat="43.72526" lon="6.13182">
        <ele>636.4</ele>
        <time>2025-02-09T09:25:19Z</time>
      </trkpt>
      <trkpt lat="43.72528" lon="6.1317">
        <ele>635.3</ele>
        <time>2025-02-09T09:25:28Z</time>
      </trkpt>
      <trkpt lat="43.72527" lon="6.13156">
        <ele>633.5</ele>
        <time>2025-02-09T09:25:36Z</time>
      </trkpt>
      <trkpt lat="43.72528" lon="6.13144">
        <ele>633.2</ele>
        <time>2025-02-09T09:25:44Z</time>
      </trkpt>
      <trkpt lat="43.72527" lon="6.13131">
        <ele>631.6</ele>
        <time>2025-02-09T09:25:53Z</time>
      </trkpt>
      <trkpt lat="43.72521" lon="6.1312">
        <ele>629.7</ele>
        <time>2025-02-09T09:26:02Z</time>
      </trkpt>
      <trkpt lat="43.72516" lon="6.13109">
        <ele>627.6</ele>
        <time>2025-02-09T09:26:12Z</time>
      </trkpt>
      <trkpt lat="43.72513" lon="6.13097">
        <ele>625.2</ele>
        <time>2025-02-09T09:26:18Z</time>
      </trkpt>
      <trkpt lat="43.72516" lon="6.13085">
        <ele>623.8</ele>
        <time>2025-02-09T09:26:25Z</time>
      </trkpt>
      <trkpt lat="43.72516" lon="6.13073">
        <ele>622</ele>
        <time>2025-02-09T09:26:37Z</time>
      </trkpt>
      <trkpt lat="43.72518" lon="6.1306">
        <ele>621</ele>
        <time>2025-02-09T09:26:47Z</time>
      </trkpt>
      <trkpt lat="43.72521" lon="6.13048">
        <ele>618.7</ele>
        <time>2025-02-09T09:26:55Z</time>
      </trkpt>
      <trkpt lat="43.72524" lon="6.13036">
        <ele>616.5</ele>
        <time>2025-02-09T09:27:04Z</time>
      </trkpt>
      <trkpt lat="43.72527" lon="6.13026">
        <ele>616.1</ele>
        <time>2025-02-09T09:27:14Z</time>
      </trkpt>
      <trkpt lat="43.72528" lon="6.13025">
        <ele>616.2</ele>
        <time>2025-02-09T09:27:15Z</time>
      </trkpt>
      <trkpt lat="43.72534" lon="6.13015">
        <ele>615.6</ele>
        <time>2025-02-09T09:27:25Z</time>
      </trkpt>
      <trkpt lat="43.72544" lon="6.13009">
        <ele>615.5</ele>
        <time>2025-02-09T09:27:34Z</time>
      </trkpt>
      <trkpt lat="43.72551" lon="6.13002">
        <ele>615.2</ele>
        <time>2025-02-09T09:27:42Z</time>
      </trkpt>
      <trkpt lat="43.7256" lon="6.12998">
        <ele>615.2</ele>
        <time>2025-02-09T09:27:52Z</time>
      </trkpt>
      <trkpt lat="43.7257" lon="6.12995">
        <ele>616.1</ele>
        <time>2025-02-09T09:28:03Z</time>
      </trkpt>
      <trkpt lat="43.72579" lon="6.1299">
        <ele>616.4</ele>
        <time>2025-02-09T09:28:12Z</time>
      </trkpt>
      <trkpt lat="43.72587" lon="6.12982">
        <ele>616.8</ele>
        <time>2025-02-09T09:28:22Z</time>
      </trkpt>
      <trkpt lat="43.72597" lon="6.12979">
        <ele>617</ele>
        <time>2025-02-09T09:28:34Z</time>
      </trkpt>
      <trkpt lat="43.72607" lon="6.12977">
        <ele>617.5</ele>
        <time>2025-02-09T09:28:42Z</time>
      </trkpt>
      <trkpt lat="43.72617" lon="6.12978">
        <ele>617.3</ele>
        <time>2025-02-09T09:28:54Z</time>
      </trkpt>
      <trkpt lat="43.72626" lon="6.12977">
        <ele>617.3</ele>
        <time>2025-02-09T09:29:02Z</time>
      </trkpt>
      <trkpt lat="43.72636" lon="6.12979">
        <ele>617.4</ele>
        <time>2025-02-09T09:29:11Z</time>
      </trkpt>
      <trkpt lat="43.72647" lon="6.1298">
        <ele>616.8</ele>
        <time>2025-02-09T09:29:23Z</time>
      </trkpt>
      <trkpt lat="43.72656" lon="6.12976">
        <ele>616</ele>
        <time>2025-02-09T09:29:28Z</time>
      </trkpt>
      <trkpt lat="43.72665" lon="6.12973">
        <ele>615.4</ele>
        <time>2025-02-09T09:29:34Z</time>
      </trkpt>
      <trkpt lat="43.72674" lon="6.12971">
        <ele>614.9</ele>
        <time>2025-02-09T09:29:43Z</time>
      </trkpt>
      <trkpt lat="43.72682" lon="6.12976">
        <ele>614.2</ele>
        <time>2025-02-09T09:29:50Z</time>
      </trkpt>
      <trkpt lat="43.72691" lon="6.12978">
        <ele>614.3</ele>
        <time>2025-02-09T09:29:57Z</time>
      </trkpt>
      <trkpt lat="43.72701" lon="6.1298">
        <ele>614.1</ele>
        <time>2025-02-09T09:30:06Z</time>
      </trkpt>
      <trkpt lat="43.7271" lon="6.12979">
        <ele>613.7</ele>
        <time>2025-02-09T09:30:16Z</time>
      </trkpt>
      <trkpt lat="43.72719" lon="6.12979">
        <ele>613.4</ele>
        <time>2025-02-09T09:30:28Z</time>
      </trkpt>
      <trkpt lat="43.72729" lon="6.12978">
        <ele>612.9</ele>
        <time>2025-02-09T09:30:38Z</time>
      </trkpt>
      <trkpt lat="43.72738" lon="6.12978">
        <ele>612.3</ele>
        <time>2025-02-09T09:30:47Z</time>
      </trkpt>
      <trkpt lat="43.72746" lon="6.12973">
        <ele>611.7</ele>
        <time>2025-02-09T09:30:55Z</time>
      </trkpt>
      <trkpt lat="43.72753" lon="6.12965">
        <ele>611.9</ele>
        <time>2025-02-09T09:31:01Z</time>
      </trkpt>
      <trkpt lat="43.7276" lon="6.12956">
        <ele>611.7</ele>
        <time>2025-02-09T09:31:07Z</time>
      </trkpt>
      <trkpt lat="43.72767" lon="6.12946">
        <ele>611.5</ele>
        <time>2025-02-09T09:31:13Z</time>
      </trkpt>
      <trkpt lat="43.72769" lon="6.12934">
        <ele>610.6</ele>
        <time>2025-02-09T09:31:22Z</time>
      </trkpt>
      <trkpt lat="43.72772" lon="6.1292">
        <ele>609.8</ele>
        <time>2025-02-09T09:31:30Z</time>
      </trkpt>
      <trkpt lat="43.72771" lon="6.12907">
        <ele>609.1</ele>
        <time>2025-02-09T09:31:39Z</time>
      </trkpt>
      <trkpt lat="43.72775" lon="6.12896">
        <ele>607.5</ele>
        <time>2025-02-09T09:31:49Z</time>
      </trkpt>
      <trkpt lat="43.72777" lon="6.12882">
        <ele>604.9</ele>
        <time>2025-02-09T09:31:57Z</time>
      </trkpt>
      <trkpt lat="43.72775" lon="6.1287">
        <ele>603.1</ele>
        <time>2025-02-09T09:32:05Z</time>
      </trkpt>
      <trkpt lat="43.72776" lon="6.12857">
        <ele>601.2</ele>
        <time>2025-02-09T09:32:14Z</time>
      </trkpt>
      <trkpt lat="43.7278" lon="6.12844">
        <ele>600</ele>
        <time>2025-02-09T09:32:23Z</time>
      </trkpt>
      <trkpt lat="43.72786" lon="6.12833">
        <ele>598.5</ele>
        <time>2025-02-09T09:32:28Z</time>
      </trkpt>
      <trkpt lat="43.72788" lon="6.12821">
        <ele>597.4</ele>
        <time>2025-02-09T09:32:35Z</time>
      </trkpt>
      <trkpt lat="43.72787" lon="6.12808">
        <ele>594.8</ele>
        <time>2025-02-09T09:32:42Z</time>
      </trkpt>
      <trkpt lat="43.72792" lon="6.12797">
        <ele>592.6</ele>
        <time>2025-02-09T09:32:49Z</time>
      </trkpt>
      <trkpt lat="43.72796" lon="6.12785">
        <ele>590.1</ele>
        <time>2025-02-09T09:32:56Z</time>
      </trkpt>
      <trkpt lat="43.72801" lon="6.12772">
        <ele>588</ele>
        <time>2025-02-09T09:33:04Z</time>
      </trkpt>
      <trkpt lat="43.72805" lon="6.1276">
        <ele>585.3</ele>
        <time>2025-02-09T09:33:12Z</time>
      </trkpt>
      <trkpt lat="43.72811" lon="6.12749">
        <ele>583.4</ele>
        <time>2025-02-09T09:33:20Z</time>
      </trkpt>
      <trkpt lat="43.72816" lon="6.12738">
        <ele>581.5</ele>
        <time>2025-02-09T09:33:28Z</time>
      </trkpt>
      <trkpt lat="43.72821" lon="6.12727">
        <ele>580.5</ele>
        <time>2025-02-09T09:33:36Z</time>
      </trkpt>
      <trkpt lat="43.72826" lon="6.12717">
        <ele>579.5</ele>
        <time>2025-02-09T09:33:45Z</time>
      </trkpt>
      <trkpt lat="43.72832" lon="6.12707">
        <ele>578.5</ele>
        <time>2025-02-09T09:33:54Z</time>
      </trkpt>
      <trkpt lat="43.7284" lon="6.12701">
        <ele>577.7</ele>
        <time>2025-02-09T09:34:05Z</time>
      </trkpt>
      <trkpt lat="43.72845" lon="6.12688">
        <ele>577.1</ele>
        <time>2025-02-09T09:34:13Z</time>
      </trkpt>
      <trkpt lat="43.7285" lon="6.12678">
        <ele>576.5</ele>
        <time>2025-02-09T09:34:28Z</time>
      </trkpt>
      <trkpt lat="43.7285" lon="6.12678">
        <ele>576.5</ele>
        <time>2025-02-09T09:34:30Z</time>
      </trkpt>
      <trkpt lat="43.72854" lon="6.12666">
        <ele>577</ele>
        <time>2025-02-09T09:34:37Z</time>
      </trkpt>
      <trkpt lat="43.72854" lon="6.12662">
        <ele>576.6</ele>
        <time>2025-02-09T09:34:41Z</time>
      </trkpt>
      <trkpt lat="43.72854" lon="6.12661">
        <ele>576.5</ele>
        <time>2025-02-09T09:34:43Z</time>
      </trkpt>
      <trkpt lat="43.72849" lon="6.12658">
        <ele>574.1</ele>
        <time>2025-02-09T09:34:57Z</time>
      </trkpt>
      <trkpt lat="43.72849" lon="6.12658">
        <ele>574.1</ele>
        <time>2025-02-09T09:34:58Z</time>
      </trkpt>
      <trkpt lat="43.7285" lon="6.12657">
        <ele>573.9</ele>
        <time>2025-02-09T09:35:01Z</time>
      </trkpt>
      <trkpt lat="43.7285" lon="6.12657">
        <ele>573.9</ele>
        <time>2025-02-09T09:35:02Z</time>
      </trkpt>
      <trkpt lat="43.7285" lon="6.12654">
        <ele>574</ele>
        <time>2025-02-09T09:35:08Z</time>
      </trkpt>
      <trkpt lat="43.72851" lon="6.12654">
        <ele>574</ele>
        <time>2025-02-09T09:35:14Z</time>
      </trkpt>
      <trkpt lat="43.72851" lon="6.12654">
        <ele>574</ele>
        <time>2025-02-09T09:35:15Z</time>
      </trkpt>
      <trkpt lat="43.72851" lon="6.12654">
        <ele>574.1</ele>
        <time>2025-02-09T09:35:23Z</time>
      </trkpt>
      <trkpt lat="43.72851" lon="6.12654">
        <ele>574.2</ele>
        <time>2025-02-09T09:35:26Z</time>
      </trkpt>
      <trkpt lat="43.72851" lon="6.12654">
        <ele>574</ele>
        <time>2025-02-09T09:35:47Z</time>
      </trkpt>
      <trkpt lat="43.72851" lon="6.12654">
        <ele>574</ele>
        <time>2025-02-09T09:35:49Z</time>
      </trkpt>
      <trkpt lat="43.72851" lon="6.12653">
        <ele>574</ele>
        <time>2025-02-09T09:35:58Z</time>
      </trkpt>
      <trkpt lat="43.72851" lon="6.12652">
        <ele>574.2</ele>
        <time>2025-02-09T09:36:01Z</time>
      </trkpt>
      <trkpt lat="43.72851" lon="6.12652">
        <ele>574.3</ele>
        <time>2025-02-09T09:36:09Z</time>
      </trkpt>
      <trkpt lat="43.72852" lon="6.12651">
        <ele>574.3</ele>
        <time>2025-02-09T09:36:14Z</time>
      </trkpt>
      <trkpt lat="43.72852" lon="6.12651">
        <ele>574.2</ele>
        <time>2025-02-09T09:36:17Z</time>
      </trkpt>
      <trkpt lat="43.72852" lon="6.12651">
        <ele>574.2</ele>
        <time>2025-02-09T09:36:18Z</time>
      </trkpt>
      <trkpt lat="43.72852" lon="6.12651">
        <ele>574.3</ele>
        <time>2025-02-09T09:36:19Z</time>
      </trkpt>
      <trkpt lat="43.72854" lon="6.12655">
        <ele>574.5</ele>
        <time>2025-02-09T09:36:26Z</time>
      </trkpt>
      <trkpt lat="43.72854" lon="6.12655">
        <ele>574.5</ele>
        <time>2025-02-09T09:36:27Z</time>
      </trkpt>
      <trkpt lat="43.72858" lon="6.12643">
        <ele>575.2</ele>
        <time>2025-02-09T09:36:39Z</time>
      </trkpt>
      <trkpt lat="43.72855" lon="6.12637">
        <ele>574.9</ele>
        <time>2025-02-09T09:37:04Z</time>
      </trkpt>
      <trkpt lat="43.72856" lon="6.12637">
        <ele>574.6</ele>
        <time>2025-02-09T09:37:05Z</time>
      </trkpt>
      <trkpt lat="43.72856" lon="6.12637">
        <ele>574.5</ele>
        <time>2025-02-09T09:37:07Z</time>
      </trkpt>
      <trkpt lat="43.72856" lon="6.12637">
        <ele>574.5</ele>
        <time>2025-02-09T09:37:08Z</time>
      </trkpt>
      <trkpt lat="43.72856" lon="6.12637">
        <ele>574.6</ele>
        <time>2025-02-09T09:37:09Z</time>
      </trkpt>
      <trkpt lat="43.72856" lon="6.12637">
        <ele>574.5</ele>
        <time>2025-02-09T09:37:10Z</time>
      </trkpt>
      <trkpt lat="43.72857" lon="6.12636">
        <ele>574.3</ele>
        <time>2025-02-09T09:37:14Z</time>
      </trkpt>
      <trkpt lat="43.72856" lon="6.12636">
        <ele>574.2</ele>
        <time>2025-02-09T09:37:15Z</time>
      </trkpt>
      <trkpt lat="43.72852" lon="6.12637">
        <ele>575.2</ele>
        <time>2025-02-09T09:37:20Z</time>
      </trkpt>
      <trkpt lat="43.72852" lon="6.12637">
        <ele>575.4</ele>
        <time>2025-02-09T09:37:26Z</time>
      </trkpt>
      <trkpt lat="43.72851" lon="6.12638">
        <ele>575.9</ele>
        <time>2025-02-09T09:37:28Z</time>
      </trkpt>
      <trkpt lat="43.72851" lon="6.12638">
        <ele>576</ele>
        <time>2025-02-09T09:37:35Z</time>
      </trkpt>
      <trkpt lat="43.72851" lon="6.12638">
        <ele>576</ele>
        <time>2025-02-09T09:37:36Z</time>
      </trkpt>
      <trkpt lat="43.72851" lon="6.12638">
        <ele>576</ele>
        <time>2025-02-09T09:37:44Z</time>
      </trkpt>
      <trkpt lat="43.72852" lon="6.12636">
        <ele>576.1</ele>
        <time>2025-02-09T09:37:50Z</time>
      </trkpt>
      <trkpt lat="43.72852" lon="6.12636">
        <ele>576.4</ele>
        <time>2025-02-09T09:37:51Z</time>
      </trkpt>
      <trkpt lat="43.72852" lon="6.12636">
        <ele>576.5</ele>
        <time>2025-02-09T09:37:53Z</time>
      </trkpt>
      <trkpt lat="43.72852" lon="6.12636">
        <ele>576.5</ele>
        <time>2025-02-09T09:37:54Z</time>
      </trkpt>
      <trkpt lat="43.72852" lon="6.12636">
        <ele>576.5</ele>
        <time>2025-02-09T09:37:55Z</time>
      </trkpt>
      <trkpt lat="43.72851" lon="6.12636">
        <ele>576.7</ele>
        <time>2025-02-09T09:38:01Z</time>
      </trkpt>
      <trkpt lat="43.72851" lon="6.12636">
        <ele>576.8</ele>
        <time>2025-02-09T09:38:02Z</time>
      </trkpt>
      <trkpt lat="43.72851" lon="6.12637">
        <ele>576.8</ele>
        <time>2025-02-09T09:38:04Z</time>
      </trkpt>
      <trkpt lat="43.72851" lon="6.12637">
        <ele>576.8</ele>
        <time>2025-02-09T09:38:05Z</time>
      </trkpt>
      <trkpt lat="43.72852" lon="6.12637">
        <ele>576.8</ele>
        <time>2025-02-09T09:38:09Z</time>
      </trkpt>
      <trkpt lat="43.72858" lon="6.12642">
        <ele>577.8</ele>
        <time>2025-02-09T09:38:40Z</time>
      </trkpt>
      <trkpt lat="43.72858" lon="6.12642">
        <ele>577.8</ele>
        <time>2025-02-09T09:38:41Z</time>
      </trkpt>
      <trkpt lat="43.72858" lon="6.12642">
        <ele>577.8</ele>
        <time>2025-02-09T09:38:42Z</time>
      </trkpt>
      <trkpt lat="43.72858" lon="6.12642">
        <ele>577.7</ele>
        <time>2025-02-09T09:38:43Z</time>
      </trkpt>
      <trkpt lat="43.72849" lon="6.12637">
        <ele>576.8</ele>
        <time>2025-02-09T09:38:53Z</time>
      </trkpt>
      <trkpt lat="43.72848" lon="6.12635">
        <ele>576.4</ele>
        <time>2025-02-09T09:38:59Z</time>
      </trkpt>
      <trkpt lat="43.72848" lon="6.12635">
        <ele>576.3</ele>
        <time>2025-02-09T09:39:00Z</time>
      </trkpt>
      <trkpt lat="43.72855" lon="6.12628">
        <ele>575.8</ele>
        <time>2025-02-09T09:39:10Z</time>
      </trkpt>
      <trkpt lat="43.72847" lon="6.12621">
        <ele>576.1</ele>
        <time>2025-02-09T09:39:26Z</time>
      </trkpt>
      <trkpt lat="43.72848" lon="6.12618">
        <ele>575.9</ele>
        <time>2025-02-09T09:39:37Z</time>
      </trkpt>
      <trkpt lat="43.72847" lon="6.12618">
        <ele>575.8</ele>
        <time>2025-02-09T09:39:38Z</time>
      </trkpt>
      <trkpt lat="43.72838" lon="6.12611">
        <ele>575.1</ele>
        <time>2025-02-09T09:39:51Z</time>
      </trkpt>
      <trkpt lat="43.72829" lon="6.12621">
        <ele>575.4</ele>
        <time>2025-02-09T09:40:14Z</time>
      </trkpt>
      <trkpt lat="43.72836" lon="6.1261">
        <ele>575.3</ele>
        <time>2025-02-09T09:40:41Z</time>
      </trkpt>
      <trkpt lat="43.72845" lon="6.12608">
        <ele>575.6</ele>
        <time>2025-02-09T09:40:44Z</time>
      </trkpt>
      <trkpt lat="43.72855" lon="6.12604">
        <ele>576.8</ele>
        <time>2025-02-09T09:40:51Z</time>
      </trkpt>
      <trkpt lat="43.72881" lon="6.12592">
        <ele>575.8</ele>
        <time>2025-02-09T09:41:09Z</time>
      </trkpt>
      <trkpt lat="43.72873" lon="6.126">
        <ele>575</ele>
        <time>2025-02-09T09:41:14Z</time>
      </trkpt>
      <trkpt lat="43.72865" lon="6.12608">
        <ele>575.1</ele>
        <time>2025-02-09T09:41:16Z</time>
      </trkpt>
      <trkpt lat="43.72858" lon="6.12613">
        <ele>574.1</ele>
        <time>2025-02-09T09:41:22Z</time>
      </trkpt>
      <trkpt lat="43.72859" lon="6.12613">
        <ele>574.3</ele>
        <time>2025-02-09T09:41:23Z</time>
      </trkpt>
      <trkpt lat="43.7285" lon="6.12621">
        <ele>573.1</ele>
        <time>2025-02-09T09:41:34Z</time>
      </trkpt>
      <trkpt lat="43.72853" lon="6.1261">
        <ele>575.4</ele>
        <time>2025-02-09T09:41:52Z</time>
      </trkpt>
      <trkpt lat="43.72853" lon="6.1261">
        <ele>575.2</ele>
        <time>2025-02-09T09:41:53Z</time>
      </trkpt>
      <trkpt lat="43.72852" lon="6.12613">
        <ele>575.5</ele>
        <time>2025-02-09T09:42:02Z</time>
      </trkpt>
      <trkpt lat="43.72851" lon="6.12613">
        <ele>575.4</ele>
        <time>2025-02-09T09:42:03Z</time>
      </trkpt>
      <trkpt lat="43.72851" lon="6.12617">
        <ele>577.7</ele>
        <time>2025-02-09T09:42:17Z</time>
      </trkpt>
      <trkpt lat="43.72851" lon="6.12617">
        <ele>577.9</ele>
        <time>2025-02-09T09:42:19Z</time>
      </trkpt>
      <trkpt lat="43.72848" lon="6.12617">
        <ele>575.8</ele>
        <time>2025-02-09T09:42:50Z</time>
      </trkpt>
      <trkpt lat="43.72849" lon="6.12617">
        <ele>575.6</ele>
        <time>2025-02-09T09:42:51Z</time>
      </trkpt>
      <trkpt lat="43.72849" lon="6.12617">
        <ele>575.4</ele>
        <time>2025-02-09T09:42:52Z</time>
      </trkpt>
      <trkpt lat="43.72849" lon="6.12617">
        <ele>575</ele>
        <time>2025-02-09T09:42:53Z</time>
      </trkpt>
      <trkpt lat="43.72852" lon="6.12629">
        <ele>576.5</ele>
        <time>2025-02-09T09:43:28Z</time>
      </trkpt>
      <trkpt lat="43.72853" lon="6.12638">
        <ele>572.2</ele>
        <time>2025-02-09T09:44:03Z</time>
      </trkpt>
      <trkpt lat="43.72853" lon="6.12638">
        <ele>572.2</ele>
        <time>2025-02-09T09:44:05Z</time>
      </trkpt>
      <trkpt lat="43.72853" lon="6.12638">
        <ele>572.3</ele>
        <time>2025-02-09T09:44:06Z</time>
      </trkpt>
      <trkpt lat="43.72853" lon="6.12638">
        <ele>572.3</ele>
        <time>2025-02-09T09:44:07Z</time>
      </trkpt>
      <trkpt lat="43.72853" lon="6.12638">
        <ele>572.3</ele>
        <time>2025-02-09T09:44:08Z</time>
      </trkpt>
      <trkpt lat="43.72853" lon="6.12638">
        <ele>572.3</ele>
        <time>2025-02-09T09:44:09Z</time>
      </trkpt>
      <trkpt lat="43.72853" lon="6.12638">
        <ele>572.3</ele>
        <time>2025-02-09T09:44:10Z</time>
      </trkpt>
      <trkpt lat="43.72853" lon="6.12638">
        <ele>572.3</ele>
        <time>2025-02-09T09:44:11Z</time>
      </trkpt>
      <trkpt lat="43.72853" lon="6.12637">
        <ele>572.5</ele>
        <time>2025-02-09T09:44:16Z</time>
      </trkpt>
      <trkpt lat="43.72853" lon="6.12637">
        <ele>572.5</ele>
        <time>2025-02-09T09:44:18Z</time>
      </trkpt>
      <trkpt lat="43.72853" lon="6.12637">
        <ele>572.5</ele>
        <time>2025-02-09T09:44:19Z</time>
      </trkpt>
      <trkpt lat="43.72853" lon="6.12637">
        <ele>572.4</ele>
        <time>2025-02-09T09:44:21Z</time>
      </trkpt>
      <trkpt lat="43.72855" lon="6.12637">
        <ele>572.1</ele>
        <time>2025-02-09T09:44:25Z</time>
      </trkpt>
      <trkpt lat="43.72855" lon="6.12637">
        <ele>572.2</ele>
        <time>2025-02-09T09:44:31Z</time>
      </trkpt>
      <trkpt lat="43.72855" lon="6.12637">
        <ele>572.1</ele>
        <time>2025-02-09T09:44:32Z</time>
      </trkpt>
      <trkpt lat="43.72855" lon="6.12637">
        <ele>572.1</ele>
        <time>2025-02-09T09:44:33Z</time>
      </trkpt>
      <trkpt lat="43.72856" lon="6.12636">
        <ele>572.2</ele>
        <time>2025-02-09T09:44:40Z</time>
      </trkpt>
      <trkpt lat="43.72856" lon="6.12636">
        <ele>572.2</ele>
        <time>2025-02-09T09:44:44Z</time>
      </trkpt>
      <trkpt lat="43.72856" lon="6.12636">
        <ele>572.2</ele>
        <time>2025-02-09T09:44:47Z</time>
      </trkpt>
      <trkpt lat="43.72856" lon="6.12636">
        <ele>572.2</ele>
        <time>2025-02-09T09:44:53Z</time>
      </trkpt>
      <trkpt lat="43.72856" lon="6.12636">
        <ele>572.2</ele>
        <time>2025-02-09T09:44:54Z</time>
      </trkpt>
      <trkpt lat="43.72856" lon="6.12636">
        <ele>572.3</ele>
        <time>2025-02-09T09:45:18Z</time>
      </trkpt>
      <trkpt lat="43.72856" lon="6.12635">
        <ele>572.5</ele>
        <time>2025-02-09T09:45:23Z</time>
      </trkpt>
      <trkpt lat="43.72856" lon="6.12635">
        <ele>572.4</ele>
        <time>2025-02-09T09:45:25Z</time>
      </trkpt>
      <trkpt lat="43.72856" lon="6.12635">
        <ele>572.5</ele>
        <time>2025-02-09T09:45:26Z</time>
      </trkpt>
      <trkpt lat="43.72856" lon="6.12635">
        <ele>572.5</ele>
        <time>2025-02-09T09:45:27Z</time>
      </trkpt>
      <trkpt lat="43.72856" lon="6.12635">
        <ele>572.4</ele>
        <time>2025-02-09T09:45:28Z</time>
      </trkpt>
      <trkpt lat="43.72856" lon="6.12635">
        <ele>572.5</ele>
        <time>2025-02-09T09:45:29Z</time>
      </trkpt>
      <trkpt lat="43.72856" lon="6.12635">
        <ele>572.5</ele>
        <time>2025-02-09T09:45:30Z</time>
      </trkpt>
      <trkpt lat="43.72856" lon="6.12635">
        <ele>572.5</ele>
        <time>2025-02-09T09:45:32Z</time>
      </trkpt>
      <trkpt lat="43.72856" lon="6.12635">
        <ele>572.5</ele>
        <time>2025-02-09T09:45:34Z</time>
      </trkpt>
      <trkpt lat="43.72856" lon="6.12635">
        <ele>572.5</ele>
        <time>2025-02-09T09:45:41Z</time>
      </trkpt>
      <trkpt lat="43.72856" lon="6.12635">
        <ele>572.5</ele>
        <time>2025-02-09T09:45:42Z</time>
      </trkpt>
      <trkpt lat="43.72856" lon="6.12635">
        <ele>572.5</ele>
        <time>2025-02-09T09:45:47Z</time>
      </trkpt>
      <trkpt lat="43.72856" lon="6.12635">
        <ele>572.7</ele>
        <time>2025-02-09T09:45:50Z</time>
      </trkpt>
      <trkpt lat="43.72857" lon="6.12635">
        <ele>572.8</ele>
        <time>2025-02-09T09:45:51Z</time>
      </trkpt>
      <trkpt lat="43.72854" lon="6.12639">
        <ele>572.2</ele>
        <time>2025-02-09T09:46:08Z</time>
      </trkpt>
      <trkpt lat="43.72854" lon="6.12639">
        <ele>572.2</ele>
        <time>2025-02-09T09:46:09Z</time>
      </trkpt>
      <trkpt lat="43.72855" lon="6.12638">
        <ele>572.5</ele>
        <time>2025-02-09T09:46:16Z</time>
      </trkpt>
      <trkpt lat="43.72855" lon="6.12638">
        <ele>572.5</ele>
        <time>2025-02-09T09:46:17Z</time>
      </trkpt>
      <trkpt lat="43.72855" lon="6.12638">
        <ele>572.8</ele>
        <time>2025-02-09T09:46:20Z</time>
      </trkpt>
      <trkpt lat="43.72855" lon="6.12638">
        <ele>572.8</ele>
        <time>2025-02-09T09:46:22Z</time>
      </trkpt>
      <trkpt lat="43.72863" lon="6.12644">
        <ele>573.3</ele>
        <time>2025-02-09T09:46:38Z</time>
      </trkpt>
      <trkpt lat="43.72868" lon="6.12656">
        <ele>574.4</ele>
        <time>2025-02-09T09:46:54Z</time>
      </trkpt>
      <trkpt lat="43.72869" lon="6.12669">
        <ele>574.7</ele>
        <time>2025-02-09T09:47:04Z</time>
      </trkpt>
      <trkpt lat="43.7287" lon="6.12682">
        <ele>576</ele>
        <time>2025-02-09T09:47:18Z</time>
      </trkpt>
      <trkpt lat="43.72874" lon="6.12683">
        <ele>576.4</ele>
        <time>2025-02-09T09:47:26Z</time>
      </trkpt>
      <trkpt lat="43.72874" lon="6.12684">
        <ele>576.5</ele>
        <time>2025-02-09T09:47:27Z</time>
      </trkpt>
      <trkpt lat="43.72883" lon="6.12689">
        <ele>575.7</ele>
        <time>2025-02-09T09:47:40Z</time>
      </trkpt>
      <trkpt lat="43.72892" lon="6.12694">
        <ele>575.5</ele>
        <time>2025-02-09T09:47:56Z</time>
      </trkpt>
      <trkpt lat="43.72901" lon="6.12694">
        <ele>574.1</ele>
        <time>2025-02-09T09:48:13Z</time>
      </trkpt>
      <trkpt lat="43.72905" lon="6.12692">
        <ele>573.8</ele>
        <time>2025-02-09T09:48:20Z</time>
      </trkpt>
      <trkpt lat="43.72905" lon="6.12692">
        <ele>573.8</ele>
        <time>2025-02-09T09:48:21Z</time>
      </trkpt>
      <trkpt lat="43.72906" lon="6.12696">
        <ele>573.5</ele>
        <time>2025-02-09T09:48:30Z</time>
      </trkpt>
      <trkpt lat="43.72906" lon="6.12695">
        <ele>573.4</ele>
        <time>2025-02-09T09:48:31Z</time>
      </trkpt>
      <trkpt lat="43.72914" lon="6.12705">
        <ele>572.5</ele>
        <time>2025-02-09T09:48:42Z</time>
      </trkpt>
      <trkpt lat="43.72923" lon="6.12707">
        <ele>572.1</ele>
        <time>2025-02-09T09:48:54Z</time>
      </trkpt>
      <trkpt lat="43.72931" lon="6.12713">
        <ele>571.6</ele>
        <time>2025-02-09T09:49:02Z</time>
      </trkpt>
      <trkpt lat="43.7294" lon="6.1272">
        <ele>571.3</ele>
        <time>2025-02-09T09:49:12Z</time>
      </trkpt>
      <trkpt lat="43.7295" lon="6.12722">
        <ele>570.2</ele>
        <time>2025-02-09T09:49:29Z</time>
      </trkpt>
      <trkpt lat="43.72959" lon="6.12724">
        <ele>569.8</ele>
        <time>2025-02-09T09:49:37Z</time>
      </trkpt>
      <trkpt lat="43.72968" lon="6.12723">
        <ele>569.6</ele>
        <time>2025-02-09T09:49:48Z</time>
      </trkpt>
      <trkpt lat="43.72977" lon="6.12727">
        <ele>568.3</ele>
        <time>2025-02-09T09:50:00Z</time>
      </trkpt>
      <trkpt lat="43.72986" lon="6.12731">
        <ele>567.7</ele>
        <time>2025-02-09T09:50:09Z</time>
      </trkpt>
      <trkpt lat="43.72996" lon="6.12728">
        <ele>567.4</ele>
        <time>2025-02-09T09:50:15Z</time>
      </trkpt>
      <trkpt lat="43.73006" lon="6.12729">
        <ele>566.9</ele>
        <time>2025-02-09T09:50:23Z</time>
      </trkpt>
      <trkpt lat="43.73011" lon="6.12735">
        <ele>566.3</ele>
        <time>2025-02-09T09:50:35Z</time>
      </trkpt>
      <trkpt lat="43.73012" lon="6.12735">
        <ele>566.2</ele>
        <time>2025-02-09T09:50:36Z</time>
      </trkpt>
      <trkpt lat="43.73022" lon="6.12733">
        <ele>565.4</ele>
        <time>2025-02-09T09:50:46Z</time>
      </trkpt>
      <trkpt lat="43.73031" lon="6.12734">
        <ele>565.1</ele>
        <time>2025-02-09T09:50:51Z</time>
      </trkpt>
      <trkpt lat="43.73039" lon="6.12741">
        <ele>564.3</ele>
        <time>2025-02-09T09:51:00Z</time>
      </trkpt>
      <trkpt lat="43.73047" lon="6.12743">
        <ele>563.8</ele>
        <time>2025-02-09T09:51:09Z</time>
      </trkpt>
      <trkpt lat="43.73047" lon="6.12742">
        <ele>563.7</ele>
        <time>2025-02-09T09:51:11Z</time>
      </trkpt>
      <trkpt lat="43.73047" lon="6.12742">
        <ele>564.1</ele>
        <time>2025-02-09T09:51:17Z</time>
      </trkpt>
      <trkpt lat="43.73047" lon="6.12742">
        <ele>564.2</ele>
        <time>2025-02-09T09:51:18Z</time>
      </trkpt>
      <trkpt lat="43.73057" lon="6.12742">
        <ele>563.8</ele>
        <time>2025-02-09T09:51:25Z</time>
      </trkpt>
      <trkpt lat="43.73066" lon="6.12742">
        <ele>562.9</ele>
        <time>2025-02-09T09:51:33Z</time>
      </trkpt>
      <trkpt lat="43.73076" lon="6.12738">
        <ele>562</ele>
        <time>2025-02-09T09:51:41Z</time>
      </trkpt>
      <trkpt lat="43.73084" lon="6.12733">
        <ele>561.4</ele>
        <time>2025-02-09T09:51:48Z</time>
      </trkpt>
      <trkpt lat="43.73093" lon="6.12729">
        <ele>560.8</ele>
        <time>2025-02-09T09:51:55Z</time>
      </trkpt>
      <trkpt lat="43.73102" lon="6.12724">
        <ele>560.5</ele>
        <time>2025-02-09T09:52:01Z</time>
      </trkpt>
      <trkpt lat="43.7311" lon="6.12732">
        <ele>559.2</ele>
        <time>2025-02-09T09:52:12Z</time>
      </trkpt>
      <trkpt lat="43.7312" lon="6.12734">
        <ele>558.6</ele>
        <time>2025-02-09T09:52:23Z</time>
      </trkpt>
      <trkpt lat="43.73128" lon="6.12727">
        <ele>557.3</ele>
        <time>2025-02-09T09:52:34Z</time>
      </trkpt>
      <trkpt lat="43.73128" lon="6.12729">
        <ele>557.1</ele>
        <time>2025-02-09T09:52:40Z</time>
      </trkpt>
      <trkpt lat="43.73128" lon="6.12729">
        <ele>557.1</ele>
        <time>2025-02-09T09:52:41Z</time>
      </trkpt>
      <trkpt lat="43.73129" lon="6.12727">
        <ele>557</ele>
        <time>2025-02-09T09:52:47Z</time>
      </trkpt>
      <trkpt lat="43.73129" lon="6.12727">
        <ele>556.9</ele>
        <time>2025-02-09T09:52:48Z</time>
      </trkpt>
      <trkpt lat="43.7313" lon="6.12725">
        <ele>557.4</ele>
        <time>2025-02-09T09:52:54Z</time>
      </trkpt>
      <trkpt lat="43.7313" lon="6.12725">
        <ele>557.1</ele>
        <time>2025-02-09T09:52:57Z</time>
      </trkpt>
      <trkpt lat="43.7313" lon="6.12725">
        <ele>557.1</ele>
        <time>2025-02-09T09:52:58Z</time>
      </trkpt>
      <trkpt lat="43.73129" lon="6.12724">
        <ele>557</ele>
        <time>2025-02-09T09:52:59Z</time>
      </trkpt>
      <trkpt lat="43.73129" lon="6.12724">
        <ele>556.9</ele>
        <time>2025-02-09T09:53:00Z</time>
      </trkpt>
      <trkpt lat="43.73129" lon="6.12724">
        <ele>556.8</ele>
        <time>2025-02-09T09:53:01Z</time>
      </trkpt>
      <trkpt lat="43.73133" lon="6.12732">
        <ele>555.5</ele>
        <time>2025-02-09T09:53:12Z</time>
      </trkpt>
      <trkpt lat="43.73133" lon="6.12732">
        <ele>555.5</ele>
        <time>2025-02-09T09:53:13Z</time>
      </trkpt>
      <trkpt lat="43.73141" lon="6.12735">
        <ele>555.5</ele>
        <time>2025-02-09T09:53:27Z</time>
      </trkpt>
      <trkpt lat="43.73141" lon="6.12735">
        <ele>555.7</ele>
        <time>2025-02-09T09:53:31Z</time>
      </trkpt>
      <trkpt lat="43.73149" lon="6.12742">
        <ele>556.9</ele>
        <time>2025-02-09T09:53:47Z</time>
      </trkpt>
      <trkpt lat="43.73157" lon="6.12749">
        <ele>557.6</ele>
        <time>2025-02-09T09:54:08Z</time>
      </trkpt>
      <trkpt lat="43.73165" lon="6.12756">
        <ele>557.2</ele>
        <time>2025-02-09T09:54:18Z</time>
      </trkpt>
      <trkpt lat="43.73174" lon="6.12759">
        <ele>557.8</ele>
        <time>2025-02-09T09:54:29Z</time>
      </trkpt>
      <trkpt lat="43.73179" lon="6.1277">
        <ele>557.7</ele>
        <time>2025-02-09T09:54:39Z</time>
      </trkpt>
      <trkpt lat="43.73183" lon="6.12772">
        <ele>557.4</ele>
        <time>2025-02-09T09:54:47Z</time>
      </trkpt>
      <trkpt lat="43.73183" lon="6.12772">
        <ele>557.5</ele>
        <time>2025-02-09T09:54:49Z</time>
      </trkpt>
      <trkpt lat="43.73188" lon="6.12769">
        <ele>557</ele>
        <time>2025-02-09T09:55:02Z</time>
      </trkpt>
      <trkpt lat="43.73188" lon="6.1277">
        <ele>556.9</ele>
        <time>2025-02-09T09:55:03Z</time>
      </trkpt>
      <trkpt lat="43.73192" lon="6.12773">
        <ele>556.3</ele>
        <time>2025-02-09T09:55:15Z</time>
      </trkpt>
      <trkpt lat="43.73192" lon="6.12773">
        <ele>556.1</ele>
        <time>2025-02-09T09:55:16Z</time>
      </trkpt>
      <trkpt lat="43.73201" lon="6.12774">
        <ele>555.9</ele>
        <time>2025-02-09T09:55:28Z</time>
      </trkpt>
      <trkpt lat="43.73211" lon="6.12777">
        <ele>555.3</ele>
        <time>2025-02-09T09:55:36Z</time>
      </trkpt>
      <trkpt lat="43.7322" lon="6.12782">
        <ele>555.5</ele>
        <time>2025-02-09T09:55:44Z</time>
      </trkpt>
      <trkpt lat="43.73228" lon="6.12788">
        <ele>556.1</ele>
        <time>2025-02-09T09:55:54Z</time>
      </trkpt>
      <trkpt lat="43.73237" lon="6.12793">
        <ele>556.1</ele>
        <time>2025-02-09T09:56:02Z</time>
      </trkpt>
      <trkpt lat="43.73246" lon="6.12799">
        <ele>555</ele>
        <time>2025-02-09T09:56:10Z</time>
      </trkpt>
      <trkpt lat="43.73254" lon="6.12804">
        <ele>554.1</ele>
        <time>2025-02-09T09:56:21Z</time>
      </trkpt>
      <trkpt lat="43.73263" lon="6.12802">
        <ele>554.1</ele>
        <time>2025-02-09T09:56:28Z</time>
      </trkpt>
      <trkpt lat="43.73272" lon="6.12806">
        <ele>552.5</ele>
        <time>2025-02-09T09:56:40Z</time>
      </trkpt>
      <trkpt lat="43.73281" lon="6.12809">
        <ele>552.4</ele>
        <time>2025-02-09T09:56:48Z</time>
      </trkpt>
      <trkpt lat="43.7329" lon="6.12813">
        <ele>552</ele>
        <time>2025-02-09T09:56:56Z</time>
      </trkpt>
      <trkpt lat="43.73299" lon="6.12817">
        <ele>551.4</ele>
        <time>2025-02-09T09:57:05Z</time>
      </trkpt>
      <trkpt lat="43.73308" lon="6.12816">
        <ele>550.6</ele>
        <time>2025-02-09T09:57:12Z</time>
      </trkpt>
      <trkpt lat="43.73318" lon="6.12811">
        <ele>550.2</ele>
        <time>2025-02-09T09:57:21Z</time>
      </trkpt>
      <trkpt lat="43.73321" lon="6.12801">
        <ele>550.6</ele>
        <time>2025-02-09T09:57:31Z</time>
      </trkpt>
      <trkpt lat="43.7332" lon="6.12801">
        <ele>550.7</ele>
        <time>2025-02-09T09:57:32Z</time>
      </trkpt>
      <trkpt lat="43.73328" lon="6.12794">
        <ele>549.5</ele>
        <time>2025-02-09T09:57:50Z</time>
      </trkpt>
      <trkpt lat="43.73335" lon="6.12804">
        <ele>546.6</ele>
        <time>2025-02-09T09:58:13Z</time>
      </trkpt>
      <trkpt lat="43.73344" lon="6.12809">
        <ele>545.4</ele>
        <time>2025-02-09T09:58:28Z</time>
      </trkpt>
      <trkpt lat="43.73353" lon="6.12813">
        <ele>545</ele>
        <time>2025-02-09T09:58:36Z</time>
      </trkpt>
      <trkpt lat="43.73362" lon="6.12815">
        <ele>544.4</ele>
        <time>2025-02-09T09:58:46Z</time>
      </trkpt>
      <trkpt lat="43.73365" lon="6.12817">
        <ele>544</ele>
        <time>2025-02-09T09:58:51Z</time>
      </trkpt>
      <trkpt lat="43.73365" lon="6.12817">
        <ele>543.9</ele>
        <time>2025-02-09T09:58:52Z</time>
      </trkpt>
      <trkpt lat="43.73372" lon="6.1281">
        <ele>543.6</ele>
        <time>2025-02-09T09:59:03Z</time>
      </trkpt>
      <trkpt lat="43.73375" lon="6.12809">
        <ele>543.6</ele>
        <time>2025-02-09T09:59:07Z</time>
      </trkpt>
      <trkpt lat="43.73376" lon="6.12809">
        <ele>543.5</ele>
        <time>2025-02-09T09:59:08Z</time>
      </trkpt>
      <trkpt lat="43.73384" lon="6.12815">
        <ele>542.9</ele>
        <time>2025-02-09T09:59:29Z</time>
      </trkpt>
      <trkpt lat="43.73393" lon="6.12816">
        <ele>542.5</ele>
        <time>2025-02-09T09:59:42Z</time>
      </trkpt>
      <trkpt lat="43.73399" lon="6.12826">
        <ele>541.6</ele>
        <time>2025-02-09T09:59:56Z</time>
      </trkpt>
      <trkpt lat="43.73403" lon="6.12828">
        <ele>541.6</ele>
        <time>2025-02-09T10:00:09Z</time>
      </trkpt>
      <trkpt lat="43.73403" lon="6.12829">
        <ele>541.5</ele>
        <time>2025-02-09T10:00:10Z</time>
      </trkpt>
      <trkpt lat="43.73413" lon="6.12826">
        <ele>540.9</ele>
        <time>2025-02-09T10:00:26Z</time>
      </trkpt>
      <trkpt lat="43.73422" lon="6.12822">
        <ele>541.2</ele>
        <time>2025-02-09T10:00:33Z</time>
      </trkpt>
      <trkpt lat="43.73431" lon="6.12817">
        <ele>540.5</ele>
        <time>2025-02-09T10:00:44Z</time>
      </trkpt>
      <trkpt lat="43.73435" lon="6.12806">
        <ele>539</ele>
        <time>2025-02-09T10:00:58Z</time>
      </trkpt>
      <trkpt lat="43.7344" lon="6.12794">
        <ele>537.7</ele>
        <time>2025-02-09T10:01:14Z</time>
      </trkpt>
      <trkpt lat="43.73443" lon="6.12789">
        <ele>537.4</ele>
        <time>2025-02-09T10:01:25Z</time>
      </trkpt>
      <trkpt lat="43.73444" lon="6.12789">
        <ele>537.3</ele>
        <time>2025-02-09T10:01:27Z</time>
      </trkpt>
      <trkpt lat="43.73445" lon="6.12786">
        <ele>536.7</ele>
        <time>2025-02-09T10:01:38Z</time>
      </trkpt>
      <trkpt lat="43.73445" lon="6.12786">
        <ele>536.7</ele>
        <time>2025-02-09T10:01:39Z</time>
      </trkpt>
      <trkpt lat="43.73453" lon="6.12786">
        <ele>534.8</ele>
        <time>2025-02-09T10:02:07Z</time>
      </trkpt>
      <trkpt lat="43.73454" lon="6.12785">
        <ele>534.8</ele>
        <time>2025-02-09T10:02:08Z</time>
      </trkpt>
      <trkpt lat="43.73461" lon="6.12778">
        <ele>533.6</ele>
        <time>2025-02-09T10:02:21Z</time>
      </trkpt>
      <trkpt lat="43.73469" lon="6.12774">
        <ele>532.8</ele>
        <time>2025-02-09T10:02:35Z</time>
      </trkpt>
      <trkpt lat="43.73469" lon="6.12774">
        <ele>532.8</ele>
        <time>2025-02-09T10:02:36Z</time>
      </trkpt>
      <trkpt lat="43.73469" lon="6.12774">
        <ele>532.9</ele>
        <time>2025-02-09T10:02:42Z</time>
      </trkpt>
      <trkpt lat="43.73469" lon="6.12774">
        <ele>532.7</ele>
        <time>2025-02-09T10:02:43Z</time>
      </trkpt>
      <trkpt lat="43.73467" lon="6.12775">
        <ele>531.1</ele>
        <time>2025-02-09T10:02:57Z</time>
      </trkpt>
      <trkpt lat="43.73467" lon="6.12775">
        <ele>531</ele>
        <time>2025-02-09T10:02:58Z</time>
      </trkpt>
      <trkpt lat="43.73467" lon="6.12775">
        <ele>530.9</ele>
        <time>2025-02-09T10:02:59Z</time>
      </trkpt>
      <trkpt lat="43.73467" lon="6.12775">
        <ele>531</ele>
        <time>2025-02-09T10:03:00Z</time>
      </trkpt>
      <trkpt lat="43.73469" lon="6.12776">
        <ele>532.2</ele>
        <time>2025-02-09T10:03:11Z</time>
      </trkpt>
      <trkpt lat="43.73469" lon="6.12776">
        <ele>532.3</ele>
        <time>2025-02-09T10:03:12Z</time>
      </trkpt>
      <trkpt lat="43.7347" lon="6.12776">
        <ele>532.4</ele>
        <time>2025-02-09T10:03:14Z</time>
      </trkpt>
      <trkpt lat="43.73469" lon="6.12776">
        <ele>532.5</ele>
        <time>2025-02-09T10:03:15Z</time>
      </trkpt>
      <trkpt lat="43.73478" lon="6.12779">
        <ele>531.7</ele>
        <time>2025-02-09T10:03:31Z</time>
      </trkpt>
      <trkpt lat="43.73486" lon="6.12782">
        <ele>531.5</ele>
        <time>2025-02-09T10:03:42Z</time>
      </trkpt>
      <trkpt lat="43.73486" lon="6.12782">
        <ele>531.5</ele>
        <time>2025-02-09T10:03:43Z</time>
      </trkpt>
      <trkpt lat="43.73489" lon="6.12774">
        <ele>530.5</ele>
        <time>2025-02-09T10:03:59Z</time>
      </trkpt>
      <trkpt lat="43.73488" lon="6.12774">
        <ele>530.4</ele>
        <time>2025-02-09T10:04:00Z</time>
      </trkpt>
      <trkpt lat="43.73488" lon="6.12775">
        <ele>530.2</ele>
        <time>2025-02-09T10:04:03Z</time>
      </trkpt>
      <trkpt lat="43.73488" lon="6.12775">
        <ele>530.3</ele>
        <time>2025-02-09T10:04:05Z</time>
      </trkpt>
      <trkpt lat="43.73489" lon="6.12775">
        <ele>530.2</ele>
        <time>2025-02-09T10:04:07Z</time>
      </trkpt>
      <trkpt lat="43.73488" lon="6.12775">
        <ele>530.2</ele>
        <time>2025-02-09T10:04:08Z</time>
      </trkpt>
      <trkpt lat="43.73488" lon="6.12775">
        <ele>530.1</ele>
        <time>2025-02-09T10:04:09Z</time>
      </trkpt>
      <trkpt lat="43.73488" lon="6.12774">
        <ele>529.9</ele>
        <time>2025-02-09T10:04:12Z</time>
      </trkpt>
      <trkpt lat="43.73488" lon="6.12773">
        <ele>529.7</ele>
        <time>2025-02-09T10:04:15Z</time>
      </trkpt>
      <trkpt lat="43.73488" lon="6.12773">
        <ele>529.6</ele>
        <time>2025-02-09T10:04:16Z</time>
      </trkpt>
      <trkpt lat="43.7349" lon="6.12774">
        <ele>529.2</ele>
        <time>2025-02-09T10:04:22Z</time>
      </trkpt>
      <trkpt lat="43.7349" lon="6.12773">
        <ele>529.1</ele>
        <time>2025-02-09T10:04:23Z</time>
      </trkpt>
      <trkpt lat="43.7349" lon="6.12773">
        <ele>529</ele>
        <time>2025-02-09T10:04:25Z</time>
      </trkpt>
      <trkpt lat="43.73489" lon="6.12773">
        <ele>529</ele>
        <time>2025-02-09T10:04:26Z</time>
      </trkpt>
      <trkpt lat="43.7349" lon="6.12772">
        <ele>528.9</ele>
        <time>2025-02-09T10:04:29Z</time>
      </trkpt>
      <trkpt lat="43.7349" lon="6.12773">
        <ele>528.9</ele>
        <time>2025-02-09T10:04:30Z</time>
      </trkpt>
      <trkpt lat="43.7349" lon="6.12772">
        <ele>529</ele>
        <time>2025-02-09T10:04:35Z</time>
      </trkpt>
      <trkpt lat="43.7349" lon="6.12772">
        <ele>529</ele>
        <time>2025-02-09T10:04:36Z</time>
      </trkpt>
      <trkpt lat="43.73489" lon="6.12773">
        <ele>529.1</ele>
        <time>2025-02-09T10:04:42Z</time>
      </trkpt>
      <trkpt lat="43.73489" lon="6.12773">
        <ele>529.1</ele>
        <time>2025-02-09T10:04:43Z</time>
      </trkpt>
      <trkpt lat="43.73488" lon="6.12773">
        <ele>529.3</ele>
        <time>2025-02-09T10:04:46Z</time>
      </trkpt>
      <trkpt lat="43.73488" lon="6.12773">
        <ele>529.3</ele>
        <time>2025-02-09T10:04:47Z</time>
      </trkpt>
      <trkpt lat="43.73488" lon="6.12776">
        <ele>529.6</ele>
        <time>2025-02-09T10:04:54Z</time>
      </trkpt>
      <trkpt lat="43.73488" lon="6.12776">
        <ele>529.5</ele>
        <time>2025-02-09T10:04:57Z</time>
      </trkpt>
      <trkpt lat="43.73486" lon="6.12775">
        <ele>529.7</ele>
        <time>2025-02-09T10:05:09Z</time>
      </trkpt>
      <trkpt lat="43.73487" lon="6.12775">
        <ele>529.8</ele>
        <time>2025-02-09T10:05:10Z</time>
      </trkpt>
      <trkpt lat="43.73487" lon="6.12777">
        <ele>529.7</ele>
        <time>2025-02-09T10:05:29Z</time>
      </trkpt>
      <trkpt lat="43.73487" lon="6.12777">
        <ele>529.9</ele>
        <time>2025-02-09T10:05:31Z</time>
      </trkpt>
      <trkpt lat="43.73487" lon="6.1278">
        <ele>530.3</ele>
        <time>2025-02-09T10:05:45Z</time>
      </trkpt>
      <trkpt lat="43.73487" lon="6.1278">
        <ele>530.3</ele>
        <time>2025-02-09T10:05:46Z</time>
      </trkpt>
      <trkpt lat="43.73489" lon="6.12781">
        <ele>530.6</ele>
        <time>2025-02-09T10:05:56Z</time>
      </trkpt>
      <trkpt lat="43.73489" lon="6.12782">
        <ele>530.6</ele>
        <time>2025-02-09T10:05:59Z</time>
      </trkpt>
      <trkpt lat="43.73489" lon="6.12782">
        <ele>530.6</ele>
        <time>2025-02-09T10:06:02Z</time>
      </trkpt>
      <trkpt lat="43.73489" lon="6.12782">
        <ele>530.7</ele>
        <time>2025-02-09T10:06:03Z</time>
      </trkpt>
      <trkpt lat="43.7349" lon="6.12781">
        <ele>530.5</ele>
        <time>2025-02-09T10:06:24Z</time>
      </trkpt>
      <trkpt lat="43.7349" lon="6.12781">
        <ele>530.6</ele>
        <time>2025-02-09T10:06:25Z</time>
      </trkpt>
      <trkpt lat="43.73489" lon="6.12794">
        <ele>531.8</ele>
        <time>2025-02-09T10:06:39Z</time>
      </trkpt>
      <trkpt lat="43.73494" lon="6.12804">
        <ele>530.8</ele>
        <time>2025-02-09T10:06:55Z</time>
      </trkpt>
      <trkpt lat="43.73502" lon="6.1281">
        <ele>530.2</ele>
        <time>2025-02-09T10:07:07Z</time>
      </trkpt>
      <trkpt lat="43.73511" lon="6.12809">
        <ele>530.5</ele>
        <time>2025-02-09T10:07:24Z</time>
      </trkpt>
      <trkpt lat="43.7352" lon="6.1281">
        <ele>530.1</ele>
        <time>2025-02-09T10:07:36Z</time>
      </trkpt>
      <trkpt lat="43.73529" lon="6.1281">
        <ele>529.5</ele>
        <time>2025-02-09T10:07:45Z</time>
      </trkpt>
      <trkpt lat="43.73539" lon="6.1281">
        <ele>529</ele>
        <time>2025-02-09T10:07:55Z</time>
      </trkpt>
      <trkpt lat="43.73549" lon="6.12811">
        <ele>527.8</ele>
        <time>2025-02-09T10:08:06Z</time>
      </trkpt>
      <trkpt lat="43.73558" lon="6.12811">
        <ele>526.2</ele>
        <time>2025-02-09T10:08:17Z</time>
      </trkpt>
      <trkpt lat="43.73567" lon="6.12805">
        <ele>524.5</ele>
        <time>2025-02-09T10:08:30Z</time>
      </trkpt>
      <trkpt lat="43.73576" lon="6.12803">
        <ele>522.7</ele>
        <time>2025-02-09T10:08:48Z</time>
      </trkpt>
      <trkpt lat="43.73577" lon="6.12802">
        <ele>522.1</ele>
        <time>2025-02-09T10:08:52Z</time>
      </trkpt>
      <trkpt lat="43.73577" lon="6.12803">
        <ele>522</ele>
        <time>2025-02-09T10:08:53Z</time>
      </trkpt>
      <trkpt lat="43.73579" lon="6.12804">
        <ele>521.1</ele>
        <time>2025-02-09T10:09:01Z</time>
      </trkpt>
      <trkpt lat="43.73579" lon="6.12804">
        <ele>521.1</ele>
        <time>2025-02-09T10:09:02Z</time>
      </trkpt>
      <trkpt lat="43.73578" lon="6.12808">
        <ele>520.5</ele>
        <time>2025-02-09T10:09:10Z</time>
      </trkpt>
      <trkpt lat="43.73578" lon="6.12808">
        <ele>520.7</ele>
        <time>2025-02-09T10:09:11Z</time>
      </trkpt>
      <trkpt lat="43.73577" lon="6.12808">
        <ele>520.5</ele>
        <time>2025-02-09T10:09:13Z</time>
      </trkpt>
      <trkpt lat="43.73577" lon="6.12809">
        <ele>520.3</ele>
        <time>2025-02-09T10:09:14Z</time>
      </trkpt>
      <trkpt lat="43.73576" lon="6.12819">
        <ele>518.2</ele>
        <time>2025-02-09T10:09:44Z</time>
      </trkpt>
      <trkpt lat="43.73576" lon="6.12819">
        <ele>518.2</ele>
        <time>2025-02-09T10:09:45Z</time>
      </trkpt>
      <trkpt lat="43.73576" lon="6.12821">
        <ele>517.9</ele>
        <time>2025-02-09T10:09:49Z</time>
      </trkpt>
      <trkpt lat="43.73576" lon="6.12821">
        <ele>517.9</ele>
        <time>2025-02-09T10:09:50Z</time>
      </trkpt>
      <trkpt lat="43.73576" lon="6.1282">
        <ele>517.9</ele>
        <time>2025-02-09T10:09:54Z</time>
      </trkpt>
      <trkpt lat="43.73576" lon="6.1282">
        <ele>518</ele>
        <time>2025-02-09T10:09:57Z</time>
      </trkpt>
      <trkpt lat="43.73577" lon="6.12817">
        <ele>517.7</ele>
        <time>2025-02-09T10:10:06Z</time>
      </trkpt>
      <trkpt lat="43.73576" lon="6.12817">
        <ele>517.7</ele>
        <time>2025-02-09T10:10:09Z</time>
      </trkpt>
      <trkpt lat="43.73577" lon="6.12817">
        <ele>517.4</ele>
        <time>2025-02-09T10:10:15Z</time>
      </trkpt>
      <trkpt lat="43.73577" lon="6.12817">
        <ele>517.4</ele>
        <time>2025-02-09T10:10:16Z</time>
      </trkpt>
      <trkpt lat="43.73577" lon="6.1282">
        <ele>517.3</ele>
        <time>2025-02-09T10:10:27Z</time>
      </trkpt>
      <trkpt lat="43.73576" lon="6.1282">
        <ele>517.2</ele>
        <time>2025-02-09T10:10:28Z</time>
      </trkpt>
      <trkpt lat="43.73576" lon="6.1282">
        <ele>517.1</ele>
        <time>2025-02-09T10:10:31Z</time>
      </trkpt>
      <trkpt lat="43.73576" lon="6.1282">
        <ele>517</ele>
        <time>2025-02-09T10:10:32Z</time>
      </trkpt>
      <trkpt lat="43.73576" lon="6.12821">
        <ele>516.8</ele>
        <time>2025-02-09T10:10:35Z</time>
      </trkpt>
      <trkpt lat="43.73576" lon="6.1282">
        <ele>516.2</ele>
        <time>2025-02-09T10:10:36Z</time>
      </trkpt>
      <trkpt lat="43.73576" lon="6.12823">
        <ele>514.2</ele>
        <time>2025-02-09T10:10:45Z</time>
      </trkpt>
      <trkpt lat="43.73577" lon="6.12823">
        <ele>514.2</ele>
        <time>2025-02-09T10:10:46Z</time>
      </trkpt>
      <trkpt lat="43.73577" lon="6.12822">
        <ele>513.8</ele>
        <time>2025-02-09T10:10:49Z</time>
      </trkpt>
      <trkpt lat="43.73577" lon="6.12822">
        <ele>513.8</ele>
        <time>2025-02-09T10:10:54Z</time>
      </trkpt>
      <trkpt lat="43.73577" lon="6.12822">
        <ele>513.8</ele>
        <time>2025-02-09T10:10:55Z</time>
      </trkpt>
      <trkpt lat="43.73577" lon="6.12822">
        <ele>513.9</ele>
        <time>2025-02-09T10:10:57Z</time>
      </trkpt>
      <trkpt lat="43.73579" lon="6.1282">
        <ele>512.8</ele>
        <time>2025-02-09T10:11:15Z</time>
      </trkpt>
      <trkpt lat="43.73579" lon="6.1282">
        <ele>512.9</ele>
        <time>2025-02-09T10:11:23Z</time>
      </trkpt>
      <trkpt lat="43.73579" lon="6.1282">
        <ele>512.9</ele>
        <time>2025-02-09T10:11:24Z</time>
      </trkpt>
      <trkpt lat="43.73579" lon="6.1282">
        <ele>512.9</ele>
        <time>2025-02-09T10:11:26Z</time>
      </trkpt>
      <trkpt lat="43.73579" lon="6.1282">
        <ele>512.9</ele>
        <time>2025-02-09T10:11:27Z</time>
      </trkpt>
      <trkpt lat="43.73579" lon="6.1282">
        <ele>512.9</ele>
        <time>2025-02-09T10:11:28Z</time>
      </trkpt>
      <trkpt lat="43.73579" lon="6.1282">
        <ele>512.8</ele>
        <time>2025-02-09T10:11:29Z</time>
      </trkpt>
      <trkpt lat="43.73579" lon="6.1282">
        <ele>513</ele>
        <time>2025-02-09T10:11:31Z</time>
      </trkpt>
      <trkpt lat="43.73579" lon="6.1282">
        <ele>513</ele>
        <time>2025-02-09T10:11:32Z</time>
      </trkpt>
      <trkpt lat="43.73579" lon="6.1282">
        <ele>512.9</ele>
        <time>2025-02-09T10:11:37Z</time>
      </trkpt>
      <trkpt lat="43.73579" lon="6.1282">
        <ele>512.8</ele>
        <time>2025-02-09T10:11:38Z</time>
      </trkpt>
      <trkpt lat="43.73579" lon="6.1282">
        <ele>512.9</ele>
        <time>2025-02-09T10:11:45Z</time>
      </trkpt>
      <trkpt lat="43.73579" lon="6.1282">
        <ele>512.9</ele>
        <time>2025-02-09T10:11:46Z</time>
      </trkpt>
      <trkpt lat="43.73579" lon="6.12821">
        <ele>512.9</ele>
        <time>2025-02-09T10:11:47Z</time>
      </trkpt>
      <trkpt lat="43.73579" lon="6.12821">
        <ele>513</ele>
        <time>2025-02-09T10:11:48Z</time>
      </trkpt>
      <trkpt lat="43.7358" lon="6.12821">
        <ele>513.3</ele>
        <time>2025-02-09T10:11:53Z</time>
      </trkpt>
      <trkpt lat="43.7358" lon="6.12819">
        <ele>513.3</ele>
        <time>2025-02-09T10:11:57Z</time>
      </trkpt>
      <trkpt lat="43.7358" lon="6.12819">
        <ele>513.2</ele>
        <time>2025-02-09T10:11:59Z</time>
      </trkpt>
      <trkpt lat="43.7358" lon="6.12818">
        <ele>513.1</ele>
        <time>2025-02-09T10:12:02Z</time>
      </trkpt>
      <trkpt lat="43.7358" lon="6.12818">
        <ele>513.1</ele>
        <time>2025-02-09T10:12:03Z</time>
      </trkpt>
      <trkpt lat="43.73581" lon="6.12814">
        <ele>513.3</ele>
        <time>2025-02-09T10:12:11Z</time>
      </trkpt>
      <trkpt lat="43.73581" lon="6.12814">
        <ele>513.3</ele>
        <time>2025-02-09T10:12:12Z</time>
      </trkpt>
      <trkpt lat="43.73581" lon="6.12801">
        <ele>513.8</ele>
        <time>2025-02-09T10:12:25Z</time>
      </trkpt>
      <trkpt lat="43.7358" lon="6.12791">
        <ele>513.9</ele>
        <time>2025-02-09T10:12:37Z</time>
      </trkpt>
      <trkpt lat="43.73579" lon="6.12791">
        <ele>513.9</ele>
        <time>2025-02-09T10:12:39Z</time>
      </trkpt>
      <trkpt lat="43.73579" lon="6.12791">
        <ele>513.8</ele>
        <time>2025-02-09T10:12:41Z</time>
      </trkpt>
      <trkpt lat="43.73579" lon="6.12791">
        <ele>513.4</ele>
        <time>2025-02-09T10:12:50Z</time>
      </trkpt>
      <trkpt lat="43.73578" lon="6.12788">
        <ele>514.2</ele>
        <time>2025-02-09T10:13:01Z</time>
      </trkpt>
      <trkpt lat="43.73578" lon="6.12788">
        <ele>514.3</ele>
        <time>2025-02-09T10:13:02Z</time>
      </trkpt>
      <trkpt lat="43.7358" lon="6.12784">
        <ele>514</ele>
        <time>2025-02-09T10:13:11Z</time>
      </trkpt>
      <trkpt lat="43.7358" lon="6.12784">
        <ele>514.1</ele>
        <time>2025-02-09T10:13:12Z</time>
      </trkpt>
      <trkpt lat="43.7358" lon="6.12784">
        <ele>514.1</ele>
        <time>2025-02-09T10:13:13Z</time>
      </trkpt>
      <trkpt lat="43.7358" lon="6.12783">
        <ele>514.2</ele>
        <time>2025-02-09T10:13:14Z</time>
      </trkpt>
      <trkpt lat="43.7358" lon="6.12783">
        <ele>514.1</ele>
        <time>2025-02-09T10:13:15Z</time>
      </trkpt>
      <trkpt lat="43.7358" lon="6.12783">
        <ele>514.3</ele>
        <time>2025-02-09T10:13:18Z</time>
      </trkpt>
      <trkpt lat="43.73581" lon="6.1277">
        <ele>514.9</ele>
        <time>2025-02-09T10:13:30Z</time>
      </trkpt>
      <trkpt lat="43.73576" lon="6.12758">
        <ele>515.1</ele>
        <time>2025-02-09T10:13:39Z</time>
      </trkpt>
      <trkpt lat="43.73573" lon="6.12746">
        <ele>515.3</ele>
        <time>2025-02-09T10:13:47Z</time>
      </trkpt>
      <trkpt lat="43.73571" lon="6.12734">
        <ele>515.3</ele>
        <time>2025-02-09T10:13:56Z</time>
      </trkpt>
      <trkpt lat="43.73565" lon="6.12723">
        <ele>514.7</ele>
        <time>2025-02-09T10:14:04Z</time>
      </trkpt>
      <trkpt lat="43.73557" lon="6.12714">
        <ele>514.1</ele>
        <time>2025-02-09T10:14:13Z</time>
      </trkpt>
      <trkpt lat="43.73552" lon="6.12703">
        <ele>514.2</ele>
        <time>2025-02-09T10:14:21Z</time>
      </trkpt>
      <trkpt lat="43.73546" lon="6.12693">
        <ele>514.4</ele>
        <time>2025-02-09T10:14:29Z</time>
      </trkpt>
      <trkpt lat="43.73538" lon="6.12689">
        <ele>514.3</ele>
        <time>2025-02-09T10:14:35Z</time>
      </trkpt>
      <trkpt lat="43.7353" lon="6.1268">
        <ele>514.2</ele>
        <time>2025-02-09T10:14:42Z</time>
      </trkpt>
      <trkpt lat="43.73527" lon="6.12673">
        <ele>513.3</ele>
        <time>2025-02-09T10:15:00Z</time>
      </trkpt>
      <trkpt lat="43.73527" lon="6.12672">
        <ele>513.1</ele>
        <time>2025-02-09T10:15:02Z</time>
      </trkpt>
      <trkpt lat="43.73528" lon="6.12672">
        <ele>513</ele>
        <time>2025-02-09T10:15:16Z</time>
      </trkpt>
      <trkpt lat="43.73528" lon="6.12672">
        <ele>513.1</ele>
        <time>2025-02-09T10:15:17Z</time>
      </trkpt>
      <trkpt lat="43.7352" lon="6.12664">
        <ele>512.1</ele>
        <time>2025-02-09T10:15:36Z</time>
      </trkpt>
      <trkpt lat="43.73521" lon="6.12651">
        <ele>511.4</ele>
        <time>2025-02-09T10:15:55Z</time>
      </trkpt>
      <trkpt lat="43.7352" lon="6.12645">
        <ele>511.8</ele>
        <time>2025-02-09T10:16:11Z</time>
      </trkpt>
      <trkpt lat="43.7352" lon="6.12645">
        <ele>511.8</ele>
        <time>2025-02-09T10:16:12Z</time>
      </trkpt>
      <trkpt lat="43.7352" lon="6.12645">
        <ele>512</ele>
        <time>2025-02-09T10:16:15Z</time>
      </trkpt>
      <trkpt lat="43.7352" lon="6.12645">
        <ele>512</ele>
        <time>2025-02-09T10:16:16Z</time>
      </trkpt>
      <trkpt lat="43.7352" lon="6.12643">
        <ele>512.4</ele>
        <time>2025-02-09T10:16:23Z</time>
      </trkpt>
      <trkpt lat="43.7352" lon="6.12643">
        <ele>512.4</ele>
        <time>2025-02-09T10:16:24Z</time>
      </trkpt>
      <trkpt lat="43.73516" lon="6.12632">
        <ele>512.8</ele>
        <time>2025-02-09T10:16:43Z</time>
      </trkpt>
      <trkpt lat="43.73517" lon="6.12619">
        <ele>513.1</ele>
        <time>2025-02-09T10:17:01Z</time>
      </trkpt>
      <trkpt lat="43.73517" lon="6.12616">
        <ele>514</ele>
        <time>2025-02-09T10:17:09Z</time>
      </trkpt>
      <trkpt lat="43.73517" lon="6.12616">
        <ele>514.1</ele>
        <time>2025-02-09T10:17:10Z</time>
      </trkpt>
      <trkpt lat="43.73517" lon="6.12616">
        <ele>514.3</ele>
        <time>2025-02-09T10:17:11Z</time>
      </trkpt>
      <trkpt lat="43.73516" lon="6.12616">
        <ele>514.4</ele>
        <time>2025-02-09T10:17:12Z</time>
      </trkpt>
      <trkpt lat="43.73509" lon="6.12607">
        <ele>514.8</ele>
        <time>2025-02-09T10:17:29Z</time>
      </trkpt>
      <trkpt lat="43.73505" lon="6.126">
        <ele>515.9</ele>
        <time>2025-02-09T10:17:40Z</time>
      </trkpt>
      <trkpt lat="43.73505" lon="6.126">
        <ele>516.1</ele>
        <time>2025-02-09T10:17:41Z</time>
      </trkpt>
      <trkpt lat="43.73502" lon="6.12591">
        <ele>518.6</ele>
        <time>2025-02-09T10:18:04Z</time>
      </trkpt>
      <trkpt lat="43.73502" lon="6.1259">
        <ele>518.7</ele>
        <time>2025-02-09T10:18:05Z</time>
      </trkpt>
      <trkpt lat="43.73502" lon="6.12577">
        <ele>520.2</ele>
        <time>2025-02-09T10:18:18Z</time>
      </trkpt>
      <trkpt lat="43.73498" lon="6.12565">
        <ele>522</ele>
        <time>2025-02-09T10:18:32Z</time>
      </trkpt>
      <trkpt lat="43.73491" lon="6.12561">
        <ele>523.3</ele>
        <time>2025-02-09T10:18:48Z</time>
      </trkpt>
      <trkpt lat="43.73491" lon="6.1256">
        <ele>523.3</ele>
        <time>2025-02-09T10:18:49Z</time>
      </trkpt>
      <trkpt lat="43.73495" lon="6.12557">
        <ele>525</ele>
        <time>2025-02-09T10:19:12Z</time>
      </trkpt>
      <trkpt lat="43.73495" lon="6.12557">
        <ele>525.3</ele>
        <time>2025-02-09T10:19:14Z</time>
      </trkpt>
      <trkpt lat="43.73497" lon="6.12556">
        <ele>526.8</ele>
        <time>2025-02-09T10:19:21Z</time>
      </trkpt>
      <trkpt lat="43.73497" lon="6.12556">
        <ele>526.9</ele>
        <time>2025-02-09T10:19:22Z</time>
      </trkpt>
      <trkpt lat="43.73498" lon="6.12543">
        <ele>527.4</ele>
        <time>2025-02-09T10:19:31Z</time>
      </trkpt>
      <trkpt lat="43.73507" lon="6.1254">
        <ele>531.6</ele>
        <time>2025-02-09T10:19:59Z</time>
      </trkpt>
      <trkpt lat="43.73512" lon="6.12529">
        <ele>534.8</ele>
        <time>2025-02-09T10:20:23Z</time>
      </trkpt>
      <trkpt lat="43.73516" lon="6.1254">
        <ele>537</ele>
        <time>2025-02-09T10:20:41Z</time>
      </trkpt>
      <trkpt lat="43.73522" lon="6.12551">
        <ele>538.3</ele>
        <time>2025-02-09T10:20:53Z</time>
      </trkpt>
      <trkpt lat="43.73531" lon="6.12553">
        <ele>538.5</ele>
        <time>2025-02-09T10:21:04Z</time>
      </trkpt>
      <trkpt lat="43.7354" lon="6.1255">
        <ele>539.5</ele>
        <time>2025-02-09T10:21:21Z</time>
      </trkpt>
      <trkpt lat="43.73548" lon="6.12543">
        <ele>541.1</ele>
        <time>2025-02-09T10:21:35Z</time>
      </trkpt>
      <trkpt lat="43.73557" lon="6.12546">
        <ele>542.7</ele>
        <time>2025-02-09T10:21:47Z</time>
      </trkpt>
      <trkpt lat="43.73565" lon="6.1254">
        <ele>543.6</ele>
        <time>2025-02-09T10:21:56Z</time>
      </trkpt>
      <trkpt lat="43.73566" lon="6.12541">
        <ele>543.8</ele>
        <time>2025-02-09T10:22:01Z</time>
      </trkpt>
      <trkpt lat="43.73566" lon="6.12541">
        <ele>544.4</ele>
        <time>2025-02-09T10:22:20Z</time>
      </trkpt>
      <trkpt lat="43.73566" lon="6.12542">
        <ele>545</ele>
        <time>2025-02-09T10:22:23Z</time>
      </trkpt>
      <trkpt lat="43.73565" lon="6.12542">
        <ele>545.2</ele>
        <time>2025-02-09T10:22:24Z</time>
      </trkpt>
      <trkpt lat="43.73568" lon="6.12539">
        <ele>545.8</ele>
        <time>2025-02-09T10:22:32Z</time>
      </trkpt>
      <trkpt lat="43.73568" lon="6.12539">
        <ele>546</ele>
        <time>2025-02-09T10:22:35Z</time>
      </trkpt>
      <trkpt lat="43.73568" lon="6.1254">
        <ele>546.1</ele>
        <time>2025-02-09T10:22:36Z</time>
      </trkpt>
      <trkpt lat="43.73568" lon="6.12539">
        <ele>546.2</ele>
        <time>2025-02-09T10:22:38Z</time>
      </trkpt>
      <trkpt lat="43.73566" lon="6.12539">
        <ele>546.7</ele>
        <time>2025-02-09T10:22:49Z</time>
      </trkpt>
      <trkpt lat="43.73566" lon="6.12539">
        <ele>546.8</ele>
        <time>2025-02-09T10:22:50Z</time>
      </trkpt>
      <trkpt lat="43.73568" lon="6.12539">
        <ele>547.2</ele>
        <time>2025-02-09T10:22:59Z</time>
      </trkpt>
      <trkpt lat="43.73568" lon="6.12538">
        <ele>547.1</ele>
        <time>2025-02-09T10:23:00Z</time>
      </trkpt>
      <trkpt lat="43.73567" lon="6.12538">
        <ele>547.3</ele>
        <time>2025-02-09T10:23:09Z</time>
      </trkpt>
      <trkpt lat="43.73566" lon="6.12538">
        <ele>547.4</ele>
        <time>2025-02-09T10:23:10Z</time>
      </trkpt>
      <trkpt lat="43.73565" lon="6.12534">
        <ele>547.9</ele>
        <time>2025-02-09T10:23:25Z</time>
      </trkpt>
      <trkpt lat="43.73566" lon="6.12534">
        <ele>548</ele>
        <time>2025-02-09T10:23:26Z</time>
      </trkpt>
      <trkpt lat="43.73567" lon="6.12536">
        <ele>549.4</ele>
        <time>2025-02-09T10:23:37Z</time>
      </trkpt>
      <trkpt lat="43.73567" lon="6.12536">
        <ele>549.4</ele>
        <time>2025-02-09T10:23:38Z</time>
      </trkpt>
      <trkpt lat="43.73567" lon="6.12536">
        <ele>549.4</ele>
        <time>2025-02-09T10:23:39Z</time>
      </trkpt>
      <trkpt lat="43.73567" lon="6.12536">
        <ele>549.2</ele>
        <time>2025-02-09T10:23:40Z</time>
      </trkpt>
      <trkpt lat="43.73567" lon="6.12536">
        <ele>549.3</ele>
        <time>2025-02-09T10:23:41Z</time>
      </trkpt>
      <trkpt lat="43.73567" lon="6.12537">
        <ele>549.6</ele>
        <time>2025-02-09T10:23:43Z</time>
      </trkpt>
      <trkpt lat="43.73569" lon="6.12537">
        <ele>549.7</ele>
        <time>2025-02-09T10:23:49Z</time>
      </trkpt>
      <trkpt lat="43.7357" lon="6.12536">
        <ele>549.7</ele>
        <time>2025-02-09T10:23:50Z</time>
      </trkpt>
      <trkpt lat="43.73569" lon="6.12536">
        <ele>549.8</ele>
        <time>2025-02-09T10:23:52Z</time>
      </trkpt>
      <trkpt lat="43.73569" lon="6.12536">
        <ele>549.8</ele>
        <time>2025-02-09T10:23:53Z</time>
      </trkpt>
      <trkpt lat="43.73568" lon="6.12538">
        <ele>550.2</ele>
        <time>2025-02-09T10:24:03Z</time>
      </trkpt>
      <trkpt lat="43.73568" lon="6.12538">
        <ele>550.8</ele>
        <time>2025-02-09T10:24:29Z</time>
      </trkpt>
      <trkpt lat="43.73568" lon="6.12538">
        <ele>551</ele>
        <time>2025-02-09T10:24:30Z</time>
      </trkpt>
      <trkpt lat="43.73569" lon="6.12539">
        <ele>551.3</ele>
        <time>2025-02-09T10:24:33Z</time>
      </trkpt>
      <trkpt lat="43.73569" lon="6.12539">
        <ele>551.4</ele>
        <time>2025-02-09T10:24:35Z</time>
      </trkpt>
      <trkpt lat="43.73569" lon="6.12539">
        <ele>551.5</ele>
        <time>2025-02-09T10:24:36Z</time>
      </trkpt>
      <trkpt lat="43.73569" lon="6.12539">
        <ele>551.5</ele>
        <time>2025-02-09T10:24:37Z</time>
      </trkpt>
      <trkpt lat="43.73569" lon="6.12539">
        <ele>551.6</ele>
        <time>2025-02-09T10:24:38Z</time>
      </trkpt>
      <trkpt lat="43.73569" lon="6.12539">
        <ele>551.7</ele>
        <time>2025-02-09T10:24:41Z</time>
      </trkpt>
      <trkpt lat="43.73569" lon="6.1254">
        <ele>551.7</ele>
        <time>2025-02-09T10:24:42Z</time>
      </trkpt>
      <trkpt lat="43.73569" lon="6.12539">
        <ele>552.2</ele>
        <time>2025-02-09T10:24:49Z</time>
      </trkpt>
      <trkpt lat="43.73569" lon="6.12538">
        <ele>552.1</ele>
        <time>2025-02-09T10:24:50Z</time>
      </trkpt>
      <trkpt lat="43.73569" lon="6.12538">
        <ele>552.2</ele>
        <time>2025-02-09T10:24:51Z</time>
      </trkpt>
      <trkpt lat="43.73568" lon="6.12538">
        <ele>552.4</ele>
        <time>2025-02-09T10:24:53Z</time>
      </trkpt>
      <trkpt lat="43.73568" lon="6.12538">
        <ele>552.4</ele>
        <time>2025-02-09T10:24:54Z</time>
      </trkpt>
      <trkpt lat="43.73568" lon="6.12538">
        <ele>552.4</ele>
        <time>2025-02-09T10:24:55Z</time>
      </trkpt>
      <trkpt lat="43.73568" lon="6.12538">
        <ele>552.5</ele>
        <time>2025-02-09T10:24:56Z</time>
      </trkpt>
      <trkpt lat="43.73568" lon="6.12538">
        <ele>552.7</ele>
        <time>2025-02-09T10:25:16Z</time>
      </trkpt>
      <trkpt lat="43.73568" lon="6.12538">
        <ele>552.7</ele>
        <time>2025-02-09T10:25:17Z</time>
      </trkpt>
      <trkpt lat="43.73568" lon="6.12538">
        <ele>552.6</ele>
        <time>2025-02-09T10:25:18Z</time>
      </trkpt>
      <trkpt lat="43.73568" lon="6.12538">
        <ele>552.6</ele>
        <time>2025-02-09T10:25:19Z</time>
      </trkpt>
      <trkpt lat="43.73568" lon="6.12538">
        <ele>552.5</ele>
        <time>2025-02-09T10:25:29Z</time>
      </trkpt>
      <trkpt lat="43.73568" lon="6.12538">
        <ele>552.5</ele>
        <time>2025-02-09T10:25:30Z</time>
      </trkpt>
      <trkpt lat="43.73568" lon="6.12538">
        <ele>552.5</ele>
        <time>2025-02-09T10:25:32Z</time>
      </trkpt>
      <trkpt lat="43.73568" lon="6.12538">
        <ele>552.5</ele>
        <time>2025-02-09T10:25:33Z</time>
      </trkpt>
      <trkpt lat="43.73567" lon="6.12538">
        <ele>552.5</ele>
        <time>2025-02-09T10:25:34Z</time>
      </trkpt>
      <trkpt lat="43.73572" lon="6.12549">
        <ele>552.1</ele>
        <time>2025-02-09T10:25:48Z</time>
      </trkpt>
      <trkpt lat="43.73572" lon="6.12549">
        <ele>552.3</ele>
        <time>2025-02-09T10:25:49Z</time>
      </trkpt>
      <trkpt lat="43.73572" lon="6.12549">
        <ele>552.4</ele>
        <time>2025-02-09T10:25:50Z</time>
      </trkpt>
      <trkpt lat="43.73576" lon="6.12561">
        <ele>552.7</ele>
        <time>2025-02-09T10:26:07Z</time>
      </trkpt>
      <trkpt lat="43.73584" lon="6.1257">
        <ele>552.2</ele>
        <time>2025-02-09T10:26:17Z</time>
      </trkpt>
      <trkpt lat="43.73592" lon="6.12577">
        <ele>550.8</ele>
        <time>2025-02-09T10:26:26Z</time>
      </trkpt>
      <trkpt lat="43.73601" lon="6.12584">
        <ele>550.4</ele>
        <time>2025-02-09T10:26:36Z</time>
      </trkpt>
      <trkpt lat="43.73609" lon="6.12589">
        <ele>549.8</ele>
        <time>2025-02-09T10:26:45Z</time>
      </trkpt>
      <trkpt lat="43.73618" lon="6.12595">
        <ele>549.1</ele>
        <time>2025-02-09T10:26:54Z</time>
      </trkpt>
      <trkpt lat="43.73627" lon="6.126">
        <ele>548.5</ele>
        <time>2025-02-09T10:27:03Z</time>
      </trkpt>
      <trkpt lat="43.73636" lon="6.12604">
        <ele>547.7</ele>
        <time>2025-02-09T10:27:12Z</time>
      </trkpt>
      <trkpt lat="43.73646" lon="6.12606">
        <ele>546.9</ele>
        <time>2025-02-09T10:27:22Z</time>
      </trkpt>
      <trkpt lat="43.73656" lon="6.1261">
        <ele>546</ele>
        <time>2025-02-09T10:27:33Z</time>
      </trkpt>
      <trkpt lat="43.73665" lon="6.12611">
        <ele>545.7</ele>
        <time>2025-02-09T10:27:41Z</time>
      </trkpt>
      <trkpt lat="43.73676" lon="6.1261">
        <ele>545.1</ele>
        <time>2025-02-09T10:27:51Z</time>
      </trkpt>
      <trkpt lat="43.73685" lon="6.12608">
        <ele>544.2</ele>
        <time>2025-02-09T10:28:00Z</time>
      </trkpt>
      <trkpt lat="43.73693" lon="6.12599">
        <ele>543.2</ele>
        <time>2025-02-09T10:28:12Z</time>
      </trkpt>
      <trkpt lat="43.73702" lon="6.12594">
        <ele>541.5</ele>
        <time>2025-02-09T10:28:20Z</time>
      </trkpt>
      <trkpt lat="43.73706" lon="6.12592">
        <ele>541.3</ele>
        <time>2025-02-09T10:28:25Z</time>
      </trkpt>
      <trkpt lat="43.73706" lon="6.12591">
        <ele>541</ele>
        <time>2025-02-09T10:28:35Z</time>
      </trkpt>
      <trkpt lat="43.73706" lon="6.12591">
        <ele>540.9</ele>
        <time>2025-02-09T10:28:36Z</time>
      </trkpt>
      <trkpt lat="43.73706" lon="6.12591">
        <ele>540.9</ele>
        <time>2025-02-09T10:28:37Z</time>
      </trkpt>
      <trkpt lat="43.73706" lon="6.12591">
        <ele>540.9</ele>
        <time>2025-02-09T10:28:38Z</time>
      </trkpt>
      <trkpt lat="43.73706" lon="6.12591">
        <ele>540.8</ele>
        <time>2025-02-09T10:28:39Z</time>
      </trkpt>
      <trkpt lat="43.73706" lon="6.12591">
        <ele>540.8</ele>
        <time>2025-02-09T10:28:41Z</time>
      </trkpt>
      <trkpt lat="43.73706" lon="6.1259">
        <ele>540.8</ele>
        <time>2025-02-09T10:28:43Z</time>
      </trkpt>
      <trkpt lat="43.73706" lon="6.1259">
        <ele>540.7</ele>
        <time>2025-02-09T10:28:45Z</time>
      </trkpt>
      <trkpt lat="43.73706" lon="6.1259">
        <ele>540.6</ele>
        <time>2025-02-09T10:28:48Z</time>
      </trkpt>
      <trkpt lat="43.73707" lon="6.12586">
        <ele>539.1</ele>
        <time>2025-02-09T10:29:00Z</time>
      </trkpt>
      <trkpt lat="43.73707" lon="6.12586">
        <ele>539</ele>
        <time>2025-02-09T10:29:01Z</time>
      </trkpt>
      <trkpt lat="43.73706" lon="6.12586">
        <ele>538.8</ele>
        <time>2025-02-09T10:29:05Z</time>
      </trkpt>
      <trkpt lat="43.73706" lon="6.12587">
        <ele>538.6</ele>
        <time>2025-02-09T10:29:06Z</time>
      </trkpt>
      <trkpt lat="43.73706" lon="6.12588">
        <ele>538</ele>
        <time>2025-02-09T10:29:13Z</time>
      </trkpt>
      <trkpt lat="43.73706" lon="6.12588">
        <ele>538</ele>
        <time>2025-02-09T10:29:14Z</time>
      </trkpt>
      <trkpt lat="43.73706" lon="6.12588">
        <ele>537.8</ele>
        <time>2025-02-09T10:29:18Z</time>
      </trkpt>
      <trkpt lat="43.73706" lon="6.12588">
        <ele>537.7</ele>
        <time>2025-02-09T10:29:20Z</time>
      </trkpt>
      <trkpt lat="43.73706" lon="6.12589">
        <ele>537.3</ele>
        <time>2025-02-09T10:29:25Z</time>
      </trkpt>
      <trkpt lat="43.73706" lon="6.12589">
        <ele>537.2</ele>
        <time>2025-02-09T10:29:27Z</time>
      </trkpt>
      <trkpt lat="43.73706" lon="6.12589">
        <ele>537.1</ele>
        <time>2025-02-09T10:29:28Z</time>
      </trkpt>
      <trkpt lat="43.73706" lon="6.12589">
        <ele>537.2</ele>
        <time>2025-02-09T10:29:29Z</time>
      </trkpt>
      <trkpt lat="43.73706" lon="6.12589">
        <ele>537.1</ele>
        <time>2025-02-09T10:29:30Z</time>
      </trkpt>
      <trkpt lat="43.73706" lon="6.12589">
        <ele>536.7</ele>
        <time>2025-02-09T10:29:41Z</time>
      </trkpt>
      <trkpt lat="43.73706" lon="6.12588">
        <ele>536.5</ele>
        <time>2025-02-09T10:29:43Z</time>
      </trkpt>
      <trkpt lat="43.73706" lon="6.12588">
        <ele>536.6</ele>
        <time>2025-02-09T10:29:44Z</time>
      </trkpt>
      <trkpt lat="43.73706" lon="6.12588">
        <ele>536.5</ele>
        <time>2025-02-09T10:29:45Z</time>
      </trkpt>
      <trkpt lat="43.73706" lon="6.12589">
        <ele>536.4</ele>
        <time>2025-02-09T10:30:00Z</time>
      </trkpt>
      <trkpt lat="43.73706" lon="6.12589">
        <ele>536.2</ele>
        <time>2025-02-09T10:30:02Z</time>
      </trkpt>
      <trkpt lat="43.73706" lon="6.1259">
        <ele>536.2</ele>
        <time>2025-02-09T10:30:07Z</time>
      </trkpt>
      <trkpt lat="43.73706" lon="6.1259">
        <ele>536.1</ele>
        <time>2025-02-09T10:30:08Z</time>
      </trkpt>
      <trkpt lat="43.73706" lon="6.1259">
        <ele>536.2</ele>
        <time>2025-02-09T10:30:09Z</time>
      </trkpt>
      <trkpt lat="43.73706" lon="6.1259">
        <ele>536.3</ele>
        <time>2025-02-09T10:30:10Z</time>
      </trkpt>
      <trkpt lat="43.73706" lon="6.1259">
        <ele>536.2</ele>
        <time>2025-02-09T10:30:17Z</time>
      </trkpt>
      <trkpt lat="43.7371" lon="6.12579">
        <ele>535.9</ele>
        <time>2025-02-09T10:30:31Z</time>
      </trkpt>
      <trkpt lat="43.73717" lon="6.12569">
        <ele>535.4</ele>
        <time>2025-02-09T10:30:43Z</time>
      </trkpt>
      <trkpt lat="43.7372" lon="6.12563">
        <ele>532.9</ele>
        <time>2025-02-09T10:30:57Z</time>
      </trkpt>
      <trkpt lat="43.7372" lon="6.12563">
        <ele>532.9</ele>
        <time>2025-02-09T10:30:58Z</time>
      </trkpt>
      <trkpt lat="43.73724" lon="6.1255">
        <ele>532.4</ele>
        <time>2025-02-09T10:31:09Z</time>
      </trkpt>
      <trkpt lat="43.73728" lon="6.12539">
        <ele>531.6</ele>
        <time>2025-02-09T10:31:19Z</time>
      </trkpt>
      <trkpt lat="43.73732" lon="6.12527">
        <ele>530.8</ele>
        <time>2025-02-09T10:31:32Z</time>
      </trkpt>
      <trkpt lat="43.73735" lon="6.12515">
        <ele>529.3</ele>
        <time>2025-02-09T10:31:42Z</time>
      </trkpt>
      <trkpt lat="43.73736" lon="6.12513">
        <ele>529.3</ele>
        <time>2025-02-09T10:31:47Z</time>
      </trkpt>
      <trkpt lat="43.73736" lon="6.12513">
        <ele>529.2</ele>
        <time>2025-02-09T10:31:48Z</time>
      </trkpt>
      <trkpt lat="43.73737" lon="6.12513">
        <ele>528.6</ele>
        <time>2025-02-09T10:31:54Z</time>
      </trkpt>
      <trkpt lat="43.73737" lon="6.12512">
        <ele>528.5</ele>
        <time>2025-02-09T10:31:57Z</time>
      </trkpt>
      <trkpt lat="43.73737" lon="6.12511">
        <ele>528.5</ele>
        <time>2025-02-09T10:32:00Z</time>
      </trkpt>
      <trkpt lat="43.73737" lon="6.12511">
        <ele>528.6</ele>
        <time>2025-02-09T10:32:02Z</time>
      </trkpt>
      <trkpt lat="43.73737" lon="6.12507">
        <ele>528</ele>
        <time>2025-02-09T10:32:07Z</time>
      </trkpt>
      <trkpt lat="43.73737" lon="6.12507">
        <ele>527.9</ele>
        <time>2025-02-09T10:32:08Z</time>
      </trkpt>
      <trkpt lat="43.73737" lon="6.12507">
        <ele>527.8</ele>
        <time>2025-02-09T10:32:11Z</time>
      </trkpt>
      <trkpt lat="43.73737" lon="6.12507">
        <ele>527.7</ele>
        <time>2025-02-09T10:32:13Z</time>
      </trkpt>
      <trkpt lat="43.73736" lon="6.12493">
        <ele>526.9</ele>
        <time>2025-02-09T10:32:23Z</time>
      </trkpt>
      <trkpt lat="43.73734" lon="6.1248">
        <ele>526</ele>
        <time>2025-02-09T10:32:32Z</time>
      </trkpt>
      <trkpt lat="43.73733" lon="6.12467">
        <ele>525.6</ele>
        <time>2025-02-09T10:32:40Z</time>
      </trkpt>
      <trkpt lat="43.73732" lon="6.12454">
        <ele>525.1</ele>
        <time>2025-02-09T10:32:48Z</time>
      </trkpt>
      <trkpt lat="43.73734" lon="6.12441">
        <ele>523.9</ele>
        <time>2025-02-09T10:32:59Z</time>
      </trkpt>
      <trkpt lat="43.73737" lon="6.12428">
        <ele>523.5</ele>
        <time>2025-02-09T10:33:11Z</time>
      </trkpt>
      <trkpt lat="43.73741" lon="6.12416">
        <ele>522.9</ele>
        <time>2025-02-09T10:33:22Z</time>
      </trkpt>
      <trkpt lat="43.73745" lon="6.12404">
        <ele>522.7</ele>
        <time>2025-02-09T10:33:34Z</time>
      </trkpt>
      <trkpt lat="43.73751" lon="6.12394">
        <ele>522.6</ele>
        <time>2025-02-09T10:33:45Z</time>
      </trkpt>
      <trkpt lat="43.73757" lon="6.12384">
        <ele>521</ele>
        <time>2025-02-09T10:33:52Z</time>
      </trkpt>
      <trkpt lat="43.73759" lon="6.12371">
        <ele>520.6</ele>
        <time>2025-02-09T10:33:59Z</time>
      </trkpt>
      <trkpt lat="43.73761" lon="6.12358">
        <ele>520.1</ele>
        <time>2025-02-09T10:34:07Z</time>
      </trkpt>
      <trkpt lat="43.73765" lon="6.12346">
        <ele>519.9</ele>
        <time>2025-02-09T10:34:16Z</time>
      </trkpt>
      <trkpt lat="43.73767" lon="6.12333">
        <ele>519.7</ele>
        <time>2025-02-09T10:34:25Z</time>
      </trkpt>
      <trkpt lat="43.73767" lon="6.1232">
        <ele>519.6</ele>
        <time>2025-02-09T10:34:39Z</time>
      </trkpt>
      <trkpt lat="43.73763" lon="6.12308">
        <ele>520</ele>
        <time>2025-02-09T10:34:51Z</time>
      </trkpt>
      <trkpt lat="43.73761" lon="6.12296">
        <ele>519.7</ele>
        <time>2025-02-09T10:34:59Z</time>
      </trkpt>
      <trkpt lat="43.73761" lon="6.12283">
        <ele>519.4</ele>
        <time>2025-02-09T10:35:07Z</time>
      </trkpt>
      <trkpt lat="43.73758" lon="6.1227">
        <ele>520.3</ele>
        <time>2025-02-09T10:35:17Z</time>
      </trkpt>
      <trkpt lat="43.73757" lon="6.12262">
        <ele>519.8</ele>
        <time>2025-02-09T10:35:29Z</time>
      </trkpt>
      <trkpt lat="43.73756" lon="6.12262">
        <ele>519.8</ele>
        <time>2025-02-09T10:35:33Z</time>
      </trkpt>
      <trkpt lat="43.73756" lon="6.12262">
        <ele>519.8</ele>
        <time>2025-02-09T10:35:34Z</time>
      </trkpt>
      <trkpt lat="43.73757" lon="6.12262">
        <ele>519.8</ele>
        <time>2025-02-09T10:35:40Z</time>
      </trkpt>
      <trkpt lat="43.73757" lon="6.12262">
        <ele>519.7</ele>
        <time>2025-02-09T10:35:41Z</time>
      </trkpt>
      <trkpt lat="43.73757" lon="6.12262">
        <ele>519.5</ele>
        <time>2025-02-09T10:35:44Z</time>
      </trkpt>
      <trkpt lat="43.73757" lon="6.12262">
        <ele>519.5</ele>
        <time>2025-02-09T10:35:45Z</time>
      </trkpt>
      <trkpt lat="43.73757" lon="6.12262">
        <ele>519.6</ele>
        <time>2025-02-09T10:35:46Z</time>
      </trkpt>
      <trkpt lat="43.73757" lon="6.12262">
        <ele>519.6</ele>
        <time>2025-02-09T10:35:47Z</time>
      </trkpt>
      <trkpt lat="43.73758" lon="6.12262">
        <ele>519.6</ele>
        <time>2025-02-09T10:35:48Z</time>
      </trkpt>
      <trkpt lat="43.7376" lon="6.12249">
        <ele>519.7</ele>
        <time>2025-02-09T10:36:01Z</time>
      </trkpt>
      <trkpt lat="43.73762" lon="6.12235">
        <ele>518.5</ele>
        <time>2025-02-09T10:36:10Z</time>
      </trkpt>
      <trkpt lat="43.73766" lon="6.12224">
        <ele>518.5</ele>
        <time>2025-02-09T10:36:19Z</time>
      </trkpt>
      <trkpt lat="43.73769" lon="6.12212">
        <ele>517.8</ele>
        <time>2025-02-09T10:36:28Z</time>
      </trkpt>
      <trkpt lat="43.73762" lon="6.12203">
        <ele>518</ele>
        <time>2025-02-09T10:36:36Z</time>
      </trkpt>
      <trkpt lat="43.7376" lon="6.1219">
        <ele>518.2</ele>
        <time>2025-02-09T10:36:47Z</time>
      </trkpt>
      <trkpt lat="43.73763" lon="6.12178">
        <ele>517.9</ele>
        <time>2025-02-09T10:36:58Z</time>
      </trkpt>
      <trkpt lat="43.73772" lon="6.12175">
        <ele>516.9</ele>
        <time>2025-02-09T10:37:13Z</time>
      </trkpt>
      <trkpt lat="43.73777" lon="6.12163">
        <ele>517.4</ele>
        <time>2025-02-09T10:37:32Z</time>
      </trkpt>
      <trkpt lat="43.73778" lon="6.12159">
        <ele>517.5</ele>
        <time>2025-02-09T10:37:38Z</time>
      </trkpt>
      <trkpt lat="43.73777" lon="6.12158">
        <ele>517.6</ele>
        <time>2025-02-09T10:37:39Z</time>
      </trkpt>
      <trkpt lat="43.7378" lon="6.12145">
        <ele>519.2</ele>
        <time>2025-02-09T10:37:53Z</time>
      </trkpt>
      <trkpt lat="43.73785" lon="6.12135">
        <ele>521</ele>
        <time>2025-02-09T10:38:06Z</time>
      </trkpt>
      <trkpt lat="43.73793" lon="6.12128">
        <ele>522.1</ele>
        <time>2025-02-09T10:38:21Z</time>
      </trkpt>
      <trkpt lat="43.73799" lon="6.12119">
        <ele>522.4</ele>
        <time>2025-02-09T10:38:31Z</time>
      </trkpt>
      <trkpt lat="43.73808" lon="6.12115">
        <ele>522.6</ele>
        <time>2025-02-09T10:38:39Z</time>
      </trkpt>
      <trkpt lat="43.73817" lon="6.12115">
        <ele>522.6</ele>
        <time>2025-02-09T10:38:59Z</time>
      </trkpt>
      <trkpt lat="43.73818" lon="6.12117">
        <ele>521.8</ele>
        <time>2025-02-09T10:39:05Z</time>
      </trkpt>
      <trkpt lat="43.73818" lon="6.12118">
        <ele>521.9</ele>
        <time>2025-02-09T10:39:06Z</time>
      </trkpt>
      <trkpt lat="43.73818" lon="6.12117">
        <ele>521.9</ele>
        <time>2025-02-09T10:39:08Z</time>
      </trkpt>
      <trkpt lat="43.73818" lon="6.12118">
        <ele>521.9</ele>
        <time>2025-02-09T10:39:09Z</time>
      </trkpt>
      <trkpt lat="43.73818" lon="6.12118">
        <ele>521.9</ele>
        <time>2025-02-09T10:39:10Z</time>
      </trkpt>
      <trkpt lat="43.73818" lon="6.12118">
        <ele>522</ele>
        <time>2025-02-09T10:39:20Z</time>
      </trkpt>
      <trkpt lat="43.73819" lon="6.12119">
        <ele>522.1</ele>
        <time>2025-02-09T10:39:23Z</time>
      </trkpt>
      <trkpt lat="43.73819" lon="6.12119">
        <ele>522.1</ele>
        <time>2025-02-09T10:39:27Z</time>
      </trkpt>
      <trkpt lat="43.73819" lon="6.12119">
        <ele>522</ele>
        <time>2025-02-09T10:39:28Z</time>
      </trkpt>
      <trkpt lat="43.73819" lon="6.12119">
        <ele>522.1</ele>
        <time>2025-02-09T10:39:30Z</time>
      </trkpt>
      <trkpt lat="43.73819" lon="6.12119">
        <ele>523.3</ele>
        <time>2025-02-09T10:39:39Z</time>
      </trkpt>
      <trkpt lat="43.73819" lon="6.12119">
        <ele>523.3</ele>
        <time>2025-02-09T10:39:44Z</time>
      </trkpt>
      <trkpt lat="43.73819" lon="6.12119">
        <ele>523.3</ele>
        <time>2025-02-09T10:39:47Z</time>
      </trkpt>
      <trkpt lat="43.73819" lon="6.12119">
        <ele>523.3</ele>
        <time>2025-02-09T10:39:56Z</time>
      </trkpt>
      <trkpt lat="43.73819" lon="6.12119">
        <ele>523.4</ele>
        <time>2025-02-09T10:39:57Z</time>
      </trkpt>
      <trkpt lat="43.7382" lon="6.12119">
        <ele>523.4</ele>
        <time>2025-02-09T10:39:58Z</time>
      </trkpt>
      <trkpt lat="43.73819" lon="6.12111">
        <ele>522.6</ele>
        <time>2025-02-09T10:40:08Z</time>
      </trkpt>
      <trkpt lat="43.73819" lon="6.12111">
        <ele>522.7</ele>
        <time>2025-02-09T10:40:09Z</time>
      </trkpt>
      <trkpt lat="43.73819" lon="6.12111">
        <ele>522.6</ele>
        <time>2025-02-09T10:40:10Z</time>
      </trkpt>
      <trkpt lat="43.7382" lon="6.1211">
        <ele>522.4</ele>
        <time>2025-02-09T10:40:12Z</time>
      </trkpt>
      <trkpt lat="43.7382" lon="6.12097">
        <ele>522.1</ele>
        <time>2025-02-09T10:40:23Z</time>
      </trkpt>
      <trkpt lat="43.7382" lon="6.12091">
        <ele>522.3</ele>
        <time>2025-02-09T10:40:32Z</time>
      </trkpt>
      <trkpt lat="43.73819" lon="6.12091">
        <ele>522.3</ele>
        <time>2025-02-09T10:40:34Z</time>
      </trkpt>
      <trkpt lat="43.73819" lon="6.12091">
        <ele>522.3</ele>
        <time>2025-02-09T10:40:35Z</time>
      </trkpt>
      <trkpt lat="43.73819" lon="6.12091">
        <ele>522.3</ele>
        <time>2025-02-09T10:40:37Z</time>
      </trkpt>
      <trkpt lat="43.73819" lon="6.12091">
        <ele>522.6</ele>
        <time>2025-02-09T10:40:42Z</time>
      </trkpt>
      <trkpt lat="43.73819" lon="6.12091">
        <ele>522.5</ele>
        <time>2025-02-09T10:40:43Z</time>
      </trkpt>
      <trkpt lat="43.73828" lon="6.12085">
        <ele>522.7</ele>
        <time>2025-02-09T10:40:56Z</time>
      </trkpt>
      <trkpt lat="43.73835" lon="6.12078">
        <ele>522.4</ele>
        <time>2025-02-09T10:41:06Z</time>
      </trkpt>
      <trkpt lat="43.73843" lon="6.12072">
        <ele>522.5</ele>
        <time>2025-02-09T10:41:15Z</time>
      </trkpt>
      <trkpt lat="43.73851" lon="6.12064">
        <ele>521.8</ele>
        <time>2025-02-09T10:41:25Z</time>
      </trkpt>
      <trkpt lat="43.73859" lon="6.12059">
        <ele>520.3</ele>
        <time>2025-02-09T10:41:39Z</time>
      </trkpt>
      <trkpt lat="43.73865" lon="6.12048">
        <ele>518.3</ele>
        <time>2025-02-09T10:41:46Z</time>
      </trkpt>
      <trkpt lat="43.73871" lon="6.12039">
        <ele>517.5</ele>
        <time>2025-02-09T10:41:54Z</time>
      </trkpt>
      <trkpt lat="43.73876" lon="6.12027">
        <ele>515.7</ele>
        <time>2025-02-09T10:42:02Z</time>
      </trkpt>
      <trkpt lat="43.7388" lon="6.12016">
        <ele>514.6</ele>
        <time>2025-02-09T10:42:08Z</time>
      </trkpt>
      <trkpt lat="43.73885" lon="6.12005">
        <ele>514</ele>
        <time>2025-02-09T10:42:15Z</time>
      </trkpt>
      <trkpt lat="43.73891" lon="6.11995">
        <ele>514</ele>
        <time>2025-02-09T10:42:22Z</time>
      </trkpt>
      <trkpt lat="43.73896" lon="6.11984">
        <ele>513.8</ele>
        <time>2025-02-09T10:42:32Z</time>
      </trkpt>
      <trkpt lat="43.73904" lon="6.11976">
        <ele>512.9</ele>
        <time>2025-02-09T10:42:43Z</time>
      </trkpt>
      <trkpt lat="43.73909" lon="6.11965">
        <ele>512.5</ele>
        <time>2025-02-09T10:42:50Z</time>
      </trkpt>
      <trkpt lat="43.73915" lon="6.11956">
        <ele>512.6</ele>
        <time>2025-02-09T10:43:00Z</time>
      </trkpt>
      <trkpt lat="43.73919" lon="6.11943">
        <ele>511.8</ele>
        <time>2025-02-09T10:43:08Z</time>
      </trkpt>
      <trkpt lat="43.73914" lon="6.11931">
        <ele>511.7</ele>
        <time>2025-02-09T10:43:14Z</time>
      </trkpt>
      <trkpt lat="43.73918" lon="6.11917">
        <ele>511.4</ele>
        <time>2025-02-09T10:43:25Z</time>
      </trkpt>
      <trkpt lat="43.73921" lon="6.11905">
        <ele>511.2</ele>
        <time>2025-02-09T10:43:36Z</time>
      </trkpt>
      <trkpt lat="43.73927" lon="6.11893">
        <ele>510.6</ele>
        <time>2025-02-09T10:43:46Z</time>
      </trkpt>
      <trkpt lat="43.73932" lon="6.11882">
        <ele>509.7</ele>
        <time>2025-02-09T10:43:52Z</time>
      </trkpt>
      <trkpt lat="43.73937" lon="6.11871">
        <ele>510.9</ele>
        <time>2025-02-09T10:44:04Z</time>
      </trkpt>
      <trkpt lat="43.73945" lon="6.11864">
        <ele>510.4</ele>
        <time>2025-02-09T10:44:11Z</time>
      </trkpt>
      <trkpt lat="43.73947" lon="6.11852">
        <ele>510.5</ele>
        <time>2025-02-09T10:44:21Z</time>
      </trkpt>
      <trkpt lat="43.73956" lon="6.11846">
        <ele>510.3</ele>
        <time>2025-02-09T10:44:36Z</time>
      </trkpt>
      <trkpt lat="43.73965" lon="6.11843">
        <ele>508.7</ele>
        <time>2025-02-09T10:44:54Z</time>
      </trkpt>
      <trkpt lat="43.73973" lon="6.11839">
        <ele>506.9</ele>
        <time>2025-02-09T10:45:12Z</time>
      </trkpt>
      <trkpt lat="43.73972" lon="6.11839">
        <ele>506.6</ele>
        <time>2025-02-09T10:45:14Z</time>
      </trkpt>
      <trkpt lat="43.73979" lon="6.11831">
        <ele>504.9</ele>
        <time>2025-02-09T10:45:24Z</time>
      </trkpt>
      <trkpt lat="43.7398" lon="6.11818">
        <ele>503.9</ele>
        <time>2025-02-09T10:45:35Z</time>
      </trkpt>
      <trkpt lat="43.73981" lon="6.11805">
        <ele>503.5</ele>
        <time>2025-02-09T10:45:43Z</time>
      </trkpt>
      <trkpt lat="43.73988" lon="6.11797">
        <ele>502.9</ele>
        <time>2025-02-09T10:45:53Z</time>
      </trkpt>
      <trkpt lat="43.73994" lon="6.11786">
        <ele>502.4</ele>
        <time>2025-02-09T10:46:03Z</time>
      </trkpt>
      <trkpt lat="43.73994" lon="6.11773">
        <ele>501.8</ele>
        <time>2025-02-09T10:46:10Z</time>
      </trkpt>
      <trkpt lat="43.73994" lon="6.11759">
        <ele>501.6</ele>
        <time>2025-02-09T10:46:19Z</time>
      </trkpt>
      <trkpt lat="43.73991" lon="6.11746">
        <ele>502</ele>
        <time>2025-02-09T10:46:27Z</time>
      </trkpt>
      <trkpt lat="43.73989" lon="6.11732">
        <ele>501.8</ele>
        <time>2025-02-09T10:46:36Z</time>
      </trkpt>
      <trkpt lat="43.73986" lon="6.1172">
        <ele>501.7</ele>
        <time>2025-02-09T10:46:47Z</time>
      </trkpt>
      <trkpt lat="43.73987" lon="6.11719">
        <ele>502.3</ele>
        <time>2025-02-09T10:47:00Z</time>
      </trkpt>
      <trkpt lat="43.73987" lon="6.11719">
        <ele>502.2</ele>
        <time>2025-02-09T10:47:01Z</time>
      </trkpt>
      <trkpt lat="43.73988" lon="6.11718">
        <ele>502.5</ele>
        <time>2025-02-09T10:47:05Z</time>
      </trkpt>
      <trkpt lat="43.73989" lon="6.11718">
        <ele>502.4</ele>
        <time>2025-02-09T10:47:06Z</time>
      </trkpt>
      <trkpt lat="43.73984" lon="6.11706">
        <ele>503.4</ele>
        <time>2025-02-09T10:47:20Z</time>
      </trkpt>
      <trkpt lat="43.73979" lon="6.11695">
        <ele>503.7</ele>
        <time>2025-02-09T10:47:29Z</time>
      </trkpt>
      <trkpt lat="43.73972" lon="6.11688">
        <ele>505</ele>
        <time>2025-02-09T10:47:41Z</time>
      </trkpt>
      <trkpt lat="43.73971" lon="6.11676">
        <ele>504.7</ele>
        <time>2025-02-09T10:47:54Z</time>
      </trkpt>
      <trkpt lat="43.7397" lon="6.11668">
        <ele>503.2</ele>
        <time>2025-02-09T10:48:05Z</time>
      </trkpt>
      <trkpt lat="43.7397" lon="6.11668">
        <ele>503.1</ele>
        <time>2025-02-09T10:48:06Z</time>
      </trkpt>
      <trkpt lat="43.7397" lon="6.11668">
        <ele>503.1</ele>
        <time>2025-02-09T10:48:07Z</time>
      </trkpt>
      <trkpt lat="43.7397" lon="6.11668">
        <ele>503</ele>
        <time>2025-02-09T10:48:12Z</time>
      </trkpt>
      <trkpt lat="43.7397" lon="6.11668">
        <ele>503</ele>
        <time>2025-02-09T10:48:13Z</time>
      </trkpt>
      <trkpt lat="43.7397" lon="6.11668">
        <ele>502.9</ele>
        <time>2025-02-09T10:48:25Z</time>
      </trkpt>
      <trkpt lat="43.73968" lon="6.11671">
        <ele>502.3</ele>
        <time>2025-02-09T10:48:34Z</time>
      </trkpt>
      <trkpt lat="43.73968" lon="6.11671">
        <ele>502.1</ele>
        <time>2025-02-09T10:48:35Z</time>
      </trkpt>
      <trkpt lat="43.73968" lon="6.11671">
        <ele>502</ele>
        <time>2025-02-09T10:48:36Z</time>
      </trkpt>
      <trkpt lat="43.73969" lon="6.11671">
        <ele>501.8</ele>
        <time>2025-02-09T10:48:37Z</time>
      </trkpt>
      <trkpt lat="43.73969" lon="6.11671">
        <ele>501.8</ele>
        <time>2025-02-09T10:48:38Z</time>
      </trkpt>
      <trkpt lat="43.73969" lon="6.1167">
        <ele>501.7</ele>
        <time>2025-02-09T10:48:43Z</time>
      </trkpt>
      <trkpt lat="43.73977" lon="6.11662">
        <ele>501.1</ele>
        <time>2025-02-09T10:48:57Z</time>
      </trkpt>
      <trkpt lat="43.73985" lon="6.11656">
        <ele>500</ele>
        <time>2025-02-09T10:49:05Z</time>
      </trkpt>
      <trkpt lat="43.73993" lon="6.11648">
        <ele>499.4</ele>
        <time>2025-02-09T10:49:16Z</time>
      </trkpt>
      <trkpt lat="43.74002" lon="6.11649">
        <ele>498.9</ele>
        <time>2025-02-09T10:49:24Z</time>
      </trkpt>
      <trkpt lat="43.74012" lon="6.11651">
        <ele>497.9</ele>
        <time>2025-02-09T10:49:31Z</time>
      </trkpt>
      <trkpt lat="43.74021" lon="6.11654">
        <ele>496.8</ele>
        <time>2025-02-09T10:49:38Z</time>
      </trkpt>
      <trkpt lat="43.7403" lon="6.11655">
        <ele>496.3</ele>
        <time>2025-02-09T10:49:46Z</time>
      </trkpt>
      <trkpt lat="43.7404" lon="6.11655">
        <ele>495.2</ele>
        <time>2025-02-09T10:49:55Z</time>
      </trkpt>
      <trkpt lat="43.74049" lon="6.11654">
        <ele>493.8</ele>
        <time>2025-02-09T10:50:03Z</time>
      </trkpt>
      <trkpt lat="43.74059" lon="6.11654">
        <ele>493.4</ele>
        <time>2025-02-09T10:50:13Z</time>
      </trkpt>
      <trkpt lat="43.74068" lon="6.11658">
        <ele>493</ele>
        <time>2025-02-09T10:50:25Z</time>
      </trkpt>
      <trkpt lat="43.74077" lon="6.11658">
        <ele>491.2</ele>
        <time>2025-02-09T10:50:41Z</time>
      </trkpt>
      <trkpt lat="43.7408" lon="6.1167">
        <ele>489.9</ele>
        <time>2025-02-09T10:51:00Z</time>
      </trkpt>
      <trkpt lat="43.74082" lon="6.11673">
        <ele>489.4</ele>
        <time>2025-02-09T10:51:15Z</time>
      </trkpt>
      <trkpt lat="43.74081" lon="6.11673">
        <ele>489.4</ele>
        <time>2025-02-09T10:51:16Z</time>
      </trkpt>
      <trkpt lat="43.7408" lon="6.11675">
        <ele>488.9</ele>
        <time>2025-02-09T10:51:25Z</time>
      </trkpt>
      <trkpt lat="43.74079" lon="6.11675">
        <ele>489.1</ele>
        <time>2025-02-09T10:51:27Z</time>
      </trkpt>
      <trkpt lat="43.74079" lon="6.11675">
        <ele>489.6</ele>
        <time>2025-02-09T10:51:29Z</time>
      </trkpt>
      <trkpt lat="43.74079" lon="6.11675">
        <ele>489.7</ele>
        <time>2025-02-09T10:51:48Z</time>
      </trkpt>
      <trkpt lat="43.74079" lon="6.11675">
        <ele>489.5</ele>
        <time>2025-02-09T10:51:49Z</time>
      </trkpt>
      <trkpt lat="43.74079" lon="6.11675">
        <ele>489.4</ele>
        <time>2025-02-09T10:51:50Z</time>
      </trkpt>
      <trkpt lat="43.74079" lon="6.11675">
        <ele>489.2</ele>
        <time>2025-02-09T10:51:51Z</time>
      </trkpt>
      <trkpt lat="43.74079" lon="6.11676">
        <ele>488.9</ele>
        <time>2025-02-09T10:51:59Z</time>
      </trkpt>
      <trkpt lat="43.7408" lon="6.11676">
        <ele>488.6</ele>
        <time>2025-02-09T10:52:03Z</time>
      </trkpt>
      <trkpt lat="43.74079" lon="6.11677">
        <ele>488.6</ele>
        <time>2025-02-09T10:52:06Z</time>
      </trkpt>
      <trkpt lat="43.74079" lon="6.11677">
        <ele>487.5</ele>
        <time>2025-02-09T10:52:11Z</time>
      </trkpt>
      <trkpt lat="43.74078" lon="6.11677">
        <ele>487.5</ele>
        <time>2025-02-09T10:52:22Z</time>
      </trkpt>
      <trkpt lat="43.74079" lon="6.11677">
        <ele>487.5</ele>
        <time>2025-02-09T10:52:24Z</time>
      </trkpt>
      <trkpt lat="43.74079" lon="6.11677">
        <ele>487.7</ele>
        <time>2025-02-09T10:52:27Z</time>
      </trkpt>
      <trkpt lat="43.74079" lon="6.11675">
        <ele>487.9</ele>
        <time>2025-02-09T10:52:33Z</time>
      </trkpt>
      <trkpt lat="43.74079" lon="6.11673">
        <ele>487.8</ele>
        <time>2025-02-09T10:52:37Z</time>
      </trkpt>
      <trkpt lat="43.74079" lon="6.11673">
        <ele>487.7</ele>
        <time>2025-02-09T10:52:38Z</time>
      </trkpt>
      <trkpt lat="43.7408" lon="6.11673">
        <ele>487.7</ele>
        <time>2025-02-09T10:52:53Z</time>
      </trkpt>
      <trkpt lat="43.7408" lon="6.11673">
        <ele>487.7</ele>
        <time>2025-02-09T10:52:54Z</time>
      </trkpt>
      <trkpt lat="43.74079" lon="6.11674">
        <ele>487.6</ele>
        <time>2025-02-09T10:52:55Z</time>
      </trkpt>
      <trkpt lat="43.74078" lon="6.11673">
        <ele>487.4</ele>
        <time>2025-02-09T10:52:58Z</time>
      </trkpt>
      <trkpt lat="43.74078" lon="6.11674">
        <ele>487.4</ele>
        <time>2025-02-09T10:52:59Z</time>
      </trkpt>
      <trkpt lat="43.74078" lon="6.11674">
        <ele>487.4</ele>
        <time>2025-02-09T10:53:00Z</time>
      </trkpt>
      <trkpt lat="43.74078" lon="6.11674">
        <ele>487.4</ele>
        <time>2025-02-09T10:53:03Z</time>
      </trkpt>
      <trkpt lat="43.74078" lon="6.11673">
        <ele>487.4</ele>
        <time>2025-02-09T10:53:05Z</time>
      </trkpt>
      <trkpt lat="43.74078" lon="6.11673">
        <ele>487.4</ele>
        <time>2025-02-09T10:53:07Z</time>
      </trkpt>
      <trkpt lat="43.74078" lon="6.11673">
        <ele>487.4</ele>
        <time>2025-02-09T10:53:08Z</time>
      </trkpt>
      <trkpt lat="43.74078" lon="6.11673">
        <ele>487.4</ele>
        <time>2025-02-09T10:53:09Z</time>
      </trkpt>
      <trkpt lat="43.74078" lon="6.11673">
        <ele>487.2</ele>
        <time>2025-02-09T10:53:12Z</time>
      </trkpt>
      <trkpt lat="43.74078" lon="6.11673">
        <ele>487.3</ele>
        <time>2025-02-09T10:53:14Z</time>
      </trkpt>
      <trkpt lat="43.74078" lon="6.11673">
        <ele>487.3</ele>
        <time>2025-02-09T10:53:15Z</time>
      </trkpt>
      <trkpt lat="43.74078" lon="6.11673">
        <ele>487.3</ele>
        <time>2025-02-09T10:53:16Z</time>
      </trkpt>
      <trkpt lat="43.74077" lon="6.11672">
        <ele>487.1</ele>
        <time>2025-02-09T10:53:27Z</time>
      </trkpt>
      <trkpt lat="43.74076" lon="6.11671">
        <ele>487.1</ele>
        <time>2025-02-09T10:53:28Z</time>
      </trkpt>
      <trkpt lat="43.74076" lon="6.11671">
        <ele>487.1</ele>
        <time>2025-02-09T10:53:29Z</time>
      </trkpt>
      <trkpt lat="43.74077" lon="6.11671">
        <ele>486.9</ele>
        <time>2025-02-09T10:53:30Z</time>
      </trkpt>
      <trkpt lat="43.74077" lon="6.11671">
        <ele>486.5</ele>
        <time>2025-02-09T10:53:33Z</time>
      </trkpt>
      <trkpt lat="43.74077" lon="6.11671">
        <ele>486.7</ele>
        <time>2025-02-09T10:53:34Z</time>
      </trkpt>
      <trkpt lat="43.74077" lon="6.11672">
        <ele>486.6</ele>
        <time>2025-02-09T10:53:36Z</time>
      </trkpt>
      <trkpt lat="43.74077" lon="6.11672">
        <ele>486.4</ele>
        <time>2025-02-09T10:53:50Z</time>
      </trkpt>
      <trkpt lat="43.74078" lon="6.11672">
        <ele>486.3</ele>
        <time>2025-02-09T10:53:52Z</time>
      </trkpt>
      <trkpt lat="43.74078" lon="6.11672">
        <ele>486.4</ele>
        <time>2025-02-09T10:53:53Z</time>
      </trkpt>
      <trkpt lat="43.74078" lon="6.11672">
        <ele>486.2</ele>
        <time>2025-02-09T10:53:55Z</time>
      </trkpt>
      <trkpt lat="43.74078" lon="6.11672">
        <ele>486.2</ele>
        <time>2025-02-09T10:54:00Z</time>
      </trkpt>
      <trkpt lat="43.74078" lon="6.11672">
        <ele>486.2</ele>
        <time>2025-02-09T10:54:01Z</time>
      </trkpt>
      <trkpt lat="43.74078" lon="6.11672">
        <ele>486.2</ele>
        <time>2025-02-09T10:54:14Z</time>
      </trkpt>
      <trkpt lat="43.74079" lon="6.11672">
        <ele>485.9</ele>
        <time>2025-02-09T10:54:21Z</time>
      </trkpt>
      <trkpt lat="43.74079" lon="6.11672">
        <ele>486</ele>
        <time>2025-02-09T10:54:31Z</time>
      </trkpt>
      <trkpt lat="43.74079" lon="6.11673">
        <ele>486.1</ele>
        <time>2025-02-09T10:54:33Z</time>
      </trkpt>
      <trkpt lat="43.74079" lon="6.11673">
        <ele>485.8</ele>
        <time>2025-02-09T10:54:57Z</time>
      </trkpt>
      <trkpt lat="43.74079" lon="6.11672">
        <ele>485.7</ele>
        <time>2025-02-09T10:54:58Z</time>
      </trkpt>
      <trkpt lat="43.74079" lon="6.11672">
        <ele>485.6</ele>
        <time>2025-02-09T10:55:00Z</time>
      </trkpt>
      <trkpt lat="43.74074" lon="6.11661">
        <ele>488.8</ele>
        <time>2025-02-09T10:55:15Z</time>
      </trkpt>
      <trkpt lat="43.74079" lon="6.11655">
        <ele>488.2</ele>
        <time>2025-02-09T10:55:27Z</time>
      </trkpt>
      <trkpt lat="43.74079" lon="6.11655">
        <ele>487.8</ele>
        <time>2025-02-09T10:55:29Z</time>
      </trkpt>
      <trkpt lat="43.74079" lon="6.11655">
        <ele>487.8</ele>
        <time>2025-02-09T10:55:30Z</time>
      </trkpt>
      <trkpt lat="43.74079" lon="6.11656">
        <ele>487.6</ele>
        <time>2025-02-09T10:55:35Z</time>
      </trkpt>
      <trkpt lat="43.74079" lon="6.11656">
        <ele>487.7</ele>
        <time>2025-02-09T10:55:36Z</time>
      </trkpt>
      <trkpt lat="43.7408" lon="6.11656">
        <ele>487.7</ele>
        <time>2025-02-09T10:55:37Z</time>
      </trkpt>
      <trkpt lat="43.7408" lon="6.11656">
        <ele>487.7</ele>
        <time>2025-02-09T10:55:38Z</time>
      </trkpt>
      <trkpt lat="43.7408" lon="6.11656">
        <ele>487.7</ele>
        <time>2025-02-09T10:55:39Z</time>
      </trkpt>
      <trkpt lat="43.7408" lon="6.11656">
        <ele>487.7</ele>
        <time>2025-02-09T10:55:40Z</time>
      </trkpt>
      <trkpt lat="43.7408" lon="6.11656">
        <ele>487.5</ele>
        <time>2025-02-09T10:56:04Z</time>
      </trkpt>
      <trkpt lat="43.74079" lon="6.11656">
        <ele>487.2</ele>
        <time>2025-02-09T10:56:06Z</time>
      </trkpt>
      <trkpt lat="43.74079" lon="6.11656">
        <ele>487.1</ele>
        <time>2025-02-09T10:56:09Z</time>
      </trkpt>
      <trkpt lat="43.7408" lon="6.11656">
        <ele>487.1</ele>
        <time>2025-02-09T10:56:14Z</time>
      </trkpt>
      <trkpt lat="43.7408" lon="6.11656">
        <ele>487.1</ele>
        <time>2025-02-09T10:56:18Z</time>
      </trkpt>
      <trkpt lat="43.7408" lon="6.11656">
        <ele>487</ele>
        <time>2025-02-09T10:56:19Z</time>
      </trkpt>
      <trkpt lat="43.74081" lon="6.11656">
        <ele>487</ele>
        <time>2025-02-09T10:56:20Z</time>
      </trkpt>
      <trkpt lat="43.74081" lon="6.11656">
        <ele>487</ele>
        <time>2025-02-09T10:56:21Z</time>
      </trkpt>
      <trkpt lat="43.7408" lon="6.11656">
        <ele>486.9</ele>
        <time>2025-02-09T10:56:22Z</time>
      </trkpt>
      <trkpt lat="43.7409" lon="6.11651">
        <ele>485.4</ele>
        <time>2025-02-09T10:56:42Z</time>
      </trkpt>
      <trkpt lat="43.74098" lon="6.11644">
        <ele>484.6</ele>
        <time>2025-02-09T10:56:54Z</time>
      </trkpt>
      <trkpt lat="43.74103" lon="6.11642">
        <ele>484.7</ele>
        <time>2025-02-09T10:57:03Z</time>
      </trkpt>
      <trkpt lat="43.74103" lon="6.11642">
        <ele>484.8</ele>
        <time>2025-02-09T10:57:11Z</time>
      </trkpt>
      <trkpt lat="43.74103" lon="6.11642">
        <ele>485</ele>
        <time>2025-02-09T10:57:13Z</time>
      </trkpt>
      <trkpt lat="43.74103" lon="6.11642">
        <ele>484.9</ele>
        <time>2025-02-09T10:57:30Z</time>
      </trkpt>
      <trkpt lat="43.74106" lon="6.11636">
        <ele>483.5</ele>
        <time>2025-02-09T10:57:47Z</time>
      </trkpt>
      <trkpt lat="43.74107" lon="6.11636">
        <ele>483.1</ele>
        <time>2025-02-09T10:57:48Z</time>
      </trkpt>
      <trkpt lat="43.74107" lon="6.11636">
        <ele>482.5</ele>
        <time>2025-02-09T10:57:53Z</time>
      </trkpt>
      <trkpt lat="43.74107" lon="6.11636">
        <ele>482.4</ele>
        <time>2025-02-09T10:57:54Z</time>
      </trkpt>
      <trkpt lat="43.74107" lon="6.11636">
        <ele>482.1</ele>
        <time>2025-02-09T10:57:56Z</time>
      </trkpt>
      <trkpt lat="43.74107" lon="6.11635">
        <ele>481.9</ele>
        <time>2025-02-09T10:57:57Z</time>
      </trkpt>
      <trkpt lat="43.74107" lon="6.11635">
        <ele>481.1</ele>
        <time>2025-02-09T10:58:00Z</time>
      </trkpt>
      <trkpt lat="43.74107" lon="6.11635">
        <ele>481</ele>
        <time>2025-02-09T10:58:01Z</time>
      </trkpt>
      <trkpt lat="43.74107" lon="6.11635">
        <ele>481.1</ele>
        <time>2025-02-09T10:58:03Z</time>
      </trkpt>
      <trkpt lat="43.74107" lon="6.11636">
        <ele>481.3</ele>
        <time>2025-02-09T10:58:13Z</time>
      </trkpt>
      <trkpt lat="43.74107" lon="6.11636">
        <ele>481.3</ele>
        <time>2025-02-09T10:58:15Z</time>
      </trkpt>
      <trkpt lat="43.74107" lon="6.11636">
        <ele>481.4</ele>
        <time>2025-02-09T10:58:19Z</time>
      </trkpt>
      <trkpt lat="43.74107" lon="6.11636">
        <ele>481.4</ele>
        <time>2025-02-09T10:58:20Z</time>
      </trkpt>
      <trkpt lat="43.74107" lon="6.11636">
        <ele>481.4</ele>
        <time>2025-02-09T10:58:21Z</time>
      </trkpt>
      <trkpt lat="43.74107" lon="6.11636">
        <ele>481.4</ele>
        <time>2025-02-09T10:58:22Z</time>
      </trkpt>
      <trkpt lat="43.74107" lon="6.11636">
        <ele>481.4</ele>
        <time>2025-02-09T10:58:23Z</time>
      </trkpt>
      <trkpt lat="43.74107" lon="6.11636">
        <ele>481.4</ele>
        <time>2025-02-09T10:58:24Z</time>
      </trkpt>
      <trkpt lat="43.74107" lon="6.11636">
        <ele>481.4</ele>
        <time>2025-02-09T10:58:25Z</time>
      </trkpt>
      <trkpt lat="43.74107" lon="6.11636">
        <ele>481.4</ele>
        <time>2025-02-09T10:58:26Z</time>
      </trkpt>
      <trkpt lat="43.74107" lon="6.11636">
        <ele>481.8</ele>
        <time>2025-02-09T10:58:30Z</time>
      </trkpt>
      <trkpt lat="43.74107" lon="6.11636">
        <ele>481.7</ele>
        <time>2025-02-09T10:58:31Z</time>
      </trkpt>
      <trkpt lat="43.74107" lon="6.11636">
        <ele>481.6</ele>
        <time>2025-02-09T10:58:34Z</time>
      </trkpt>
      <trkpt lat="43.74107" lon="6.11636">
        <ele>481.6</ele>
        <time>2025-02-09T10:58:35Z</time>
      </trkpt>
      <trkpt lat="43.74107" lon="6.11636">
        <ele>481.6</ele>
        <time>2025-02-09T10:58:36Z</time>
      </trkpt>
      <trkpt lat="43.74108" lon="6.11635">
        <ele>481.6</ele>
        <time>2025-02-09T10:58:43Z</time>
      </trkpt>
      <trkpt lat="43.74109" lon="6.11635">
        <ele>481.4</ele>
        <time>2025-02-09T10:58:44Z</time>
      </trkpt>
      <trkpt lat="43.74112" lon="6.11629">
        <ele>480.1</ele>
        <time>2025-02-09T10:58:55Z</time>
      </trkpt>
      <trkpt lat="43.74112" lon="6.11629">
        <ele>479.7</ele>
        <time>2025-02-09T10:59:04Z</time>
      </trkpt>
      <trkpt lat="43.74112" lon="6.11629">
        <ele>479.2</ele>
        <time>2025-02-09T10:59:07Z</time>
      </trkpt>
      <trkpt lat="43.74112" lon="6.11629">
        <ele>479.1</ele>
        <time>2025-02-09T10:59:09Z</time>
      </trkpt>
      <trkpt lat="43.74112" lon="6.11629">
        <ele>479</ele>
        <time>2025-02-09T10:59:11Z</time>
      </trkpt>
      <trkpt lat="43.74112" lon="6.11629">
        <ele>479</ele>
        <time>2025-02-09T10:59:12Z</time>
      </trkpt>
      <trkpt lat="43.74112" lon="6.11629">
        <ele>479.3</ele>
        <time>2025-02-09T10:59:15Z</time>
      </trkpt>
      <trkpt lat="43.74111" lon="6.1163">
        <ele>479.4</ele>
        <time>2025-02-09T10:59:16Z</time>
      </trkpt>
      <trkpt lat="43.74117" lon="6.11619">
        <ele>479.2</ele>
        <time>2025-02-09T10:59:40Z</time>
      </trkpt>
      <trkpt lat="43.74126" lon="6.11614">
        <ele>478.7</ele>
        <time>2025-02-09T10:59:50Z</time>
      </trkpt>
      <trkpt lat="43.74136" lon="6.11611">
        <ele>478.8</ele>
        <time>2025-02-09T10:59:57Z</time>
      </trkpt>
      <trkpt lat="43.74144" lon="6.11604">
        <ele>477.9</ele>
        <time>2025-02-09T11:00:06Z</time>
      </trkpt>
      <trkpt lat="43.74151" lon="6.11597">
        <ele>476.6</ele>
        <time>2025-02-09T11:00:13Z</time>
      </trkpt>
      <trkpt lat="43.7416" lon="6.11592">
        <ele>475.3</ele>
        <time>2025-02-09T11:00:21Z</time>
      </trkpt>
      <trkpt lat="43.74169" lon="6.11587">
        <ele>474.4</ele>
        <time>2025-02-09T11:00:30Z</time>
      </trkpt>
      <trkpt lat="43.74178" lon="6.11589">
        <ele>473.5</ele>
        <time>2025-02-09T11:00:39Z</time>
      </trkpt>
      <trkpt lat="43.74185" lon="6.11581">
        <ele>472.9</ele>
        <time>2025-02-09T11:00:49Z</time>
      </trkpt>
      <trkpt lat="43.74194" lon="6.11583">
        <ele>471.7</ele>
        <time>2025-02-09T11:01:00Z</time>
      </trkpt>
      <trkpt lat="43.74204" lon="6.11585">
        <ele>470.4</ele>
        <time>2025-02-09T11:01:11Z</time>
      </trkpt>
      <trkpt lat="43.74213" lon="6.11581">
        <ele>469</ele>
        <time>2025-02-09T11:01:20Z</time>
      </trkpt>
      <trkpt lat="43.74222" lon="6.11579">
        <ele>467.6</ele>
        <time>2025-02-09T11:01:29Z</time>
      </trkpt>
      <trkpt lat="43.74231" lon="6.11577">
        <ele>466.5</ele>
        <time>2025-02-09T11:01:39Z</time>
      </trkpt>
      <trkpt lat="43.74241" lon="6.11579">
        <ele>465.4</ele>
        <time>2025-02-09T11:01:52Z</time>
      </trkpt>
      <trkpt lat="43.74249" lon="6.11582">
        <ele>463.5</ele>
        <time>2025-02-09T11:02:05Z</time>
      </trkpt>
      <trkpt lat="43.74259" lon="6.11581">
        <ele>462.3</ele>
        <time>2025-02-09T11:02:12Z</time>
      </trkpt>
      <trkpt lat="43.74269" lon="6.11583">
        <ele>460.8</ele>
        <time>2025-02-09T11:02:18Z</time>
      </trkpt>
      <trkpt lat="43.74278" lon="6.1159">
        <ele>460.3</ele>
        <time>2025-02-09T11:02:25Z</time>
      </trkpt>
      <trkpt lat="43.74289" lon="6.11593">
        <ele>459.4</ele>
        <time>2025-02-09T11:02:32Z</time>
      </trkpt>
      <trkpt lat="43.74298" lon="6.11595">
        <ele>456.5</ele>
        <time>2025-02-09T11:02:41Z</time>
      </trkpt>
      <trkpt lat="43.74307" lon="6.11598">
        <ele>455.8</ele>
        <time>2025-02-09T11:02:50Z</time>
      </trkpt>
      <trkpt lat="43.74316" lon="6.11598">
        <ele>454.9</ele>
        <time>2025-02-09T11:02:58Z</time>
      </trkpt>
      <trkpt lat="43.74325" lon="6.11597">
        <ele>453.7</ele>
        <time>2025-02-09T11:03:07Z</time>
      </trkpt>
      <trkpt lat="43.74334" lon="6.11598">
        <ele>452.7</ele>
        <time>2025-02-09T11:03:16Z</time>
      </trkpt>
      <trkpt lat="43.74344" lon="6.11597">
        <ele>449.6</ele>
        <time>2025-02-09T11:03:24Z</time>
      </trkpt>
      <trkpt lat="43.74353" lon="6.11597">
        <ele>448.2</ele>
        <time>2025-02-09T11:03:34Z</time>
      </trkpt>
      <trkpt lat="43.74362" lon="6.11595">
        <ele>445.2</ele>
        <time>2025-02-09T11:03:45Z</time>
      </trkpt>
      <trkpt lat="43.74372" lon="6.11592">
        <ele>444.1</ele>
        <time>2025-02-09T11:03:54Z</time>
      </trkpt>
      <trkpt lat="43.74381" lon="6.11594">
        <ele>442.7</ele>
        <time>2025-02-09T11:04:06Z</time>
      </trkpt>
      <trkpt lat="43.7439" lon="6.11591">
        <ele>442.1</ele>
        <time>2025-02-09T11:04:16Z</time>
      </trkpt>
      <trkpt lat="43.74391" lon="6.11586">
        <ele>440.9</ele>
        <time>2025-02-09T11:04:28Z</time>
      </trkpt>
      <trkpt lat="43.74391" lon="6.11587">
        <ele>440.9</ele>
        <time>2025-02-09T11:04:29Z</time>
      </trkpt>
      <trkpt lat="43.74389" lon="6.11589">
        <ele>440.5</ele>
        <time>2025-02-09T11:04:33Z</time>
      </trkpt>
      <trkpt lat="43.74389" lon="6.1159">
        <ele>440.6</ele>
        <time>2025-02-09T11:04:37Z</time>
      </trkpt>
      <trkpt lat="43.74388" lon="6.1159">
        <ele>440.4</ele>
        <time>2025-02-09T11:04:40Z</time>
      </trkpt>
      <trkpt lat="43.74388" lon="6.1159">
        <ele>440.4</ele>
        <time>2025-02-09T11:04:41Z</time>
      </trkpt>
      <trkpt lat="43.74388" lon="6.11592">
        <ele>439.8</ele>
        <time>2025-02-09T11:04:49Z</time>
      </trkpt>
      <trkpt lat="43.74389" lon="6.11592">
        <ele>439.7</ele>
        <time>2025-02-09T11:04:50Z</time>
      </trkpt>
      <trkpt lat="43.74398" lon="6.11593">
        <ele>438</ele>
        <time>2025-02-09T11:05:16Z</time>
      </trkpt>
      <trkpt lat="43.74408" lon="6.11593">
        <ele>437.6</ele>
        <time>2025-02-09T11:05:32Z</time>
      </trkpt>
      <trkpt lat="43.74417" lon="6.11592">
        <ele>435.8</ele>
        <time>2025-02-09T11:05:51Z</time>
      </trkpt>
      <trkpt lat="43.74422" lon="6.11589">
        <ele>436.4</ele>
        <time>2025-02-09T11:05:58Z</time>
      </trkpt>
      <trkpt lat="43.74423" lon="6.11588">
        <ele>436.4</ele>
        <time>2025-02-09T11:05:59Z</time>
      </trkpt>
      <trkpt lat="43.74432" lon="6.11586">
        <ele>435.5</ele>
        <time>2025-02-09T11:06:08Z</time>
      </trkpt>
      <trkpt lat="43.74441" lon="6.11586">
        <ele>435</ele>
        <time>2025-02-09T11:06:15Z</time>
      </trkpt>
      <trkpt lat="43.74451" lon="6.11586">
        <ele>435.5</ele>
        <time>2025-02-09T11:06:30Z</time>
      </trkpt>
      <trkpt lat="43.7446" lon="6.11588">
        <ele>435.1</ele>
        <time>2025-02-09T11:06:43Z</time>
      </trkpt>
      <trkpt lat="43.74461" lon="6.11601">
        <ele>434.3</ele>
        <time>2025-02-09T11:06:54Z</time>
      </trkpt>
      <trkpt lat="43.74469" lon="6.11606">
        <ele>433</ele>
        <time>2025-02-09T11:07:04Z</time>
      </trkpt>
      <trkpt lat="43.74478" lon="6.11611">
        <ele>433.9</ele>
        <time>2025-02-09T11:07:12Z</time>
      </trkpt>
      <trkpt lat="43.74486" lon="6.11619">
        <ele>431.4</ele>
        <time>2025-02-09T11:07:21Z</time>
      </trkpt>
      <trkpt lat="43.74494" lon="6.11627">
        <ele>429.9</ele>
        <time>2025-02-09T11:07:34Z</time>
      </trkpt>
      <trkpt lat="43.74503" lon="6.1163">
        <ele>429.2</ele>
        <time>2025-02-09T11:07:51Z</time>
      </trkpt>
      <trkpt lat="43.74511" lon="6.11622">
        <ele>428.6</ele>
        <time>2025-02-09T11:08:01Z</time>
      </trkpt>
      <trkpt lat="43.7452" lon="6.11621">
        <ele>427.2</ele>
        <time>2025-02-09T11:08:09Z</time>
      </trkpt>
      <trkpt lat="43.7453" lon="6.11617">
        <ele>427.4</ele>
        <time>2025-02-09T11:08:17Z</time>
      </trkpt>
      <trkpt lat="43.74537" lon="6.11608">
        <ele>427.4</ele>
        <time>2025-02-09T11:08:23Z</time>
      </trkpt>
      <trkpt lat="43.74544" lon="6.11599">
        <ele>427.2</ele>
        <time>2025-02-09T11:08:31Z</time>
      </trkpt>
      <trkpt lat="43.74551" lon="6.11594">
        <ele>427.6</ele>
        <time>2025-02-09T11:08:40Z</time>
      </trkpt>
      <trkpt lat="43.74551" lon="6.11593">
        <ele>427.6</ele>
        <time>2025-02-09T11:08:41Z</time>
      </trkpt>
      <trkpt lat="43.74557" lon="6.11583">
        <ele>425.8</ele>
        <time>2025-02-09T11:08:55Z</time>
      </trkpt>
      <trkpt lat="43.74563" lon="6.11574">
        <ele>426.3</ele>
        <time>2025-02-09T11:09:02Z</time>
      </trkpt>
      <trkpt lat="43.74563" lon="6.11566">
        <ele>425</ele>
        <time>2025-02-09T11:09:14Z</time>
      </trkpt>
      <trkpt lat="43.74563" lon="6.11566">
        <ele>425</ele>
        <time>2025-02-09T11:09:16Z</time>
      </trkpt>
      <trkpt lat="43.7457" lon="6.11557">
        <ele>424.2</ele>
        <time>2025-02-09T11:09:24Z</time>
      </trkpt>
      <trkpt lat="43.74574" lon="6.11551">
        <ele>423.2</ele>
        <time>2025-02-09T11:09:37Z</time>
      </trkpt>
      <trkpt lat="43.74575" lon="6.11551">
        <ele>423.1</ele>
        <time>2025-02-09T11:09:46Z</time>
      </trkpt>
      <trkpt lat="43.74575" lon="6.11551">
        <ele>423.1</ele>
        <time>2025-02-09T11:09:47Z</time>
      </trkpt>
      <trkpt lat="43.74575" lon="6.11551">
        <ele>423.2</ele>
        <time>2025-02-09T11:09:49Z</time>
      </trkpt>
      <trkpt lat="43.74575" lon="6.11551">
        <ele>423.2</ele>
        <time>2025-02-09T11:09:50Z</time>
      </trkpt>
      <trkpt lat="43.74574" lon="6.11552">
        <ele>423.3</ele>
        <time>2025-02-09T11:09:53Z</time>
      </trkpt>
      <trkpt lat="43.74574" lon="6.11552">
        <ele>423.3</ele>
        <time>2025-02-09T11:09:57Z</time>
      </trkpt>
      <trkpt lat="43.74574" lon="6.11552">
        <ele>423.4</ele>
        <time>2025-02-09T11:10:00Z</time>
      </trkpt>
      <trkpt lat="43.7458" lon="6.11541">
        <ele>422.8</ele>
        <time>2025-02-09T11:10:12Z</time>
      </trkpt>
      <trkpt lat="43.74581" lon="6.11539">
        <ele>422.4</ele>
        <time>2025-02-09T11:10:16Z</time>
      </trkpt>
      <trkpt lat="43.74581" lon="6.11539">
        <ele>422.3</ele>
        <time>2025-02-09T11:10:17Z</time>
      </trkpt>
      <trkpt lat="43.74588" lon="6.1153">
        <ele>420.9</ele>
        <time>2025-02-09T11:10:29Z</time>
      </trkpt>
      <trkpt lat="43.74591" lon="6.11517">
        <ele>419.8</ele>
        <time>2025-02-09T11:10:39Z</time>
      </trkpt>
      <trkpt lat="43.74594" lon="6.11505">
        <ele>419.7</ele>
        <time>2025-02-09T11:10:46Z</time>
      </trkpt>
      <trkpt lat="43.74599" lon="6.11494">
        <ele>418.8</ele>
        <time>2025-02-09T11:10:53Z</time>
      </trkpt>
      <trkpt lat="43.74606" lon="6.11485">
        <ele>417.9</ele>
        <time>2025-02-09T11:11:01Z</time>
      </trkpt>
      <trkpt lat="43.74611" lon="6.11474">
        <ele>417.2</ele>
        <time>2025-02-09T11:11:09Z</time>
      </trkpt>
      <trkpt lat="43.74615" lon="6.11463">
        <ele>416.5</ele>
        <time>2025-02-09T11:11:22Z</time>
      </trkpt>
      <trkpt lat="43.74615" lon="6.11449">
        <ele>414.8</ele>
        <time>2025-02-09T11:11:35Z</time>
      </trkpt>
      <trkpt lat="43.74611" lon="6.11438">
        <ele>415.8</ele>
        <time>2025-02-09T11:11:47Z</time>
      </trkpt>
      <trkpt lat="43.74612" lon="6.11433">
        <ele>415.8</ele>
        <time>2025-02-09T11:11:58Z</time>
      </trkpt>
      <trkpt lat="43.74612" lon="6.11433">
        <ele>415.7</ele>
        <time>2025-02-09T11:11:59Z</time>
      </trkpt>
      <trkpt lat="43.7462" lon="6.11427">
        <ele>416.5</ele>
        <time>2025-02-09T11:12:08Z</time>
      </trkpt>
      <trkpt lat="43.74623" lon="6.11414">
        <ele>416.2</ele>
        <time>2025-02-09T11:12:20Z</time>
      </trkpt>
      <trkpt lat="43.74621" lon="6.11401">
        <ele>416.8</ele>
        <time>2025-02-09T11:12:35Z</time>
      </trkpt>
      <trkpt lat="43.74615" lon="6.11391">
        <ele>416.4</ele>
        <time>2025-02-09T11:12:42Z</time>
      </trkpt>
      <trkpt lat="43.74617" lon="6.11378">
        <ele>416</ele>
        <time>2025-02-09T11:12:56Z</time>
      </trkpt>
      <trkpt lat="43.74618" lon="6.11364">
        <ele>416</ele>
        <time>2025-02-09T11:13:06Z</time>
      </trkpt>
      <trkpt lat="43.74618" lon="6.11352">
        <ele>415.5</ele>
        <time>2025-02-09T11:13:16Z</time>
      </trkpt>
      <trkpt lat="43.74613" lon="6.11341">
        <ele>415.4</ele>
        <time>2025-02-09T11:13:23Z</time>
      </trkpt>
      <trkpt lat="43.7461" lon="6.11328">
        <ele>414.9</ele>
        <time>2025-02-09T11:13:33Z</time>
      </trkpt>
      <trkpt lat="43.74602" lon="6.11322">
        <ele>415.4</ele>
        <time>2025-02-09T11:13:42Z</time>
      </trkpt>
      <trkpt lat="43.746" lon="6.11321">
        <ele>416</ele>
        <time>2025-02-09T11:13:51Z</time>
      </trkpt>
      <trkpt lat="43.746" lon="6.11321">
        <ele>416</ele>
        <time>2025-02-09T11:13:57Z</time>
      </trkpt>
      <trkpt lat="43.746" lon="6.11321">
        <ele>416.1</ele>
        <time>2025-02-09T11:13:59Z</time>
      </trkpt>
      <trkpt lat="43.746" lon="6.11321">
        <ele>416.1</ele>
        <time>2025-02-09T11:14:11Z</time>
      </trkpt>
      <trkpt lat="43.746" lon="6.11321">
        <ele>416.1</ele>
        <time>2025-02-09T11:14:12Z</time>
      </trkpt>
      <trkpt lat="43.746" lon="6.11321">
        <ele>416.2</ele>
        <time>2025-02-09T11:14:18Z</time>
      </trkpt>
      <trkpt lat="43.746" lon="6.11321">
        <ele>416.2</ele>
        <time>2025-02-09T11:14:19Z</time>
      </trkpt>
      <trkpt lat="43.746" lon="6.11321">
        <ele>416.2</ele>
        <time>2025-02-09T11:14:23Z</time>
      </trkpt>
      <trkpt lat="43.74595" lon="6.1131">
        <ele>414.4</ele>
        <time>2025-02-09T11:14:33Z</time>
      </trkpt>
      <trkpt lat="43.74598" lon="6.11297">
        <ele>414.4</ele>
        <time>2025-02-09T11:14:42Z</time>
      </trkpt>
      <trkpt lat="43.74596" lon="6.11284">
        <ele>415.4</ele>
        <time>2025-02-09T11:14:51Z</time>
      </trkpt>
      <trkpt lat="43.7459" lon="6.11273">
        <ele>415.3</ele>
        <time>2025-02-09T11:14:57Z</time>
      </trkpt>
      <trkpt lat="43.74591" lon="6.11261">
        <ele>415.3</ele>
        <time>2025-02-09T11:15:06Z</time>
      </trkpt>
      <trkpt lat="43.74591" lon="6.11247">
        <ele>414.6</ele>
        <time>2025-02-09T11:15:15Z</time>
      </trkpt>
      <trkpt lat="43.74594" lon="6.11234">
        <ele>415.9</ele>
        <time>2025-02-09T11:15:24Z</time>
      </trkpt>
      <trkpt lat="43.74589" lon="6.11223">
        <ele>417.9</ele>
        <time>2025-02-09T11:15:32Z</time>
      </trkpt>
      <trkpt lat="43.74583" lon="6.11213">
        <ele>419.1</ele>
        <time>2025-02-09T11:15:46Z</time>
      </trkpt>
      <trkpt lat="43.74574" lon="6.11208">
        <ele>419.2</ele>
        <time>2025-02-09T11:15:56Z</time>
      </trkpt>
      <trkpt lat="43.74566" lon="6.11204">
        <ele>417.2</ele>
        <time>2025-02-09T11:16:13Z</time>
      </trkpt>
      <trkpt lat="43.74566" lon="6.11204">
        <ele>417.3</ele>
        <time>2025-02-09T11:16:14Z</time>
      </trkpt>
      <trkpt lat="43.74566" lon="6.11204">
        <ele>417.3</ele>
        <time>2025-02-09T11:16:16Z</time>
      </trkpt>
      <trkpt lat="43.74566" lon="6.11204">
        <ele>417.3</ele>
        <time>2025-02-09T11:16:17Z</time>
      </trkpt>
      <trkpt lat="43.74566" lon="6.11203">
        <ele>417.4</ele>
        <time>2025-02-09T11:16:18Z</time>
      </trkpt>
      <trkpt lat="43.74566" lon="6.11202">
        <ele>418.1</ele>
        <time>2025-02-09T11:16:21Z</time>
      </trkpt>
      <trkpt lat="43.74566" lon="6.11202">
        <ele>418.2</ele>
        <time>2025-02-09T11:16:22Z</time>
      </trkpt>
      <trkpt lat="43.74562" lon="6.11205">
        <ele>420.1</ele>
        <time>2025-02-09T11:16:41Z</time>
      </trkpt>
      <trkpt lat="43.74562" lon="6.11206">
        <ele>420</ele>
        <time>2025-02-09T11:16:42Z</time>
      </trkpt>
      <trkpt lat="43.74562" lon="6.11207">
        <ele>419.8</ele>
        <time>2025-02-09T11:16:45Z</time>
      </trkpt>
      <trkpt lat="43.74562" lon="6.11208">
        <ele>419.9</ele>
        <time>2025-02-09T11:16:46Z</time>
      </trkpt>
      <trkpt lat="43.74557" lon="6.11198">
        <ele>419.8</ele>
        <time>2025-02-09T11:17:07Z</time>
      </trkpt>
      <trkpt lat="43.74556" lon="6.11202">
        <ele>421</ele>
        <time>2025-02-09T11:17:15Z</time>
      </trkpt>
      <trkpt lat="43.74556" lon="6.11201">
        <ele>420.7</ele>
        <time>2025-02-09T11:17:17Z</time>
      </trkpt>
      <trkpt lat="43.74553" lon="6.1119">
        <ele>423.2</ele>
        <time>2025-02-09T11:17:26Z</time>
      </trkpt>
      <trkpt lat="43.74552" lon="6.11176">
        <ele>426.9</ele>
        <time>2025-02-09T11:17:34Z</time>
      </trkpt>
      <trkpt lat="43.74551" lon="6.11163">
        <ele>428.5</ele>
        <time>2025-02-09T11:17:44Z</time>
      </trkpt>
      <trkpt lat="43.74552" lon="6.1115">
        <ele>427.9</ele>
        <time>2025-02-09T11:17:58Z</time>
      </trkpt>
      <trkpt lat="43.74547" lon="6.11139">
        <ele>429.3</ele>
        <time>2025-02-09T11:18:08Z</time>
      </trkpt>
      <trkpt lat="43.74545" lon="6.11126">
        <ele>429.4</ele>
        <time>2025-02-09T11:18:17Z</time>
      </trkpt>
      <trkpt lat="43.7454" lon="6.11116">
        <ele>430.1</ele>
        <time>2025-02-09T11:18:32Z</time>
      </trkpt>
      <trkpt lat="43.74545" lon="6.11105">
        <ele>429.4</ele>
        <time>2025-02-09T11:18:42Z</time>
      </trkpt>
      <trkpt lat="43.74545" lon="6.11092">
        <ele>428.2</ele>
        <time>2025-02-09T11:18:50Z</time>
      </trkpt>
      <trkpt lat="43.7454" lon="6.11081">
        <ele>429</ele>
        <time>2025-02-09T11:18:57Z</time>
      </trkpt>
      <trkpt lat="43.74535" lon="6.11071">
        <ele>429.4</ele>
        <time>2025-02-09T11:19:05Z</time>
      </trkpt>
      <trkpt lat="43.74535" lon="6.11058">
        <ele>430.5</ele>
        <time>2025-02-09T11:19:16Z</time>
      </trkpt>
      <trkpt lat="43.74535" lon="6.11045">
        <ele>429.8</ele>
        <time>2025-02-09T11:19:24Z</time>
      </trkpt>
      <trkpt lat="43.74533" lon="6.11032">
        <ele>429.3</ele>
        <time>2025-02-09T11:19:32Z</time>
      </trkpt>
      <trkpt lat="43.74527" lon="6.11021">
        <ele>430.6</ele>
        <time>2025-02-09T11:19:39Z</time>
      </trkpt>
      <trkpt lat="43.74524" lon="6.11009">
        <ele>430.9</ele>
        <time>2025-02-09T11:19:47Z</time>
      </trkpt>
      <trkpt lat="43.74519" lon="6.10998">
        <ele>430.9</ele>
        <time>2025-02-09T11:19:55Z</time>
      </trkpt>
      <trkpt lat="43.74513" lon="6.10988">
        <ele>432.3</ele>
        <time>2025-02-09T11:20:03Z</time>
      </trkpt>
      <trkpt lat="43.74504" lon="6.10985">
        <ele>433.2</ele>
        <time>2025-02-09T11:20:10Z</time>
      </trkpt>
      <trkpt lat="43.74495" lon="6.10979">
        <ele>435.9</ele>
        <time>2025-02-09T11:20:22Z</time>
      </trkpt>
      <trkpt lat="43.74488" lon="6.10969">
        <ele>436.1</ele>
        <time>2025-02-09T11:20:29Z</time>
      </trkpt>
      <trkpt lat="43.74482" lon="6.10959">
        <ele>435.6</ele>
        <time>2025-02-09T11:20:36Z</time>
      </trkpt>
      <trkpt lat="43.74473" lon="6.10957">
        <ele>435.3</ele>
        <time>2025-02-09T11:20:46Z</time>
      </trkpt>
      <trkpt lat="43.74472" lon="6.10957">
        <ele>434.7</ele>
        <time>2025-02-09T11:20:56Z</time>
      </trkpt>
      <trkpt lat="43.74472" lon="6.10957">
        <ele>434.6</ele>
        <time>2025-02-09T11:20:58Z</time>
      </trkpt>
      <trkpt lat="43.74473" lon="6.10957">
        <ele>435</ele>
        <time>2025-02-09T11:21:06Z</time>
      </trkpt>
      <trkpt lat="43.74472" lon="6.10957">
        <ele>435</ele>
        <time>2025-02-09T11:21:15Z</time>
      </trkpt>
      <trkpt lat="43.74475" lon="6.10959">
        <ele>435.6</ele>
        <time>2025-02-09T11:21:25Z</time>
      </trkpt>
      <trkpt lat="43.74475" lon="6.10959">
        <ele>435.5</ele>
        <time>2025-02-09T11:21:26Z</time>
      </trkpt>
      <trkpt lat="43.74473" lon="6.10959">
        <ele>435.4</ele>
        <time>2025-02-09T11:21:29Z</time>
      </trkpt>
      <trkpt lat="43.74473" lon="6.10958">
        <ele>435.2</ele>
        <time>2025-02-09T11:21:45Z</time>
      </trkpt>
      <trkpt lat="43.74464" lon="6.10959">
        <ele>435</ele>
        <time>2025-02-09T11:21:56Z</time>
      </trkpt>
      <trkpt lat="43.74454" lon="6.10955">
        <ele>436.2</ele>
        <time>2025-02-09T11:22:06Z</time>
      </trkpt>
      <trkpt lat="43.74448" lon="6.10944">
        <ele>435.7</ele>
        <time>2025-02-09T11:22:14Z</time>
      </trkpt>
      <trkpt lat="43.74446" lon="6.10935">
        <ele>434.4</ele>
        <time>2025-02-09T11:22:25Z</time>
      </trkpt>
      <trkpt lat="43.74445" lon="6.10935">
        <ele>434.3</ele>
        <time>2025-02-09T11:22:26Z</time>
      </trkpt>
      <trkpt lat="43.74438" lon="6.10925">
        <ele>434</ele>
        <time>2025-02-09T11:22:34Z</time>
      </trkpt>
      <trkpt lat="43.74431" lon="6.10915">
        <ele>433.8</ele>
        <time>2025-02-09T11:22:43Z</time>
      </trkpt>
      <trkpt lat="43.74424" lon="6.10905">
        <ele>433.3</ele>
        <time>2025-02-09T11:22:51Z</time>
      </trkpt>
      <trkpt lat="43.74414" lon="6.10901">
        <ele>433.8</ele>
        <time>2025-02-09T11:22:59Z</time>
      </trkpt>
      <trkpt lat="43.74407" lon="6.109">
        <ele>434.1</ele>
        <time>2025-02-09T11:23:10Z</time>
      </trkpt>
      <trkpt lat="43.74407" lon="6.109">
        <ele>434.1</ele>
        <time>2025-02-09T11:23:11Z</time>
      </trkpt>
      <trkpt lat="43.74399" lon="6.10892">
        <ele>432.9</ele>
        <time>2025-02-09T11:23:28Z</time>
      </trkpt>
      <trkpt lat="43.74392" lon="6.10884">
        <ele>432.1</ele>
        <time>2025-02-09T11:23:38Z</time>
      </trkpt>
      <trkpt lat="43.7439" lon="6.10871">
        <ele>432</ele>
        <time>2025-02-09T11:23:46Z</time>
      </trkpt>
      <trkpt lat="43.74383" lon="6.10862">
        <ele>431</ele>
        <time>2025-02-09T11:23:55Z</time>
      </trkpt>
      <trkpt lat="43.74375" lon="6.10857">
        <ele>430.4</ele>
        <time>2025-02-09T11:24:07Z</time>
      </trkpt>
      <trkpt lat="43.74371" lon="6.10846">
        <ele>429.7</ele>
        <time>2025-02-09T11:24:26Z</time>
      </trkpt>
      <trkpt lat="43.74367" lon="6.10842">
        <ele>427.9</ele>
        <time>2025-02-09T11:24:38Z</time>
      </trkpt>
      <trkpt lat="43.74367" lon="6.10841">
        <ele>427.7</ele>
        <time>2025-02-09T11:24:39Z</time>
      </trkpt>
      <trkpt lat="43.74366" lon="6.10842">
        <ele>426.7</ele>
        <time>2025-02-09T11:24:42Z</time>
      </trkpt>
      <trkpt lat="43.74367" lon="6.10842">
        <ele>426.6</ele>
        <time>2025-02-09T11:24:44Z</time>
      </trkpt>
      <trkpt lat="43.74358" lon="6.10837">
        <ele>425.6</ele>
        <time>2025-02-09T11:24:53Z</time>
      </trkpt>
      <trkpt lat="43.74354" lon="6.10836">
        <ele>424.5</ele>
        <time>2025-02-09T11:25:01Z</time>
      </trkpt>
      <trkpt lat="43.74353" lon="6.10836">
        <ele>424.3</ele>
        <time>2025-02-09T11:25:02Z</time>
      </trkpt>
      <trkpt lat="43.74353" lon="6.10835">
        <ele>423.9</ele>
        <time>2025-02-09T11:25:04Z</time>
      </trkpt>
      <trkpt lat="43.74353" lon="6.10835">
        <ele>423.8</ele>
        <time>2025-02-09T11:25:05Z</time>
      </trkpt>
      <trkpt lat="43.74346" lon="6.10835">
        <ele>423.4</ele>
        <time>2025-02-09T11:25:21Z</time>
      </trkpt>
      <trkpt lat="43.74345" lon="6.10834">
        <ele>423.5</ele>
        <time>2025-02-09T11:25:22Z</time>
      </trkpt>
      <trkpt lat="43.74335" lon="6.10835">
        <ele>423.2</ele>
        <time>2025-02-09T11:25:29Z</time>
      </trkpt>
      <trkpt lat="43.74325" lon="6.10837">
        <ele>422.7</ele>
        <time>2025-02-09T11:25:36Z</time>
      </trkpt>
      <trkpt lat="43.74317" lon="6.10842">
        <ele>422.6</ele>
        <time>2025-02-09T11:25:44Z</time>
      </trkpt>
      <trkpt lat="43.74316" lon="6.10842">
        <ele>422.6</ele>
        <time>2025-02-09T11:25:47Z</time>
      </trkpt>
      <trkpt lat="43.74315" lon="6.10842">
        <ele>422.6</ele>
        <time>2025-02-09T11:25:48Z</time>
      </trkpt>
      <trkpt lat="43.74306" lon="6.10847">
        <ele>421.7</ele>
        <time>2025-02-09T11:25:56Z</time>
      </trkpt>
      <trkpt lat="43.74297" lon="6.10853">
        <ele>420.8</ele>
        <time>2025-02-09T11:26:04Z</time>
      </trkpt>
      <trkpt lat="43.74288" lon="6.10859">
        <ele>419.7</ele>
        <time>2025-02-09T11:26:15Z</time>
      </trkpt>
      <trkpt lat="43.74284" lon="6.10864">
        <ele>419</ele>
        <time>2025-02-09T11:26:27Z</time>
      </trkpt>
      <trkpt lat="43.74284" lon="6.10865">
        <ele>419</ele>
        <time>2025-02-09T11:26:28Z</time>
      </trkpt>
      <trkpt lat="43.74276" lon="6.10872">
        <ele>421.5</ele>
        <time>2025-02-09T11:26:50Z</time>
      </trkpt>
      <trkpt lat="43.74276" lon="6.10871">
        <ele>421.6</ele>
        <time>2025-02-09T11:26:51Z</time>
      </trkpt>
      <trkpt lat="43.74274" lon="6.10869">
        <ele>420.8</ele>
        <time>2025-02-09T11:27:10Z</time>
      </trkpt>
      <trkpt lat="43.74275" lon="6.1087">
        <ele>420.7</ele>
        <time>2025-02-09T11:27:11Z</time>
      </trkpt>
      <trkpt lat="43.74268" lon="6.10862">
        <ele>421.3</ele>
        <time>2025-02-09T11:27:37Z</time>
      </trkpt>
      <trkpt lat="43.74266" lon="6.10857">
        <ele>421.6</ele>
        <time>2025-02-09T11:27:48Z</time>
      </trkpt>
      <trkpt lat="43.74267" lon="6.10857">
        <ele>421.7</ele>
        <time>2025-02-09T11:27:49Z</time>
      </trkpt>
      <trkpt lat="43.74267" lon="6.10857">
        <ele>421.7</ele>
        <time>2025-02-09T11:27:50Z</time>
      </trkpt>
      <trkpt lat="43.74267" lon="6.10858">
        <ele>421.8</ele>
        <time>2025-02-09T11:27:54Z</time>
      </trkpt>
      <trkpt lat="43.74267" lon="6.10858">
        <ele>421.8</ele>
        <time>2025-02-09T11:27:55Z</time>
      </trkpt>
      <trkpt lat="43.74267" lon="6.10858">
        <ele>421.8</ele>
        <time>2025-02-09T11:27:56Z</time>
      </trkpt>
      <trkpt lat="43.74266" lon="6.10857">
        <ele>422.4</ele>
        <time>2025-02-09T11:28:00Z</time>
      </trkpt>
      <trkpt lat="43.74266" lon="6.10857">
        <ele>422.5</ele>
        <time>2025-02-09T11:28:01Z</time>
      </trkpt>
      <trkpt lat="43.74266" lon="6.10857">
        <ele>422.6</ele>
        <time>2025-02-09T11:28:03Z</time>
      </trkpt>
      <trkpt lat="43.74266" lon="6.10857">
        <ele>422.5</ele>
        <time>2025-02-09T11:28:05Z</time>
      </trkpt>
      <trkpt lat="43.74265" lon="6.10857">
        <ele>422.2</ele>
        <time>2025-02-09T11:28:17Z</time>
      </trkpt>
      <trkpt lat="43.74265" lon="6.10857">
        <ele>422</ele>
        <time>2025-02-09T11:28:18Z</time>
      </trkpt>
      <trkpt lat="43.74265" lon="6.10857">
        <ele>422.1</ele>
        <time>2025-02-09T11:28:19Z</time>
      </trkpt>
      <trkpt lat="43.74265" lon="6.10857">
        <ele>421.9</ele>
        <time>2025-02-09T11:28:20Z</time>
      </trkpt>
      <trkpt lat="43.74265" lon="6.10857">
        <ele>421.9</ele>
        <time>2025-02-09T11:28:21Z</time>
      </trkpt>
      <trkpt lat="43.74265" lon="6.10857">
        <ele>422.1</ele>
        <time>2025-02-09T11:28:22Z</time>
      </trkpt>
      <trkpt lat="43.74265" lon="6.10858">
        <ele>421.7</ele>
        <time>2025-02-09T11:28:26Z</time>
      </trkpt>
      <trkpt lat="43.74265" lon="6.10858">
        <ele>421.7</ele>
        <time>2025-02-09T11:28:27Z</time>
      </trkpt>
      <trkpt lat="43.74265" lon="6.10858">
        <ele>421.7</ele>
        <time>2025-02-09T11:28:28Z</time>
      </trkpt>
      <trkpt lat="43.74265" lon="6.10858">
        <ele>421.5</ele>
        <time>2025-02-09T11:28:29Z</time>
      </trkpt>
      <trkpt lat="43.74265" lon="6.10857">
        <ele>421.3</ele>
        <time>2025-02-09T11:28:36Z</time>
      </trkpt>
      <trkpt lat="43.74265" lon="6.10856">
        <ele>421.3</ele>
        <time>2025-02-09T11:28:42Z</time>
      </trkpt>
      <trkpt lat="43.74265" lon="6.10856">
        <ele>421.2</ele>
        <time>2025-02-09T11:28:44Z</time>
      </trkpt>
      <trkpt lat="43.74265" lon="6.10855">
        <ele>421.1</ele>
        <time>2025-02-09T11:28:45Z</time>
      </trkpt>
      <trkpt lat="43.74265" lon="6.10854">
        <ele>421.1</ele>
        <time>2025-02-09T11:28:50Z</time>
      </trkpt>
      <trkpt lat="43.74265" lon="6.10854">
        <ele>421.1</ele>
        <time>2025-02-09T11:29:06Z</time>
      </trkpt>
      <trkpt lat="43.74265" lon="6.10854">
        <ele>420.9</ele>
        <time>2025-02-09T11:29:08Z</time>
      </trkpt>
      <trkpt lat="43.74265" lon="6.10854">
        <ele>420.8</ele>
        <time>2025-02-09T11:29:09Z</time>
      </trkpt>
      <trkpt lat="43.74265" lon="6.10853">
        <ele>420.9</ele>
        <time>2025-02-09T11:29:12Z</time>
      </trkpt>
      <trkpt lat="43.74265" lon="6.10852">
        <ele>420.8</ele>
        <time>2025-02-09T11:29:13Z</time>
      </trkpt>
      <trkpt lat="43.74265" lon="6.10852">
        <ele>420.8</ele>
        <time>2025-02-09T11:29:17Z</time>
      </trkpt>
      <trkpt lat="43.74265" lon="6.10852">
        <ele>420.6</ele>
        <time>2025-02-09T11:29:18Z</time>
      </trkpt>
      <trkpt lat="43.74265" lon="6.10852">
        <ele>420.1</ele>
        <time>2025-02-09T11:29:23Z</time>
      </trkpt>
      <trkpt lat="43.74265" lon="6.10852">
        <ele>420.5</ele>
        <time>2025-02-09T11:29:25Z</time>
      </trkpt>
      <trkpt lat="43.74264" lon="6.1085">
        <ele>420.1</ele>
        <time>2025-02-09T11:29:31Z</time>
      </trkpt>
      <trkpt lat="43.74264" lon="6.1085">
        <ele>420</ele>
        <time>2025-02-09T11:29:32Z</time>
      </trkpt>
      <trkpt lat="43.74265" lon="6.10851">
        <ele>419.8</ele>
        <time>2025-02-09T11:29:35Z</time>
      </trkpt>
      <trkpt lat="43.74265" lon="6.1085">
        <ele>419.8</ele>
        <time>2025-02-09T11:29:36Z</time>
      </trkpt>
      <trkpt lat="43.74273" lon="6.10846">
        <ele>417.7</ele>
        <time>2025-02-09T11:29:57Z</time>
      </trkpt>
      <trkpt lat="43.74273" lon="6.10842">
        <ele>416.9</ele>
        <time>2025-02-09T11:30:12Z</time>
      </trkpt>
      <trkpt lat="43.74273" lon="6.10842">
        <ele>416.8</ele>
        <time>2025-02-09T11:30:16Z</time>
      </trkpt>
      <trkpt lat="43.74273" lon="6.10842">
        <ele>416.8</ele>
        <time>2025-02-09T11:30:17Z</time>
      </trkpt>
      <trkpt lat="43.74273" lon="6.10842">
        <ele>416.8</ele>
        <time>2025-02-09T11:30:20Z</time>
      </trkpt>
      <trkpt lat="43.74273" lon="6.10842">
        <ele>416.8</ele>
        <time>2025-02-09T11:30:21Z</time>
      </trkpt>
      <trkpt lat="43.74273" lon="6.10842">
        <ele>416.8</ele>
        <time>2025-02-09T11:30:28Z</time>
      </trkpt>
      <trkpt lat="43.74273" lon="6.10842">
        <ele>416.8</ele>
        <time>2025-02-09T11:30:29Z</time>
      </trkpt>
      <trkpt lat="43.74272" lon="6.10841">
        <ele>416.9</ele>
        <time>2025-02-09T11:30:31Z</time>
      </trkpt>
      <trkpt lat="43.74271" lon="6.10839">
        <ele>416.7</ele>
        <time>2025-02-09T11:30:36Z</time>
      </trkpt>
      <trkpt lat="43.74271" lon="6.10839">
        <ele>416.7</ele>
        <time>2025-02-09T11:30:39Z</time>
      </trkpt>
      <trkpt lat="43.74274" lon="6.10838">
        <ele>414.3</ele>
        <time>2025-02-09T11:30:45Z</time>
      </trkpt>
      <trkpt lat="43.74275" lon="6.10838">
        <ele>414.2</ele>
        <time>2025-02-09T11:30:46Z</time>
      </trkpt>
      <trkpt lat="43.7428" lon="6.10827">
        <ele>413.2</ele>
        <time>2025-02-09T11:31:04Z</time>
      </trkpt>
      <trkpt lat="43.74277" lon="6.10814">
        <ele>413.5</ele>
        <time>2025-02-09T11:31:14Z</time>
      </trkpt>
      <trkpt lat="43.74269" lon="6.10806">
        <ele>413.5</ele>
        <time>2025-02-09T11:31:25Z</time>
      </trkpt>
      <trkpt lat="43.74268" lon="6.10803">
        <ele>413.1</ele>
        <time>2025-02-09T11:31:35Z</time>
      </trkpt>
      <trkpt lat="43.74268" lon="6.10802">
        <ele>413.3</ele>
        <time>2025-02-09T11:31:37Z</time>
      </trkpt>
      <trkpt lat="43.74264" lon="6.108">
        <ele>413.5</ele>
        <time>2025-02-09T11:31:49Z</time>
      </trkpt>
      <trkpt lat="43.74264" lon="6.108">
        <ele>413.4</ele>
        <time>2025-02-09T11:31:50Z</time>
      </trkpt>
      <trkpt lat="43.74263" lon="6.10799">
        <ele>413.6</ele>
        <time>2025-02-09T11:31:54Z</time>
      </trkpt>
      <trkpt lat="43.74263" lon="6.10799">
        <ele>414</ele>
        <time>2025-02-09T11:31:56Z</time>
      </trkpt>
      <trkpt lat="43.74263" lon="6.10797">
        <ele>414.7</ele>
        <time>2025-02-09T11:32:04Z</time>
      </trkpt>
      <trkpt lat="43.74263" lon="6.10797">
        <ele>414.8</ele>
        <time>2025-02-09T11:32:07Z</time>
      </trkpt>
      <trkpt lat="43.74262" lon="6.10797">
        <ele>414.8</ele>
        <time>2025-02-09T11:32:10Z</time>
      </trkpt>
      <trkpt lat="43.74262" lon="6.10797">
        <ele>414.8</ele>
        <time>2025-02-09T11:32:11Z</time>
      </trkpt>
      <trkpt lat="43.74262" lon="6.10797">
        <ele>414.8</ele>
        <time>2025-02-09T11:32:12Z</time>
      </trkpt>
      <trkpt lat="43.74262" lon="6.10796">
        <ele>414.8</ele>
        <time>2025-02-09T11:32:15Z</time>
      </trkpt>
      <trkpt lat="43.74262" lon="6.10796">
        <ele>414.8</ele>
        <time>2025-02-09T11:32:16Z</time>
      </trkpt>
      <trkpt lat="43.74261" lon="6.10796">
        <ele>414.9</ele>
        <time>2025-02-09T11:32:17Z</time>
      </trkpt>
      <trkpt lat="43.74265" lon="6.10785">
        <ele>415.6</ele>
        <time>2025-02-09T11:32:45Z</time>
      </trkpt>
      <trkpt lat="43.74275" lon="6.10786">
        <ele>416</ele>
        <time>2025-02-09T11:32:58Z</time>
      </trkpt>
      <trkpt lat="43.74278" lon="6.10788">
        <ele>415.8</ele>
        <time>2025-02-09T11:33:03Z</time>
      </trkpt>
      <trkpt lat="43.74277" lon="6.10788">
        <ele>415.4</ele>
        <time>2025-02-09T11:33:05Z</time>
      </trkpt>
      <trkpt lat="43.74276" lon="6.10788">
        <ele>415.2</ele>
        <time>2025-02-09T11:33:12Z</time>
      </trkpt>
      <trkpt lat="43.74276" lon="6.10787">
        <ele>415.2</ele>
        <time>2025-02-09T11:33:14Z</time>
      </trkpt>
      <trkpt lat="43.74276" lon="6.10787">
        <ele>415.2</ele>
        <time>2025-02-09T11:33:16Z</time>
      </trkpt>
      <trkpt lat="43.74276" lon="6.10787">
        <ele>415.3</ele>
        <time>2025-02-09T11:33:17Z</time>
      </trkpt>
      <trkpt lat="43.74275" lon="6.10786">
        <ele>415.2</ele>
        <time>2025-02-09T11:33:20Z</time>
      </trkpt>
      <trkpt lat="43.74276" lon="6.10786">
        <ele>415.2</ele>
        <time>2025-02-09T11:33:25Z</time>
      </trkpt>
      <trkpt lat="43.74276" lon="6.10785">
        <ele>415.3</ele>
        <time>2025-02-09T11:33:27Z</time>
      </trkpt>
      <trkpt lat="43.74275" lon="6.10785">
        <ele>415.4</ele>
        <time>2025-02-09T11:33:36Z</time>
      </trkpt>
      <trkpt lat="43.74275" lon="6.10783">
        <ele>415.5</ele>
        <time>2025-02-09T11:33:41Z</time>
      </trkpt>
      <trkpt lat="43.74275" lon="6.10783">
        <ele>415.5</ele>
        <time>2025-02-09T11:33:44Z</time>
      </trkpt>
      <trkpt lat="43.74275" lon="6.10783">
        <ele>415.6</ele>
        <time>2025-02-09T11:33:45Z</time>
      </trkpt>
      <trkpt lat="43.74276" lon="6.10783">
        <ele>415.5</ele>
        <time>2025-02-09T11:33:46Z</time>
      </trkpt>
      <trkpt lat="43.74276" lon="6.10783">
        <ele>415.4</ele>
        <time>2025-02-09T11:33:47Z</time>
      </trkpt>
      <trkpt lat="43.74276" lon="6.10783">
        <ele>415.4</ele>
        <time>2025-02-09T11:33:52Z</time>
      </trkpt>
      <trkpt lat="43.74275" lon="6.10782">
        <ele>415.4</ele>
        <time>2025-02-09T11:33:57Z</time>
      </trkpt>
      <trkpt lat="43.74275" lon="6.10783">
        <ele>415.4</ele>
        <time>2025-02-09T11:33:58Z</time>
      </trkpt>
      <trkpt lat="43.74275" lon="6.10783">
        <ele>415.3</ele>
        <time>2025-02-09T11:34:00Z</time>
      </trkpt>
      <trkpt lat="43.74275" lon="6.10783">
        <ele>415.4</ele>
        <time>2025-02-09T11:34:01Z</time>
      </trkpt>
      <trkpt lat="43.74275" lon="6.10784">
        <ele>415.7</ele>
        <time>2025-02-09T11:34:06Z</time>
      </trkpt>
      <trkpt lat="43.74275" lon="6.10785">
        <ele>415.9</ele>
        <time>2025-02-09T11:34:09Z</time>
      </trkpt>
      <trkpt lat="43.74275" lon="6.10785">
        <ele>416</ele>
        <time>2025-02-09T11:34:10Z</time>
      </trkpt>
      <trkpt lat="43.74275" lon="6.10785">
        <ele>416.1</ele>
        <time>2025-02-09T11:34:14Z</time>
      </trkpt>
      <trkpt lat="43.74275" lon="6.10785">
        <ele>416.2</ele>
        <time>2025-02-09T11:34:15Z</time>
      </trkpt>
      <trkpt lat="43.74275" lon="6.10785">
        <ele>416.2</ele>
        <time>2025-02-09T11:34:21Z</time>
      </trkpt>
      <trkpt lat="43.74284" lon="6.10788">
        <ele>414.3</ele>
        <time>2025-02-09T11:34:41Z</time>
      </trkpt>
      <trkpt lat="43.74293" lon="6.10792">
        <ele>413</ele>
        <time>2025-02-09T11:34:53Z</time>
      </trkpt>
      <trkpt lat="43.74298" lon="6.1079">
        <ele>412.1</ele>
        <time>2025-02-09T11:35:05Z</time>
      </trkpt>
      <trkpt lat="43.74298" lon="6.1079">
        <ele>412</ele>
        <time>2025-02-09T11:35:07Z</time>
      </trkpt>
      <trkpt lat="43.74307" lon="6.10784">
        <ele>411.3</ele>
        <time>2025-02-09T11:35:20Z</time>
      </trkpt>
      <trkpt lat="43.74315" lon="6.1078">
        <ele>410.7</ele>
        <time>2025-02-09T11:35:29Z</time>
      </trkpt>
      <trkpt lat="43.74325" lon="6.10781">
        <ele>409.5</ele>
        <time>2025-02-09T11:35:37Z</time>
      </trkpt>
      <trkpt lat="43.74334" lon="6.10775">
        <ele>409</ele>
        <time>2025-02-09T11:35:44Z</time>
      </trkpt>
      <trkpt lat="43.74341" lon="6.10766">
        <ele>409.3</ele>
        <time>2025-02-09T11:35:51Z</time>
      </trkpt>
      <trkpt lat="43.74349" lon="6.10758">
        <ele>409.1</ele>
        <time>2025-02-09T11:35:59Z</time>
      </trkpt>
      <trkpt lat="43.74356" lon="6.10749">
        <ele>409.2</ele>
        <time>2025-02-09T11:36:07Z</time>
      </trkpt>
      <trkpt lat="43.74365" lon="6.10746">
        <ele>409.5</ele>
        <time>2025-02-09T11:36:14Z</time>
      </trkpt>
      <trkpt lat="43.74375" lon="6.10741">
        <ele>411.1</ele>
        <time>2025-02-09T11:36:20Z</time>
      </trkpt>
      <trkpt lat="43.74385" lon="6.10741">
        <ele>412.1</ele>
        <time>2025-02-09T11:36:27Z</time>
      </trkpt>
      <trkpt lat="43.74394" lon="6.10738">
        <ele>410.9</ele>
        <time>2025-02-09T11:36:35Z</time>
      </trkpt>
      <trkpt lat="43.74403" lon="6.10734">
        <ele>410.1</ele>
        <time>2025-02-09T11:36:45Z</time>
      </trkpt>
      <trkpt lat="43.74412" lon="6.10735">
        <ele>409.6</ele>
        <time>2025-02-09T11:36:54Z</time>
      </trkpt>
      <trkpt lat="43.74421" lon="6.10728">
        <ele>410.3</ele>
        <time>2025-02-09T11:37:02Z</time>
      </trkpt>
      <trkpt lat="43.74426" lon="6.10717">
        <ele>411</ele>
        <time>2025-02-09T11:37:09Z</time>
      </trkpt>
      <trkpt lat="43.74429" lon="6.10705">
        <ele>410.8</ele>
        <time>2025-02-09T11:37:18Z</time>
      </trkpt>
      <trkpt lat="43.74429" lon="6.10692">
        <ele>409.6</ele>
        <time>2025-02-09T11:37:27Z</time>
      </trkpt>
      <trkpt lat="43.74435" lon="6.10682">
        <ele>408.4</ele>
        <time>2025-02-09T11:37:35Z</time>
      </trkpt>
      <trkpt lat="43.7444" lon="6.10674">
        <ele>407.1</ele>
        <time>2025-02-09T11:37:45Z</time>
      </trkpt>
      <trkpt lat="43.74439" lon="6.10674">
        <ele>407</ele>
        <time>2025-02-09T11:37:46Z</time>
      </trkpt>
      <trkpt lat="43.74438" lon="6.10674">
        <ele>406.9</ele>
        <time>2025-02-09T11:37:49Z</time>
      </trkpt>
      <trkpt lat="43.74439" lon="6.10673">
        <ele>407.1</ele>
        <time>2025-02-09T11:37:51Z</time>
      </trkpt>
      <trkpt lat="43.74438" lon="6.1066">
        <ele>406.5</ele>
        <time>2025-02-09T11:38:02Z</time>
      </trkpt>
      <trkpt lat="43.7443" lon="6.10651">
        <ele>406</ele>
        <time>2025-02-09T11:38:10Z</time>
      </trkpt>
      <trkpt lat="43.74424" lon="6.1064">
        <ele>406.2</ele>
        <time>2025-02-09T11:38:18Z</time>
      </trkpt>
      <trkpt lat="43.74419" lon="6.1063">
        <ele>406.3</ele>
        <time>2025-02-09T11:38:24Z</time>
      </trkpt>
      <trkpt lat="43.74414" lon="6.10619">
        <ele>406.6</ele>
        <time>2025-02-09T11:38:33Z</time>
      </trkpt>
      <trkpt lat="43.74407" lon="6.10609">
        <ele>406.9</ele>
        <time>2025-02-09T11:38:41Z</time>
      </trkpt>
      <trkpt lat="43.744" lon="6.10601">
        <ele>407.5</ele>
        <time>2025-02-09T11:38:48Z</time>
      </trkpt>
      <trkpt lat="43.74392" lon="6.10593">
        <ele>408</ele>
        <time>2025-02-09T11:38:55Z</time>
      </trkpt>
      <trkpt lat="43.74387" lon="6.10582">
        <ele>408.9</ele>
        <time>2025-02-09T11:39:03Z</time>
      </trkpt>
      <trkpt lat="43.74383" lon="6.1057">
        <ele>410.6</ele>
        <time>2025-02-09T11:39:12Z</time>
      </trkpt>
      <trkpt lat="43.74378" lon="6.10558">
        <ele>410.9</ele>
        <time>2025-02-09T11:39:22Z</time>
      </trkpt>
      <trkpt lat="43.74377" lon="6.10546">
        <ele>410.3</ele>
        <time>2025-02-09T11:39:33Z</time>
      </trkpt>
      <trkpt lat="43.74378" lon="6.10532">
        <ele>408.4</ele>
        <time>2025-02-09T11:39:44Z</time>
      </trkpt>
      <trkpt lat="43.74375" lon="6.1052">
        <ele>407.7</ele>
        <time>2025-02-09T11:39:51Z</time>
      </trkpt>
      <trkpt lat="43.74369" lon="6.1051">
        <ele>405.9</ele>
        <time>2025-02-09T11:39:59Z</time>
      </trkpt>
      <trkpt lat="43.74365" lon="6.10498">
        <ele>404.8</ele>
        <time>2025-02-09T11:40:07Z</time>
      </trkpt>
      <trkpt lat="43.74359" lon="6.10488">
        <ele>404.8</ele>
        <time>2025-02-09T11:40:14Z</time>
      </trkpt>
      <trkpt lat="43.74352" lon="6.1048">
        <ele>404.7</ele>
        <time>2025-02-09T11:40:22Z</time>
      </trkpt>
      <trkpt lat="43.74352" lon="6.1048">
        <ele>404.8</ele>
        <time>2025-02-09T11:40:24Z</time>
      </trkpt>
      <trkpt lat="43.74351" lon="6.1048">
        <ele>404.7</ele>
        <time>2025-02-09T11:40:28Z</time>
      </trkpt>
      <trkpt lat="43.74351" lon="6.1048">
        <ele>404.6</ele>
        <time>2025-02-09T11:40:29Z</time>
      </trkpt>
      <trkpt lat="43.74351" lon="6.10479">
        <ele>404.6</ele>
        <time>2025-02-09T11:40:34Z</time>
      </trkpt>
      <trkpt lat="43.74345" lon="6.10469">
        <ele>405</ele>
        <time>2025-02-09T11:40:45Z</time>
      </trkpt>
      <trkpt lat="43.74338" lon="6.10462">
        <ele>405</ele>
        <time>2025-02-09T11:40:57Z</time>
      </trkpt>
      <trkpt lat="43.74334" lon="6.1045">
        <ele>405.3</ele>
        <time>2025-02-09T11:41:05Z</time>
      </trkpt>
      <trkpt lat="43.74333" lon="6.10445">
        <ele>405.7</ele>
        <time>2025-02-09T11:41:14Z</time>
      </trkpt>
      <trkpt lat="43.74333" lon="6.10444">
        <ele>405.7</ele>
        <time>2025-02-09T11:41:15Z</time>
      </trkpt>
      <trkpt lat="43.74327" lon="6.10433">
        <ele>406</ele>
        <time>2025-02-09T11:41:23Z</time>
      </trkpt>
      <trkpt lat="43.74323" lon="6.1042">
        <ele>406.3</ele>
        <time>2025-02-09T11:41:32Z</time>
      </trkpt>
      <trkpt lat="43.74318" lon="6.10409">
        <ele>405.6</ele>
        <time>2025-02-09T11:41:40Z</time>
      </trkpt>
      <trkpt lat="43.74312" lon="6.10397">
        <ele>404</ele>
        <time>2025-02-09T11:41:48Z</time>
      </trkpt>
      <trkpt lat="43.74308" lon="6.10385">
        <ele>404.2</ele>
        <time>2025-02-09T11:41:57Z</time>
      </trkpt>
      <trkpt lat="43.74306" lon="6.10371">
        <ele>404.6</ele>
        <time>2025-02-09T11:42:07Z</time>
      </trkpt>
      <trkpt lat="43.74301" lon="6.1036">
        <ele>406</ele>
        <time>2025-02-09T11:42:18Z</time>
      </trkpt>
      <trkpt lat="43.74297" lon="6.10349">
        <ele>408.4</ele>
        <time>2025-02-09T11:42:36Z</time>
      </trkpt>
      <trkpt lat="43.74292" lon="6.10339">
        <ele>409.2</ele>
        <time>2025-02-09T11:42:52Z</time>
      </trkpt>
      <trkpt lat="43.74299" lon="6.10342">
        <ele>411.2</ele>
        <time>2025-02-09T11:43:13Z</time>
      </trkpt>
      <trkpt lat="43.74299" lon="6.10341">
        <ele>411.3</ele>
        <time>2025-02-09T11:43:14Z</time>
      </trkpt>
      <trkpt lat="43.74299" lon="6.10341">
        <ele>411.4</ele>
        <time>2025-02-09T11:43:15Z</time>
      </trkpt>
      <trkpt lat="43.74299" lon="6.10341">
        <ele>411.5</ele>
        <time>2025-02-09T11:43:18Z</time>
      </trkpt>
      <trkpt lat="43.74299" lon="6.10341">
        <ele>411.9</ele>
        <time>2025-02-09T11:43:20Z</time>
      </trkpt>
      <trkpt lat="43.74299" lon="6.10342">
        <ele>412</ele>
        <time>2025-02-09T11:43:21Z</time>
      </trkpt>
      <trkpt lat="43.74299" lon="6.10342">
        <ele>412.1</ele>
        <time>2025-02-09T11:43:22Z</time>
      </trkpt>
      <trkpt lat="43.74299" lon="6.10343">
        <ele>412.6</ele>
        <time>2025-02-09T11:43:30Z</time>
      </trkpt>
      <trkpt lat="43.74308" lon="6.10339">
        <ele>414</ele>
        <time>2025-02-09T11:43:49Z</time>
      </trkpt>
      <trkpt lat="43.7431" lon="6.10341">
        <ele>413.9</ele>
        <time>2025-02-09T11:44:00Z</time>
      </trkpt>
      <trkpt lat="43.7431" lon="6.10341">
        <ele>413.8</ele>
        <time>2025-02-09T11:44:07Z</time>
      </trkpt>
      <trkpt lat="43.7431" lon="6.10339">
        <ele>413.9</ele>
        <time>2025-02-09T11:44:13Z</time>
      </trkpt>
      <trkpt lat="43.7431" lon="6.10339">
        <ele>413.9</ele>
        <time>2025-02-09T11:44:20Z</time>
      </trkpt>
      <trkpt lat="43.7431" lon="6.10339">
        <ele>413.9</ele>
        <time>2025-02-09T11:44:21Z</time>
      </trkpt>
      <trkpt lat="43.74309" lon="6.10339">
        <ele>414</ele>
        <time>2025-02-09T11:44:22Z</time>
      </trkpt>
      <trkpt lat="43.74309" lon="6.10339">
        <ele>414.1</ele>
        <time>2025-02-09T11:44:24Z</time>
      </trkpt>
      <trkpt lat="43.74309" lon="6.10339">
        <ele>414.1</ele>
        <time>2025-02-09T11:44:26Z</time>
      </trkpt>
      <trkpt lat="43.7431" lon="6.1034">
        <ele>414.3</ele>
        <time>2025-02-09T11:44:28Z</time>
      </trkpt>
      <trkpt lat="43.7431" lon="6.1034">
        <ele>414.3</ele>
        <time>2025-02-09T11:44:29Z</time>
      </trkpt>
      <trkpt lat="43.74317" lon="6.10349">
        <ele>414.7</ele>
        <time>2025-02-09T11:44:39Z</time>
      </trkpt>
      <trkpt lat="43.74322" lon="6.10358">
        <ele>414.2</ele>
        <time>2025-02-09T11:44:46Z</time>
      </trkpt>
      <trkpt lat="43.74329" lon="6.10367">
        <ele>413.6</ele>
        <time>2025-02-09T11:44:56Z</time>
      </trkpt>
      <trkpt lat="43.74328" lon="6.10367">
        <ele>413.6</ele>
        <time>2025-02-09T11:45:01Z</time>
      </trkpt>
      <trkpt lat="43.74328" lon="6.10367">
        <ele>413.6</ele>
        <time>2025-02-09T11:45:02Z</time>
      </trkpt>
      <trkpt lat="43.74329" lon="6.10368">
        <ele>413.5</ele>
        <time>2025-02-09T11:45:05Z</time>
      </trkpt>
      <trkpt lat="43.74336" lon="6.10377">
        <ele>412.6</ele>
        <time>2025-02-09T11:45:14Z</time>
      </trkpt>
      <trkpt lat="43.74344" lon="6.10384">
        <ele>412.7</ele>
        <time>2025-02-09T11:45:22Z</time>
      </trkpt>
      <trkpt lat="43.74352" lon="6.10392">
        <ele>412.5</ele>
        <time>2025-02-09T11:45:30Z</time>
      </trkpt>
      <trkpt lat="43.7436" lon="6.10399">
        <ele>412.2</ele>
        <time>2025-02-09T11:45:38Z</time>
      </trkpt>
      <trkpt lat="43.74368" lon="6.10406">
        <ele>412.5</ele>
        <time>2025-02-09T11:45:49Z</time>
      </trkpt>
      <trkpt lat="43.74377" lon="6.10407">
        <ele>412.7</ele>
        <time>2025-02-09T11:45:59Z</time>
      </trkpt>
      <trkpt lat="43.7438" lon="6.10406">
        <ele>413.4</ele>
        <time>2025-02-09T11:46:07Z</time>
      </trkpt>
      <trkpt lat="43.7438" lon="6.10406">
        <ele>413.5</ele>
        <time>2025-02-09T11:46:08Z</time>
      </trkpt>
      <trkpt lat="43.74388" lon="6.10399">
        <ele>414.3</ele>
        <time>2025-02-09T11:46:24Z</time>
      </trkpt>
      <trkpt lat="43.74397" lon="6.10402">
        <ele>414.5</ele>
        <time>2025-02-09T11:46:35Z</time>
      </trkpt>
      <trkpt lat="43.74406" lon="6.10398">
        <ele>414.1</ele>
        <time>2025-02-09T11:46:43Z</time>
      </trkpt>
      <trkpt lat="43.7441" lon="6.10386">
        <ele>414</ele>
        <time>2025-02-09T11:46:51Z</time>
      </trkpt>
      <trkpt lat="43.7441" lon="6.10372">
        <ele>414.3</ele>
        <time>2025-02-09T11:47:00Z</time>
      </trkpt>
      <trkpt lat="43.74412" lon="6.1036">
        <ele>416.2</ele>
        <time>2025-02-09T11:47:09Z</time>
      </trkpt>
      <trkpt lat="43.74416" lon="6.10348">
        <ele>416.3</ele>
        <time>2025-02-09T11:47:19Z</time>
      </trkpt>
      <trkpt lat="43.74423" lon="6.1034">
        <ele>415.7</ele>
        <time>2025-02-09T11:47:38Z</time>
      </trkpt>
      <trkpt lat="43.74431" lon="6.10331">
        <ele>415.5</ele>
        <time>2025-02-09T11:47:45Z</time>
      </trkpt>
      <trkpt lat="43.74436" lon="6.1032">
        <ele>415.6</ele>
        <time>2025-02-09T11:47:54Z</time>
      </trkpt>
      <trkpt lat="43.7444" lon="6.10308">
        <ele>414.3</ele>
        <time>2025-02-09T11:48:02Z</time>
      </trkpt>
      <trkpt lat="43.74443" lon="6.10296">
        <ele>414.1</ele>
        <time>2025-02-09T11:48:11Z</time>
      </trkpt>
      <trkpt lat="43.74444" lon="6.10283">
        <ele>415</ele>
        <time>2025-02-09T11:48:21Z</time>
      </trkpt>
      <trkpt lat="43.7445" lon="6.10273">
        <ele>415</ele>
        <time>2025-02-09T11:48:30Z</time>
      </trkpt>
      <trkpt lat="43.74451" lon="6.10261">
        <ele>414.5</ele>
        <time>2025-02-09T11:48:37Z</time>
      </trkpt>
      <trkpt lat="43.74453" lon="6.10246">
        <ele>414.6</ele>
        <time>2025-02-09T11:48:49Z</time>
      </trkpt>
      <trkpt lat="43.74455" lon="6.10233">
        <ele>413.4</ele>
        <time>2025-02-09T11:48:58Z</time>
      </trkpt>
      <trkpt lat="43.74455" lon="6.1022">
        <ele>411.7</ele>
        <time>2025-02-09T11:49:08Z</time>
      </trkpt>
      <trkpt lat="43.74459" lon="6.10208">
        <ele>410.3</ele>
        <time>2025-02-09T11:49:17Z</time>
      </trkpt>
      <trkpt lat="43.74464" lon="6.10195">
        <ele>409.1</ele>
        <time>2025-02-09T11:49:25Z</time>
      </trkpt>
      <trkpt lat="43.74464" lon="6.10182">
        <ele>408.8</ele>
        <time>2025-02-09T11:49:33Z</time>
      </trkpt>
      <trkpt lat="43.74468" lon="6.1017">
        <ele>407.8</ele>
        <time>2025-02-09T11:49:44Z</time>
      </trkpt>
      <trkpt lat="43.74466" lon="6.10158">
        <ele>408.2</ele>
        <time>2025-02-09T11:49:59Z</time>
      </trkpt>
      <trkpt lat="43.74464" lon="6.10145">
        <ele>409.3</ele>
        <time>2025-02-09T11:50:08Z</time>
      </trkpt>
      <trkpt lat="43.74465" lon="6.10133">
        <ele>408.5</ele>
        <time>2025-02-09T11:50:19Z</time>
      </trkpt>
      <trkpt lat="43.74468" lon="6.10122">
        <ele>408.2</ele>
        <time>2025-02-09T11:50:37Z</time>
      </trkpt>
      <trkpt lat="43.74468" lon="6.10122">
        <ele>408.3</ele>
        <time>2025-02-09T11:50:39Z</time>
      </trkpt>
      <trkpt lat="43.74469" lon="6.10124">
        <ele>407.3</ele>
        <time>2025-02-09T11:50:44Z</time>
      </trkpt>
      <trkpt lat="43.74469" lon="6.10124">
        <ele>407.3</ele>
        <time>2025-02-09T11:50:45Z</time>
      </trkpt>
      <trkpt lat="43.74475" lon="6.10114">
        <ele>405.2</ele>
        <time>2025-02-09T11:51:00Z</time>
      </trkpt>
      <trkpt lat="43.74475" lon="6.10108">
        <ele>401.8</ele>
        <time>2025-02-09T11:51:13Z</time>
      </trkpt>
      <trkpt lat="43.74474" lon="6.10108">
        <ele>401.8</ele>
        <time>2025-02-09T11:51:14Z</time>
      </trkpt>
      <trkpt lat="43.74483" lon="6.10114">
        <ele>402</ele>
        <time>2025-02-09T11:51:26Z</time>
      </trkpt>
      <trkpt lat="43.7449" lon="6.10115">
        <ele>403.7</ele>
        <time>2025-02-09T11:51:39Z</time>
      </trkpt>
      <trkpt lat="43.7449" lon="6.10115">
        <ele>403.9</ele>
        <time>2025-02-09T11:51:40Z</time>
      </trkpt>
      <trkpt lat="43.7449" lon="6.10115">
        <ele>403.9</ele>
        <time>2025-02-09T11:51:41Z</time>
      </trkpt>
      <trkpt lat="43.7449" lon="6.10115">
        <ele>403.9</ele>
        <time>2025-02-09T11:51:44Z</time>
      </trkpt>
      <trkpt lat="43.7449" lon="6.10115">
        <ele>403.9</ele>
        <time>2025-02-09T11:51:45Z</time>
      </trkpt>
      <trkpt lat="43.7449" lon="6.10115">
        <ele>403.8</ele>
        <time>2025-02-09T11:51:58Z</time>
      </trkpt>
      <trkpt lat="43.7449" lon="6.10115">
        <ele>403.8</ele>
        <time>2025-02-09T11:51:59Z</time>
      </trkpt>
      <trkpt lat="43.7449" lon="6.10114">
        <ele>403.8</ele>
        <time>2025-02-09T11:52:07Z</time>
      </trkpt>
      <trkpt lat="43.7449" lon="6.10114">
        <ele>403.4</ele>
        <time>2025-02-09T11:52:14Z</time>
      </trkpt>
      <trkpt lat="43.7449" lon="6.10114">
        <ele>403.4</ele>
        <time>2025-02-09T11:52:15Z</time>
      </trkpt>
      <trkpt lat="43.7449" lon="6.10114">
        <ele>403.3</ele>
        <time>2025-02-09T11:52:16Z</time>
      </trkpt>
      <trkpt lat="43.7449" lon="6.10113">
        <ele>403.3</ele>
        <time>2025-02-09T11:52:19Z</time>
      </trkpt>
      <trkpt lat="43.74489" lon="6.10113">
        <ele>402.8</ele>
        <time>2025-02-09T11:52:21Z</time>
      </trkpt>
      <trkpt lat="43.74489" lon="6.10113">
        <ele>402.6</ele>
        <time>2025-02-09T11:52:23Z</time>
      </trkpt>
      <trkpt lat="43.74489" lon="6.10113">
        <ele>402.3</ele>
        <time>2025-02-09T11:52:25Z</time>
      </trkpt>
      <trkpt lat="43.74489" lon="6.10113">
        <ele>402.7</ele>
        <time>2025-02-09T11:52:35Z</time>
      </trkpt>
      <trkpt lat="43.74489" lon="6.10113">
        <ele>402.9</ele>
        <time>2025-02-09T11:52:36Z</time>
      </trkpt>
      <trkpt lat="43.74489" lon="6.10112">
        <ele>402.7</ele>
        <time>2025-02-09T11:52:44Z</time>
      </trkpt>
      <trkpt lat="43.74489" lon="6.10112">
        <ele>402.5</ele>
        <time>2025-02-09T11:52:45Z</time>
      </trkpt>
      <trkpt lat="43.74489" lon="6.10112">
        <ele>402.5</ele>
        <time>2025-02-09T11:52:46Z</time>
      </trkpt>
      <trkpt lat="43.7449" lon="6.10112">
        <ele>402.4</ele>
        <time>2025-02-09T11:52:49Z</time>
      </trkpt>
      <trkpt lat="43.7449" lon="6.10111">
        <ele>401.9</ele>
        <time>2025-02-09T11:52:57Z</time>
      </trkpt>
      <trkpt lat="43.7449" lon="6.10111">
        <ele>401.7</ele>
        <time>2025-02-09T11:52:58Z</time>
      </trkpt>
      <trkpt lat="43.74491" lon="6.10111">
        <ele>401.5</ele>
        <time>2025-02-09T11:52:59Z</time>
      </trkpt>
      <trkpt lat="43.745" lon="6.10112">
        <ele>401.6</ele>
        <time>2025-02-09T11:53:14Z</time>
      </trkpt>
      <trkpt lat="43.74509" lon="6.10115">
        <ele>401.5</ele>
        <time>2025-02-09T11:53:24Z</time>
      </trkpt>
      <trkpt lat="43.74517" lon="6.10121">
        <ele>400.2</ele>
        <time>2025-02-09T11:53:33Z</time>
      </trkpt>
      <trkpt lat="43.74525" lon="6.10128">
        <ele>399.8</ele>
        <time>2025-02-09T11:53:47Z</time>
      </trkpt>
      <trkpt lat="43.74532" lon="6.10138">
        <ele>400.7</ele>
        <time>2025-02-09T11:53:58Z</time>
      </trkpt>
      <trkpt lat="43.74539" lon="6.10147">
        <ele>401.3</ele>
        <time>2025-02-09T11:54:08Z</time>
      </trkpt>
      <trkpt lat="43.74537" lon="6.10156">
        <ele>400.7</ele>
        <time>2025-02-09T11:54:43Z</time>
      </trkpt>
      <trkpt lat="43.74528" lon="6.10159">
        <ele>398.6</ele>
        <time>2025-02-09T11:54:56Z</time>
      </trkpt>
      <trkpt lat="43.74528" lon="6.10159">
        <ele>398.8</ele>
        <time>2025-02-09T11:55:00Z</time>
      </trkpt>
      <trkpt lat="43.74528" lon="6.10159">
        <ele>398.9</ele>
        <time>2025-02-09T11:55:01Z</time>
      </trkpt>
      <trkpt lat="43.74529" lon="6.10157">
        <ele>398.5</ele>
        <time>2025-02-09T11:55:10Z</time>
      </trkpt>
      <trkpt lat="43.74529" lon="6.10157">
        <ele>398.2</ele>
        <time>2025-02-09T11:55:11Z</time>
      </trkpt>
      <trkpt lat="43.74528" lon="6.10157">
        <ele>398.2</ele>
        <time>2025-02-09T11:55:13Z</time>
      </trkpt>
      <trkpt lat="43.74529" lon="6.10157">
        <ele>398.2</ele>
        <time>2025-02-09T11:55:14Z</time>
      </trkpt>
      <trkpt lat="43.74529" lon="6.10157">
        <ele>398.1</ele>
        <time>2025-02-09T11:55:20Z</time>
      </trkpt>
      <trkpt lat="43.74529" lon="6.10157">
        <ele>398.2</ele>
        <time>2025-02-09T11:55:27Z</time>
      </trkpt>
      <trkpt lat="43.7453" lon="6.10157">
        <ele>399.3</ele>
        <time>2025-02-09T11:55:31Z</time>
      </trkpt>
      <trkpt lat="43.7453" lon="6.10157">
        <ele>399.3</ele>
        <time>2025-02-09T11:55:32Z</time>
      </trkpt>
      <trkpt lat="43.7453" lon="6.10156">
        <ele>399.4</ele>
        <time>2025-02-09T11:55:37Z</time>
      </trkpt>
      <trkpt lat="43.7453" lon="6.10156">
        <ele>399.5</ele>
        <time>2025-02-09T11:55:40Z</time>
      </trkpt>
      <trkpt lat="43.7453" lon="6.10156">
        <ele>399.6</ele>
        <time>2025-02-09T11:55:41Z</time>
      </trkpt>
      <trkpt lat="43.74531" lon="6.10156">
        <ele>399.8</ele>
        <time>2025-02-09T11:55:42Z</time>
      </trkpt>
      <trkpt lat="43.74531" lon="6.10156">
        <ele>399.9</ele>
        <time>2025-02-09T11:55:43Z</time>
      </trkpt>
      <trkpt lat="43.74531" lon="6.10156">
        <ele>399.9</ele>
        <time>2025-02-09T11:55:45Z</time>
      </trkpt>
      <trkpt lat="43.7453" lon="6.10154">
        <ele>399.7</ele>
        <time>2025-02-09T11:55:51Z</time>
      </trkpt>
      <trkpt lat="43.7453" lon="6.10154">
        <ele>399.6</ele>
        <time>2025-02-09T11:55:53Z</time>
      </trkpt>
      <trkpt lat="43.7453" lon="6.10154">
        <ele>399.7</ele>
        <time>2025-02-09T11:55:54Z</time>
      </trkpt>
      <trkpt lat="43.7453" lon="6.10154">
        <ele>399.7</ele>
        <time>2025-02-09T11:55:55Z</time>
      </trkpt>
      <trkpt lat="43.74522" lon="6.10148">
        <ele>400.9</ele>
        <time>2025-02-09T11:56:14Z</time>
      </trkpt>
      <trkpt lat="43.7452" lon="6.10144">
        <ele>401.7</ele>
        <time>2025-02-09T11:56:28Z</time>
      </trkpt>
      <trkpt lat="43.7452" lon="6.10145">
        <ele>401.5</ele>
        <time>2025-02-09T11:56:31Z</time>
      </trkpt>
      <trkpt lat="43.74519" lon="6.10145">
        <ele>401.6</ele>
        <time>2025-02-09T11:56:33Z</time>
      </trkpt>
      <trkpt lat="43.74519" lon="6.10146">
        <ele>401.7</ele>
        <time>2025-02-09T11:56:36Z</time>
      </trkpt>
      <trkpt lat="43.74519" lon="6.10146">
        <ele>401.9</ele>
        <time>2025-02-09T11:56:45Z</time>
      </trkpt>
      <trkpt lat="43.74517" lon="6.10147">
        <ele>401.8</ele>
        <time>2025-02-09T11:56:53Z</time>
      </trkpt>
      <trkpt lat="43.74517" lon="6.10147">
        <ele>401.7</ele>
        <time>2025-02-09T11:56:55Z</time>
      </trkpt>
      <trkpt lat="43.74516" lon="6.10147">
        <ele>401.1</ele>
        <time>2025-02-09T11:57:01Z</time>
      </trkpt>
      <trkpt lat="43.74516" lon="6.10147">
        <ele>401.3</ele>
        <time>2025-02-09T11:57:03Z</time>
      </trkpt>
      <trkpt lat="43.74516" lon="6.10148">
        <ele>401.3</ele>
        <time>2025-02-09T11:57:05Z</time>
      </trkpt>
      <trkpt lat="43.74516" lon="6.10148">
        <ele>401.4</ele>
        <time>2025-02-09T11:57:06Z</time>
      </trkpt>
      <trkpt lat="43.74516" lon="6.10152">
        <ele>401.5</ele>
        <time>2025-02-09T11:57:20Z</time>
      </trkpt>
      <trkpt lat="43.74516" lon="6.10153">
        <ele>401.4</ele>
        <time>2025-02-09T11:57:21Z</time>
      </trkpt>
      <trkpt lat="43.74516" lon="6.10153">
        <ele>401.4</ele>
        <time>2025-02-09T11:57:23Z</time>
      </trkpt>
      <trkpt lat="43.74516" lon="6.10153">
        <ele>401.4</ele>
        <time>2025-02-09T11:57:32Z</time>
      </trkpt>
      <trkpt lat="43.74517" lon="6.10153">
        <ele>401.5</ele>
        <time>2025-02-09T11:57:34Z</time>
      </trkpt>
      <trkpt lat="43.74517" lon="6.10153">
        <ele>401.6</ele>
        <time>2025-02-09T11:57:43Z</time>
      </trkpt>
      <trkpt lat="43.74517" lon="6.10153">
        <ele>401.6</ele>
        <time>2025-02-09T11:57:44Z</time>
      </trkpt>
      <trkpt lat="43.74517" lon="6.10153">
        <ele>401.6</ele>
        <time>2025-02-09T11:57:54Z</time>
      </trkpt>
      <trkpt lat="43.74517" lon="6.10153">
        <ele>401.6</ele>
        <time>2025-02-09T11:57:55Z</time>
      </trkpt>
      <trkpt lat="43.74517" lon="6.10153">
        <ele>401.7</ele>
        <time>2025-02-09T11:57:56Z</time>
      </trkpt>
      <trkpt lat="43.74518" lon="6.10152">
        <ele>401.9</ele>
        <time>2025-02-09T11:58:02Z</time>
      </trkpt>
      <trkpt lat="43.74518" lon="6.10152">
        <ele>402</ele>
        <time>2025-02-09T11:58:05Z</time>
      </trkpt>
      <trkpt lat="43.74517" lon="6.10152">
        <ele>402.2</ele>
        <time>2025-02-09T11:58:09Z</time>
      </trkpt>
      <trkpt lat="43.74517" lon="6.10151">
        <ele>402.5</ele>
        <time>2025-02-09T11:58:45Z</time>
      </trkpt>
      <trkpt lat="43.74515" lon="6.10145">
        <ele>403.8</ele>
        <time>2025-02-09T12:00:07Z</time>
      </trkpt>
      <trkpt lat="43.74515" lon="6.10145">
        <ele>404</ele>
        <time>2025-02-09T12:00:23Z</time>
      </trkpt>
      <trkpt lat="43.74515" lon="6.10145">
        <ele>404</ele>
        <time>2025-02-09T12:00:25Z</time>
      </trkpt>
      <trkpt lat="43.74515" lon="6.10145">
        <ele>404.1</ele>
        <time>2025-02-09T12:00:26Z</time>
      </trkpt>
      <trkpt lat="43.74515" lon="6.10145">
        <ele>404.1</ele>
        <time>2025-02-09T12:00:27Z</time>
      </trkpt>
      <trkpt lat="43.74517" lon="6.10147">
        <ele>405</ele>
        <time>2025-02-09T12:01:01Z</time>
      </trkpt>
      <trkpt lat="43.74517" lon="6.10147">
        <ele>405.1</ele>
        <time>2025-02-09T12:01:02Z</time>
      </trkpt>
      <trkpt lat="43.74517" lon="6.10147">
        <ele>405.2</ele>
        <time>2025-02-09T12:01:03Z</time>
      </trkpt>
      <trkpt lat="43.74517" lon="6.10148">
        <ele>405</ele>
        <time>2025-02-09T12:01:05Z</time>
      </trkpt>
      <trkpt lat="43.74514" lon="6.10149">
        <ele>404.1</ele>
        <time>2025-02-09T12:01:12Z</time>
      </trkpt>
      <trkpt lat="43.74514" lon="6.1015">
        <ele>404.1</ele>
        <time>2025-02-09T12:01:14Z</time>
      </trkpt>
      <trkpt lat="43.74515" lon="6.10151">
        <ele>404.1</ele>
        <time>2025-02-09T12:01:19Z</time>
      </trkpt>
      <trkpt lat="43.74515" lon="6.10151">
        <ele>404</ele>
        <time>2025-02-09T12:01:20Z</time>
      </trkpt>
      <trkpt lat="43.74515" lon="6.1015">
        <ele>403.7</ele>
        <time>2025-02-09T12:01:24Z</time>
      </trkpt>
      <trkpt lat="43.74515" lon="6.1015">
        <ele>403.6</ele>
        <time>2025-02-09T12:01:25Z</time>
      </trkpt>
      <trkpt lat="43.74515" lon="6.1015">
        <ele>403.5</ele>
        <time>2025-02-09T12:01:26Z</time>
      </trkpt>
      <trkpt lat="43.74516" lon="6.10151">
        <ele>403.4</ele>
        <time>2025-02-09T12:01:36Z</time>
      </trkpt>
      <trkpt lat="43.74516" lon="6.10151">
        <ele>403.2</ele>
        <time>2025-02-09T12:01:38Z</time>
      </trkpt>
      <trkpt lat="43.74516" lon="6.10151">
        <ele>403.3</ele>
        <time>2025-02-09T12:01:44Z</time>
      </trkpt>
      <trkpt lat="43.74516" lon="6.10151">
        <ele>403.2</ele>
        <time>2025-02-09T12:01:46Z</time>
      </trkpt>
      <trkpt lat="43.74516" lon="6.10151">
        <ele>403.2</ele>
        <time>2025-02-09T12:01:55Z</time>
      </trkpt>
      <trkpt lat="43.74516" lon="6.10152">
        <ele>403.2</ele>
        <time>2025-02-09T12:01:56Z</time>
      </trkpt>
      <trkpt lat="43.74515" lon="6.10152">
        <ele>403.1</ele>
        <time>2025-02-09T12:01:57Z</time>
      </trkpt>
      <trkpt lat="43.74515" lon="6.10152">
        <ele>403</ele>
        <time>2025-02-09T12:02:00Z</time>
      </trkpt>
      <trkpt lat="43.74515" lon="6.10152">
        <ele>403</ele>
        <time>2025-02-09T12:02:04Z</time>
      </trkpt>
      <trkpt lat="43.74515" lon="6.10152">
        <ele>402.9</ele>
        <time>2025-02-09T12:02:06Z</time>
      </trkpt>
      <trkpt lat="43.74515" lon="6.10153">
        <ele>402.9</ele>
        <time>2025-02-09T12:02:08Z</time>
      </trkpt>
      <trkpt lat="43.74515" lon="6.10153">
        <ele>402.9</ele>
        <time>2025-02-09T12:02:09Z</time>
      </trkpt>
      <trkpt lat="43.74516" lon="6.10153">
        <ele>402.8</ele>
        <time>2025-02-09T12:02:22Z</time>
      </trkpt>
      <trkpt lat="43.74517" lon="6.10153">
        <ele>402.5</ele>
        <time>2025-02-09T12:02:25Z</time>
      </trkpt>
      <trkpt lat="43.74517" lon="6.10153">
        <ele>402.4</ele>
        <time>2025-02-09T12:02:27Z</time>
      </trkpt>
      <trkpt lat="43.74518" lon="6.10153">
        <ele>402.1</ele>
        <time>2025-02-09T12:02:32Z</time>
      </trkpt>
      <trkpt lat="43.74518" lon="6.10153">
        <ele>402.2</ele>
        <time>2025-02-09T12:02:38Z</time>
      </trkpt>
      <trkpt lat="43.74518" lon="6.10152">
        <ele>402.2</ele>
        <time>2025-02-09T12:02:42Z</time>
      </trkpt>
      <trkpt lat="43.74518" lon="6.10152">
        <ele>402.3</ele>
        <time>2025-02-09T12:02:47Z</time>
      </trkpt>
      <trkpt lat="43.74518" lon="6.1015">
        <ele>402.4</ele>
        <time>2025-02-09T12:02:51Z</time>
      </trkpt>
      <trkpt lat="43.74518" lon="6.1015">
        <ele>402.5</ele>
        <time>2025-02-09T12:02:54Z</time>
      </trkpt>
      <trkpt lat="43.74517" lon="6.1015">
        <ele>402.3</ele>
        <time>2025-02-09T12:03:00Z</time>
      </trkpt>
      <trkpt lat="43.74517" lon="6.1015">
        <ele>402.3</ele>
        <time>2025-02-09T12:03:03Z</time>
      </trkpt>
      <trkpt lat="43.74518" lon="6.10151">
        <ele>401.9</ele>
        <time>2025-02-09T12:03:06Z</time>
      </trkpt>
      <trkpt lat="43.74518" lon="6.10151">
        <ele>401.8</ele>
        <time>2025-02-09T12:03:09Z</time>
      </trkpt>
      <trkpt lat="43.74518" lon="6.10151">
        <ele>401.6</ele>
        <time>2025-02-09T12:03:10Z</time>
      </trkpt>
      <trkpt lat="43.74518" lon="6.10151">
        <ele>401.6</ele>
        <time>2025-02-09T12:03:11Z</time>
      </trkpt>
      <trkpt lat="43.74518" lon="6.10151">
        <ele>401.5</ele>
        <time>2025-02-09T12:03:14Z</time>
      </trkpt>
      <trkpt lat="43.74518" lon="6.10151">
        <ele>401.5</ele>
        <time>2025-02-09T12:03:15Z</time>
      </trkpt>
      <trkpt lat="43.74518" lon="6.10151">
        <ele>401.5</ele>
        <time>2025-02-09T12:03:16Z</time>
      </trkpt>
      <trkpt lat="43.74518" lon="6.10152">
        <ele>401.5</ele>
        <time>2025-02-09T12:03:19Z</time>
      </trkpt>
      <trkpt lat="43.74518" lon="6.10152">
        <ele>401.6</ele>
        <time>2025-02-09T12:03:20Z</time>
      </trkpt>
      <trkpt lat="43.74518" lon="6.10152">
        <ele>401.7</ele>
        <time>2025-02-09T12:03:21Z</time>
      </trkpt>
      <trkpt lat="43.7452" lon="6.10151">
        <ele>402.1</ele>
        <time>2025-02-09T12:03:32Z</time>
      </trkpt>
      <trkpt lat="43.7452" lon="6.10151">
        <ele>402.1</ele>
        <time>2025-02-09T12:03:35Z</time>
      </trkpt>
      <trkpt lat="43.74521" lon="6.10151">
        <ele>402.2</ele>
        <time>2025-02-09T12:03:37Z</time>
      </trkpt>
      <trkpt lat="43.74521" lon="6.10151">
        <ele>402.2</ele>
        <time>2025-02-09T12:03:38Z</time>
      </trkpt>
      <trkpt lat="43.74521" lon="6.10152">
        <ele>402.2</ele>
        <time>2025-02-09T12:03:39Z</time>
      </trkpt>
      <trkpt lat="43.74521" lon="6.10152">
        <ele>402.2</ele>
        <time>2025-02-09T12:03:40Z</time>
      </trkpt>
      <trkpt lat="43.74521" lon="6.10152">
        <ele>402.2</ele>
        <time>2025-02-09T12:03:42Z</time>
      </trkpt>
      <trkpt lat="43.74521" lon="6.10152">
        <ele>402.2</ele>
        <time>2025-02-09T12:03:43Z</time>
      </trkpt>
      <trkpt lat="43.74521" lon="6.10152">
        <ele>402.2</ele>
        <time>2025-02-09T12:03:44Z</time>
      </trkpt>
      <trkpt lat="43.74521" lon="6.10152">
        <ele>402.1</ele>
        <time>2025-02-09T12:03:45Z</time>
      </trkpt>
      <trkpt lat="43.74521" lon="6.10152">
        <ele>402.1</ele>
        <time>2025-02-09T12:03:46Z</time>
      </trkpt>
      <trkpt lat="43.74521" lon="6.10152">
        <ele>402.1</ele>
        <time>2025-02-09T12:03:47Z</time>
      </trkpt>
      <trkpt lat="43.7452" lon="6.10151">
        <ele>402</ele>
        <time>2025-02-09T12:03:50Z</time>
      </trkpt>
      <trkpt lat="43.7452" lon="6.10151">
        <ele>401.9</ele>
        <time>2025-02-09T12:03:58Z</time>
      </trkpt>
      <trkpt lat="43.7452" lon="6.1015">
        <ele>402.1</ele>
        <time>2025-02-09T12:04:02Z</time>
      </trkpt>
      <trkpt lat="43.7452" lon="6.1015">
        <ele>402.1</ele>
        <time>2025-02-09T12:04:07Z</time>
      </trkpt>
      <trkpt lat="43.7452" lon="6.10151">
        <ele>402.1</ele>
        <time>2025-02-09T12:04:08Z</time>
      </trkpt>
      <trkpt lat="43.74519" lon="6.10151">
        <ele>402.1</ele>
        <time>2025-02-09T12:04:27Z</time>
      </trkpt>
      <trkpt lat="43.7452" lon="6.10151">
        <ele>402</ele>
        <time>2025-02-09T12:04:30Z</time>
      </trkpt>
      <trkpt lat="43.7452" lon="6.10151">
        <ele>402</ele>
        <time>2025-02-09T12:04:40Z</time>
      </trkpt>
      <trkpt lat="43.7452" lon="6.10151">
        <ele>402</ele>
        <time>2025-02-09T12:04:41Z</time>
      </trkpt>
      <trkpt lat="43.74519" lon="6.10151">
        <ele>402</ele>
        <time>2025-02-09T12:04:48Z</time>
      </trkpt>
      <trkpt lat="43.7452" lon="6.10151">
        <ele>402</ele>
        <time>2025-02-09T12:04:50Z</time>
      </trkpt>
      <trkpt lat="43.74519" lon="6.10151">
        <ele>402</ele>
        <time>2025-02-09T12:04:51Z</time>
      </trkpt>
      <trkpt lat="43.74519" lon="6.10151">
        <ele>402</ele>
        <time>2025-02-09T12:04:52Z</time>
      </trkpt>
      <trkpt lat="43.74519" lon="6.10151">
        <ele>402</ele>
        <time>2025-02-09T12:04:54Z</time>
      </trkpt>
      <trkpt lat="43.74519" lon="6.1015">
        <ele>402</ele>
        <time>2025-02-09T12:04:59Z</time>
      </trkpt>
      <trkpt lat="43.74519" lon="6.1015">
        <ele>401.9</ele>
        <time>2025-02-09T12:05:04Z</time>
      </trkpt>
      <trkpt lat="43.74519" lon="6.1015">
        <ele>401.9</ele>
        <time>2025-02-09T12:05:07Z</time>
      </trkpt>
      <trkpt lat="43.74518" lon="6.1015">
        <ele>401.9</ele>
        <time>2025-02-09T12:05:30Z</time>
      </trkpt>
      <trkpt lat="43.74518" lon="6.1015">
        <ele>401.9</ele>
        <time>2025-02-09T12:05:31Z</time>
      </trkpt>
      <trkpt lat="43.74518" lon="6.1015">
        <ele>401.9</ele>
        <time>2025-02-09T12:05:33Z</time>
      </trkpt>
      <trkpt lat="43.74518" lon="6.1015">
        <ele>401.9</ele>
        <time>2025-02-09T12:05:34Z</time>
      </trkpt>
      <trkpt lat="43.74518" lon="6.1015">
        <ele>401.8</ele>
        <time>2025-02-09T12:05:35Z</time>
      </trkpt>
      <trkpt lat="43.74518" lon="6.1015">
        <ele>401.9</ele>
        <time>2025-02-09T12:05:37Z</time>
      </trkpt>
      <trkpt lat="43.74518" lon="6.1015">
        <ele>401.6</ele>
        <time>2025-02-09T12:06:03Z</time>
      </trkpt>
      <trkpt lat="43.74518" lon="6.1015">
        <ele>401.7</ele>
        <time>2025-02-09T12:06:04Z</time>
      </trkpt>
      <trkpt lat="43.74518" lon="6.1015">
        <ele>401.6</ele>
        <time>2025-02-09T12:06:07Z</time>
      </trkpt>
      <trkpt lat="43.74518" lon="6.1015">
        <ele>401.6</ele>
        <time>2025-02-09T12:06:08Z</time>
      </trkpt>
      <trkpt lat="43.74518" lon="6.1015">
        <ele>401.6</ele>
        <time>2025-02-09T12:06:11Z</time>
      </trkpt>
      <trkpt lat="43.74518" lon="6.1015">
        <ele>401.6</ele>
        <time>2025-02-09T12:06:12Z</time>
      </trkpt>
      <trkpt lat="43.74519" lon="6.1015">
        <ele>401.5</ele>
        <time>2025-02-09T12:06:33Z</time>
      </trkpt>
      <trkpt lat="43.74519" lon="6.10151">
        <ele>401.4</ele>
        <time>2025-02-09T12:06:36Z</time>
      </trkpt>
      <trkpt lat="43.74519" lon="6.10151">
        <ele>401.4</ele>
        <time>2025-02-09T12:06:47Z</time>
      </trkpt>
      <trkpt lat="43.74519" lon="6.10151">
        <ele>401.4</ele>
        <time>2025-02-09T12:06:48Z</time>
      </trkpt>
      <trkpt lat="43.74519" lon="6.10151">
        <ele>401.4</ele>
        <time>2025-02-09T12:06:52Z</time>
      </trkpt>
      <trkpt lat="43.74519" lon="6.1015">
        <ele>401.5</ele>
        <time>2025-02-09T12:06:53Z</time>
      </trkpt>
      <trkpt lat="43.74518" lon="6.1015">
        <ele>401.5</ele>
        <time>2025-02-09T12:06:54Z</time>
      </trkpt>
      <trkpt lat="43.74518" lon="6.1015">
        <ele>401.6</ele>
        <time>2025-02-09T12:06:58Z</time>
      </trkpt>
      <trkpt lat="43.74518" lon="6.1015">
        <ele>401.5</ele>
        <time>2025-02-09T12:07:05Z</time>
      </trkpt>
      <trkpt lat="43.74518" lon="6.1015">
        <ele>401.5</ele>
        <time>2025-02-09T12:07:06Z</time>
      </trkpt>
      <trkpt lat="43.74518" lon="6.1015">
        <ele>401.5</ele>
        <time>2025-02-09T12:07:10Z</time>
      </trkpt>
      <trkpt lat="43.74518" lon="6.10149">
        <ele>401.5</ele>
        <time>2025-02-09T12:07:14Z</time>
      </trkpt>
      <trkpt lat="43.74518" lon="6.10149">
        <ele>401.5</ele>
        <time>2025-02-09T12:07:15Z</time>
      </trkpt>
      <trkpt lat="43.74518" lon="6.10149">
        <ele>401.5</ele>
        <time>2025-02-09T12:07:20Z</time>
      </trkpt>
      <trkpt lat="43.74518" lon="6.10148">
        <ele>401.5</ele>
        <time>2025-02-09T12:07:21Z</time>
      </trkpt>
      <trkpt lat="43.74518" lon="6.10148">
        <ele>401.6</ele>
        <time>2025-02-09T12:07:24Z</time>
      </trkpt>
      <trkpt lat="43.74518" lon="6.10148">
        <ele>401.6</ele>
        <time>2025-02-09T12:07:27Z</time>
      </trkpt>
      <trkpt lat="43.74518" lon="6.10148">
        <ele>401.7</ele>
        <time>2025-02-09T12:07:28Z</time>
      </trkpt>
      <trkpt lat="43.74518" lon="6.10149">
        <ele>401.7</ele>
        <time>2025-02-09T12:07:29Z</time>
      </trkpt>
      <trkpt lat="43.74519" lon="6.10149">
        <ele>401.6</ele>
        <time>2025-02-09T12:07:33Z</time>
      </trkpt>
      <trkpt lat="43.74519" lon="6.10149">
        <ele>401.7</ele>
        <time>2025-02-09T12:07:39Z</time>
      </trkpt>
      <trkpt lat="43.74519" lon="6.10149">
        <ele>401.7</ele>
        <time>2025-02-09T12:07:40Z</time>
      </trkpt>
      <trkpt lat="43.74519" lon="6.10149">
        <ele>401.7</ele>
        <time>2025-02-09T12:07:41Z</time>
      </trkpt>
      <trkpt lat="43.74519" lon="6.10149">
        <ele>401.7</ele>
        <time>2025-02-09T12:07:42Z</time>
      </trkpt>
      <trkpt lat="43.7452" lon="6.10149">
        <ele>401.7</ele>
        <time>2025-02-09T12:08:05Z</time>
      </trkpt>
      <trkpt lat="43.7452" lon="6.1015">
        <ele>401.5</ele>
        <time>2025-02-09T12:08:09Z</time>
      </trkpt>
      <trkpt lat="43.7452" lon="6.1015">
        <ele>401.5</ele>
        <time>2025-02-09T12:08:17Z</time>
      </trkpt>
      <trkpt lat="43.7452" lon="6.1015">
        <ele>401.6</ele>
        <time>2025-02-09T12:08:18Z</time>
      </trkpt>
      <trkpt lat="43.7452" lon="6.1015">
        <ele>401.5</ele>
        <time>2025-02-09T12:08:21Z</time>
      </trkpt>
      <trkpt lat="43.7452" lon="6.1015">
        <ele>401.5</ele>
        <time>2025-02-09T12:08:22Z</time>
      </trkpt>
      <trkpt lat="43.7452" lon="6.1015">
        <ele>401.5</ele>
        <time>2025-02-09T12:08:23Z</time>
      </trkpt>
      <trkpt lat="43.7452" lon="6.1015">
        <ele>401.5</ele>
        <time>2025-02-09T12:08:24Z</time>
      </trkpt>
      <trkpt lat="43.7452" lon="6.1015">
        <ele>401.6</ele>
        <time>2025-02-09T12:08:31Z</time>
      </trkpt>
      <trkpt lat="43.7452" lon="6.10149">
        <ele>401.6</ele>
        <time>2025-02-09T12:08:34Z</time>
      </trkpt>
      <trkpt lat="43.7452" lon="6.10149">
        <ele>401.5</ele>
        <time>2025-02-09T12:08:35Z</time>
      </trkpt>
      <trkpt lat="43.74519" lon="6.10149">
        <ele>401.5</ele>
        <time>2025-02-09T12:08:38Z</time>
      </trkpt>
      <trkpt lat="43.74519" lon="6.10149">
        <ele>401.4</ele>
        <time>2025-02-09T12:08:39Z</time>
      </trkpt>
      <trkpt lat="43.74519" lon="6.10151">
        <ele>400.6</ele>
        <time>2025-02-09T12:08:48Z</time>
      </trkpt>
      <trkpt lat="43.7452" lon="6.10151">
        <ele>400.5</ele>
        <time>2025-02-09T12:08:49Z</time>
      </trkpt>
      <trkpt lat="43.74521" lon="6.10153">
        <ele>400.2</ele>
        <time>2025-02-09T12:08:59Z</time>
      </trkpt>
      <trkpt lat="43.74521" lon="6.10153">
        <ele>400.1</ele>
        <time>2025-02-09T12:09:00Z</time>
      </trkpt>
      <trkpt lat="43.7452" lon="6.10154">
        <ele>399.5</ele>
        <time>2025-02-09T12:09:29Z</time>
      </trkpt>
      <trkpt lat="43.7452" lon="6.10154">
        <ele>399.6</ele>
        <time>2025-02-09T12:09:32Z</time>
      </trkpt>
      <trkpt lat="43.74516" lon="6.10152">
        <ele>400.5</ele>
        <time>2025-02-09T12:09:53Z</time>
      </trkpt>
      <trkpt lat="43.74515" lon="6.10152">
        <ele>400.5</ele>
        <time>2025-02-09T12:09:55Z</time>
      </trkpt>
      <trkpt lat="43.74515" lon="6.10152">
        <ele>400.3</ele>
        <time>2025-02-09T12:09:59Z</time>
      </trkpt>
      <trkpt lat="43.74516" lon="6.10151">
        <ele>400.4</ele>
        <time>2025-02-09T12:10:24Z</time>
      </trkpt>
      <trkpt lat="43.74516" lon="6.10151">
        <ele>400.5</ele>
        <time>2025-02-09T12:10:26Z</time>
      </trkpt>
      <trkpt lat="43.74516" lon="6.10151">
        <ele>400.4</ele>
        <time>2025-02-09T12:10:27Z</time>
      </trkpt>
      <trkpt lat="43.74519" lon="6.10154">
        <ele>400.8</ele>
        <time>2025-02-09T12:16:38Z</time>
      </trkpt>
      <trkpt lat="43.74519" lon="6.10154">
        <ele>400.7</ele>
        <time>2025-02-09T12:16:41Z</time>
      </trkpt>
      <trkpt lat="43.74519" lon="6.10154">
        <ele>400.7</ele>
        <time>2025-02-09T12:16:42Z</time>
      </trkpt>
      <trkpt lat="43.74519" lon="6.10153">
        <ele>400.7</ele>
        <time>2025-02-09T12:16:43Z</time>
      </trkpt>
      <trkpt lat="43.74519" lon="6.10153">
        <ele>402</ele>
        <time>2025-02-09T12:16:50Z</time>
      </trkpt>
      <trkpt lat="43.74519" lon="6.10153">
        <ele>402.1</ele>
        <time>2025-02-09T12:16:52Z</time>
      </trkpt>
      <trkpt lat="43.74521" lon="6.10152">
        <ele>404.9</ele>
        <time>2025-02-09T12:16:56Z</time>
      </trkpt>
      <trkpt lat="43.7452" lon="6.10152">
        <ele>405.3</ele>
        <time>2025-02-09T12:16:57Z</time>
      </trkpt>
      <trkpt lat="43.7452" lon="6.10151">
        <ele>406.2</ele>
        <time>2025-02-09T12:17:02Z</time>
      </trkpt>
      <trkpt lat="43.7452" lon="6.10151">
        <ele>406.4</ele>
        <time>2025-02-09T12:17:05Z</time>
      </trkpt>
      <trkpt lat="43.7452" lon="6.10151">
        <ele>406.5</ele>
        <time>2025-02-09T12:17:06Z</time>
      </trkpt>
      <trkpt lat="43.7452" lon="6.10151">
        <ele>406.6</ele>
        <time>2025-02-09T12:17:09Z</time>
      </trkpt>
      <trkpt lat="43.7452" lon="6.10151">
        <ele>406.7</ele>
        <time>2025-02-09T12:17:10Z</time>
      </trkpt>
      <trkpt lat="43.7452" lon="6.10151">
        <ele>407</ele>
        <time>2025-02-09T12:17:11Z</time>
      </trkpt>
      <trkpt lat="43.7452" lon="6.10151">
        <ele>407.3</ele>
        <time>2025-02-09T12:17:13Z</time>
      </trkpt>
      <trkpt lat="43.7452" lon="6.10151">
        <ele>407.4</ele>
        <time>2025-02-09T12:17:16Z</time>
      </trkpt>
      <trkpt lat="43.74521" lon="6.10152">
        <ele>407.4</ele>
        <time>2025-02-09T12:17:18Z</time>
      </trkpt>
      <trkpt lat="43.7452" lon="6.10152">
        <ele>407.5</ele>
        <time>2025-02-09T12:17:31Z</time>
      </trkpt>
      <trkpt lat="43.7452" lon="6.10152">
        <ele>407.5</ele>
        <time>2025-02-09T12:17:32Z</time>
      </trkpt>
      <trkpt lat="43.7452" lon="6.10152">
        <ele>407.4</ele>
        <time>2025-02-09T12:17:39Z</time>
      </trkpt>
      <trkpt lat="43.7452" lon="6.10152">
        <ele>407.3</ele>
        <time>2025-02-09T12:17:41Z</time>
      </trkpt>
      <trkpt lat="43.74521" lon="6.10152">
        <ele>407.3</ele>
        <time>2025-02-09T12:17:42Z</time>
      </trkpt>
      <trkpt lat="43.74519" lon="6.10145">
        <ele>387.1</ele>
        <time>2025-02-09T12:25:32Z</time>
      </trkpt>
      <trkpt lat="43.7452" lon="6.10146">
        <ele>387.3</ele>
        <time>2025-02-09T12:25:33Z</time>
      </trkpt>
      <trkpt lat="43.74514" lon="6.10159">
        <ele>387.7</ele>
        <time>2025-02-09T12:25:58Z</time>
      </trkpt>
      <trkpt lat="43.74514" lon="6.10157">
        <ele>387.1</ele>
        <time>2025-02-09T12:27:53Z</time>
      </trkpt>
      <trkpt lat="43.74518" lon="6.10145">
        <ele>390.9</ele>
        <time>2025-02-09T12:28:53Z</time>
      </trkpt>
      <trkpt lat="43.74517" lon="6.1015">
        <ele>393.4</ele>
        <time>2025-02-09T12:30:51Z</time>
      </trkpt>
      <trkpt lat="43.74517" lon="6.10153">
        <ele>395.4</ele>
        <time>2025-02-09T12:33:33Z</time>
      </trkpt>
      <trkpt lat="43.74517" lon="6.10153">
        <ele>395.8</ele>
        <time>2025-02-09T12:33:34Z</time>
      </trkpt>
      <trkpt lat="43.74517" lon="6.10153">
        <ele>396.7</ele>
        <time>2025-02-09T12:33:37Z</time>
      </trkpt>
      <trkpt lat="43.74517" lon="6.10153">
        <ele>397.4</ele>
        <time>2025-02-09T12:33:40Z</time>
      </trkpt>
      <trkpt lat="43.74517" lon="6.10153">
        <ele>398.2</ele>
        <time>2025-02-09T12:33:42Z</time>
      </trkpt>
      <trkpt lat="43.74517" lon="6.10153">
        <ele>398.4</ele>
        <time>2025-02-09T12:33:53Z</time>
      </trkpt>
      <trkpt lat="43.74518" lon="6.10152">
        <ele>398.6</ele>
        <time>2025-02-09T12:33:55Z</time>
      </trkpt>
      <trkpt lat="43.74518" lon="6.10152">
        <ele>398</ele>
        <time>2025-02-09T12:34:13Z</time>
      </trkpt>
      <trkpt lat="43.74518" lon="6.10152">
        <ele>397.9</ele>
        <time>2025-02-09T12:34:14Z</time>
      </trkpt>
      <trkpt lat="43.74517" lon="6.10152">
        <ele>398</ele>
        <time>2025-02-09T12:34:24Z</time>
      </trkpt>
      <trkpt lat="43.74518" lon="6.10152">
        <ele>398.3</ele>
        <time>2025-02-09T12:34:26Z</time>
      </trkpt>
      <trkpt lat="43.74518" lon="6.10152">
        <ele>398.1</ele>
        <time>2025-02-09T12:34:29Z</time>
      </trkpt>
      <trkpt lat="43.74517" lon="6.10152">
        <ele>398.2</ele>
        <time>2025-02-09T12:34:31Z</time>
      </trkpt>
      <trkpt lat="43.74518" lon="6.10152">
        <ele>398.6</ele>
        <time>2025-02-09T12:34:42Z</time>
      </trkpt>
      <trkpt lat="43.74518" lon="6.10151">
        <ele>398.6</ele>
        <time>2025-02-09T12:34:43Z</time>
      </trkpt>
      <trkpt lat="43.74518" lon="6.10151">
        <ele>398.7</ele>
        <time>2025-02-09T12:34:44Z</time>
      </trkpt>
      <trkpt lat="43.74518" lon="6.10151">
        <ele>398.9</ele>
        <time>2025-02-09T12:34:47Z</time>
      </trkpt>
      <trkpt lat="43.74518" lon="6.10151">
        <ele>398.8</ele>
        <time>2025-02-09T12:34:48Z</time>
      </trkpt>
      <trkpt lat="43.74516" lon="6.10147">
        <ele>397.4</ele>
        <time>2025-02-09T12:34:59Z</time>
      </trkpt>
      <trkpt lat="43.74516" lon="6.10147">
        <ele>397.4</ele>
        <time>2025-02-09T12:35:01Z</time>
      </trkpt>
      <trkpt lat="43.74516" lon="6.10147">
        <ele>396.3</ele>
        <time>2025-02-09T12:35:05Z</time>
      </trkpt>
      <trkpt lat="43.74516" lon="6.10147">
        <ele>396.2</ele>
        <time>2025-02-09T12:35:06Z</time>
      </trkpt>
      <trkpt lat="43.74516" lon="6.10147">
        <ele>396.1</ele>
        <time>2025-02-09T12:35:07Z</time>
      </trkpt>
      <trkpt lat="43.74516" lon="6.10147">
        <ele>396</ele>
        <time>2025-02-09T12:35:18Z</time>
      </trkpt>
      <trkpt lat="43.74516" lon="6.10148">
        <ele>396.1</ele>
        <time>2025-02-09T12:35:22Z</time>
      </trkpt>
      <trkpt lat="43.74517" lon="6.10148">
        <ele>396</ele>
        <time>2025-02-09T12:35:23Z</time>
      </trkpt>
      <trkpt lat="43.74516" lon="6.10148">
        <ele>395.8</ele>
        <time>2025-02-09T12:35:25Z</time>
      </trkpt>
      <trkpt lat="43.74516" lon="6.10148">
        <ele>395.7</ele>
        <time>2025-02-09T12:35:26Z</time>
      </trkpt>
      <trkpt lat="43.74517" lon="6.10148">
        <ele>394.8</ele>
        <time>2025-02-09T12:35:34Z</time>
      </trkpt>
      <trkpt lat="43.74517" lon="6.10147">
        <ele>394.8</ele>
        <time>2025-02-09T12:35:35Z</time>
      </trkpt>
      <trkpt lat="43.74516" lon="6.10156">
        <ele>397.4</ele>
        <time>2025-02-09T12:38:19Z</time>
      </trkpt>
      <trkpt lat="43.74514" lon="6.10159">
        <ele>400.8</ele>
        <time>2025-02-09T12:39:00Z</time>
      </trkpt>
      <trkpt lat="43.74517" lon="6.10159">
        <ele>402.8</ele>
        <time>2025-02-09T12:40:23Z</time>
      </trkpt>
      <trkpt lat="43.74521" lon="6.10159">
        <ele>399.8</ele>
        <time>2025-02-09T12:40:58Z</time>
      </trkpt>
      <trkpt lat="43.74521" lon="6.1016">
        <ele>399.8</ele>
        <time>2025-02-09T12:40:59Z</time>
      </trkpt>
      <trkpt lat="43.7452" lon="6.10159">
        <ele>400.2</ele>
        <time>2025-02-09T12:41:59Z</time>
      </trkpt>
      <trkpt lat="43.7452" lon="6.10159">
        <ele>400.3</ele>
        <time>2025-02-09T12:42:08Z</time>
      </trkpt>
      <trkpt lat="43.7452" lon="6.10157">
        <ele>401.6</ele>
        <time>2025-02-09T12:42:10Z</time>
      </trkpt>
      <trkpt lat="43.74521" lon="6.10157">
        <ele>401.6</ele>
        <time>2025-02-09T12:42:18Z</time>
      </trkpt>
      <trkpt lat="43.74521" lon="6.10157">
        <ele>401.5</ele>
        <time>2025-02-09T12:42:20Z</time>
      </trkpt>
      <trkpt lat="43.7452" lon="6.10157">
        <ele>401.7</ele>
        <time>2025-02-09T12:42:21Z</time>
      </trkpt>
      <trkpt lat="43.74519" lon="6.10156">
        <ele>403.6</ele>
        <time>2025-02-09T12:42:25Z</time>
      </trkpt>
      <trkpt lat="43.74519" lon="6.10155">
        <ele>403.9</ele>
        <time>2025-02-09T12:42:31Z</time>
      </trkpt>
      <trkpt lat="43.74519" lon="6.10158">
        <ele>403.5</ele>
        <time>2025-02-09T12:42:37Z</time>
      </trkpt>
      <trkpt lat="43.74519" lon="6.10158">
        <ele>403.5</ele>
        <time>2025-02-09T12:42:38Z</time>
      </trkpt>
      <trkpt lat="43.74519" lon="6.10158">
        <ele>403.5</ele>
        <time>2025-02-09T12:42:39Z</time>
      </trkpt>
      <trkpt lat="43.74519" lon="6.10158">
        <ele>403.6</ele>
        <time>2025-02-09T12:42:42Z</time>
      </trkpt>
      <trkpt lat="43.74519" lon="6.10158">
        <ele>403.6</ele>
        <time>2025-02-09T12:42:43Z</time>
      </trkpt>
      <trkpt lat="43.7452" lon="6.10158">
        <ele>403.8</ele>
        <time>2025-02-09T12:42:46Z</time>
      </trkpt>
      <trkpt lat="43.7452" lon="6.10158">
        <ele>403.8</ele>
        <time>2025-02-09T12:42:47Z</time>
      </trkpt>
      <trkpt lat="43.7452" lon="6.10158">
        <ele>403.8</ele>
        <time>2025-02-09T12:42:51Z</time>
      </trkpt>
      <trkpt lat="43.74519" lon="6.10162">
        <ele>402</ele>
        <time>2025-02-09T12:43:20Z</time>
      </trkpt>
      <trkpt lat="43.74519" lon="6.10162">
        <ele>402.1</ele>
        <time>2025-02-09T12:43:21Z</time>
      </trkpt>
      <trkpt lat="43.74519" lon="6.10162">
        <ele>403.7</ele>
        <time>2025-02-09T12:43:44Z</time>
      </trkpt>
      <trkpt lat="43.74519" lon="6.10162">
        <ele>403.8</ele>
        <time>2025-02-09T12:44:04Z</time>
      </trkpt>
      <trkpt lat="43.74519" lon="6.10163">
        <ele>404</ele>
        <time>2025-02-09T12:44:07Z</time>
      </trkpt>
      <trkpt lat="43.74518" lon="6.10163">
        <ele>403.8</ele>
        <time>2025-02-09T12:44:08Z</time>
      </trkpt>
      <trkpt lat="43.74518" lon="6.10163">
        <ele>403.8</ele>
        <time>2025-02-09T12:44:09Z</time>
      </trkpt>
      <trkpt lat="43.74518" lon="6.10163">
        <ele>403.6</ele>
        <time>2025-02-09T12:44:11Z</time>
      </trkpt>
      <trkpt lat="43.74518" lon="6.10163">
        <ele>403.5</ele>
        <time>2025-02-09T12:44:12Z</time>
      </trkpt>
      <trkpt lat="43.74518" lon="6.10163">
        <ele>403.5</ele>
        <time>2025-02-09T12:44:13Z</time>
      </trkpt>
      <trkpt lat="43.74518" lon="6.10163">
        <ele>403.5</ele>
        <time>2025-02-09T12:44:15Z</time>
      </trkpt>
      <trkpt lat="43.74518" lon="6.10163">
        <ele>403.6</ele>
        <time>2025-02-09T12:44:21Z</time>
      </trkpt>
      <trkpt lat="43.74519" lon="6.10163">
        <ele>404.1</ele>
        <time>2025-02-09T12:44:25Z</time>
      </trkpt>
      <trkpt lat="43.74519" lon="6.10163">
        <ele>404.2</ele>
        <time>2025-02-09T12:44:51Z</time>
      </trkpt>
      <trkpt lat="43.74519" lon="6.10163">
        <ele>404.2</ele>
        <time>2025-02-09T12:44:52Z</time>
      </trkpt>
      <trkpt lat="43.74519" lon="6.10163">
        <ele>404.2</ele>
        <time>2025-02-09T12:45:05Z</time>
      </trkpt>
      <trkpt lat="43.74519" lon="6.10163">
        <ele>404.2</ele>
        <time>2025-02-09T12:45:06Z</time>
      </trkpt>
      <trkpt lat="43.74519" lon="6.10163">
        <ele>404.3</ele>
        <time>2025-02-09T12:45:20Z</time>
      </trkpt>
      <trkpt lat="43.74519" lon="6.10163">
        <ele>404.6</ele>
        <time>2025-02-09T12:45:23Z</time>
      </trkpt>
      <trkpt lat="43.74519" lon="6.10163">
        <ele>404.5</ele>
        <time>2025-02-09T12:45:31Z</time>
      </trkpt>
      <trkpt lat="43.74519" lon="6.10164">
        <ele>404.4</ele>
        <time>2025-02-09T12:45:36Z</time>
      </trkpt>
      <trkpt lat="43.74519" lon="6.10164">
        <ele>404.4</ele>
        <time>2025-02-09T12:45:48Z</time>
      </trkpt>
      <trkpt lat="43.74519" lon="6.10164">
        <ele>404.4</ele>
        <time>2025-02-09T12:45:49Z</time>
      </trkpt>
      <trkpt lat="43.74519" lon="6.10164">
        <ele>404.3</ele>
        <time>2025-02-09T12:45:59Z</time>
      </trkpt>
      <trkpt lat="43.74519" lon="6.10165">
        <ele>404.1</ele>
        <time>2025-02-09T12:46:02Z</time>
      </trkpt>
      <trkpt lat="43.74519" lon="6.10165">
        <ele>404.1</ele>
        <time>2025-02-09T12:46:07Z</time>
      </trkpt>
      <trkpt lat="43.74519" lon="6.10165">
        <ele>404</ele>
        <time>2025-02-09T12:46:08Z</time>
      </trkpt>
      <trkpt lat="43.74519" lon="6.10164">
        <ele>404</ele>
        <time>2025-02-09T12:46:09Z</time>
      </trkpt>
      <trkpt lat="43.74519" lon="6.10165">
        <ele>404.1</ele>
        <time>2025-02-09T12:46:13Z</time>
      </trkpt>
      <trkpt lat="43.74519" lon="6.10165">
        <ele>404.1</ele>
        <time>2025-02-09T12:46:23Z</time>
      </trkpt>
      <trkpt lat="43.74518" lon="6.10165">
        <ele>404</ele>
        <time>2025-02-09T12:46:25Z</time>
      </trkpt>
      <trkpt lat="43.74519" lon="6.10165">
        <ele>404.1</ele>
        <time>2025-02-09T12:46:26Z</time>
      </trkpt>
      <trkpt lat="43.74519" lon="6.10165">
        <ele>404.2</ele>
        <time>2025-02-09T12:46:29Z</time>
      </trkpt>
      <trkpt lat="43.74519" lon="6.10165">
        <ele>404.2</ele>
        <time>2025-02-09T12:46:30Z</time>
      </trkpt>
      <trkpt lat="43.74519" lon="6.10166">
        <ele>404.2</ele>
        <time>2025-02-09T12:46:32Z</time>
      </trkpt>
      <trkpt lat="43.74519" lon="6.10165">
        <ele>404.3</ele>
        <time>2025-02-09T12:46:37Z</time>
      </trkpt>
      <trkpt lat="43.74519" lon="6.10165">
        <ele>404.3</ele>
        <time>2025-02-09T12:46:38Z</time>
      </trkpt>
      <trkpt lat="43.74519" lon="6.10165">
        <ele>404.2</ele>
        <time>2025-02-09T12:46:40Z</time>
      </trkpt>
      <trkpt lat="43.74523" lon="6.10176">
        <ele>403.9</ele>
        <time>2025-02-09T12:47:00Z</time>
      </trkpt>
      <trkpt lat="43.74522" lon="6.1019">
        <ele>402.9</ele>
        <time>2025-02-09T12:47:11Z</time>
      </trkpt>
      <trkpt lat="43.74522" lon="6.10203">
        <ele>403</ele>
        <time>2025-02-09T12:47:24Z</time>
      </trkpt>
      <trkpt lat="43.74525" lon="6.10214">
        <ele>402.6</ele>
        <time>2025-02-09T12:47:35Z</time>
      </trkpt>
      <trkpt lat="43.74522" lon="6.10222">
        <ele>403</ele>
        <time>2025-02-09T12:47:47Z</time>
      </trkpt>
      <trkpt lat="43.74522" lon="6.10222">
        <ele>403</ele>
        <time>2025-02-09T12:47:48Z</time>
      </trkpt>
      <trkpt lat="43.74517" lon="6.10233">
        <ele>404.1</ele>
        <time>2025-02-09T12:48:01Z</time>
      </trkpt>
      <trkpt lat="43.74515" lon="6.10247">
        <ele>404</ele>
        <time>2025-02-09T12:48:08Z</time>
      </trkpt>
      <trkpt lat="43.74516" lon="6.1026">
        <ele>404.3</ele>
        <time>2025-02-09T12:48:17Z</time>
      </trkpt>
      <trkpt lat="43.74517" lon="6.10272">
        <ele>404.5</ele>
        <time>2025-02-09T12:48:28Z</time>
      </trkpt>
      <trkpt lat="43.74516" lon="6.10272">
        <ele>404.6</ele>
        <time>2025-02-09T12:48:29Z</time>
      </trkpt>
      <trkpt lat="43.74513" lon="6.10284">
        <ele>404.4</ele>
        <time>2025-02-09T12:48:46Z</time>
      </trkpt>
      <trkpt lat="43.74511" lon="6.10297">
        <ele>404.5</ele>
        <time>2025-02-09T12:48:54Z</time>
      </trkpt>
      <trkpt lat="43.74507" lon="6.10309">
        <ele>405.2</ele>
        <time>2025-02-09T12:49:02Z</time>
      </trkpt>
      <trkpt lat="43.74504" lon="6.10322">
        <ele>405.5</ele>
        <time>2025-02-09T12:49:10Z</time>
      </trkpt>
      <trkpt lat="43.74498" lon="6.10332">
        <ele>405.9</ele>
        <time>2025-02-09T12:49:18Z</time>
      </trkpt>
      <trkpt lat="43.74494" lon="6.10344">
        <ele>406.1</ele>
        <time>2025-02-09T12:49:28Z</time>
      </trkpt>
      <trkpt lat="43.74486" lon="6.10351">
        <ele>406.2</ele>
        <time>2025-02-09T12:49:35Z</time>
      </trkpt>
      <trkpt lat="43.74479" lon="6.10361">
        <ele>406.3</ele>
        <time>2025-02-09T12:49:43Z</time>
      </trkpt>
      <trkpt lat="43.74471" lon="6.1037">
        <ele>406.4</ele>
        <time>2025-02-09T12:49:51Z</time>
      </trkpt>
      <trkpt lat="43.74466" lon="6.10382">
        <ele>405.3</ele>
        <time>2025-02-09T12:50:00Z</time>
      </trkpt>
      <trkpt lat="43.74467" lon="6.10395">
        <ele>404.3</ele>
        <time>2025-02-09T12:50:06Z</time>
      </trkpt>
      <trkpt lat="43.74471" lon="6.10407">
        <ele>403.4</ele>
        <time>2025-02-09T12:50:13Z</time>
      </trkpt>
      <trkpt lat="43.74473" lon="6.1042">
        <ele>402.8</ele>
        <time>2025-02-09T12:50:20Z</time>
      </trkpt>
      <trkpt lat="43.74475" lon="6.10432">
        <ele>402.5</ele>
        <time>2025-02-09T12:50:28Z</time>
      </trkpt>
      <trkpt lat="43.7448" lon="6.10444">
        <ele>401.8</ele>
        <time>2025-02-09T12:50:36Z</time>
      </trkpt>
      <trkpt lat="43.74486" lon="6.10454">
        <ele>401.8</ele>
        <time>2025-02-09T12:50:43Z</time>
      </trkpt>
      <trkpt lat="43.74494" lon="6.10461">
        <ele>400.6</ele>
        <time>2025-02-09T12:50:54Z</time>
      </trkpt>
      <trkpt lat="43.74504" lon="6.10465">
        <ele>400.8</ele>
        <time>2025-02-09T12:51:01Z</time>
      </trkpt>
      <trkpt lat="43.74512" lon="6.10472">
        <ele>401.8</ele>
        <time>2025-02-09T12:51:09Z</time>
      </trkpt>
      <trkpt lat="43.74519" lon="6.10479">
        <ele>401.9</ele>
        <time>2025-02-09T12:51:17Z</time>
      </trkpt>
      <trkpt lat="43.74529" lon="6.10482">
        <ele>401.4</ele>
        <time>2025-02-09T12:51:25Z</time>
      </trkpt>
      <trkpt lat="43.74538" lon="6.10484">
        <ele>400.9</ele>
        <time>2025-02-09T12:51:36Z</time>
      </trkpt>
      <trkpt lat="43.74547" lon="6.10482">
        <ele>402.6</ele>
        <time>2025-02-09T12:51:48Z</time>
      </trkpt>
      <trkpt lat="43.74553" lon="6.10492">
        <ele>403.8</ele>
        <time>2025-02-09T12:52:03Z</time>
      </trkpt>
      <trkpt lat="43.74563" lon="6.10494">
        <ele>403.9</ele>
        <time>2025-02-09T12:52:12Z</time>
      </trkpt>
      <trkpt lat="43.74574" lon="6.10496">
        <ele>403.7</ele>
        <time>2025-02-09T12:52:19Z</time>
      </trkpt>
      <trkpt lat="43.74583" lon="6.10492">
        <ele>403.5</ele>
        <time>2025-02-09T12:52:27Z</time>
      </trkpt>
      <trkpt lat="43.74592" lon="6.10489">
        <ele>403.6</ele>
        <time>2025-02-09T12:52:34Z</time>
      </trkpt>
      <trkpt lat="43.74595" lon="6.10477">
        <ele>404</ele>
        <time>2025-02-09T12:52:43Z</time>
      </trkpt>
      <trkpt lat="43.74603" lon="6.10467">
        <ele>403.1</ele>
        <time>2025-02-09T12:52:50Z</time>
      </trkpt>
      <trkpt lat="43.74611" lon="6.10459">
        <ele>403</ele>
        <time>2025-02-09T12:52:58Z</time>
      </trkpt>
      <trkpt lat="43.74619" lon="6.10452">
        <ele>403.1</ele>
        <time>2025-02-09T12:53:07Z</time>
      </trkpt>
      <trkpt lat="43.74626" lon="6.10445">
        <ele>403.5</ele>
        <time>2025-02-09T12:53:15Z</time>
      </trkpt>
      <trkpt lat="43.74633" lon="6.10437">
        <ele>404.9</ele>
        <time>2025-02-09T12:53:23Z</time>
      </trkpt>
      <trkpt lat="43.74636" lon="6.10425">
        <ele>405</ele>
        <time>2025-02-09T12:53:33Z</time>
      </trkpt>
      <trkpt lat="43.74638" lon="6.10411">
        <ele>404.8</ele>
        <time>2025-02-09T12:53:40Z</time>
      </trkpt>
      <trkpt lat="43.74641" lon="6.10399">
        <ele>405.4</ele>
        <time>2025-02-09T12:53:47Z</time>
      </trkpt>
      <trkpt lat="43.7465" lon="6.104">
        <ele>406.6</ele>
        <time>2025-02-09T12:54:06Z</time>
      </trkpt>
      <trkpt lat="43.74659" lon="6.10405">
        <ele>407.4</ele>
        <time>2025-02-09T12:54:15Z</time>
      </trkpt>
      <trkpt lat="43.74668" lon="6.10398">
        <ele>408.5</ele>
        <time>2025-02-09T12:54:25Z</time>
      </trkpt>
      <trkpt lat="43.74669" lon="6.10411">
        <ele>407.7</ele>
        <time>2025-02-09T12:55:00Z</time>
      </trkpt>
      <trkpt lat="43.7467" lon="6.10425">
        <ele>408.2</ele>
        <time>2025-02-09T12:55:13Z</time>
      </trkpt>
      <trkpt lat="43.74667" lon="6.10438">
        <ele>407.6</ele>
        <time>2025-02-09T12:55:25Z</time>
      </trkpt>
      <trkpt lat="43.74669" lon="6.10453">
        <ele>407.8</ele>
        <time>2025-02-09T12:55:30Z</time>
      </trkpt>
      <trkpt lat="43.74672" lon="6.10466">
        <ele>408.6</ele>
        <time>2025-02-09T12:55:37Z</time>
      </trkpt>
      <trkpt lat="43.74676" lon="6.10477">
        <ele>407.3</ele>
        <time>2025-02-09T12:55:45Z</time>
      </trkpt>
      <trkpt lat="43.7468" lon="6.10488">
        <ele>407.2</ele>
        <time>2025-02-09T12:55:53Z</time>
      </trkpt>
      <trkpt lat="43.74685" lon="6.105">
        <ele>406.4</ele>
        <time>2025-02-09T12:55:59Z</time>
      </trkpt>
      <trkpt lat="43.74688" lon="6.10513">
        <ele>405.7</ele>
        <time>2025-02-09T12:56:08Z</time>
      </trkpt>
      <trkpt lat="43.74685" lon="6.10525">
        <ele>405.9</ele>
        <time>2025-02-09T12:56:18Z</time>
      </trkpt>
      <trkpt lat="43.74682" lon="6.10539">
        <ele>406.2</ele>
        <time>2025-02-09T12:56:28Z</time>
      </trkpt>
      <trkpt lat="43.74682" lon="6.10552">
        <ele>405.7</ele>
        <time>2025-02-09T12:56:37Z</time>
      </trkpt>
      <trkpt lat="43.74683" lon="6.10565">
        <ele>405.5</ele>
        <time>2025-02-09T12:56:45Z</time>
      </trkpt>
      <trkpt lat="43.74682" lon="6.10578">
        <ele>405.5</ele>
        <time>2025-02-09T12:56:54Z</time>
      </trkpt>
      <trkpt lat="43.7468" lon="6.10591">
        <ele>405.4</ele>
        <time>2025-02-09T12:57:03Z</time>
      </trkpt>
      <trkpt lat="43.74682" lon="6.10605">
        <ele>405.2</ele>
        <time>2025-02-09T12:57:11Z</time>
      </trkpt>
      <trkpt lat="43.74681" lon="6.10617">
        <ele>406.2</ele>
        <time>2025-02-09T12:57:20Z</time>
      </trkpt>
      <trkpt lat="43.74681" lon="6.1063">
        <ele>406.9</ele>
        <time>2025-02-09T12:57:30Z</time>
      </trkpt>
      <trkpt lat="43.74686" lon="6.10645">
        <ele>405.5</ele>
        <time>2025-02-09T12:57:37Z</time>
      </trkpt>
      <trkpt lat="43.7469" lon="6.10647">
        <ele>402.5</ele>
        <time>2025-02-09T12:57:41Z</time>
      </trkpt>
      <trkpt lat="43.7469" lon="6.10648">
        <ele>402.4</ele>
        <time>2025-02-09T12:57:45Z</time>
      </trkpt>
      <trkpt lat="43.74692" lon="6.10648">
        <ele>400.9</ele>
        <time>2025-02-09T12:57:51Z</time>
      </trkpt>
      <trkpt lat="43.74693" lon="6.10647">
        <ele>400.9</ele>
        <time>2025-02-09T12:57:53Z</time>
      </trkpt>
      <trkpt lat="43.74693" lon="6.10648">
        <ele>400.9</ele>
        <time>2025-02-09T12:57:54Z</time>
      </trkpt>
      <trkpt lat="43.74693" lon="6.10648">
        <ele>401</ele>
        <time>2025-02-09T12:57:55Z</time>
      </trkpt>
      <trkpt lat="43.74693" lon="6.10661">
        <ele>401.5</ele>
        <time>2025-02-09T12:58:12Z</time>
      </trkpt>
      <trkpt lat="43.74701" lon="6.10668">
        <ele>402</ele>
        <time>2025-02-09T12:58:21Z</time>
      </trkpt>
      <trkpt lat="43.7471" lon="6.10674">
        <ele>403.3</ele>
        <time>2025-02-09T12:58:26Z</time>
      </trkpt>
      <trkpt lat="43.74717" lon="6.10677">
        <ele>403.3</ele>
        <time>2025-02-09T12:58:35Z</time>
      </trkpt>
      <trkpt lat="43.74718" lon="6.10678">
        <ele>403.3</ele>
        <time>2025-02-09T12:58:36Z</time>
      </trkpt>
      <trkpt lat="43.74727" lon="6.10683">
        <ele>404.3</ele>
        <time>2025-02-09T12:58:45Z</time>
      </trkpt>
      <trkpt lat="43.74736" lon="6.10688">
        <ele>404.5</ele>
        <time>2025-02-09T12:58:52Z</time>
      </trkpt>
      <trkpt lat="43.74746" lon="6.10692">
        <ele>403.7</ele>
        <time>2025-02-09T12:58:59Z</time>
      </trkpt>
      <trkpt lat="43.74754" lon="6.10699">
        <ele>403.5</ele>
        <time>2025-02-09T12:59:10Z</time>
      </trkpt>
      <trkpt lat="43.74762" lon="6.10704">
        <ele>402.4</ele>
        <time>2025-02-09T12:59:21Z</time>
      </trkpt>
      <trkpt lat="43.74772" lon="6.1071">
        <ele>402</ele>
        <time>2025-02-09T12:59:29Z</time>
      </trkpt>
      <trkpt lat="43.7478" lon="6.10716">
        <ele>403.1</ele>
        <time>2025-02-09T12:59:37Z</time>
      </trkpt>
      <trkpt lat="43.74788" lon="6.10723">
        <ele>403.9</ele>
        <time>2025-02-09T12:59:45Z</time>
      </trkpt>
      <trkpt lat="43.74797" lon="6.10727">
        <ele>404.9</ele>
        <time>2025-02-09T12:59:55Z</time>
      </trkpt>
      <trkpt lat="43.74807" lon="6.10731">
        <ele>406</ele>
        <time>2025-02-09T13:00:04Z</time>
      </trkpt>
      <trkpt lat="43.74817" lon="6.10732">
        <ele>406.4</ele>
        <time>2025-02-09T13:00:10Z</time>
      </trkpt>
      <trkpt lat="43.74826" lon="6.10736">
        <ele>407.4</ele>
        <time>2025-02-09T13:00:17Z</time>
      </trkpt>
      <trkpt lat="43.74835" lon="6.10737">
        <ele>408</ele>
        <time>2025-02-09T13:00:24Z</time>
      </trkpt>
      <trkpt lat="43.74843" lon="6.10741">
        <ele>408.2</ele>
        <time>2025-02-09T13:00:32Z</time>
      </trkpt>
      <trkpt lat="43.74852" lon="6.10746">
        <ele>409</ele>
        <time>2025-02-09T13:00:42Z</time>
      </trkpt>
      <trkpt lat="43.74861" lon="6.1075">
        <ele>408.7</ele>
        <time>2025-02-09T13:00:50Z</time>
      </trkpt>
      <trkpt lat="43.74869" lon="6.10757">
        <ele>408.6</ele>
        <time>2025-02-09T13:01:01Z</time>
      </trkpt>
      <trkpt lat="43.74877" lon="6.10764">
        <ele>408.4</ele>
        <time>2025-02-09T13:01:11Z</time>
      </trkpt>
      <trkpt lat="43.74885" lon="6.10774">
        <ele>406.8</ele>
        <time>2025-02-09T13:01:20Z</time>
      </trkpt>
      <trkpt lat="43.74893" lon="6.10779">
        <ele>406.6</ele>
        <time>2025-02-09T13:01:24Z</time>
      </trkpt>
      <trkpt lat="43.74902" lon="6.10783">
        <ele>406.6</ele>
        <time>2025-02-09T13:01:31Z</time>
      </trkpt>
      <trkpt lat="43.74911" lon="6.1079">
        <ele>406</ele>
        <time>2025-02-09T13:01:38Z</time>
      </trkpt>
      <trkpt lat="43.74921" lon="6.10797">
        <ele>405.7</ele>
        <time>2025-02-09T13:01:43Z</time>
      </trkpt>
      <trkpt lat="43.74929" lon="6.10804">
        <ele>405.7</ele>
        <time>2025-02-09T13:01:51Z</time>
      </trkpt>
      <trkpt lat="43.74937" lon="6.1081">
        <ele>404.5</ele>
        <time>2025-02-09T13:02:03Z</time>
      </trkpt>
      <trkpt lat="43.74947" lon="6.10814">
        <ele>404.2</ele>
        <time>2025-02-09T13:02:09Z</time>
      </trkpt>
      <trkpt lat="43.74957" lon="6.1082">
        <ele>405.1</ele>
        <time>2025-02-09T13:02:21Z</time>
      </trkpt>
      <trkpt lat="43.74966" lon="6.1082">
        <ele>406.2</ele>
        <time>2025-02-09T13:02:25Z</time>
      </trkpt>
      <trkpt lat="43.74975" lon="6.10824">
        <ele>406.3</ele>
        <time>2025-02-09T13:02:33Z</time>
      </trkpt>
      <trkpt lat="43.74984" lon="6.10828">
        <ele>406.7</ele>
        <time>2025-02-09T13:02:38Z</time>
      </trkpt>
      <trkpt lat="43.74993" lon="6.10828">
        <ele>406.8</ele>
        <time>2025-02-09T13:02:42Z</time>
      </trkpt>
      <trkpt lat="43.75002" lon="6.10825">
        <ele>407.4</ele>
        <time>2025-02-09T13:02:56Z</time>
      </trkpt>
      <trkpt lat="43.75011" lon="6.10825">
        <ele>408.6</ele>
        <time>2025-02-09T13:03:05Z</time>
      </trkpt>
      <trkpt lat="43.75021" lon="6.1082">
        <ele>408.6</ele>
        <time>2025-02-09T13:03:12Z</time>
      </trkpt>
      <trkpt lat="43.75028" lon="6.10827">
        <ele>410.1</ele>
        <time>2025-02-09T13:03:21Z</time>
      </trkpt>
      <trkpt lat="43.75037" lon="6.10833">
        <ele>409.3</ele>
        <time>2025-02-09T13:03:32Z</time>
      </trkpt>
      <trkpt lat="43.75044" lon="6.10842">
        <ele>409.1</ele>
        <time>2025-02-09T13:03:46Z</time>
      </trkpt>
      <trkpt lat="43.75053" lon="6.10849">
        <ele>408.9</ele>
        <time>2025-02-09T13:03:54Z</time>
      </trkpt>
      <trkpt lat="43.75061" lon="6.10858">
        <ele>409.2</ele>
        <time>2025-02-09T13:04:03Z</time>
      </trkpt>
      <trkpt lat="43.75063" lon="6.1087">
        <ele>409</ele>
        <time>2025-02-09T13:04:15Z</time>
      </trkpt>
      <trkpt lat="43.75065" lon="6.10874">
        <ele>409.2</ele>
        <time>2025-02-09T13:04:24Z</time>
      </trkpt>
      <trkpt lat="43.75065" lon="6.10874">
        <ele>409.1</ele>
        <time>2025-02-09T13:04:25Z</time>
      </trkpt>
      <trkpt lat="43.75066" lon="6.10876">
        <ele>410.1</ele>
        <time>2025-02-09T13:04:35Z</time>
      </trkpt>
      <trkpt lat="43.75066" lon="6.10876">
        <ele>410.2</ele>
        <time>2025-02-09T13:04:36Z</time>
      </trkpt>
      <trkpt lat="43.75067" lon="6.10877">
        <ele>409.8</ele>
        <time>2025-02-09T13:04:41Z</time>
      </trkpt>
      <trkpt lat="43.75067" lon="6.10877">
        <ele>409.7</ele>
        <time>2025-02-09T13:04:42Z</time>
      </trkpt>
      <trkpt lat="43.75069" lon="6.10871">
        <ele>411</ele>
        <time>2025-02-09T13:05:03Z</time>
      </trkpt>
      <trkpt lat="43.75069" lon="6.10871">
        <ele>410.9</ele>
        <time>2025-02-09T13:05:04Z</time>
      </trkpt>
      <trkpt lat="43.75062" lon="6.10879">
        <ele>412.4</ele>
        <time>2025-02-09T13:05:40Z</time>
      </trkpt>
      <trkpt lat="43.75053" lon="6.10879">
        <ele>412.2</ele>
        <time>2025-02-09T13:05:48Z</time>
      </trkpt>
      <trkpt lat="43.75044" lon="6.10885">
        <ele>410.4</ele>
        <time>2025-02-09T13:06:00Z</time>
      </trkpt>
      <trkpt lat="43.75039" lon="6.10874">
        <ele>410</ele>
        <time>2025-02-09T13:06:14Z</time>
      </trkpt>
      <trkpt lat="43.75033" lon="6.10864">
        <ele>410.5</ele>
        <time>2025-02-09T13:06:29Z</time>
      </trkpt>
      <trkpt lat="43.75026" lon="6.10854">
        <ele>410.9</ele>
        <time>2025-02-09T13:06:39Z</time>
      </trkpt>
      <trkpt lat="43.75016" lon="6.10848">
        <ele>410.4</ele>
        <time>2025-02-09T13:06:49Z</time>
      </trkpt>
      <trkpt lat="43.75005" lon="6.10847">
        <ele>409.2</ele>
        <time>2025-02-09T13:06:54Z</time>
      </trkpt>
      <trkpt lat="43.74995" lon="6.10849">
        <ele>408.3</ele>
        <time>2025-02-09T13:06:59Z</time>
      </trkpt>
      <trkpt lat="43.74985" lon="6.1085">
        <ele>409.2</ele>
        <time>2025-02-09T13:07:07Z</time>
      </trkpt>
      <trkpt lat="43.74976" lon="6.1085">
        <ele>409.3</ele>
        <time>2025-02-09T13:07:15Z</time>
      </trkpt>
      <trkpt lat="43.74967" lon="6.10854">
        <ele>411.7</ele>
        <time>2025-02-09T13:07:27Z</time>
      </trkpt>
      <trkpt lat="43.74964" lon="6.10855">
        <ele>412.7</ele>
        <time>2025-02-09T13:07:33Z</time>
      </trkpt>
      <trkpt lat="43.74964" lon="6.10854">
        <ele>413</ele>
        <time>2025-02-09T13:07:34Z</time>
      </trkpt>
      <trkpt lat="43.74954" lon="6.10848">
        <ele>412.7</ele>
        <time>2025-02-09T13:07:43Z</time>
      </trkpt>
      <trkpt lat="43.74948" lon="6.10839">
        <ele>414.2</ele>
        <time>2025-02-09T13:08:05Z</time>
      </trkpt>
      <trkpt lat="43.74943" lon="6.10837">
        <ele>412.3</ele>
        <time>2025-02-09T13:08:27Z</time>
      </trkpt>
      <trkpt lat="43.74943" lon="6.10838">
        <ele>412.2</ele>
        <time>2025-02-09T13:08:28Z</time>
      </trkpt>
      <trkpt lat="43.74934" lon="6.10834">
        <ele>412.1</ele>
        <time>2025-02-09T13:08:43Z</time>
      </trkpt>
      <trkpt lat="43.74923" lon="6.10831">
        <ele>411</ele>
        <time>2025-02-09T13:08:50Z</time>
      </trkpt>
      <trkpt lat="43.74914" lon="6.10831">
        <ele>409.5</ele>
        <time>2025-02-09T13:09:03Z</time>
      </trkpt>
      <trkpt lat="43.74908" lon="6.10836">
        <ele>408.8</ele>
        <time>2025-02-09T13:09:23Z</time>
      </trkpt>
      <trkpt lat="43.74909" lon="6.10837">
        <ele>408.7</ele>
        <time>2025-02-09T13:09:25Z</time>
      </trkpt>
      <trkpt lat="43.74905" lon="6.10839">
        <ele>408.8</ele>
        <time>2025-02-09T13:09:33Z</time>
      </trkpt>
      <trkpt lat="43.74905" lon="6.10839">
        <ele>408.8</ele>
        <time>2025-02-09T13:09:36Z</time>
      </trkpt>
      <trkpt lat="43.74904" lon="6.10839">
        <ele>405.1</ele>
        <time>2025-02-09T13:11:07Z</time>
      </trkpt>
      <trkpt lat="43.74904" lon="6.10839">
        <ele>405</ele>
        <time>2025-02-09T13:11:08Z</time>
      </trkpt>
      <trkpt lat="43.74904" lon="6.10841">
        <ele>403.9</ele>
        <time>2025-02-09T13:11:32Z</time>
      </trkpt>
      <trkpt lat="43.74905" lon="6.10842">
        <ele>403.4</ele>
        <time>2025-02-09T13:11:34Z</time>
      </trkpt>
      <trkpt lat="43.74906" lon="6.10842">
        <ele>403.3</ele>
        <time>2025-02-09T13:11:38Z</time>
      </trkpt>
      <trkpt lat="43.74907" lon="6.10842">
        <ele>403.4</ele>
        <time>2025-02-09T13:11:39Z</time>
      </trkpt>
      <trkpt lat="43.74905" lon="6.1084">
        <ele>402.6</ele>
        <time>2025-02-09T13:12:55Z</time>
      </trkpt>
      <trkpt lat="43.74905" lon="6.10839">
        <ele>402.6</ele>
        <time>2025-02-09T13:12:56Z</time>
      </trkpt>
      <trkpt lat="43.74905" lon="6.10841">
        <ele>403.7</ele>
        <time>2025-02-09T13:13:50Z</time>
      </trkpt>
      <trkpt lat="43.74908" lon="6.10841">
        <ele>403.3</ele>
        <time>2025-02-09T13:14:51Z</time>
      </trkpt>
      <trkpt lat="43.74907" lon="6.10843">
        <ele>404.2</ele>
        <time>2025-02-09T13:14:55Z</time>
      </trkpt>
      <trkpt lat="43.74907" lon="6.10843">
        <ele>404.1</ele>
        <time>2025-02-09T13:14:56Z</time>
      </trkpt>
      <trkpt lat="43.74908" lon="6.1084">
        <ele>403.9</ele>
        <time>2025-02-09T13:15:04Z</time>
      </trkpt>
      <trkpt lat="43.74908" lon="6.1084">
        <ele>404</ele>
        <time>2025-02-09T13:15:05Z</time>
      </trkpt>
      <trkpt lat="43.74908" lon="6.10839">
        <ele>404.2</ele>
        <time>2025-02-09T13:15:10Z</time>
      </trkpt>
      <trkpt lat="43.74908" lon="6.10839">
        <ele>404.5</ele>
        <time>2025-02-09T13:15:11Z</time>
      </trkpt>
      <trkpt lat="43.74908" lon="6.10839">
        <ele>406.2</ele>
        <time>2025-02-09T13:15:19Z</time>
      </trkpt>
      <trkpt lat="43.74908" lon="6.10839">
        <ele>406.4</ele>
        <time>2025-02-09T13:15:20Z</time>
      </trkpt>
      <trkpt lat="43.74907" lon="6.10841">
        <ele>406.7</ele>
        <time>2025-02-09T13:15:24Z</time>
      </trkpt>
      <trkpt lat="43.74907" lon="6.10841">
        <ele>406.7</ele>
        <time>2025-02-09T13:15:25Z</time>
      </trkpt>
      <trkpt lat="43.74907" lon="6.10841">
        <ele>406.7</ele>
        <time>2025-02-09T13:15:26Z</time>
      </trkpt>
      <trkpt lat="43.74907" lon="6.10841">
        <ele>406.8</ele>
        <time>2025-02-09T13:15:27Z</time>
      </trkpt>
      <trkpt lat="43.74907" lon="6.10844">
        <ele>407</ele>
        <time>2025-02-09T13:15:34Z</time>
      </trkpt>
      <trkpt lat="43.74907" lon="6.10845">
        <ele>407.3</ele>
        <time>2025-02-09T13:15:36Z</time>
      </trkpt>
      <trkpt lat="43.74908" lon="6.10845">
        <ele>406.9</ele>
        <time>2025-02-09T13:15:57Z</time>
      </trkpt>
      <trkpt lat="43.74908" lon="6.10844">
        <ele>407.1</ele>
        <time>2025-02-09T13:15:59Z</time>
      </trkpt>
      <trkpt lat="43.74908" lon="6.10843">
        <ele>406.7</ele>
        <time>2025-02-09T13:16:11Z</time>
      </trkpt>
      <trkpt lat="43.74908" lon="6.10844">
        <ele>406.6</ele>
        <time>2025-02-09T13:16:12Z</time>
      </trkpt>
      <trkpt lat="43.74906" lon="6.10843">
        <ele>404.9</ele>
        <time>2025-02-09T13:16:28Z</time>
      </trkpt>
      <trkpt lat="43.74906" lon="6.10843">
        <ele>404.8</ele>
        <time>2025-02-09T13:16:29Z</time>
      </trkpt>
      <trkpt lat="43.74905" lon="6.10846">
        <ele>404.7</ele>
        <time>2025-02-09T13:16:35Z</time>
      </trkpt>
      <trkpt lat="43.74905" lon="6.10846">
        <ele>404.7</ele>
        <time>2025-02-09T13:16:36Z</time>
      </trkpt>
      <trkpt lat="43.74905" lon="6.10846">
        <ele>404.6</ele>
        <time>2025-02-09T13:16:37Z</time>
      </trkpt>
      <trkpt lat="43.74906" lon="6.10846">
        <ele>404.5</ele>
        <time>2025-02-09T13:16:38Z</time>
      </trkpt>
      <trkpt lat="43.74905" lon="6.10844">
        <ele>404.7</ele>
        <time>2025-02-09T13:16:45Z</time>
      </trkpt>
      <trkpt lat="43.74906" lon="6.10843">
        <ele>404.6</ele>
        <time>2025-02-09T13:16:46Z</time>
      </trkpt>
      <trkpt lat="43.74907" lon="6.10841">
        <ele>404.9</ele>
        <time>2025-02-09T13:16:51Z</time>
      </trkpt>
      <trkpt lat="43.74907" lon="6.10841">
        <ele>404.9</ele>
        <time>2025-02-09T13:16:52Z</time>
      </trkpt>
      <trkpt lat="43.74906" lon="6.10846">
        <ele>405.2</ele>
        <time>2025-02-09T13:17:27Z</time>
      </trkpt>
      <trkpt lat="43.74906" lon="6.10846">
        <ele>405.2</ele>
        <time>2025-02-09T13:17:28Z</time>
      </trkpt>
      <trkpt lat="43.74906" lon="6.10846">
        <ele>405.3</ele>
        <time>2025-02-09T13:17:29Z</time>
      </trkpt>
      <trkpt lat="43.74907" lon="6.10846">
        <ele>405.3</ele>
        <time>2025-02-09T13:17:30Z</time>
      </trkpt>
      <trkpt lat="43.74908" lon="6.10844">
        <ele>405.5</ele>
        <time>2025-02-09T13:17:37Z</time>
      </trkpt>
      <trkpt lat="43.74908" lon="6.10844">
        <ele>405.5</ele>
        <time>2025-02-09T13:17:38Z</time>
      </trkpt>
      <trkpt lat="43.74907" lon="6.10845">
        <ele>406</ele>
        <time>2025-02-09T13:17:44Z</time>
      </trkpt>
      <trkpt lat="43.74907" lon="6.10845">
        <ele>405.8</ele>
        <time>2025-02-09T13:17:45Z</time>
      </trkpt>
      <trkpt lat="43.74906" lon="6.10844">
        <ele>405.9</ele>
        <time>2025-02-09T13:17:49Z</time>
      </trkpt>
      <trkpt lat="43.74906" lon="6.10844">
        <ele>406</ele>
        <time>2025-02-09T13:17:50Z</time>
      </trkpt>
      <trkpt lat="43.74905" lon="6.10845">
        <ele>405.8</ele>
        <time>2025-02-09T13:18:05Z</time>
      </trkpt>
      <trkpt lat="43.74905" lon="6.10845">
        <ele>406</ele>
        <time>2025-02-09T13:18:13Z</time>
      </trkpt>
      <trkpt lat="43.74905" lon="6.10844">
        <ele>406.4</ele>
        <time>2025-02-09T13:18:17Z</time>
      </trkpt>
      <trkpt lat="43.74905" lon="6.10844">
        <ele>406.3</ele>
        <time>2025-02-09T13:18:18Z</time>
      </trkpt>
      <trkpt lat="43.74905" lon="6.10845">
        <ele>406.3</ele>
        <time>2025-02-09T13:18:20Z</time>
      </trkpt>
      <trkpt lat="43.74906" lon="6.10844">
        <ele>406.5</ele>
        <time>2025-02-09T13:18:25Z</time>
      </trkpt>
      <trkpt lat="43.74905" lon="6.10844">
        <ele>406.8</ele>
        <time>2025-02-09T13:18:27Z</time>
      </trkpt>
      <trkpt lat="43.74905" lon="6.10843">
        <ele>406.9</ele>
        <time>2025-02-09T13:18:28Z</time>
      </trkpt>
      <trkpt lat="43.74901" lon="6.10842">
        <ele>407.8</ele>
        <time>2025-02-09T13:18:59Z</time>
      </trkpt>
      <trkpt lat="43.74899" lon="6.10842">
        <ele>407.3</ele>
        <time>2025-02-09T13:19:05Z</time>
      </trkpt>
      <trkpt lat="43.74899" lon="6.10841">
        <ele>407.3</ele>
        <time>2025-02-09T13:19:06Z</time>
      </trkpt>
      <trkpt lat="43.74893" lon="6.1084">
        <ele>406.9</ele>
        <time>2025-02-09T13:19:17Z</time>
      </trkpt>
      <trkpt lat="43.74893" lon="6.1084">
        <ele>406.9</ele>
        <time>2025-02-09T13:19:18Z</time>
      </trkpt>
      <trkpt lat="43.74887" lon="6.1083">
        <ele>406.1</ele>
        <time>2025-02-09T13:19:24Z</time>
      </trkpt>
      <trkpt lat="43.74877" lon="6.10828">
        <ele>405.9</ele>
        <time>2025-02-09T13:19:35Z</time>
      </trkpt>
      <trkpt lat="43.74869" lon="6.10821">
        <ele>405.3</ele>
        <time>2025-02-09T13:19:44Z</time>
      </trkpt>
      <trkpt lat="43.7486" lon="6.10823">
        <ele>405.6</ele>
        <time>2025-02-09T13:19:54Z</time>
      </trkpt>
      <trkpt lat="43.7485" lon="6.10826">
        <ele>405.7</ele>
        <time>2025-02-09T13:20:09Z</time>
      </trkpt>
      <trkpt lat="43.74841" lon="6.10828">
        <ele>406.2</ele>
        <time>2025-02-09T13:20:21Z</time>
      </trkpt>
      <trkpt lat="43.74832" lon="6.1083">
        <ele>407.4</ele>
        <time>2025-02-09T13:20:35Z</time>
      </trkpt>
      <trkpt lat="43.74823" lon="6.10826">
        <ele>407.5</ele>
        <time>2025-02-09T13:20:49Z</time>
      </trkpt>
      <trkpt lat="43.74813" lon="6.10824">
        <ele>407.4</ele>
        <time>2025-02-09T13:20:56Z</time>
      </trkpt>
      <trkpt lat="43.74804" lon="6.10827">
        <ele>407.2</ele>
        <time>2025-02-09T13:21:05Z</time>
      </trkpt>
      <trkpt lat="43.74795" lon="6.10826">
        <ele>406.8</ele>
        <time>2025-02-09T13:21:22Z</time>
      </trkpt>
      <trkpt lat="43.74784" lon="6.10822">
        <ele>406.6</ele>
        <time>2025-02-09T13:21:31Z</time>
      </trkpt>
      <trkpt lat="43.74775" lon="6.10822">
        <ele>406.7</ele>
        <time>2025-02-09T13:21:37Z</time>
      </trkpt>
      <trkpt lat="43.74766" lon="6.10824">
        <ele>408.6</ele>
        <time>2025-02-09T13:21:49Z</time>
      </trkpt>
      <trkpt lat="43.74757" lon="6.10825">
        <ele>409.1</ele>
        <time>2025-02-09T13:21:56Z</time>
      </trkpt>
      <trkpt lat="43.74748" lon="6.10829">
        <ele>409.2</ele>
        <time>2025-02-09T13:22:04Z</time>
      </trkpt>
      <trkpt lat="43.74739" lon="6.10827">
        <ele>409.5</ele>
        <time>2025-02-09T13:22:11Z</time>
      </trkpt>
      <trkpt lat="43.74729" lon="6.10829">
        <ele>409.6</ele>
        <time>2025-02-09T13:22:22Z</time>
      </trkpt>
      <trkpt lat="43.74719" lon="6.10835">
        <ele>410.2</ele>
        <time>2025-02-09T13:22:32Z</time>
      </trkpt>
      <trkpt lat="43.7471" lon="6.10833">
        <ele>410.9</ele>
        <time>2025-02-09T13:22:40Z</time>
      </trkpt>
      <trkpt lat="43.747" lon="6.10839">
        <ele>410.1</ele>
        <time>2025-02-09T13:22:49Z</time>
      </trkpt>
      <trkpt lat="43.74691" lon="6.10838">
        <ele>410.8</ele>
        <time>2025-02-09T13:22:59Z</time>
      </trkpt>
      <trkpt lat="43.74683" lon="6.10844">
        <ele>411.3</ele>
        <time>2025-02-09T13:23:06Z</time>
      </trkpt>
      <trkpt lat="43.74674" lon="6.10848">
        <ele>411.8</ele>
        <time>2025-02-09T13:23:13Z</time>
      </trkpt>
      <trkpt lat="43.74666" lon="6.10854">
        <ele>411.3</ele>
        <time>2025-02-09T13:23:21Z</time>
      </trkpt>
      <trkpt lat="43.7466" lon="6.10865">
        <ele>409.2</ele>
        <time>2025-02-09T13:23:31Z</time>
      </trkpt>
      <trkpt lat="43.74652" lon="6.10871">
        <ele>409.7</ele>
        <time>2025-02-09T13:23:40Z</time>
      </trkpt>
      <trkpt lat="43.74648" lon="6.10882">
        <ele>409.7</ele>
        <time>2025-02-09T13:23:51Z</time>
      </trkpt>
      <trkpt lat="43.74643" lon="6.10894">
        <ele>409.9</ele>
        <time>2025-02-09T13:24:02Z</time>
      </trkpt>
      <trkpt lat="43.74639" lon="6.10906">
        <ele>410.3</ele>
        <time>2025-02-09T13:24:09Z</time>
      </trkpt>
      <trkpt lat="43.74636" lon="6.10918">
        <ele>410.4</ele>
        <time>2025-02-09T13:24:18Z</time>
      </trkpt>
      <trkpt lat="43.74633" lon="6.10931">
        <ele>411.3</ele>
        <time>2025-02-09T13:24:24Z</time>
      </trkpt>
      <trkpt lat="43.74631" lon="6.10943">
        <ele>412.2</ele>
        <time>2025-02-09T13:24:33Z</time>
      </trkpt>
      <trkpt lat="43.74629" lon="6.10955">
        <ele>412.3</ele>
        <time>2025-02-09T13:24:47Z</time>
      </trkpt>
      <trkpt lat="43.74626" lon="6.10967">
        <ele>412.6</ele>
        <time>2025-02-09T13:24:59Z</time>
      </trkpt>
      <trkpt lat="43.74625" lon="6.1098">
        <ele>413.4</ele>
        <time>2025-02-09T13:25:06Z</time>
      </trkpt>
      <trkpt lat="43.74625" lon="6.10993">
        <ele>413.5</ele>
        <time>2025-02-09T13:25:19Z</time>
      </trkpt>
      <trkpt lat="43.74623" lon="6.11007">
        <ele>413.3</ele>
        <time>2025-02-09T13:25:27Z</time>
      </trkpt>
      <trkpt lat="43.74619" lon="6.11019">
        <ele>414</ele>
        <time>2025-02-09T13:25:33Z</time>
      </trkpt>
      <trkpt lat="43.74618" lon="6.11032">
        <ele>414</ele>
        <time>2025-02-09T13:25:43Z</time>
      </trkpt>
      <trkpt lat="43.74625" lon="6.1104">
        <ele>412.6</ele>
        <time>2025-02-09T13:25:51Z</time>
      </trkpt>
      <trkpt lat="43.74627" lon="6.11053">
        <ele>413</ele>
        <time>2025-02-09T13:26:00Z</time>
      </trkpt>
      <trkpt lat="43.74629" lon="6.11064">
        <ele>413.7</ele>
        <time>2025-02-09T13:26:08Z</time>
      </trkpt>
      <trkpt lat="43.74634" lon="6.11077">
        <ele>414.2</ele>
        <time>2025-02-09T13:26:17Z</time>
      </trkpt>
      <trkpt lat="43.74632" lon="6.11091">
        <ele>416</ele>
        <time>2025-02-09T13:26:25Z</time>
      </trkpt>
      <trkpt lat="43.74634" lon="6.11103">
        <ele>416.8</ele>
        <time>2025-02-09T13:26:33Z</time>
      </trkpt>
      <trkpt lat="43.74637" lon="6.11116">
        <ele>417.6</ele>
        <time>2025-02-09T13:26:44Z</time>
      </trkpt>
      <trkpt lat="43.7464" lon="6.11129">
        <ele>416.5</ele>
        <time>2025-02-09T13:26:52Z</time>
      </trkpt>
      <trkpt lat="43.7464" lon="6.11142">
        <ele>416.9</ele>
        <time>2025-02-09T13:27:00Z</time>
      </trkpt>
      <trkpt lat="43.74639" lon="6.11154">
        <ele>417.3</ele>
        <time>2025-02-09T13:27:08Z</time>
      </trkpt>
      <trkpt lat="43.7464" lon="6.11168">
        <ele>419.2</ele>
        <time>2025-02-09T13:27:14Z</time>
      </trkpt>
      <trkpt lat="43.74641" lon="6.1118">
        <ele>419.3</ele>
        <time>2025-02-09T13:27:23Z</time>
      </trkpt>
      <trkpt lat="43.74642" lon="6.11194">
        <ele>419.5</ele>
        <time>2025-02-09T13:27:34Z</time>
      </trkpt>
      <trkpt lat="43.74643" lon="6.11207">
        <ele>419</ele>
        <time>2025-02-09T13:27:45Z</time>
      </trkpt>
      <trkpt lat="43.74644" lon="6.11216">
        <ele>422.7</ele>
        <time>2025-02-09T13:27:58Z</time>
      </trkpt>
      <trkpt lat="43.74644" lon="6.11217">
        <ele>422.8</ele>
        <time>2025-02-09T13:27:59Z</time>
      </trkpt>
      <trkpt lat="43.74646" lon="6.11218">
        <ele>423.7</ele>
        <time>2025-02-09T13:28:09Z</time>
      </trkpt>
      <trkpt lat="43.74646" lon="6.11219">
        <ele>423.6</ele>
        <time>2025-02-09T13:28:10Z</time>
      </trkpt>
      <trkpt lat="43.74647" lon="6.1122">
        <ele>423.8</ele>
        <time>2025-02-09T13:28:16Z</time>
      </trkpt>
      <trkpt lat="43.74647" lon="6.1122">
        <ele>423.8</ele>
        <time>2025-02-09T13:28:34Z</time>
      </trkpt>
      <trkpt lat="43.74647" lon="6.1122">
        <ele>423.6</ele>
        <time>2025-02-09T13:28:36Z</time>
      </trkpt>
      <trkpt lat="43.74647" lon="6.1122">
        <ele>423.7</ele>
        <time>2025-02-09T13:28:43Z</time>
      </trkpt>
      <trkpt lat="43.74647" lon="6.11219">
        <ele>423.7</ele>
        <time>2025-02-09T13:28:46Z</time>
      </trkpt>
      <trkpt lat="43.74647" lon="6.11219">
        <ele>423.5</ele>
        <time>2025-02-09T13:28:49Z</time>
      </trkpt>
      <trkpt lat="43.74647" lon="6.11219">
        <ele>423.5</ele>
        <time>2025-02-09T13:28:50Z</time>
      </trkpt>
      <trkpt lat="43.74647" lon="6.11218">
        <ele>423.4</ele>
        <time>2025-02-09T13:28:51Z</time>
      </trkpt>
      <trkpt lat="43.74648" lon="6.11218">
        <ele>423</ele>
        <time>2025-02-09T13:28:57Z</time>
      </trkpt>
      <trkpt lat="43.74648" lon="6.11217">
        <ele>423.1</ele>
        <time>2025-02-09T13:28:58Z</time>
      </trkpt>
      <trkpt lat="43.74648" lon="6.11217">
        <ele>423.1</ele>
        <time>2025-02-09T13:28:59Z</time>
      </trkpt>
      <trkpt lat="43.74648" lon="6.11217">
        <ele>423.2</ele>
        <time>2025-02-09T13:29:00Z</time>
      </trkpt>
      <trkpt lat="43.74649" lon="6.11216">
        <ele>423</ele>
        <time>2025-02-09T13:29:05Z</time>
      </trkpt>
      <trkpt lat="43.74649" lon="6.11216">
        <ele>423.2</ele>
        <time>2025-02-09T13:29:06Z</time>
      </trkpt>
      <trkpt lat="43.74649" lon="6.11216">
        <ele>423.4</ele>
        <time>2025-02-09T13:29:09Z</time>
      </trkpt>
      <trkpt lat="43.74649" lon="6.11216">
        <ele>423.3</ele>
        <time>2025-02-09T13:29:15Z</time>
      </trkpt>
      <trkpt lat="43.74649" lon="6.11221">
        <ele>424.2</ele>
        <time>2025-02-09T13:29:34Z</time>
      </trkpt>
      <trkpt lat="43.74649" lon="6.1122">
        <ele>424.2</ele>
        <time>2025-02-09T13:29:35Z</time>
      </trkpt>
      <trkpt lat="43.74647" lon="6.11217">
        <ele>424.8</ele>
        <time>2025-02-09T13:29:50Z</time>
      </trkpt>
      <trkpt lat="43.74647" lon="6.11217">
        <ele>424.9</ele>
        <time>2025-02-09T13:29:57Z</time>
      </trkpt>
      <trkpt lat="43.74647" lon="6.11217">
        <ele>424.9</ele>
        <time>2025-02-09T13:29:58Z</time>
      </trkpt>
      <trkpt lat="43.74647" lon="6.11217">
        <ele>424.9</ele>
        <time>2025-02-09T13:30:01Z</time>
      </trkpt>
      <trkpt lat="43.74645" lon="6.11216">
        <ele>425.4</ele>
        <time>2025-02-09T13:30:11Z</time>
      </trkpt>
      <trkpt lat="43.74645" lon="6.11215">
        <ele>425.4</ele>
        <time>2025-02-09T13:30:12Z</time>
      </trkpt>
      <trkpt lat="43.74645" lon="6.11215">
        <ele>425.5</ele>
        <time>2025-02-09T13:30:13Z</time>
      </trkpt>
      <trkpt lat="43.74646" lon="6.11216">
        <ele>425.5</ele>
        <time>2025-02-09T13:30:14Z</time>
      </trkpt>
      <trkpt lat="43.74648" lon="6.11217">
        <ele>425.7</ele>
        <time>2025-02-09T13:30:24Z</time>
      </trkpt>
      <trkpt lat="43.74648" lon="6.11216">
        <ele>425.7</ele>
        <time>2025-02-09T13:30:29Z</time>
      </trkpt>
      <trkpt lat="43.7465" lon="6.11218">
        <ele>425.1</ele>
        <time>2025-02-09T13:30:38Z</time>
      </trkpt>
      <trkpt lat="43.7465" lon="6.11219">
        <ele>424.7</ele>
        <time>2025-02-09T13:30:39Z</time>
      </trkpt>
      <trkpt lat="43.7465" lon="6.11218">
        <ele>424.2</ele>
        <time>2025-02-09T13:30:40Z</time>
      </trkpt>
      <trkpt lat="43.7465" lon="6.11219">
        <ele>424</ele>
        <time>2025-02-09T13:30:41Z</time>
      </trkpt>
      <trkpt lat="43.7465" lon="6.11219">
        <ele>423.6</ele>
        <time>2025-02-09T13:30:46Z</time>
      </trkpt>
      <trkpt lat="43.7465" lon="6.1122">
        <ele>423.5</ele>
        <time>2025-02-09T13:30:49Z</time>
      </trkpt>
      <trkpt lat="43.74649" lon="6.11221">
        <ele>423.5</ele>
        <time>2025-02-09T13:30:53Z</time>
      </trkpt>
      <trkpt lat="43.74649" lon="6.11221">
        <ele>423.5</ele>
        <time>2025-02-09T13:30:57Z</time>
      </trkpt>
      <trkpt lat="43.74648" lon="6.11219">
        <ele>423.1</ele>
        <time>2025-02-09T13:31:02Z</time>
      </trkpt>
      <trkpt lat="43.74648" lon="6.1122">
        <ele>423.2</ele>
        <time>2025-02-09T13:31:03Z</time>
      </trkpt>
      <trkpt lat="43.74648" lon="6.11233">
        <ele>423.3</ele>
        <time>2025-02-09T13:31:14Z</time>
      </trkpt>
      <trkpt lat="43.74647" lon="6.11246">
        <ele>423</ele>
        <time>2025-02-09T13:31:22Z</time>
      </trkpt>
      <trkpt lat="43.74646" lon="6.1126">
        <ele>422.1</ele>
        <time>2025-02-09T13:31:30Z</time>
      </trkpt>
      <trkpt lat="43.74648" lon="6.11272">
        <ele>422</ele>
        <time>2025-02-09T13:31:40Z</time>
      </trkpt>
      <trkpt lat="43.74648" lon="6.11285">
        <ele>423</ele>
        <time>2025-02-09T13:31:51Z</time>
      </trkpt>
      <trkpt lat="43.74649" lon="6.11298">
        <ele>422.8</ele>
        <time>2025-02-09T13:32:00Z</time>
      </trkpt>
      <trkpt lat="43.74653" lon="6.1131">
        <ele>422.9</ele>
        <time>2025-02-09T13:32:07Z</time>
      </trkpt>
      <trkpt lat="43.74658" lon="6.11321">
        <ele>422.3</ele>
        <time>2025-02-09T13:32:18Z</time>
      </trkpt>
      <trkpt lat="43.74664" lon="6.11331">
        <ele>421.9</ele>
        <time>2025-02-09T13:32:27Z</time>
      </trkpt>
      <trkpt lat="43.74659" lon="6.11342">
        <ele>419.9</ele>
        <time>2025-02-09T13:32:40Z</time>
      </trkpt>
      <trkpt lat="43.74654" lon="6.11354">
        <ele>421.8</ele>
        <time>2025-02-09T13:32:48Z</time>
      </trkpt>
      <trkpt lat="43.74654" lon="6.11367">
        <ele>423.2</ele>
        <time>2025-02-09T13:32:56Z</time>
      </trkpt>
      <trkpt lat="43.74655" lon="6.1138">
        <ele>424</ele>
        <time>2025-02-09T13:33:07Z</time>
      </trkpt>
      <trkpt lat="43.74653" lon="6.11393">
        <ele>423.1</ele>
        <time>2025-02-09T13:33:17Z</time>
      </trkpt>
      <trkpt lat="43.74652" lon="6.11406">
        <ele>423.1</ele>
        <time>2025-02-09T13:33:26Z</time>
      </trkpt>
      <trkpt lat="43.74655" lon="6.1142">
        <ele>422.9</ele>
        <time>2025-02-09T13:33:33Z</time>
      </trkpt>
      <trkpt lat="43.74655" lon="6.11432">
        <ele>423</ele>
        <time>2025-02-09T13:33:40Z</time>
      </trkpt>
      <trkpt lat="43.74655" lon="6.11445">
        <ele>424</ele>
        <time>2025-02-09T13:33:51Z</time>
      </trkpt>
      <trkpt lat="43.74654" lon="6.11458">
        <ele>423.7</ele>
        <time>2025-02-09T13:34:05Z</time>
      </trkpt>
      <trkpt lat="43.74655" lon="6.11472">
        <ele>421.7</ele>
        <time>2025-02-09T13:34:13Z</time>
      </trkpt>
      <trkpt lat="43.74649" lon="6.11484">
        <ele>420.4</ele>
        <time>2025-02-09T13:34:22Z</time>
      </trkpt>
      <trkpt lat="43.74649" lon="6.11497">
        <ele>419.5</ele>
        <time>2025-02-09T13:34:35Z</time>
      </trkpt>
      <trkpt lat="43.74644" lon="6.11508">
        <ele>419.6</ele>
        <time>2025-02-09T13:34:44Z</time>
      </trkpt>
      <trkpt lat="43.74635" lon="6.11516">
        <ele>420.4</ele>
        <time>2025-02-09T13:34:56Z</time>
      </trkpt>
      <trkpt lat="43.74634" lon="6.11529">
        <ele>422.6</ele>
        <time>2025-02-09T13:35:06Z</time>
      </trkpt>
      <trkpt lat="43.74631" lon="6.11541">
        <ele>423.2</ele>
        <time>2025-02-09T13:35:22Z</time>
      </trkpt>
      <trkpt lat="43.74624" lon="6.11549">
        <ele>422.6</ele>
        <time>2025-02-09T13:35:31Z</time>
      </trkpt>
      <trkpt lat="43.74623" lon="6.11553">
        <ele>424.9</ele>
        <time>2025-02-09T13:35:38Z</time>
      </trkpt>
      <trkpt lat="43.74624" lon="6.11553">
        <ele>425</ele>
        <time>2025-02-09T13:35:39Z</time>
      </trkpt>
      <trkpt lat="43.74622" lon="6.11565">
        <ele>425</ele>
        <time>2025-02-09T13:35:56Z</time>
      </trkpt>
      <trkpt lat="43.74621" lon="6.11563">
        <ele>426.5</ele>
        <time>2025-02-09T13:36:06Z</time>
      </trkpt>
      <trkpt lat="43.74621" lon="6.11563">
        <ele>426.8</ele>
        <time>2025-02-09T13:36:08Z</time>
      </trkpt>
      <trkpt lat="43.74623" lon="6.11565">
        <ele>427.8</ele>
        <time>2025-02-09T13:36:32Z</time>
      </trkpt>
      <trkpt lat="43.74623" lon="6.11565">
        <ele>427.8</ele>
        <time>2025-02-09T13:36:33Z</time>
      </trkpt>
      <trkpt lat="43.74624" lon="6.11571">
        <ele>429.2</ele>
        <time>2025-02-09T13:37:00Z</time>
      </trkpt>
      <trkpt lat="43.74624" lon="6.11571">
        <ele>429.3</ele>
        <time>2025-02-09T13:37:02Z</time>
      </trkpt>
      <trkpt lat="43.74624" lon="6.11572">
        <ele>430.2</ele>
        <time>2025-02-09T13:37:07Z</time>
      </trkpt>
      <trkpt lat="43.74624" lon="6.11572">
        <ele>430.3</ele>
        <time>2025-02-09T13:37:13Z</time>
      </trkpt>
      <trkpt lat="43.74624" lon="6.11572">
        <ele>430.3</ele>
        <time>2025-02-09T13:37:14Z</time>
      </trkpt>
      <trkpt lat="43.74624" lon="6.11572">
        <ele>430.6</ele>
        <time>2025-02-09T13:37:20Z</time>
      </trkpt>
      <trkpt lat="43.74625" lon="6.11584">
        <ele>430.3</ele>
        <time>2025-02-09T13:37:29Z</time>
      </trkpt>
      <trkpt lat="43.74626" lon="6.11594">
        <ele>430.6</ele>
        <time>2025-02-09T13:37:39Z</time>
      </trkpt>
      <trkpt lat="43.74626" lon="6.11594">
        <ele>430.6</ele>
        <time>2025-02-09T13:37:41Z</time>
      </trkpt>
      <trkpt lat="43.74625" lon="6.11595">
        <ele>430.2</ele>
        <time>2025-02-09T13:37:45Z</time>
      </trkpt>
      <trkpt lat="43.74625" lon="6.11595">
        <ele>430.1</ele>
        <time>2025-02-09T13:37:46Z</time>
      </trkpt>
      <trkpt lat="43.74624" lon="6.11592">
        <ele>429.9</ele>
        <time>2025-02-09T13:37:55Z</time>
      </trkpt>
      <trkpt lat="43.74623" lon="6.11592">
        <ele>430</ele>
        <time>2025-02-09T13:37:57Z</time>
      </trkpt>
      <trkpt lat="43.74623" lon="6.11593">
        <ele>430.1</ele>
        <time>2025-02-09T13:37:58Z</time>
      </trkpt>
      <trkpt lat="43.74624" lon="6.11593">
        <ele>430.2</ele>
        <time>2025-02-09T13:37:59Z</time>
      </trkpt>
      <trkpt lat="43.74624" lon="6.11595">
        <ele>430.6</ele>
        <time>2025-02-09T13:38:04Z</time>
      </trkpt>
      <trkpt lat="43.74624" lon="6.11594">
        <ele>430.7</ele>
        <time>2025-02-09T13:38:06Z</time>
      </trkpt>
      <trkpt lat="43.74624" lon="6.11594">
        <ele>430.7</ele>
        <time>2025-02-09T13:38:07Z</time>
      </trkpt>
      <trkpt lat="43.74624" lon="6.11594">
        <ele>430.7</ele>
        <time>2025-02-09T13:38:09Z</time>
      </trkpt>
      <trkpt lat="43.74624" lon="6.11594">
        <ele>430.6</ele>
        <time>2025-02-09T13:38:10Z</time>
      </trkpt>
      <trkpt lat="43.74624" lon="6.11594">
        <ele>430.6</ele>
        <time>2025-02-09T13:38:11Z</time>
      </trkpt>
      <trkpt lat="43.74624" lon="6.11593">
        <ele>430.5</ele>
        <time>2025-02-09T13:38:13Z</time>
      </trkpt>
      <trkpt lat="43.74624" lon="6.11594">
        <ele>430.4</ele>
        <time>2025-02-09T13:38:15Z</time>
      </trkpt>
      <trkpt lat="43.74622" lon="6.11599">
        <ele>429.6</ele>
        <time>2025-02-09T13:38:25Z</time>
      </trkpt>
      <trkpt lat="43.74622" lon="6.116">
        <ele>429.5</ele>
        <time>2025-02-09T13:38:27Z</time>
      </trkpt>
      <trkpt lat="43.74623" lon="6.11603">
        <ele>428.1</ele>
        <time>2025-02-09T13:38:33Z</time>
      </trkpt>
      <trkpt lat="43.74623" lon="6.11604">
        <ele>428</ele>
        <time>2025-02-09T13:38:36Z</time>
      </trkpt>
      <trkpt lat="43.74617" lon="6.11613">
        <ele>427.9</ele>
        <time>2025-02-09T13:38:54Z</time>
      </trkpt>
      <trkpt lat="43.74608" lon="6.11608">
        <ele>428.1</ele>
        <time>2025-02-09T13:39:07Z</time>
      </trkpt>
      <trkpt lat="43.746" lon="6.11609">
        <ele>428.1</ele>
        <time>2025-02-09T13:39:27Z</time>
      </trkpt>
      <trkpt lat="43.746" lon="6.1161">
        <ele>428.1</ele>
        <time>2025-02-09T13:39:33Z</time>
      </trkpt>
      <trkpt lat="43.746" lon="6.1161">
        <ele>428.1</ele>
        <time>2025-02-09T13:39:34Z</time>
      </trkpt>
      <trkpt lat="43.746" lon="6.1161">
        <ele>428</ele>
        <time>2025-02-09T13:39:35Z</time>
      </trkpt>
      <trkpt lat="43.746" lon="6.1161">
        <ele>428.1</ele>
        <time>2025-02-09T13:39:36Z</time>
      </trkpt>
      <trkpt lat="43.746" lon="6.1161">
        <ele>428.2</ele>
        <time>2025-02-09T13:39:37Z</time>
      </trkpt>
      <trkpt lat="43.74603" lon="6.11612">
        <ele>428.2</ele>
        <time>2025-02-09T13:39:44Z</time>
      </trkpt>
      <trkpt lat="43.74603" lon="6.11612">
        <ele>428.3</ele>
        <time>2025-02-09T13:39:58Z</time>
      </trkpt>
      <trkpt lat="43.74593" lon="6.11612">
        <ele>428.8</ele>
        <time>2025-02-09T13:40:13Z</time>
      </trkpt>
      <trkpt lat="43.74593" lon="6.11612">
        <ele>430</ele>
        <time>2025-02-09T13:40:19Z</time>
      </trkpt>
      <trkpt lat="43.74592" lon="6.11613">
        <ele>430.2</ele>
        <time>2025-02-09T13:40:33Z</time>
      </trkpt>
      <trkpt lat="43.74589" lon="6.11625">
        <ele>431</ele>
        <time>2025-02-09T13:40:58Z</time>
      </trkpt>
      <trkpt lat="43.74582" lon="6.11634">
        <ele>431.1</ele>
        <time>2025-02-09T13:41:10Z</time>
      </trkpt>
      <trkpt lat="43.74575" lon="6.11642">
        <ele>431.9</ele>
        <time>2025-02-09T13:41:20Z</time>
      </trkpt>
      <trkpt lat="43.74566" lon="6.11647">
        <ele>433.7</ele>
        <time>2025-02-09T13:41:31Z</time>
      </trkpt>
      <trkpt lat="43.74557" lon="6.11653">
        <ele>434.2</ele>
        <time>2025-02-09T13:41:41Z</time>
      </trkpt>
      <trkpt lat="43.7455" lon="6.11663">
        <ele>435.2</ele>
        <time>2025-02-09T13:41:52Z</time>
      </trkpt>
      <trkpt lat="43.74542" lon="6.11669">
        <ele>435.8</ele>
        <time>2025-02-09T13:42:02Z</time>
      </trkpt>
      <trkpt lat="43.74533" lon="6.11677">
        <ele>436.1</ele>
        <time>2025-02-09T13:42:11Z</time>
      </trkpt>
      <trkpt lat="43.74524" lon="6.1168">
        <ele>436.8</ele>
        <time>2025-02-09T13:42:23Z</time>
      </trkpt>
      <trkpt lat="43.74517" lon="6.11687">
        <ele>439.2</ele>
        <time>2025-02-09T13:42:38Z</time>
      </trkpt>
      <trkpt lat="43.74508" lon="6.11691">
        <ele>439.9</ele>
        <time>2025-02-09T13:42:46Z</time>
      </trkpt>
      <trkpt lat="43.74499" lon="6.11696">
        <ele>440.6</ele>
        <time>2025-02-09T13:42:55Z</time>
      </trkpt>
      <trkpt lat="43.7449" lon="6.11702">
        <ele>442.4</ele>
        <time>2025-02-09T13:43:05Z</time>
      </trkpt>
      <trkpt lat="43.74484" lon="6.11711">
        <ele>443.6</ele>
        <time>2025-02-09T13:43:15Z</time>
      </trkpt>
      <trkpt lat="43.74475" lon="6.11716">
        <ele>445.4</ele>
        <time>2025-02-09T13:43:27Z</time>
      </trkpt>
      <trkpt lat="43.74466" lon="6.11716">
        <ele>446.3</ele>
        <time>2025-02-09T13:43:36Z</time>
      </trkpt>
      <trkpt lat="43.74457" lon="6.11719">
        <ele>447</ele>
        <time>2025-02-09T13:43:46Z</time>
      </trkpt>
      <trkpt lat="43.74449" lon="6.11726">
        <ele>446.6</ele>
        <time>2025-02-09T13:43:56Z</time>
      </trkpt>
      <trkpt lat="43.7444" lon="6.11731">
        <ele>447.4</ele>
        <time>2025-02-09T13:44:10Z</time>
      </trkpt>
      <trkpt lat="43.74434" lon="6.1174">
        <ele>448.4</ele>
        <time>2025-02-09T13:44:22Z</time>
      </trkpt>
      <trkpt lat="43.74426" lon="6.11747">
        <ele>450</ele>
        <time>2025-02-09T13:44:35Z</time>
      </trkpt>
      <trkpt lat="43.74416" lon="6.11745">
        <ele>450.9</ele>
        <time>2025-02-09T13:44:44Z</time>
      </trkpt>
      <trkpt lat="43.7441" lon="6.11755">
        <ele>452.6</ele>
        <time>2025-02-09T13:44:57Z</time>
      </trkpt>
      <trkpt lat="43.74401" lon="6.11757">
        <ele>453</ele>
        <time>2025-02-09T13:45:09Z</time>
      </trkpt>
      <trkpt lat="43.74391" lon="6.11756">
        <ele>452.8</ele>
        <time>2025-02-09T13:45:21Z</time>
      </trkpt>
      <trkpt lat="43.74382" lon="6.11757">
        <ele>453</ele>
        <time>2025-02-09T13:45:27Z</time>
      </trkpt>
      <trkpt lat="43.74373" lon="6.11758">
        <ele>453.3</ele>
        <time>2025-02-09T13:45:35Z</time>
      </trkpt>
      <trkpt lat="43.74364" lon="6.11761">
        <ele>454</ele>
        <time>2025-02-09T13:45:43Z</time>
      </trkpt>
      <trkpt lat="43.74356" lon="6.11769">
        <ele>454.9</ele>
        <time>2025-02-09T13:45:54Z</time>
      </trkpt>
      <trkpt lat="43.74348" lon="6.11775">
        <ele>456.4</ele>
        <time>2025-02-09T13:46:04Z</time>
      </trkpt>
      <trkpt lat="43.74343" lon="6.11778">
        <ele>457.3</ele>
        <time>2025-02-09T13:46:11Z</time>
      </trkpt>
      <trkpt lat="43.74343" lon="6.11779">
        <ele>457.3</ele>
        <time>2025-02-09T13:46:12Z</time>
      </trkpt>
      <trkpt lat="43.74333" lon="6.11781">
        <ele>458.5</ele>
        <time>2025-02-09T13:46:25Z</time>
      </trkpt>
      <trkpt lat="43.74324" lon="6.1178">
        <ele>460.4</ele>
        <time>2025-02-09T13:46:37Z</time>
      </trkpt>
      <trkpt lat="43.74316" lon="6.11776">
        <ele>462.8</ele>
        <time>2025-02-09T13:46:54Z</time>
      </trkpt>
      <trkpt lat="43.74308" lon="6.11768">
        <ele>462.8</ele>
        <time>2025-02-09T13:47:07Z</time>
      </trkpt>
      <trkpt lat="43.743" lon="6.11775">
        <ele>463.6</ele>
        <time>2025-02-09T13:47:22Z</time>
      </trkpt>
      <trkpt lat="43.74292" lon="6.1178">
        <ele>464.2</ele>
        <time>2025-02-09T13:47:32Z</time>
      </trkpt>
      <trkpt lat="43.74282" lon="6.11779">
        <ele>465.4</ele>
        <time>2025-02-09T13:47:41Z</time>
      </trkpt>
      <trkpt lat="43.74273" lon="6.11779">
        <ele>466</ele>
        <time>2025-02-09T13:47:50Z</time>
      </trkpt>
      <trkpt lat="43.74264" lon="6.11775">
        <ele>466.5</ele>
        <time>2025-02-09T13:47:58Z</time>
      </trkpt>
      <trkpt lat="43.74254" lon="6.11775">
        <ele>466.4</ele>
        <time>2025-02-09T13:48:05Z</time>
      </trkpt>
      <trkpt lat="43.74245" lon="6.11772">
        <ele>467.7</ele>
        <time>2025-02-09T13:48:14Z</time>
      </trkpt>
      <trkpt lat="43.74235" lon="6.11769">
        <ele>469.7</ele>
        <time>2025-02-09T13:48:24Z</time>
      </trkpt>
      <trkpt lat="43.74226" lon="6.11768">
        <ele>471.1</ele>
        <time>2025-02-09T13:48:36Z</time>
      </trkpt>
      <trkpt lat="43.74225" lon="6.11768">
        <ele>471.3</ele>
        <time>2025-02-09T13:48:40Z</time>
      </trkpt>
      <trkpt lat="43.74225" lon="6.11768">
        <ele>471.4</ele>
        <time>2025-02-09T13:48:47Z</time>
      </trkpt>
      <trkpt lat="43.74215" lon="6.11772">
        <ele>472.9</ele>
        <time>2025-02-09T13:48:59Z</time>
      </trkpt>
      <trkpt lat="43.74209" lon="6.11781">
        <ele>475</ele>
        <time>2025-02-09T13:49:14Z</time>
      </trkpt>
      <trkpt lat="43.74201" lon="6.11788">
        <ele>476.7</ele>
        <time>2025-02-09T13:49:25Z</time>
      </trkpt>
      <trkpt lat="43.74193" lon="6.11794">
        <ele>479.1</ele>
        <time>2025-02-09T13:49:37Z</time>
      </trkpt>
      <trkpt lat="43.74184" lon="6.11801">
        <ele>480.4</ele>
        <time>2025-02-09T13:49:48Z</time>
      </trkpt>
      <trkpt lat="43.74184" lon="6.11801">
        <ele>480.9</ele>
        <time>2025-02-09T13:49:52Z</time>
      </trkpt>
      <trkpt lat="43.74184" lon="6.11801">
        <ele>480.8</ele>
        <time>2025-02-09T13:49:55Z</time>
      </trkpt>
      <trkpt lat="43.74184" lon="6.11801">
        <ele>480.8</ele>
        <time>2025-02-09T13:49:56Z</time>
      </trkpt>
      <trkpt lat="43.74184" lon="6.11801">
        <ele>480.8</ele>
        <time>2025-02-09T13:50:04Z</time>
      </trkpt>
      <trkpt lat="43.74183" lon="6.11802">
        <ele>480.7</ele>
        <time>2025-02-09T13:50:07Z</time>
      </trkpt>
      <trkpt lat="43.74183" lon="6.11802">
        <ele>480.9</ele>
        <time>2025-02-09T13:50:15Z</time>
      </trkpt>
      <trkpt lat="43.74175" lon="6.11809">
        <ele>483.1</ele>
        <time>2025-02-09T13:50:27Z</time>
      </trkpt>
      <trkpt lat="43.74169" lon="6.11819">
        <ele>484.2</ele>
        <time>2025-02-09T13:50:37Z</time>
      </trkpt>
      <trkpt lat="43.74165" lon="6.11831">
        <ele>484.6</ele>
        <time>2025-02-09T13:50:48Z</time>
      </trkpt>
      <trkpt lat="43.74161" lon="6.11843">
        <ele>486.4</ele>
        <time>2025-02-09T13:51:00Z</time>
      </trkpt>
      <trkpt lat="43.74157" lon="6.11855">
        <ele>487.7</ele>
        <time>2025-02-09T13:51:13Z</time>
      </trkpt>
      <trkpt lat="43.74149" lon="6.11862">
        <ele>488.6</ele>
        <time>2025-02-09T13:51:23Z</time>
      </trkpt>
      <trkpt lat="43.74145" lon="6.11874">
        <ele>490.1</ele>
        <time>2025-02-09T13:51:35Z</time>
      </trkpt>
      <trkpt lat="43.74141" lon="6.11886">
        <ele>491.4</ele>
        <time>2025-02-09T13:51:44Z</time>
      </trkpt>
      <trkpt lat="43.74135" lon="6.11897">
        <ele>493.4</ele>
        <time>2025-02-09T13:51:55Z</time>
      </trkpt>
      <trkpt lat="43.7413" lon="6.11909">
        <ele>494.3</ele>
        <time>2025-02-09T13:52:05Z</time>
      </trkpt>
      <trkpt lat="43.74124" lon="6.1192">
        <ele>495.6</ele>
        <time>2025-02-09T13:52:15Z</time>
      </trkpt>
      <trkpt lat="43.74119" lon="6.11931">
        <ele>496.5</ele>
        <time>2025-02-09T13:52:24Z</time>
      </trkpt>
      <trkpt lat="43.74114" lon="6.11942">
        <ele>497.5</ele>
        <time>2025-02-09T13:52:33Z</time>
      </trkpt>
      <trkpt lat="43.74108" lon="6.11952">
        <ele>497.9</ele>
        <time>2025-02-09T13:52:41Z</time>
      </trkpt>
      <trkpt lat="43.74103" lon="6.11964">
        <ele>499</ele>
        <time>2025-02-09T13:52:50Z</time>
      </trkpt>
      <trkpt lat="43.74098" lon="6.11975">
        <ele>499.8</ele>
        <time>2025-02-09T13:52:59Z</time>
      </trkpt>
      <trkpt lat="43.74093" lon="6.11985">
        <ele>500.3</ele>
        <time>2025-02-09T13:53:08Z</time>
      </trkpt>
      <trkpt lat="43.74093" lon="6.11986">
        <ele>500.3</ele>
        <time>2025-02-09T13:53:11Z</time>
      </trkpt>
      <trkpt lat="43.74093" lon="6.11986">
        <ele>500.4</ele>
        <time>2025-02-09T13:53:12Z</time>
      </trkpt>
      <trkpt lat="43.74088" lon="6.11997">
        <ele>500.5</ele>
        <time>2025-02-09T13:53:20Z</time>
      </trkpt>
      <trkpt lat="43.74081" lon="6.12008">
        <ele>500.4</ele>
        <time>2025-02-09T13:53:29Z</time>
      </trkpt>
      <trkpt lat="43.74079" lon="6.1202">
        <ele>500.7</ele>
        <time>2025-02-09T13:53:41Z</time>
      </trkpt>
      <trkpt lat="43.74075" lon="6.12033">
        <ele>501.7</ele>
        <time>2025-02-09T13:53:53Z</time>
      </trkpt>
      <trkpt lat="43.74069" lon="6.12044">
        <ele>502.7</ele>
        <time>2025-02-09T13:54:03Z</time>
      </trkpt>
      <trkpt lat="43.74067" lon="6.12056">
        <ele>503.1</ele>
        <time>2025-02-09T13:54:12Z</time>
      </trkpt>
      <trkpt lat="43.74066" lon="6.12069">
        <ele>503.8</ele>
        <time>2025-02-09T13:54:22Z</time>
      </trkpt>
      <trkpt lat="43.74063" lon="6.12082">
        <ele>505.3</ele>
        <time>2025-02-09T13:54:32Z</time>
      </trkpt>
      <trkpt lat="43.7406" lon="6.12094">
        <ele>506</ele>
        <time>2025-02-09T13:54:41Z</time>
      </trkpt>
      <trkpt lat="43.74054" lon="6.12105">
        <ele>507.1</ele>
        <time>2025-02-09T13:54:51Z</time>
      </trkpt>
      <trkpt lat="43.7405" lon="6.12117">
        <ele>507</ele>
        <time>2025-02-09T13:54:59Z</time>
      </trkpt>
      <trkpt lat="43.74044" lon="6.12127">
        <ele>507</ele>
        <time>2025-02-09T13:55:09Z</time>
      </trkpt>
      <trkpt lat="43.74039" lon="6.12138">
        <ele>507.5</ele>
        <time>2025-02-09T13:55:18Z</time>
      </trkpt>
      <trkpt lat="43.74035" lon="6.12149">
        <ele>507.3</ele>
        <time>2025-02-09T13:55:29Z</time>
      </trkpt>
      <trkpt lat="43.74034" lon="6.12162">
        <ele>507.2</ele>
        <time>2025-02-09T13:55:41Z</time>
      </trkpt>
      <trkpt lat="43.74027" lon="6.12174">
        <ele>507.4</ele>
        <time>2025-02-09T13:55:51Z</time>
      </trkpt>
      <trkpt lat="43.74023" lon="6.12186">
        <ele>507.3</ele>
        <time>2025-02-09T13:55:58Z</time>
      </trkpt>
      <trkpt lat="43.74021" lon="6.12198">
        <ele>508.1</ele>
        <time>2025-02-09T13:56:08Z</time>
      </trkpt>
      <trkpt lat="43.74021" lon="6.12199">
        <ele>508.1</ele>
        <time>2025-02-09T13:56:15Z</time>
      </trkpt>
      <trkpt lat="43.74021" lon="6.122">
        <ele>508.2</ele>
        <time>2025-02-09T13:56:16Z</time>
      </trkpt>
      <trkpt lat="43.74021" lon="6.12199">
        <ele>508.6</ele>
        <time>2025-02-09T13:56:19Z</time>
      </trkpt>
      <trkpt lat="43.74021" lon="6.12199">
        <ele>508.5</ele>
        <time>2025-02-09T13:56:21Z</time>
      </trkpt>
      <trkpt lat="43.74021" lon="6.12199">
        <ele>508.7</ele>
        <time>2025-02-09T13:56:23Z</time>
      </trkpt>
      <trkpt lat="43.74021" lon="6.12199">
        <ele>508.7</ele>
        <time>2025-02-09T13:56:24Z</time>
      </trkpt>
      <trkpt lat="43.74016" lon="6.12211">
        <ele>509</ele>
        <time>2025-02-09T13:56:34Z</time>
      </trkpt>
      <trkpt lat="43.74012" lon="6.12223">
        <ele>509.7</ele>
        <time>2025-02-09T13:56:42Z</time>
      </trkpt>
      <trkpt lat="43.74011" lon="6.12236">
        <ele>510.9</ele>
        <time>2025-02-09T13:56:50Z</time>
      </trkpt>
      <trkpt lat="43.74008" lon="6.12248">
        <ele>511.9</ele>
        <time>2025-02-09T13:57:00Z</time>
      </trkpt>
      <trkpt lat="43.74004" lon="6.12261">
        <ele>511.9</ele>
        <time>2025-02-09T13:57:10Z</time>
      </trkpt>
      <trkpt lat="43.73996" lon="6.12267">
        <ele>510.8</ele>
        <time>2025-02-09T13:57:21Z</time>
      </trkpt>
      <trkpt lat="43.73989" lon="6.12279">
        <ele>510.4</ele>
        <time>2025-02-09T13:57:32Z</time>
      </trkpt>
      <trkpt lat="43.73983" lon="6.12289">
        <ele>511</ele>
        <time>2025-02-09T13:57:43Z</time>
      </trkpt>
      <trkpt lat="43.73982" lon="6.12301">
        <ele>512.2</ele>
        <time>2025-02-09T13:57:53Z</time>
      </trkpt>
      <trkpt lat="43.73977" lon="6.12313">
        <ele>513.7</ele>
        <time>2025-02-09T13:58:07Z</time>
      </trkpt>
      <trkpt lat="43.73972" lon="6.12324">
        <ele>513.8</ele>
        <time>2025-02-09T13:58:15Z</time>
      </trkpt>
      <trkpt lat="43.7397" lon="6.1233">
        <ele>514.5</ele>
        <time>2025-02-09T13:58:39Z</time>
      </trkpt>
      <trkpt lat="43.7397" lon="6.1233">
        <ele>514.4</ele>
        <time>2025-02-09T13:58:40Z</time>
      </trkpt>
      <trkpt lat="43.7397" lon="6.12331">
        <ele>514.4</ele>
        <time>2025-02-09T13:58:43Z</time>
      </trkpt>
      <trkpt lat="43.7397" lon="6.12331">
        <ele>514.4</ele>
        <time>2025-02-09T13:58:45Z</time>
      </trkpt>
      <trkpt lat="43.7397" lon="6.12331">
        <ele>514.5</ele>
        <time>2025-02-09T13:58:46Z</time>
      </trkpt>
      <trkpt lat="43.7397" lon="6.12331">
        <ele>514.6</ele>
        <time>2025-02-09T13:58:47Z</time>
      </trkpt>
      <trkpt lat="43.73965" lon="6.12344">
        <ele>518</ele>
        <time>2025-02-09T13:58:59Z</time>
      </trkpt>
      <trkpt lat="43.73962" lon="6.12356">
        <ele>518.3</ele>
        <time>2025-02-09T13:59:07Z</time>
      </trkpt>
      <trkpt lat="43.73956" lon="6.12366">
        <ele>518.5</ele>
        <time>2025-02-09T13:59:16Z</time>
      </trkpt>
      <trkpt lat="43.73954" lon="6.12379">
        <ele>518</ele>
        <time>2025-02-09T13:59:24Z</time>
      </trkpt>
      <trkpt lat="43.73948" lon="6.12389">
        <ele>518.1</ele>
        <time>2025-02-09T13:59:37Z</time>
      </trkpt>
      <trkpt lat="43.73945" lon="6.12402">
        <ele>519.2</ele>
        <time>2025-02-09T13:59:48Z</time>
      </trkpt>
      <trkpt lat="43.7394" lon="6.12413">
        <ele>519.7</ele>
        <time>2025-02-09T13:59:55Z</time>
      </trkpt>
      <trkpt lat="43.7394" lon="6.12426">
        <ele>520</ele>
        <time>2025-02-09T14:00:02Z</time>
      </trkpt>
      <trkpt lat="43.7394" lon="6.12438">
        <ele>520.7</ele>
        <time>2025-02-09T14:00:12Z</time>
      </trkpt>
      <trkpt lat="43.7394" lon="6.12452">
        <ele>521.4</ele>
        <time>2025-02-09T14:00:21Z</time>
      </trkpt>
      <trkpt lat="43.7394" lon="6.12466">
        <ele>522.3</ele>
        <time>2025-02-09T14:00:30Z</time>
      </trkpt>
      <trkpt lat="43.73941" lon="6.12479">
        <ele>523.8</ele>
        <time>2025-02-09T14:00:39Z</time>
      </trkpt>
      <trkpt lat="43.73937" lon="6.12492">
        <ele>525</ele>
        <time>2025-02-09T14:00:49Z</time>
      </trkpt>
      <trkpt lat="43.73939" lon="6.12505">
        <ele>525.9</ele>
        <time>2025-02-09T14:01:00Z</time>
      </trkpt>
      <trkpt lat="43.73938" lon="6.12518">
        <ele>525.3</ele>
        <time>2025-02-09T14:01:15Z</time>
      </trkpt>
      <trkpt lat="43.73941" lon="6.1253">
        <ele>525.5</ele>
        <time>2025-02-09T14:01:24Z</time>
      </trkpt>
      <trkpt lat="43.73942" lon="6.12543">
        <ele>526.2</ele>
        <time>2025-02-09T14:01:33Z</time>
      </trkpt>
      <trkpt lat="43.73949" lon="6.12553">
        <ele>528.1</ele>
        <time>2025-02-09T14:01:43Z</time>
      </trkpt>
      <trkpt lat="43.73954" lon="6.12564">
        <ele>529.6</ele>
        <time>2025-02-09T14:01:54Z</time>
      </trkpt>
      <trkpt lat="43.73954" lon="6.12564">
        <ele>529.5</ele>
        <time>2025-02-09T14:01:59Z</time>
      </trkpt>
      <trkpt lat="43.73954" lon="6.12565">
        <ele>529.6</ele>
        <time>2025-02-09T14:02:00Z</time>
      </trkpt>
      <trkpt lat="43.73954" lon="6.12578">
        <ele>530.6</ele>
        <time>2025-02-09T14:02:08Z</time>
      </trkpt>
      <trkpt lat="43.73953" lon="6.12591">
        <ele>533.4</ele>
        <time>2025-02-09T14:02:17Z</time>
      </trkpt>
      <trkpt lat="43.73948" lon="6.12603">
        <ele>534.5</ele>
        <time>2025-02-09T14:02:26Z</time>
      </trkpt>
      <trkpt lat="43.73943" lon="6.12613">
        <ele>535.2</ele>
        <time>2025-02-09T14:02:37Z</time>
      </trkpt>
      <trkpt lat="43.73937" lon="6.12624">
        <ele>535.2</ele>
        <time>2025-02-09T14:02:46Z</time>
      </trkpt>
      <trkpt lat="43.73931" lon="6.12634">
        <ele>535.1</ele>
        <time>2025-02-09T14:02:55Z</time>
      </trkpt>
      <trkpt lat="43.73931" lon="6.12648">
        <ele>535.1</ele>
        <time>2025-02-09T14:03:05Z</time>
      </trkpt>
      <trkpt lat="43.73929" lon="6.12661">
        <ele>534.7</ele>
        <time>2025-02-09T14:03:15Z</time>
      </trkpt>
      <trkpt lat="43.73929" lon="6.12674">
        <ele>535.2</ele>
        <time>2025-02-09T14:03:25Z</time>
      </trkpt>
      <trkpt lat="43.73924" lon="6.12685">
        <ele>535.8</ele>
        <time>2025-02-09T14:03:35Z</time>
      </trkpt>
      <trkpt lat="43.73918" lon="6.12694">
        <ele>537</ele>
        <time>2025-02-09T14:03:46Z</time>
      </trkpt>
      <trkpt lat="43.73915" lon="6.12706">
        <ele>537.7</ele>
        <time>2025-02-09T14:03:56Z</time>
      </trkpt>
      <trkpt lat="43.73912" lon="6.12719">
        <ele>537.6</ele>
        <time>2025-02-09T14:04:07Z</time>
      </trkpt>
      <trkpt lat="43.73917" lon="6.1273">
        <ele>537.4</ele>
        <time>2025-02-09T14:04:14Z</time>
      </trkpt>
      <trkpt lat="43.73917" lon="6.12735">
        <ele>537.7</ele>
        <time>2025-02-09T14:04:19Z</time>
      </trkpt>
      <trkpt lat="43.73917" lon="6.12737">
        <ele>537.7</ele>
        <time>2025-02-09T14:04:20Z</time>
      </trkpt>
      <trkpt lat="43.7392" lon="6.12751">
        <ele>537.4</ele>
        <time>2025-02-09T14:04:28Z</time>
      </trkpt>
      <trkpt lat="43.7392" lon="6.1276">
        <ele>537.7</ele>
        <time>2025-02-09T14:04:36Z</time>
      </trkpt>
      <trkpt lat="43.7392" lon="6.1276">
        <ele>537.8</ele>
        <time>2025-02-09T14:04:37Z</time>
      </trkpt>
      <trkpt lat="43.7392" lon="6.12774">
        <ele>538.3</ele>
        <time>2025-02-09T14:04:49Z</time>
      </trkpt>
      <trkpt lat="43.73921" lon="6.12787">
        <ele>538.4</ele>
        <time>2025-02-09T14:04:56Z</time>
      </trkpt>
      <trkpt lat="43.73924" lon="6.128">
        <ele>539</ele>
        <time>2025-02-09T14:05:04Z</time>
      </trkpt>
      <trkpt lat="43.73927" lon="6.12811">
        <ele>539.7</ele>
        <time>2025-02-09T14:05:17Z</time>
      </trkpt>
      <trkpt lat="43.73926" lon="6.12811">
        <ele>539.6</ele>
        <time>2025-02-09T14:05:18Z</time>
      </trkpt>
      <trkpt lat="43.7393" lon="6.12824">
        <ele>539.2</ele>
        <time>2025-02-09T14:05:28Z</time>
      </trkpt>
      <trkpt lat="43.73936" lon="6.12834">
        <ele>538.8</ele>
        <time>2025-02-09T14:05:33Z</time>
      </trkpt>
      <trkpt lat="43.7394" lon="6.12847">
        <ele>538.6</ele>
        <time>2025-02-09T14:05:40Z</time>
      </trkpt>
      <trkpt lat="43.73949" lon="6.12854">
        <ele>539</ele>
        <time>2025-02-09T14:05:48Z</time>
      </trkpt>
      <trkpt lat="43.73955" lon="6.1286">
        <ele>539.1</ele>
        <time>2025-02-09T14:05:59Z</time>
      </trkpt>
      <trkpt lat="43.73956" lon="6.1286">
        <ele>539.2</ele>
        <time>2025-02-09T14:06:00Z</time>
      </trkpt>
      <trkpt lat="43.73958" lon="6.12862">
        <ele>543.5</ele>
        <time>2025-02-09T14:06:55Z</time>
      </trkpt>
      <trkpt lat="43.73958" lon="6.12862">
        <ele>543.6</ele>
        <time>2025-02-09T14:06:56Z</time>
      </trkpt>
      <trkpt lat="43.73958" lon="6.12862">
        <ele>543.9</ele>
        <time>2025-02-09T14:06:59Z</time>
      </trkpt>
      <trkpt lat="43.73959" lon="6.12861">
        <ele>544</ele>
        <time>2025-02-09T14:07:00Z</time>
      </trkpt>
      <trkpt lat="43.73954" lon="6.12855">
        <ele>544.5</ele>
        <time>2025-02-09T14:07:31Z</time>
      </trkpt>
      <trkpt lat="43.73954" lon="6.12856">
        <ele>544.5</ele>
        <time>2025-02-09T14:07:32Z</time>
      </trkpt>
      <trkpt lat="43.73955" lon="6.12855">
        <ele>544.4</ele>
        <time>2025-02-09T14:07:47Z</time>
      </trkpt>
      <trkpt lat="43.73954" lon="6.12854">
        <ele>544.5</ele>
        <time>2025-02-09T14:07:48Z</time>
      </trkpt>
      <trkpt lat="43.73953" lon="6.12858">
        <ele>544.5</ele>
        <time>2025-02-09T14:07:57Z</time>
      </trkpt>
      <trkpt lat="43.73954" lon="6.12858">
        <ele>544.7</ele>
        <time>2025-02-09T14:07:58Z</time>
      </trkpt>
      <trkpt lat="43.73954" lon="6.12858">
        <ele>545.1</ele>
        <time>2025-02-09T14:08:02Z</time>
      </trkpt>
      <trkpt lat="43.73953" lon="6.12858">
        <ele>545.2</ele>
        <time>2025-02-09T14:08:03Z</time>
      </trkpt>
      <trkpt lat="43.73956" lon="6.12857">
        <ele>546.1</ele>
        <time>2025-02-09T14:08:16Z</time>
      </trkpt>
      <trkpt lat="43.73956" lon="6.12857">
        <ele>546.1</ele>
        <time>2025-02-09T14:08:17Z</time>
      </trkpt>
      <trkpt lat="43.73956" lon="6.12858">
        <ele>546</ele>
        <time>2025-02-09T14:08:19Z</time>
      </trkpt>
      <trkpt lat="43.73957" lon="6.12859">
        <ele>545.8</ele>
        <time>2025-02-09T14:08:21Z</time>
      </trkpt>
      <trkpt lat="43.73956" lon="6.12859">
        <ele>550.1</ele>
        <time>2025-02-09T14:08:54Z</time>
      </trkpt>
      <trkpt lat="43.73956" lon="6.1286">
        <ele>550.4</ele>
        <time>2025-02-09T14:09:11Z</time>
      </trkpt>
      <trkpt lat="43.73956" lon="6.1286">
        <ele>550.6</ele>
        <time>2025-02-09T14:09:12Z</time>
      </trkpt>
      <trkpt lat="43.73956" lon="6.12859">
        <ele>551</ele>
        <time>2025-02-09T14:09:15Z</time>
      </trkpt>
      <trkpt lat="43.73956" lon="6.12859">
        <ele>551.1</ele>
        <time>2025-02-09T14:09:16Z</time>
      </trkpt>
      <trkpt lat="43.73956" lon="6.1286">
        <ele>551.3</ele>
        <time>2025-02-09T14:09:30Z</time>
      </trkpt>
      <trkpt lat="43.73956" lon="6.1286">
        <ele>551.3</ele>
        <time>2025-02-09T14:09:31Z</time>
      </trkpt>
      <trkpt lat="43.73957" lon="6.1286">
        <ele>551.5</ele>
        <time>2025-02-09T14:09:51Z</time>
      </trkpt>
      <trkpt lat="43.73957" lon="6.1286">
        <ele>551.5</ele>
        <time>2025-02-09T14:09:52Z</time>
      </trkpt>
      <trkpt lat="43.73957" lon="6.12859">
        <ele>551.8</ele>
        <time>2025-02-09T14:10:02Z</time>
      </trkpt>
      <trkpt lat="43.73957" lon="6.12859">
        <ele>551.9</ele>
        <time>2025-02-09T14:10:04Z</time>
      </trkpt>
      <trkpt lat="43.73957" lon="6.1286">
        <ele>551.7</ele>
        <time>2025-02-09T14:10:05Z</time>
      </trkpt>
      <trkpt lat="43.73959" lon="6.12858">
        <ele>549.6</ele>
        <time>2025-02-09T14:10:12Z</time>
      </trkpt>
      <trkpt lat="43.73959" lon="6.12859">
        <ele>549.5</ele>
        <time>2025-02-09T14:10:13Z</time>
      </trkpt>
      <trkpt lat="43.7396" lon="6.12858">
        <ele>551.2</ele>
        <time>2025-02-09T14:10:31Z</time>
      </trkpt>
      <trkpt lat="43.7396" lon="6.12858">
        <ele>551.1</ele>
        <time>2025-02-09T14:10:35Z</time>
      </trkpt>
      <trkpt lat="43.7396" lon="6.12858">
        <ele>551.1</ele>
        <time>2025-02-09T14:10:36Z</time>
      </trkpt>
      <trkpt lat="43.73959" lon="6.12858">
        <ele>551.1</ele>
        <time>2025-02-09T14:10:40Z</time>
      </trkpt>
      <trkpt lat="43.73959" lon="6.12858">
        <ele>551.2</ele>
        <time>2025-02-09T14:10:42Z</time>
      </trkpt>
      <trkpt lat="43.73959" lon="6.12858">
        <ele>551.2</ele>
        <time>2025-02-09T14:10:44Z</time>
      </trkpt>
      <trkpt lat="43.73959" lon="6.12858">
        <ele>551.2</ele>
        <time>2025-02-09T14:10:45Z</time>
      </trkpt>
      <trkpt lat="43.73959" lon="6.12857">
        <ele>551</ele>
        <time>2025-02-09T14:10:59Z</time>
      </trkpt>
      <trkpt lat="43.73958" lon="6.12857">
        <ele>550.8</ele>
        <time>2025-02-09T14:11:01Z</time>
      </trkpt>
      <trkpt lat="43.73959" lon="6.12857">
        <ele>550.6</ele>
        <time>2025-02-09T14:11:03Z</time>
      </trkpt>
      <trkpt lat="43.7396" lon="6.12857">
        <ele>550.4</ele>
        <time>2025-02-09T14:11:09Z</time>
      </trkpt>
      <trkpt lat="43.73959" lon="6.12856">
        <ele>550.5</ele>
        <time>2025-02-09T14:11:10Z</time>
      </trkpt>
      <trkpt lat="43.73958" lon="6.12861">
        <ele>554</ele>
        <time>2025-02-09T14:12:21Z</time>
      </trkpt>
      <trkpt lat="43.73967" lon="6.12868">
        <ele>554.3</ele>
        <time>2025-02-09T14:12:29Z</time>
      </trkpt>
      <trkpt lat="43.73975" lon="6.12874">
        <ele>553.9</ele>
        <time>2025-02-09T14:12:38Z</time>
      </trkpt>
      <trkpt lat="43.73984" lon="6.1288">
        <ele>553.2</ele>
        <time>2025-02-09T14:12:48Z</time>
      </trkpt>
      <trkpt lat="43.73993" lon="6.12885">
        <ele>553.2</ele>
        <time>2025-02-09T14:12:57Z</time>
      </trkpt>
      <trkpt lat="43.74002" lon="6.12888">
        <ele>553.6</ele>
        <time>2025-02-09T14:13:05Z</time>
      </trkpt>
      <trkpt lat="43.74012" lon="6.1289">
        <ele>553</ele>
        <time>2025-02-09T14:13:13Z</time>
      </trkpt>
      <trkpt lat="43.74022" lon="6.1289">
        <ele>552.6</ele>
        <time>2025-02-09T14:13:20Z</time>
      </trkpt>
      <trkpt lat="43.74032" lon="6.12889">
        <ele>552.4</ele>
        <time>2025-02-09T14:13:27Z</time>
      </trkpt>
      <trkpt lat="43.7404" lon="6.12892">
        <ele>551.3</ele>
        <time>2025-02-09T14:13:35Z</time>
      </trkpt>
      <trkpt lat="43.7405" lon="6.12893">
        <ele>550.7</ele>
        <time>2025-02-09T14:13:42Z</time>
      </trkpt>
      <trkpt lat="43.74058" lon="6.12899">
        <ele>549.8</ele>
        <time>2025-02-09T14:13:52Z</time>
      </trkpt>
      <trkpt lat="43.74068" lon="6.12901">
        <ele>548.6</ele>
        <time>2025-02-09T14:14:00Z</time>
      </trkpt>
      <trkpt lat="43.74077" lon="6.12904">
        <ele>548.1</ele>
        <time>2025-02-09T14:14:09Z</time>
      </trkpt>
      <trkpt lat="43.74087" lon="6.12903">
        <ele>547.3</ele>
        <time>2025-02-09T14:14:17Z</time>
      </trkpt>
      <trkpt lat="43.74096" lon="6.12904">
        <ele>546.7</ele>
        <time>2025-02-09T14:14:24Z</time>
      </trkpt>
      <trkpt lat="43.74105" lon="6.12907">
        <ele>545.6</ele>
        <time>2025-02-09T14:14:32Z</time>
      </trkpt>
      <trkpt lat="43.74114" lon="6.1291">
        <ele>544.5</ele>
        <time>2025-02-09T14:14:41Z</time>
      </trkpt>
      <trkpt lat="43.74123" lon="6.12914">
        <ele>543.4</ele>
        <time>2025-02-09T14:14:49Z</time>
      </trkpt>
      <trkpt lat="43.74132" lon="6.12918">
        <ele>542.8</ele>
        <time>2025-02-09T14:14:57Z</time>
      </trkpt>
      <trkpt lat="43.74139" lon="6.12926">
        <ele>541.8</ele>
        <time>2025-02-09T14:15:06Z</time>
      </trkpt>
      <trkpt lat="43.74145" lon="6.12937">
        <ele>541.8</ele>
        <time>2025-02-09T14:15:14Z</time>
      </trkpt>
      <trkpt lat="43.7415" lon="6.12948">
        <ele>541.3</ele>
        <time>2025-02-09T14:15:23Z</time>
      </trkpt>
      <trkpt lat="43.74149" lon="6.1296">
        <ele>540.9</ele>
        <time>2025-02-09T14:15:33Z</time>
      </trkpt>
      <trkpt lat="43.74139" lon="6.1296">
        <ele>540.2</ele>
        <time>2025-02-09T14:15:46Z</time>
      </trkpt>
      <trkpt lat="43.74129" lon="6.12963">
        <ele>540.2</ele>
        <time>2025-02-09T14:15:54Z</time>
      </trkpt>
      <trkpt lat="43.7412" lon="6.12966">
        <ele>540.4</ele>
        <time>2025-02-09T14:16:03Z</time>
      </trkpt>
      <trkpt lat="43.74111" lon="6.1297">
        <ele>540.2</ele>
        <time>2025-02-09T14:16:13Z</time>
      </trkpt>
      <trkpt lat="43.74102" lon="6.12974">
        <ele>540.3</ele>
        <time>2025-02-09T14:16:23Z</time>
      </trkpt>
      <trkpt lat="43.74094" lon="6.12979">
        <ele>540</ele>
        <time>2025-02-09T14:16:31Z</time>
      </trkpt>
      <trkpt lat="43.74086" lon="6.12985">
        <ele>539.7</ele>
        <time>2025-02-09T14:16:39Z</time>
      </trkpt>
      <trkpt lat="43.74078" lon="6.12992">
        <ele>538.6</ele>
        <time>2025-02-09T14:16:48Z</time>
      </trkpt>
      <trkpt lat="43.74069" lon="6.12995">
        <ele>538</ele>
        <time>2025-02-09T14:16:55Z</time>
      </trkpt>
      <trkpt lat="43.7406" lon="6.12998">
        <ele>536.8</ele>
        <time>2025-02-09T14:17:05Z</time>
      </trkpt>
      <trkpt lat="43.7405" lon="6.13">
        <ele>535.8</ele>
        <time>2025-02-09T14:17:14Z</time>
      </trkpt>
      <trkpt lat="43.74041" lon="6.13005">
        <ele>535.3</ele>
        <time>2025-02-09T14:17:21Z</time>
      </trkpt>
      <trkpt lat="43.74032" lon="6.13005">
        <ele>534.8</ele>
        <time>2025-02-09T14:17:28Z</time>
      </trkpt>
      <trkpt lat="43.74023" lon="6.13011">
        <ele>534.9</ele>
        <time>2025-02-09T14:17:35Z</time>
      </trkpt>
      <trkpt lat="43.74014" lon="6.13018">
        <ele>534</ele>
        <time>2025-02-09T14:17:43Z</time>
      </trkpt>
      <trkpt lat="43.74005" lon="6.13021">
        <ele>533.4</ele>
        <time>2025-02-09T14:17:53Z</time>
      </trkpt>
      <trkpt lat="43.73996" lon="6.13025">
        <ele>533.6</ele>
        <time>2025-02-09T14:18:00Z</time>
      </trkpt>
      <trkpt lat="43.73989" lon="6.13033">
        <ele>533</ele>
        <time>2025-02-09T14:18:10Z</time>
      </trkpt>
      <trkpt lat="43.7398" lon="6.13036">
        <ele>532.8</ele>
        <time>2025-02-09T14:18:19Z</time>
      </trkpt>
      <trkpt lat="43.73971" lon="6.1304">
        <ele>533.4</ele>
        <time>2025-02-09T14:18:27Z</time>
      </trkpt>
      <trkpt lat="43.73961" lon="6.13044">
        <ele>532.3</ele>
        <time>2025-02-09T14:18:34Z</time>
      </trkpt>
      <trkpt lat="43.73952" lon="6.13048">
        <ele>531.8</ele>
        <time>2025-02-09T14:18:42Z</time>
      </trkpt>
      <trkpt lat="43.73943" lon="6.13051">
        <ele>531.3</ele>
        <time>2025-02-09T14:18:49Z</time>
      </trkpt>
      <trkpt lat="43.73934" lon="6.13054">
        <ele>530.7</ele>
        <time>2025-02-09T14:18:57Z</time>
      </trkpt>
      <trkpt lat="43.73924" lon="6.13056">
        <ele>529.5</ele>
        <time>2025-02-09T14:19:04Z</time>
      </trkpt>
      <trkpt lat="43.73914" lon="6.13056">
        <ele>528.1</ele>
        <time>2025-02-09T14:19:14Z</time>
      </trkpt>
      <trkpt lat="43.73905" lon="6.13054">
        <ele>526.7</ele>
        <time>2025-02-09T14:19:24Z</time>
      </trkpt>
      <trkpt lat="43.73895" lon="6.13055">
        <ele>526</ele>
        <time>2025-02-09T14:19:33Z</time>
      </trkpt>
      <trkpt lat="43.73886" lon="6.13057">
        <ele>526</ele>
        <time>2025-02-09T14:19:42Z</time>
      </trkpt>
      <trkpt lat="43.7388" lon="6.13067">
        <ele>525.5</ele>
        <time>2025-02-09T14:19:55Z</time>
      </trkpt>
      <trkpt lat="43.73883" lon="6.13075">
        <ele>521.9</ele>
        <time>2025-02-09T14:20:15Z</time>
      </trkpt>
      <trkpt lat="43.73884" lon="6.13075">
        <ele>521.7</ele>
        <time>2025-02-09T14:20:16Z</time>
      </trkpt>
      <trkpt lat="43.73881" lon="6.1308">
        <ele>520.1</ele>
        <time>2025-02-09T14:20:36Z</time>
      </trkpt>
      <trkpt lat="43.73881" lon="6.1308">
        <ele>520</ele>
        <time>2025-02-09T14:20:37Z</time>
      </trkpt>
      <trkpt lat="43.73883" lon="6.1308">
        <ele>520</ele>
        <time>2025-02-09T14:20:42Z</time>
      </trkpt>
      <trkpt lat="43.73883" lon="6.1308">
        <ele>520.1</ele>
        <time>2025-02-09T14:20:43Z</time>
      </trkpt>
      <trkpt lat="43.73876" lon="6.13073">
        <ele>517.2</ele>
        <time>2025-02-09T14:21:13Z</time>
      </trkpt>
      <trkpt lat="43.73867" lon="6.13066">
        <ele>515.3</ele>
        <time>2025-02-09T14:21:23Z</time>
      </trkpt>
      <trkpt lat="43.73858" lon="6.13064">
        <ele>514.3</ele>
        <time>2025-02-09T14:21:33Z</time>
      </trkpt>
      <trkpt lat="43.73848" lon="6.13062">
        <ele>514.2</ele>
        <time>2025-02-09T14:21:41Z</time>
      </trkpt>
      <trkpt lat="43.73838" lon="6.13067">
        <ele>513.6</ele>
        <time>2025-02-09T14:21:55Z</time>
      </trkpt>
      <trkpt lat="43.73833" lon="6.13078">
        <ele>513</ele>
        <time>2025-02-09T14:22:09Z</time>
      </trkpt>
      <trkpt lat="43.73824" lon="6.13079">
        <ele>511.7</ele>
        <time>2025-02-09T14:22:19Z</time>
      </trkpt>
      <trkpt lat="43.73819" lon="6.13081">
        <ele>511.2</ele>
        <time>2025-02-09T14:22:26Z</time>
      </trkpt>
      <trkpt lat="43.73819" lon="6.13081">
        <ele>511.2</ele>
        <time>2025-02-09T14:22:27Z</time>
      </trkpt>
      <trkpt lat="43.73817" lon="6.13085">
        <ele>510.8</ele>
        <time>2025-02-09T14:22:32Z</time>
      </trkpt>
      <trkpt lat="43.73816" lon="6.13085">
        <ele>510.6</ele>
        <time>2025-02-09T14:22:33Z</time>
      </trkpt>
      <trkpt lat="43.73808" lon="6.1308">
        <ele>509.5</ele>
        <time>2025-02-09T14:22:40Z</time>
      </trkpt>
      <trkpt lat="43.73799" lon="6.13082">
        <ele>507.5</ele>
        <time>2025-02-09T14:22:54Z</time>
      </trkpt>
      <trkpt lat="43.73789" lon="6.13087">
        <ele>507.1</ele>
        <time>2025-02-09T14:23:01Z</time>
      </trkpt>
      <trkpt lat="43.7378" lon="6.1309">
        <ele>506</ele>
        <time>2025-02-09T14:23:09Z</time>
      </trkpt>
      <trkpt lat="43.73771" lon="6.1309">
        <ele>505.1</ele>
        <time>2025-02-09T14:23:23Z</time>
      </trkpt>
      <trkpt lat="43.7377" lon="6.1309">
        <ele>505</ele>
        <time>2025-02-09T14:23:25Z</time>
      </trkpt>
      <trkpt lat="43.73769" lon="6.13089">
        <ele>505</ele>
        <time>2025-02-09T14:23:26Z</time>
      </trkpt>
      <trkpt lat="43.7376" lon="6.13091">
        <ele>506.2</ele>
        <time>2025-02-09T14:23:42Z</time>
      </trkpt>
      <trkpt lat="43.73751" lon="6.13089">
        <ele>507.1</ele>
        <time>2025-02-09T14:23:52Z</time>
      </trkpt>
      <trkpt lat="43.73743" lon="6.1308">
        <ele>504.6</ele>
        <time>2025-02-09T14:24:04Z</time>
      </trkpt>
      <trkpt lat="43.73736" lon="6.13071">
        <ele>503</ele>
        <time>2025-02-09T14:24:14Z</time>
      </trkpt>
      <trkpt lat="43.73729" lon="6.13062">
        <ele>500.2</ele>
        <time>2025-02-09T14:24:22Z</time>
      </trkpt>
      <trkpt lat="43.73728" lon="6.13048">
        <ele>496.7</ele>
        <time>2025-02-09T14:24:50Z</time>
      </trkpt>
      <trkpt lat="43.73728" lon="6.13035">
        <ele>495.5</ele>
        <time>2025-02-09T14:24:59Z</time>
      </trkpt>
      <trkpt lat="43.73727" lon="6.13031">
        <ele>495.2</ele>
        <time>2025-02-09T14:25:06Z</time>
      </trkpt>
      <trkpt lat="43.73727" lon="6.13031">
        <ele>495</ele>
        <time>2025-02-09T14:25:07Z</time>
      </trkpt>
      <trkpt lat="43.73736" lon="6.13033">
        <ele>494</ele>
        <time>2025-02-09T14:25:17Z</time>
      </trkpt>
      <trkpt lat="43.73734" lon="6.1302">
        <ele>494.8</ele>
        <time>2025-02-09T14:25:30Z</time>
      </trkpt>
      <trkpt lat="43.73726" lon="6.13014">
        <ele>493.9</ele>
        <time>2025-02-09T14:25:41Z</time>
      </trkpt>
      <trkpt lat="43.73719" lon="6.13004">
        <ele>491.4</ele>
        <time>2025-02-09T14:25:56Z</time>
      </trkpt>
      <trkpt lat="43.7371" lon="6.13">
        <ele>490.2</ele>
        <time>2025-02-09T14:26:07Z</time>
      </trkpt>
      <trkpt lat="43.7371" lon="6.13001">
        <ele>490.4</ele>
        <time>2025-02-09T14:26:10Z</time>
      </trkpt>
      <trkpt lat="43.73709" lon="6.13">
        <ele>490.3</ele>
        <time>2025-02-09T14:26:11Z</time>
      </trkpt>
      <trkpt lat="43.73711" lon="6.12997">
        <ele>488.9</ele>
        <time>2025-02-09T14:26:16Z</time>
      </trkpt>
      <trkpt lat="43.73711" lon="6.12996">
        <ele>489</ele>
        <time>2025-02-09T14:26:17Z</time>
      </trkpt>
      <trkpt lat="43.73711" lon="6.12996">
        <ele>489</ele>
        <time>2025-02-09T14:26:18Z</time>
      </trkpt>
      <trkpt lat="43.73711" lon="6.12996">
        <ele>489</ele>
        <time>2025-02-09T14:26:26Z</time>
      </trkpt>
      <trkpt lat="43.73711" lon="6.12996">
        <ele>489</ele>
        <time>2025-02-09T14:26:27Z</time>
      </trkpt>
      <trkpt lat="43.73711" lon="6.12995">
        <ele>488.6</ele>
        <time>2025-02-09T14:26:29Z</time>
      </trkpt>
      <trkpt lat="43.73715" lon="6.12991">
        <ele>485.5</ele>
        <time>2025-02-09T14:26:39Z</time>
      </trkpt>
      <trkpt lat="43.73715" lon="6.12991">
        <ele>485.3</ele>
        <time>2025-02-09T14:26:40Z</time>
      </trkpt>
      <trkpt lat="43.73714" lon="6.12978">
        <ele>482.8</ele>
        <time>2025-02-09T14:26:59Z</time>
      </trkpt>
      <trkpt lat="43.73714" lon="6.12977">
        <ele>482.7</ele>
        <time>2025-02-09T14:27:00Z</time>
      </trkpt>
      <trkpt lat="43.73714" lon="6.12976">
        <ele>482.7</ele>
        <time>2025-02-09T14:27:01Z</time>
      </trkpt>
      <trkpt lat="43.73712" lon="6.12963">
        <ele>481.6</ele>
        <time>2025-02-09T14:27:22Z</time>
      </trkpt>
      <trkpt lat="43.73714" lon="6.12954">
        <ele>478.5</ele>
        <time>2025-02-09T14:27:39Z</time>
      </trkpt>
      <trkpt lat="43.73714" lon="6.12953">
        <ele>478.5</ele>
        <time>2025-02-09T14:27:40Z</time>
      </trkpt>
      <trkpt lat="43.73716" lon="6.12941">
        <ele>478.3</ele>
        <time>2025-02-09T14:27:57Z</time>
      </trkpt>
      <trkpt lat="43.73718" lon="6.12928">
        <ele>475.5</ele>
        <time>2025-02-09T14:28:13Z</time>
      </trkpt>
      <trkpt lat="43.73719" lon="6.12919">
        <ele>471</ele>
        <time>2025-02-09T14:28:35Z</time>
      </trkpt>
      <trkpt lat="43.73719" lon="6.1292">
        <ele>470.9</ele>
        <time>2025-02-09T14:28:37Z</time>
      </trkpt>
      <trkpt lat="43.73716" lon="6.1292">
        <ele>469.9</ele>
        <time>2025-02-09T14:28:44Z</time>
      </trkpt>
      <trkpt lat="43.73716" lon="6.1292">
        <ele>469.9</ele>
        <time>2025-02-09T14:28:45Z</time>
      </trkpt>
      <trkpt lat="43.73717" lon="6.12917">
        <ele>469.6</ele>
        <time>2025-02-09T14:28:51Z</time>
      </trkpt>
      <trkpt lat="43.73717" lon="6.12918">
        <ele>469.5</ele>
        <time>2025-02-09T14:28:52Z</time>
      </trkpt>
      <trkpt lat="43.73726" lon="6.12913">
        <ele>468.3</ele>
        <time>2025-02-09T14:29:08Z</time>
      </trkpt>
      <trkpt lat="43.73732" lon="6.12902">
        <ele>467.5</ele>
        <time>2025-02-09T14:29:19Z</time>
      </trkpt>
      <trkpt lat="43.73733" lon="6.129">
        <ele>467.4</ele>
        <time>2025-02-09T14:29:23Z</time>
      </trkpt>
      <trkpt lat="43.73733" lon="6.129">
        <ele>467.4</ele>
        <time>2025-02-09T14:29:24Z</time>
      </trkpt>
      <trkpt lat="43.73735" lon="6.12898">
        <ele>465.8</ele>
        <time>2025-02-09T14:29:48Z</time>
      </trkpt>
      <trkpt lat="43.73735" lon="6.12897">
        <ele>465.7</ele>
        <time>2025-02-09T14:29:49Z</time>
      </trkpt>
      <trkpt lat="43.73736" lon="6.12885">
        <ele>465.9</ele>
        <time>2025-02-09T14:30:01Z</time>
      </trkpt>
      <trkpt lat="43.73738" lon="6.12873">
        <ele>466.6</ele>
        <time>2025-02-09T14:30:17Z</time>
      </trkpt>
      <trkpt lat="43.73741" lon="6.1286">
        <ele>462.4</ele>
        <time>2025-02-09T14:30:37Z</time>
      </trkpt>
      <trkpt lat="43.73749" lon="6.12854">
        <ele>458.6</ele>
        <time>2025-02-09T14:30:46Z</time>
      </trkpt>
      <trkpt lat="43.73745" lon="6.12846">
        <ele>457.7</ele>
        <time>2025-02-09T14:30:58Z</time>
      </trkpt>
      <trkpt lat="43.73745" lon="6.12846">
        <ele>457.7</ele>
        <time>2025-02-09T14:30:59Z</time>
      </trkpt>
      <trkpt lat="43.73746" lon="6.12846">
        <ele>457.9</ele>
        <time>2025-02-09T14:31:01Z</time>
      </trkpt>
      <trkpt lat="43.73746" lon="6.12846">
        <ele>458</ele>
        <time>2025-02-09T14:31:02Z</time>
      </trkpt>
      <trkpt lat="43.73753" lon="6.12837">
        <ele>455.5</ele>
        <time>2025-02-09T14:31:27Z</time>
      </trkpt>
      <trkpt lat="43.73747" lon="6.12826">
        <ele>454.2</ele>
        <time>2025-02-09T14:31:48Z</time>
      </trkpt>
      <trkpt lat="43.73755" lon="6.12818">
        <ele>453.5</ele>
        <time>2025-02-09T14:32:05Z</time>
      </trkpt>
      <trkpt lat="43.73761" lon="6.12807">
        <ele>453.4</ele>
        <time>2025-02-09T14:32:14Z</time>
      </trkpt>
      <trkpt lat="43.73752" lon="6.12799">
        <ele>453.3</ele>
        <time>2025-02-09T14:32:26Z</time>
      </trkpt>
      <trkpt lat="43.73741" lon="6.12799">
        <ele>451.7</ele>
        <time>2025-02-09T14:32:57Z</time>
      </trkpt>
      <trkpt lat="43.7375" lon="6.12795">
        <ele>452.3</ele>
        <time>2025-02-09T14:33:16Z</time>
      </trkpt>
      <trkpt lat="43.7376" lon="6.12788">
        <ele>448.9</ele>
        <time>2025-02-09T14:33:27Z</time>
      </trkpt>
      <trkpt lat="43.73756" lon="6.12776">
        <ele>442.9</ele>
        <time>2025-02-09T14:33:42Z</time>
      </trkpt>
      <trkpt lat="43.73759" lon="6.12773">
        <ele>441.2</ele>
        <time>2025-02-09T14:33:47Z</time>
      </trkpt>
      <trkpt lat="43.7376" lon="6.12773">
        <ele>441.1</ele>
        <time>2025-02-09T14:33:48Z</time>
      </trkpt>
      <trkpt lat="43.73762" lon="6.12775">
        <ele>441.8</ele>
        <time>2025-02-09T14:33:59Z</time>
      </trkpt>
      <trkpt lat="43.73762" lon="6.12775">
        <ele>441.9</ele>
        <time>2025-02-09T14:34:00Z</time>
      </trkpt>
      <trkpt lat="43.73766" lon="6.12782">
        <ele>440.8</ele>
        <time>2025-02-09T14:34:15Z</time>
      </trkpt>
      <trkpt lat="43.73766" lon="6.12782">
        <ele>440.7</ele>
        <time>2025-02-09T14:34:16Z</time>
      </trkpt>
      <trkpt lat="43.73766" lon="6.12782">
        <ele>440.5</ele>
        <time>2025-02-09T14:34:17Z</time>
      </trkpt>
      <trkpt lat="43.73766" lon="6.12782">
        <ele>440.5</ele>
        <time>2025-02-09T14:34:18Z</time>
      </trkpt>
      <trkpt lat="43.73766" lon="6.12782">
        <ele>440.5</ele>
        <time>2025-02-09T14:34:19Z</time>
      </trkpt>
      <trkpt lat="43.73766" lon="6.12782">
        <ele>440.5</ele>
        <time>2025-02-09T14:34:20Z</time>
      </trkpt>
      <trkpt lat="43.73759" lon="6.12782">
        <ele>443.9</ele>
        <time>2025-02-09T14:34:55Z</time>
      </trkpt>
      <trkpt lat="43.73758" lon="6.12782">
        <ele>443.9</ele>
        <time>2025-02-09T14:34:56Z</time>
      </trkpt>
      <trkpt lat="43.73759" lon="6.12782">
        <ele>443.7</ele>
        <time>2025-02-09T14:34:58Z</time>
      </trkpt>
      <trkpt lat="43.73758" lon="6.12782">
        <ele>443.7</ele>
        <time>2025-02-09T14:34:59Z</time>
      </trkpt>
      <trkpt lat="43.7376" lon="6.12773">
        <ele>443.1</ele>
        <time>2025-02-09T14:35:12Z</time>
      </trkpt>
      <trkpt lat="43.73759" lon="6.12773">
        <ele>442.9</ele>
        <time>2025-02-09T14:35:13Z</time>
      </trkpt>
      <trkpt lat="43.73756" lon="6.12767">
        <ele>441.4</ele>
        <time>2025-02-09T14:35:24Z</time>
      </trkpt>
      <trkpt lat="43.73756" lon="6.12766">
        <ele>441.3</ele>
        <time>2025-02-09T14:35:25Z</time>
      </trkpt>
      <trkpt lat="43.73758" lon="6.12768">
        <ele>440.6</ele>
        <time>2025-02-09T14:35:46Z</time>
      </trkpt>
      <trkpt lat="43.73758" lon="6.12769">
        <ele>440.6</ele>
        <time>2025-02-09T14:35:48Z</time>
      </trkpt>
      <trkpt lat="43.7375" lon="6.12772">
        <ele>441.6</ele>
        <time>2025-02-09T14:36:11Z</time>
      </trkpt>
      <trkpt lat="43.73751" lon="6.12773">
        <ele>441.9</ele>
        <time>2025-02-09T14:36:12Z</time>
      </trkpt>
      <trkpt lat="43.73749" lon="6.12773">
        <ele>441.3</ele>
        <time>2025-02-09T14:36:21Z</time>
      </trkpt>
      <trkpt lat="43.73749" lon="6.12773">
        <ele>440.9</ele>
        <time>2025-02-09T14:36:22Z</time>
      </trkpt>
      <trkpt lat="43.73746" lon="6.12769">
        <ele>438.2</ele>
        <time>2025-02-09T14:36:37Z</time>
      </trkpt>
      <trkpt lat="43.73746" lon="6.12769">
        <ele>438</ele>
        <time>2025-02-09T14:36:41Z</time>
      </trkpt>
      <trkpt lat="43.73746" lon="6.12771">
        <ele>437.8</ele>
        <time>2025-02-09T14:36:43Z</time>
      </trkpt>
      <trkpt lat="43.73747" lon="6.12771">
        <ele>437.7</ele>
        <time>2025-02-09T14:36:54Z</time>
      </trkpt>
      <trkpt lat="43.73748" lon="6.12769">
        <ele>436.4</ele>
        <time>2025-02-09T14:37:00Z</time>
      </trkpt>
      <trkpt lat="43.73748" lon="6.1277">
        <ele>436.3</ele>
        <time>2025-02-09T14:37:03Z</time>
      </trkpt>
      <trkpt lat="43.73748" lon="6.1277">
        <ele>436.6</ele>
        <time>2025-02-09T14:37:17Z</time>
      </trkpt>
      <trkpt lat="43.73748" lon="6.1277">
        <ele>436.7</ele>
        <time>2025-02-09T14:37:18Z</time>
      </trkpt>
      <trkpt lat="43.7375" lon="6.12775">
        <ele>439.8</ele>
        <time>2025-02-09T14:37:26Z</time>
      </trkpt>
      <trkpt lat="43.7375" lon="6.12775">
        <ele>440</ele>
        <time>2025-02-09T14:37:33Z</time>
      </trkpt>
      <trkpt lat="43.73752" lon="6.12788">
        <ele>446.7</ele>
        <time>2025-02-09T14:37:55Z</time>
      </trkpt>
      <trkpt lat="43.73756" lon="6.12799">
        <ele>447.5</ele>
        <time>2025-02-09T14:38:11Z</time>
      </trkpt>
      <trkpt lat="43.73747" lon="6.12796">
        <ele>447.4</ele>
        <time>2025-02-09T14:38:31Z</time>
      </trkpt>
      <trkpt lat="43.73747" lon="6.128">
        <ele>447.7</ele>
        <time>2025-02-09T14:38:33Z</time>
      </trkpt>
      <trkpt lat="43.73747" lon="6.128">
        <ele>447.7</ele>
        <time>2025-02-09T14:38:34Z</time>
      </trkpt>
      <trkpt lat="43.73762" lon="6.12793">
        <ele>437.6</ele>
        <time>2025-02-09T14:40:56Z</time>
      </trkpt>
      <trkpt lat="43.73761" lon="6.12795">
        <ele>435.5</ele>
        <time>2025-02-09T14:41:01Z</time>
      </trkpt>
      <trkpt lat="43.73761" lon="6.12808">
        <ele>440.9</ele>
        <time>2025-02-09T14:41:08Z</time>
      </trkpt>
      <trkpt lat="43.73756" lon="6.12808">
        <ele>448.9</ele>
        <time>2025-02-09T14:41:20Z</time>
      </trkpt>
      <trkpt lat="43.73751" lon="6.12809">
        <ele>457</ele>
        <time>2025-02-09T14:41:21Z</time>
      </trkpt>
      <trkpt lat="43.73745" lon="6.1282">
        <ele>467.6</ele>
        <time>2025-02-09T14:41:29Z</time>
      </trkpt>
      <trkpt lat="43.73746" lon="6.12833">
        <ele>459.8</ele>
        <time>2025-02-09T14:41:42Z</time>
      </trkpt>
      <trkpt lat="43.73746" lon="6.12845">
        <ele>456.2</ele>
        <time>2025-02-09T14:41:54Z</time>
      </trkpt>
      <trkpt lat="43.73747" lon="6.12852">
        <ele>456.3</ele>
        <time>2025-02-09T14:42:10Z</time>
      </trkpt>
      <trkpt lat="43.73747" lon="6.12853">
        <ele>456.4</ele>
        <time>2025-02-09T14:42:11Z</time>
      </trkpt>
      <trkpt lat="43.73748" lon="6.12856">
        <ele>457.1</ele>
        <time>2025-02-09T14:42:21Z</time>
      </trkpt>
      <trkpt lat="43.73748" lon="6.12856">
        <ele>457.1</ele>
        <time>2025-02-09T14:42:22Z</time>
      </trkpt>
      <trkpt lat="43.73748" lon="6.12856">
        <ele>456.9</ele>
        <time>2025-02-09T14:42:25Z</time>
      </trkpt>
      <trkpt lat="43.73747" lon="6.12856">
        <ele>456.9</ele>
        <time>2025-02-09T14:42:26Z</time>
      </trkpt>
      <trkpt lat="43.7374" lon="6.12846">
        <ele>470</ele>
        <time>2025-02-09T14:43:31Z</time>
      </trkpt>
      <trkpt lat="43.73743" lon="6.12856">
        <ele>461.5</ele>
        <time>2025-02-09T14:43:46Z</time>
      </trkpt>
      <trkpt lat="43.73743" lon="6.12856">
        <ele>461.4</ele>
        <time>2025-02-09T14:43:49Z</time>
      </trkpt>
      <trkpt lat="43.73741" lon="6.12858">
        <ele>461.7</ele>
        <time>2025-02-09T14:44:00Z</time>
      </trkpt>
      <trkpt lat="43.7374" lon="6.12858">
        <ele>461.8</ele>
        <time>2025-02-09T14:44:07Z</time>
      </trkpt>
      <trkpt lat="43.7374" lon="6.12858">
        <ele>461.8</ele>
        <time>2025-02-09T14:44:08Z</time>
      </trkpt>
      <trkpt lat="43.7374" lon="6.12858">
        <ele>461.8</ele>
        <time>2025-02-09T14:44:12Z</time>
      </trkpt>
      <trkpt lat="43.7374" lon="6.12858">
        <ele>461.8</ele>
        <time>2025-02-09T14:44:13Z</time>
      </trkpt>
      <trkpt lat="43.7374" lon="6.12858">
        <ele>461.6</ele>
        <time>2025-02-09T14:44:18Z</time>
      </trkpt>
      <trkpt lat="43.7374" lon="6.12858">
        <ele>461.6</ele>
        <time>2025-02-09T14:44:19Z</time>
      </trkpt>
      <trkpt lat="43.7374" lon="6.12858">
        <ele>461.6</ele>
        <time>2025-02-09T14:44:26Z</time>
      </trkpt>
      <trkpt lat="43.7374" lon="6.12858">
        <ele>461.6</ele>
        <time>2025-02-09T14:44:27Z</time>
      </trkpt>
      <trkpt lat="43.73739" lon="6.12857">
        <ele>461.8</ele>
        <time>2025-02-09T14:44:29Z</time>
      </trkpt>
      <trkpt lat="43.73737" lon="6.12855">
        <ele>463.5</ele>
        <time>2025-02-09T14:44:35Z</time>
      </trkpt>
      <trkpt lat="43.73737" lon="6.12855">
        <ele>463.6</ele>
        <time>2025-02-09T14:44:36Z</time>
      </trkpt>
      <trkpt lat="43.73737" lon="6.1286">
        <ele>463</ele>
        <time>2025-02-09T14:44:47Z</time>
      </trkpt>
      <trkpt lat="43.73738" lon="6.12859">
        <ele>463.1</ele>
        <time>2025-02-09T14:44:50Z</time>
      </trkpt>
      <trkpt lat="43.7374" lon="6.12864">
        <ele>461.8</ele>
        <time>2025-02-09T14:45:01Z</time>
      </trkpt>
      <trkpt lat="43.7374" lon="6.12864">
        <ele>461.8</ele>
        <time>2025-02-09T14:45:13Z</time>
      </trkpt>
      <trkpt lat="43.7374" lon="6.12864">
        <ele>461.8</ele>
        <time>2025-02-09T14:45:14Z</time>
      </trkpt>
      <trkpt lat="43.7374" lon="6.12865">
        <ele>461.7</ele>
        <time>2025-02-09T14:45:21Z</time>
      </trkpt>
      <trkpt lat="43.7374" lon="6.12867">
        <ele>461.1</ele>
        <time>2025-02-09T14:45:25Z</time>
      </trkpt>
      <trkpt lat="43.7374" lon="6.12868">
        <ele>460.8</ele>
        <time>2025-02-09T14:45:39Z</time>
      </trkpt>
      <trkpt lat="43.73739" lon="6.12867">
        <ele>460.3</ele>
        <time>2025-02-09T14:45:46Z</time>
      </trkpt>
      <trkpt lat="43.73739" lon="6.12867">
        <ele>460.3</ele>
        <time>2025-02-09T14:45:49Z</time>
      </trkpt>
      <trkpt lat="43.73739" lon="6.12867">
        <ele>460.3</ele>
        <time>2025-02-09T14:45:50Z</time>
      </trkpt>
      <trkpt lat="43.73739" lon="6.12867">
        <ele>460.2</ele>
        <time>2025-02-09T14:45:52Z</time>
      </trkpt>
      <trkpt lat="43.73739" lon="6.12867">
        <ele>460.2</ele>
        <time>2025-02-09T14:45:53Z</time>
      </trkpt>
      <trkpt lat="43.73739" lon="6.12867">
        <ele>460.1</ele>
        <time>2025-02-09T14:45:54Z</time>
      </trkpt>
      <trkpt lat="43.73738" lon="6.12868">
        <ele>460</ele>
        <time>2025-02-09T14:46:03Z</time>
      </trkpt>
      <trkpt lat="43.73737" lon="6.12868">
        <ele>459.9</ele>
        <time>2025-02-09T14:46:04Z</time>
      </trkpt>
      <trkpt lat="43.73737" lon="6.12868">
        <ele>459.9</ele>
        <time>2025-02-09T14:46:05Z</time>
      </trkpt>
      <trkpt lat="43.73738" lon="6.12868">
        <ele>459.9</ele>
        <time>2025-02-09T14:46:06Z</time>
      </trkpt>
      <trkpt lat="43.73738" lon="6.12868">
        <ele>459.9</ele>
        <time>2025-02-09T14:46:07Z</time>
      </trkpt>
      <trkpt lat="43.73737" lon="6.12869">
        <ele>459.9</ele>
        <time>2025-02-09T14:46:09Z</time>
      </trkpt>
      <trkpt lat="43.73736" lon="6.12869">
        <ele>460</ele>
        <time>2025-02-09T14:46:13Z</time>
      </trkpt>
      <trkpt lat="43.73736" lon="6.1287">
        <ele>460</ele>
        <time>2025-02-09T14:46:14Z</time>
      </trkpt>
      <trkpt lat="43.73735" lon="6.1287">
        <ele>459.9</ele>
        <time>2025-02-09T14:46:18Z</time>
      </trkpt>
      <trkpt lat="43.73735" lon="6.12869">
        <ele>459.9</ele>
        <time>2025-02-09T14:46:19Z</time>
      </trkpt>
      <trkpt lat="43.73735" lon="6.12869">
        <ele>460.2</ele>
        <time>2025-02-09T14:46:23Z</time>
      </trkpt>
      <trkpt lat="43.73735" lon="6.1287">
        <ele>460.2</ele>
        <time>2025-02-09T14:46:35Z</time>
      </trkpt>
      <trkpt lat="43.73736" lon="6.12875">
        <ele>460.1</ele>
        <time>2025-02-09T14:47:09Z</time>
      </trkpt>
      <trkpt lat="43.73736" lon="6.12875">
        <ele>460</ele>
        <time>2025-02-09T14:47:10Z</time>
      </trkpt>
      <trkpt lat="43.73735" lon="6.12869">
        <ele>459.9</ele>
        <time>2025-02-09T14:47:15Z</time>
      </trkpt>
      <trkpt lat="43.73735" lon="6.12869">
        <ele>459.8</ele>
        <time>2025-02-09T14:47:16Z</time>
      </trkpt>
      <trkpt lat="43.73735" lon="6.12869">
        <ele>459.6</ele>
        <time>2025-02-09T14:47:19Z</time>
      </trkpt>
      <trkpt lat="43.73735" lon="6.12869">
        <ele>459.6</ele>
        <time>2025-02-09T14:47:23Z</time>
      </trkpt>
      <trkpt lat="43.73734" lon="6.1287">
        <ele>459.9</ele>
        <time>2025-02-09T14:47:27Z</time>
      </trkpt>
      <trkpt lat="43.73735" lon="6.1287">
        <ele>460.3</ele>
        <time>2025-02-09T14:47:29Z</time>
      </trkpt>
      <trkpt lat="43.73734" lon="6.1287">
        <ele>460.4</ele>
        <time>2025-02-09T14:47:31Z</time>
      </trkpt>
      <trkpt lat="43.73735" lon="6.1287">
        <ele>460.4</ele>
        <time>2025-02-09T14:47:32Z</time>
      </trkpt>
      <trkpt lat="43.73735" lon="6.1287">
        <ele>460.4</ele>
        <time>2025-02-09T14:47:33Z</time>
      </trkpt>
      <trkpt lat="43.73734" lon="6.12869">
        <ele>460.2</ele>
        <time>2025-02-09T14:47:36Z</time>
      </trkpt>
      <trkpt lat="43.73734" lon="6.12868">
        <ele>459.9</ele>
        <time>2025-02-09T14:47:43Z</time>
      </trkpt>
      <trkpt lat="43.73734" lon="6.12868">
        <ele>459.9</ele>
        <time>2025-02-09T14:47:44Z</time>
      </trkpt>
      <trkpt lat="43.73735" lon="6.12868">
        <ele>460.1</ele>
        <time>2025-02-09T14:47:47Z</time>
      </trkpt>
      <trkpt lat="43.73735" lon="6.12868">
        <ele>460.1</ele>
        <time>2025-02-09T14:47:48Z</time>
      </trkpt>
      <trkpt lat="43.73735" lon="6.12868">
        <ele>460</ele>
        <time>2025-02-09T14:47:49Z</time>
      </trkpt>
      <trkpt lat="43.73735" lon="6.12868">
        <ele>460.2</ele>
        <time>2025-02-09T14:47:50Z</time>
      </trkpt>
      <trkpt lat="43.73739" lon="6.12872">
        <ele>461.1</ele>
        <time>2025-02-09T14:48:07Z</time>
      </trkpt>
      <trkpt lat="43.73738" lon="6.12872">
        <ele>461.1</ele>
        <time>2025-02-09T14:48:11Z</time>
      </trkpt>
      <trkpt lat="43.73738" lon="6.12872">
        <ele>461.1</ele>
        <time>2025-02-09T14:48:12Z</time>
      </trkpt>
      <trkpt lat="43.73738" lon="6.12873">
        <ele>461.3</ele>
        <time>2025-02-09T14:48:13Z</time>
      </trkpt>
      <trkpt lat="43.73738" lon="6.12874">
        <ele>461.6</ele>
        <time>2025-02-09T14:48:15Z</time>
      </trkpt>
      <trkpt lat="43.73738" lon="6.12874">
        <ele>461.5</ele>
        <time>2025-02-09T14:48:16Z</time>
      </trkpt>
      <trkpt lat="43.73737" lon="6.1287">
        <ele>461.6</ele>
        <time>2025-02-09T14:48:27Z</time>
      </trkpt>
      <trkpt lat="43.73736" lon="6.12869">
        <ele>461.8</ele>
        <time>2025-02-09T14:48:32Z</time>
      </trkpt>
      <trkpt lat="43.73736" lon="6.12869">
        <ele>461.9</ele>
        <time>2025-02-09T14:48:38Z</time>
      </trkpt>
      <trkpt lat="43.73737" lon="6.12869">
        <ele>462</ele>
        <time>2025-02-09T14:48:43Z</time>
      </trkpt>
      <trkpt lat="43.73737" lon="6.12869">
        <ele>461.8</ele>
        <time>2025-02-09T14:48:46Z</time>
      </trkpt>
      <trkpt lat="43.73738" lon="6.12869">
        <ele>461.9</ele>
        <time>2025-02-09T14:48:51Z</time>
      </trkpt>
      <trkpt lat="43.73738" lon="6.12869">
        <ele>462.1</ele>
        <time>2025-02-09T14:48:52Z</time>
      </trkpt>
      <trkpt lat="43.73738" lon="6.12868">
        <ele>462.6</ele>
        <time>2025-02-09T14:48:53Z</time>
      </trkpt>
      <trkpt lat="43.73746" lon="6.1287">
        <ele>462.8</ele>
        <time>2025-02-09T14:49:13Z</time>
      </trkpt>
      <trkpt lat="43.73746" lon="6.1287">
        <ele>462.9</ele>
        <time>2025-02-09T14:49:16Z</time>
      </trkpt>
      <trkpt lat="43.73746" lon="6.1287">
        <ele>462.9</ele>
        <time>2025-02-09T14:49:18Z</time>
      </trkpt>
      <trkpt lat="43.73746" lon="6.1287">
        <ele>463</ele>
        <time>2025-02-09T14:49:19Z</time>
      </trkpt>
      <trkpt lat="43.73746" lon="6.12869">
        <ele>463.1</ele>
        <time>2025-02-09T14:49:21Z</time>
      </trkpt>
      <trkpt lat="43.73746" lon="6.12869">
        <ele>463.1</ele>
        <time>2025-02-09T14:49:22Z</time>
      </trkpt>
      <trkpt lat="43.73747" lon="6.1287">
        <ele>463.3</ele>
        <time>2025-02-09T14:49:26Z</time>
      </trkpt>
      <trkpt lat="43.73747" lon="6.12869">
        <ele>463.4</ele>
        <time>2025-02-09T14:49:27Z</time>
      </trkpt>
      <trkpt lat="43.73747" lon="6.12869">
        <ele>463.3</ele>
        <time>2025-02-09T14:49:30Z</time>
      </trkpt>
      <trkpt lat="43.73747" lon="6.12869">
        <ele>463.2</ele>
        <time>2025-02-09T14:49:32Z</time>
      </trkpt>
      <trkpt lat="43.73745" lon="6.12867">
        <ele>461.9</ele>
        <time>2025-02-09T14:49:44Z</time>
      </trkpt>
      <trkpt lat="43.73745" lon="6.12866">
        <ele>461.9</ele>
        <time>2025-02-09T14:49:46Z</time>
      </trkpt>
      <trkpt lat="43.73744" lon="6.12866">
        <ele>462.5</ele>
        <time>2025-02-09T14:49:49Z</time>
      </trkpt>
      <trkpt lat="43.73744" lon="6.12866">
        <ele>462.5</ele>
        <time>2025-02-09T14:49:50Z</time>
      </trkpt>
      <trkpt lat="43.73744" lon="6.12861">
        <ele>461.4</ele>
        <time>2025-02-09T14:50:01Z</time>
      </trkpt>
      <trkpt lat="43.73744" lon="6.12861">
        <ele>461.4</ele>
        <time>2025-02-09T14:50:03Z</time>
      </trkpt>
      <trkpt lat="43.73744" lon="6.12861">
        <ele>461.4</ele>
        <time>2025-02-09T14:50:04Z</time>
      </trkpt>
      <trkpt lat="43.73744" lon="6.12861">
        <ele>461.4</ele>
        <time>2025-02-09T14:50:05Z</time>
      </trkpt>
      <trkpt lat="43.73743" lon="6.1286">
        <ele>461.2</ele>
        <time>2025-02-09T14:50:09Z</time>
      </trkpt>
      <trkpt lat="43.73743" lon="6.1286">
        <ele>461.1</ele>
        <time>2025-02-09T14:50:13Z</time>
      </trkpt>
      <trkpt lat="43.73743" lon="6.12861">
        <ele>461.1</ele>
        <time>2025-02-09T14:50:15Z</time>
      </trkpt>
      <trkpt lat="43.73743" lon="6.12861">
        <ele>461.1</ele>
        <time>2025-02-09T14:50:16Z</time>
      </trkpt>
      <trkpt lat="43.73743" lon="6.12861">
        <ele>461.2</ele>
        <time>2025-02-09T14:50:18Z</time>
      </trkpt>
      <trkpt lat="43.73743" lon="6.12862">
        <ele>461</ele>
        <time>2025-02-09T14:50:19Z</time>
      </trkpt>
      <trkpt lat="43.73743" lon="6.12862">
        <ele>460.8</ele>
        <time>2025-02-09T14:50:22Z</time>
      </trkpt>
      <trkpt lat="43.73743" lon="6.12862">
        <ele>461</ele>
        <time>2025-02-09T14:50:30Z</time>
      </trkpt>
      <trkpt lat="43.73742" lon="6.12863">
        <ele>461</ele>
        <time>2025-02-09T14:50:36Z</time>
      </trkpt>
      <trkpt lat="43.73742" lon="6.12863">
        <ele>461</ele>
        <time>2025-02-09T14:50:37Z</time>
      </trkpt>
      <trkpt lat="43.73742" lon="6.12863">
        <ele>461</ele>
        <time>2025-02-09T14:50:38Z</time>
      </trkpt>
      <trkpt lat="43.73741" lon="6.12863">
        <ele>461.2</ele>
        <time>2025-02-09T14:50:40Z</time>
      </trkpt>
      <trkpt lat="43.73741" lon="6.12863">
        <ele>461.3</ele>
        <time>2025-02-09T14:50:41Z</time>
      </trkpt>
      <trkpt lat="43.73741" lon="6.12863">
        <ele>461.3</ele>
        <time>2025-02-09T14:50:43Z</time>
      </trkpt>
      <trkpt lat="43.73741" lon="6.12864">
        <ele>461</ele>
        <time>2025-02-09T14:50:46Z</time>
      </trkpt>
      <trkpt lat="43.73741" lon="6.12864">
        <ele>461</ele>
        <time>2025-02-09T14:50:50Z</time>
      </trkpt>
      <trkpt lat="43.73741" lon="6.12864">
        <ele>461</ele>
        <time>2025-02-09T14:50:51Z</time>
      </trkpt>
      <trkpt lat="43.73741" lon="6.12865">
        <ele>460.9</ele>
        <time>2025-02-09T14:50:52Z</time>
      </trkpt>
      <trkpt lat="43.73741" lon="6.12865">
        <ele>460.9</ele>
        <time>2025-02-09T14:50:53Z</time>
      </trkpt>
      <trkpt lat="43.73741" lon="6.12865">
        <ele>460.9</ele>
        <time>2025-02-09T14:50:57Z</time>
      </trkpt>
      <trkpt lat="43.73741" lon="6.12865">
        <ele>460.9</ele>
        <time>2025-02-09T14:50:58Z</time>
      </trkpt>
      <trkpt lat="43.7374" lon="6.12865">
        <ele>461</ele>
        <time>2025-02-09T14:50:59Z</time>
      </trkpt>
      <trkpt lat="43.7374" lon="6.12865">
        <ele>461</ele>
        <time>2025-02-09T14:51:00Z</time>
      </trkpt>
      <trkpt lat="43.73741" lon="6.12865">
        <ele>460.9</ele>
        <time>2025-02-09T14:51:01Z</time>
      </trkpt>
      <trkpt lat="43.73741" lon="6.12865">
        <ele>460.9</ele>
        <time>2025-02-09T14:51:02Z</time>
      </trkpt>
      <trkpt lat="43.7374" lon="6.12865">
        <ele>461.1</ele>
        <time>2025-02-09T14:51:04Z</time>
      </trkpt>
      <trkpt lat="43.7374" lon="6.12865">
        <ele>461.2</ele>
        <time>2025-02-09T14:51:05Z</time>
      </trkpt>
      <trkpt lat="43.7374" lon="6.12866">
        <ele>460.8</ele>
        <time>2025-02-09T14:51:16Z</time>
      </trkpt>
      <trkpt lat="43.7374" lon="6.12866">
        <ele>460.5</ele>
        <time>2025-02-09T14:51:20Z</time>
      </trkpt>
      <trkpt lat="43.7374" lon="6.12866">
        <ele>460.5</ele>
        <time>2025-02-09T14:51:22Z</time>
      </trkpt>
      <trkpt lat="43.73739" lon="6.12866">
        <ele>460</ele>
        <time>2025-02-09T14:51:26Z</time>
      </trkpt>
      <trkpt lat="43.73739" lon="6.12866">
        <ele>460.2</ele>
        <time>2025-02-09T14:51:28Z</time>
      </trkpt>
      <trkpt lat="43.73738" lon="6.12866">
        <ele>460.2</ele>
        <time>2025-02-09T14:51:32Z</time>
      </trkpt>
      <trkpt lat="43.73738" lon="6.12866">
        <ele>460.1</ele>
        <time>2025-02-09T14:51:33Z</time>
      </trkpt>
      <trkpt lat="43.73738" lon="6.12869">
        <ele>458.9</ele>
        <time>2025-02-09T14:51:46Z</time>
      </trkpt>
      <trkpt lat="43.73738" lon="6.12869">
        <ele>458.8</ele>
        <time>2025-02-09T14:51:53Z</time>
      </trkpt>
      <trkpt lat="43.73741" lon="6.12873">
        <ele>456.3</ele>
        <time>2025-02-09T14:52:09Z</time>
      </trkpt>
      <trkpt lat="43.73741" lon="6.12874">
        <ele>456.4</ele>
        <time>2025-02-09T14:52:10Z</time>
      </trkpt>
      <trkpt lat="43.73741" lon="6.12873">
        <ele>456.5</ele>
        <time>2025-02-09T14:52:12Z</time>
      </trkpt>
      <trkpt lat="43.73741" lon="6.12872">
        <ele>456.5</ele>
        <time>2025-02-09T14:52:13Z</time>
      </trkpt>
      <trkpt lat="43.73742" lon="6.12874">
        <ele>455.9</ele>
        <time>2025-02-09T14:52:20Z</time>
      </trkpt>
      <trkpt lat="43.73742" lon="6.12875">
        <ele>455.6</ele>
        <time>2025-02-09T14:52:22Z</time>
      </trkpt>
      <trkpt lat="43.73742" lon="6.12875">
        <ele>455.5</ele>
        <time>2025-02-09T14:52:23Z</time>
      </trkpt>
      <trkpt lat="43.73742" lon="6.12875">
        <ele>455.4</ele>
        <time>2025-02-09T14:52:24Z</time>
      </trkpt>
      <trkpt lat="43.73741" lon="6.12872">
        <ele>455</ele>
        <time>2025-02-09T14:52:36Z</time>
      </trkpt>
      <trkpt lat="43.73741" lon="6.12872">
        <ele>455.1</ele>
        <time>2025-02-09T14:52:38Z</time>
      </trkpt>
      <trkpt lat="43.73739" lon="6.12872">
        <ele>455.2</ele>
        <time>2025-02-09T14:52:44Z</time>
      </trkpt>
      <trkpt lat="43.73739" lon="6.12872">
        <ele>455</ele>
        <time>2025-02-09T14:52:49Z</time>
      </trkpt>
      <trkpt lat="43.73739" lon="6.12872">
        <ele>455.1</ele>
        <time>2025-02-09T14:52:50Z</time>
      </trkpt>
      <trkpt lat="43.73739" lon="6.12872">
        <ele>455.2</ele>
        <time>2025-02-09T14:52:51Z</time>
      </trkpt>
      <trkpt lat="43.73741" lon="6.12872">
        <ele>454.7</ele>
        <time>2025-02-09T14:52:58Z</time>
      </trkpt>
      <trkpt lat="43.7374" lon="6.12872">
        <ele>454.8</ele>
        <time>2025-02-09T14:52:59Z</time>
      </trkpt>
      <trkpt lat="43.7374" lon="6.12872">
        <ele>454.8</ele>
        <time>2025-02-09T14:53:00Z</time>
      </trkpt>
      <trkpt lat="43.7374" lon="6.12872">
        <ele>455</ele>
        <time>2025-02-09T14:53:02Z</time>
      </trkpt>
      <trkpt lat="43.73735" lon="6.12883">
        <ele>452.6</ele>
        <time>2025-02-09T14:53:36Z</time>
      </trkpt>
      <trkpt lat="43.73732" lon="6.12895">
        <ele>454.6</ele>
        <time>2025-02-09T14:54:00Z</time>
      </trkpt>
      <trkpt lat="43.73731" lon="6.12896">
        <ele>456.5</ele>
        <time>2025-02-09T14:54:05Z</time>
      </trkpt>
      <trkpt lat="43.73731" lon="6.12896">
        <ele>456.3</ele>
        <time>2025-02-09T14:54:06Z</time>
      </trkpt>
      <trkpt lat="43.73726" lon="6.12904">
        <ele>458</ele>
        <time>2025-02-09T14:54:23Z</time>
      </trkpt>
      <trkpt lat="43.73726" lon="6.12904">
        <ele>457.7</ele>
        <time>2025-02-09T14:54:24Z</time>
      </trkpt>
      <trkpt lat="43.73727" lon="6.12906">
        <ele>457.4</ele>
        <time>2025-02-09T14:54:28Z</time>
      </trkpt>
      <trkpt lat="43.73727" lon="6.12907">
        <ele>457.2</ele>
        <time>2025-02-09T14:54:30Z</time>
      </trkpt>
      <trkpt lat="43.73727" lon="6.12911">
        <ele>458.7</ele>
        <time>2025-02-09T14:54:38Z</time>
      </trkpt>
      <trkpt lat="43.73727" lon="6.12911">
        <ele>458.9</ele>
        <time>2025-02-09T14:54:41Z</time>
      </trkpt>
      <trkpt lat="43.73727" lon="6.12911">
        <ele>459</ele>
        <time>2025-02-09T14:54:42Z</time>
      </trkpt>
      <trkpt lat="43.73727" lon="6.12911">
        <ele>459.1</ele>
        <time>2025-02-09T14:54:44Z</time>
      </trkpt>
      <trkpt lat="43.73727" lon="6.12911">
        <ele>459.2</ele>
        <time>2025-02-09T14:54:47Z</time>
      </trkpt>
      <trkpt lat="43.73727" lon="6.12911">
        <ele>459.2</ele>
        <time>2025-02-09T14:54:48Z</time>
      </trkpt>
      <trkpt lat="43.73726" lon="6.12911">
        <ele>459.4</ele>
        <time>2025-02-09T14:54:59Z</time>
      </trkpt>
      <trkpt lat="43.73726" lon="6.12911">
        <ele>459.5</ele>
        <time>2025-02-09T14:55:00Z</time>
      </trkpt>
      <trkpt lat="43.73728" lon="6.12899">
        <ele>463.3</ele>
        <time>2025-02-09T14:55:46Z</time>
      </trkpt>
      <trkpt lat="43.73728" lon="6.12899">
        <ele>463.3</ele>
        <time>2025-02-09T14:55:47Z</time>
      </trkpt>
      <trkpt lat="43.73728" lon="6.12899">
        <ele>463.3</ele>
        <time>2025-02-09T14:55:48Z</time>
      </trkpt>
      <trkpt lat="43.73729" lon="6.12899">
        <ele>463.2</ele>
        <time>2025-02-09T14:55:49Z</time>
      </trkpt>
      <trkpt lat="43.73725" lon="6.12906">
        <ele>465</ele>
        <time>2025-02-09T14:55:57Z</time>
      </trkpt>
      <trkpt lat="43.73724" lon="6.12905">
        <ele>465.1</ele>
        <time>2025-02-09T14:56:06Z</time>
      </trkpt>
      <trkpt lat="43.73722" lon="6.12908">
        <ele>465</ele>
        <time>2025-02-09T14:56:18Z</time>
      </trkpt>
      <trkpt lat="43.73723" lon="6.12908">
        <ele>465.1</ele>
        <time>2025-02-09T14:56:19Z</time>
      </trkpt>
      <trkpt lat="43.73723" lon="6.12908">
        <ele>465.2</ele>
        <time>2025-02-09T14:56:21Z</time>
      </trkpt>
      <trkpt lat="43.73723" lon="6.12909">
        <ele>465.6</ele>
        <time>2025-02-09T14:56:23Z</time>
      </trkpt>
      <trkpt lat="43.73723" lon="6.12909">
        <ele>465.6</ele>
        <time>2025-02-09T14:56:25Z</time>
      </trkpt>
      <trkpt lat="43.73723" lon="6.12909">
        <ele>465.6</ele>
        <time>2025-02-09T14:56:26Z</time>
      </trkpt>
      <trkpt lat="43.73724" lon="6.1291">
        <ele>465.3</ele>
        <time>2025-02-09T14:56:35Z</time>
      </trkpt>
      <trkpt lat="43.73724" lon="6.1291">
        <ele>465.4</ele>
        <time>2025-02-09T14:56:40Z</time>
      </trkpt>
      <trkpt lat="43.73725" lon="6.1291">
        <ele>465.5</ele>
        <time>2025-02-09T14:56:45Z</time>
      </trkpt>
      <trkpt lat="43.73725" lon="6.1291">
        <ele>465.7</ele>
        <time>2025-02-09T14:56:48Z</time>
      </trkpt>
      <trkpt lat="43.73725" lon="6.1291">
        <ele>465.8</ele>
        <time>2025-02-09T14:56:51Z</time>
      </trkpt>
      <trkpt lat="43.73725" lon="6.1291">
        <ele>465.9</ele>
        <time>2025-02-09T14:56:58Z</time>
      </trkpt>
      <trkpt lat="43.73725" lon="6.1291">
        <ele>466</ele>
        <time>2025-02-09T14:56:59Z</time>
      </trkpt>
      <trkpt lat="43.73725" lon="6.1291">
        <ele>466.1</ele>
        <time>2025-02-09T14:57:00Z</time>
      </trkpt>
      <trkpt lat="43.73723" lon="6.1291">
        <ele>465.9</ele>
        <time>2025-02-09T14:57:14Z</time>
      </trkpt>
      <trkpt lat="43.73722" lon="6.12911">
        <ele>465.9</ele>
        <time>2025-02-09T14:57:15Z</time>
      </trkpt>
      <trkpt lat="43.73722" lon="6.12912">
        <ele>465.7</ele>
        <time>2025-02-09T14:57:24Z</time>
      </trkpt>
      <trkpt lat="43.73722" lon="6.12912">
        <ele>465.7</ele>
        <time>2025-02-09T14:57:26Z</time>
      </trkpt>
      <trkpt lat="43.73719" lon="6.12916">
        <ele>465.3</ele>
        <time>2025-02-09T14:57:39Z</time>
      </trkpt>
      <trkpt lat="43.73719" lon="6.12917">
        <ele>465.3</ele>
        <time>2025-02-09T14:57:49Z</time>
      </trkpt>
      <trkpt lat="43.73721" lon="6.12917">
        <ele>465.2</ele>
        <time>2025-02-09T14:57:57Z</time>
      </trkpt>
      <trkpt lat="43.73721" lon="6.12917">
        <ele>465.3</ele>
        <time>2025-02-09T14:58:03Z</time>
      </trkpt>
      <trkpt lat="43.73723" lon="6.12916">
        <ele>465.3</ele>
        <time>2025-02-09T14:58:08Z</time>
      </trkpt>
      <trkpt lat="43.73723" lon="6.12916">
        <ele>465.3</ele>
        <time>2025-02-09T14:58:09Z</time>
      </trkpt>
      <trkpt lat="43.73723" lon="6.12915">
        <ele>465.2</ele>
        <time>2025-02-09T14:58:11Z</time>
      </trkpt>
      <trkpt lat="43.73723" lon="6.12916">
        <ele>465.2</ele>
        <time>2025-02-09T14:58:12Z</time>
      </trkpt>
      <trkpt lat="43.73724" lon="6.12916">
        <ele>465.5</ele>
        <time>2025-02-09T14:58:18Z</time>
      </trkpt>
      <trkpt lat="43.73724" lon="6.12916">
        <ele>465.5</ele>
        <time>2025-02-09T14:58:19Z</time>
      </trkpt>
      <trkpt lat="43.73724" lon="6.12919">
        <ele>465.5</ele>
        <time>2025-02-09T14:58:24Z</time>
      </trkpt>
      <trkpt lat="43.73724" lon="6.12919">
        <ele>465.5</ele>
        <time>2025-02-09T14:58:26Z</time>
      </trkpt>
      <trkpt lat="43.73716" lon="6.12914">
        <ele>468</ele>
        <time>2025-02-09T14:58:54Z</time>
      </trkpt>
      <trkpt lat="43.73713" lon="6.12927">
        <ele>466.8</ele>
        <time>2025-02-09T14:59:11Z</time>
      </trkpt>
      <trkpt lat="43.7371" lon="6.12938">
        <ele>467</ele>
        <time>2025-02-09T14:59:25Z</time>
      </trkpt>
      <trkpt lat="43.73709" lon="6.12951">
        <ele>467.3</ele>
        <time>2025-02-09T14:59:43Z</time>
      </trkpt>
      <trkpt lat="43.73708" lon="6.12964">
        <ele>469.2</ele>
        <time>2025-02-09T15:00:00Z</time>
      </trkpt>
      <trkpt lat="43.7371" lon="6.12976">
        <ele>471</ele>
        <time>2025-02-09T15:00:13Z</time>
      </trkpt>
      <trkpt lat="43.73715" lon="6.12988">
        <ele>476.3</ele>
        <time>2025-02-09T15:00:34Z</time>
      </trkpt>
      <trkpt lat="43.73718" lon="6.13001">
        <ele>480.3</ele>
        <time>2025-02-09T15:00:56Z</time>
      </trkpt>
      <trkpt lat="43.73726" lon="6.13005">
        <ele>481</ele>
        <time>2025-02-09T15:01:07Z</time>
      </trkpt>
      <trkpt lat="43.73723" lon="6.13019">
        <ele>482.6</ele>
        <time>2025-02-09T15:01:32Z</time>
      </trkpt>
      <trkpt lat="43.73719" lon="6.1303">
        <ele>484.2</ele>
        <time>2025-02-09T15:01:44Z</time>
      </trkpt>
      <trkpt lat="43.73722" lon="6.13042">
        <ele>484.4</ele>
        <time>2025-02-09T15:01:53Z</time>
      </trkpt>
      <trkpt lat="43.73726" lon="6.13053">
        <ele>486.6</ele>
        <time>2025-02-09T15:02:08Z</time>
      </trkpt>
      <trkpt lat="43.73728" lon="6.13061">
        <ele>488.2</ele>
        <time>2025-02-09T15:02:19Z</time>
      </trkpt>
      <trkpt lat="43.73728" lon="6.13061">
        <ele>488.3</ele>
        <time>2025-02-09T15:02:21Z</time>
      </trkpt>
      <trkpt lat="43.73728" lon="6.13063">
        <ele>489.4</ele>
        <time>2025-02-09T15:02:24Z</time>
      </trkpt>
      <trkpt lat="43.73728" lon="6.13063">
        <ele>489.4</ele>
        <time>2025-02-09T15:02:25Z</time>
      </trkpt>
      <trkpt lat="43.73728" lon="6.13063">
        <ele>489.5</ele>
        <time>2025-02-09T15:02:26Z</time>
      </trkpt>
      <trkpt lat="43.73728" lon="6.13063">
        <ele>489.7</ele>
        <time>2025-02-09T15:02:27Z</time>
      </trkpt>
      <trkpt lat="43.73728" lon="6.13062">
        <ele>490.4</ele>
        <time>2025-02-09T15:02:31Z</time>
      </trkpt>
      <trkpt lat="43.73728" lon="6.13062">
        <ele>490.4</ele>
        <time>2025-02-09T15:02:32Z</time>
      </trkpt>
      <trkpt lat="43.73728" lon="6.13062">
        <ele>490.4</ele>
        <time>2025-02-09T15:02:33Z</time>
      </trkpt>
      <trkpt lat="43.73728" lon="6.13063">
        <ele>490.5</ele>
        <time>2025-02-09T15:02:35Z</time>
      </trkpt>
      <trkpt lat="43.73733" lon="6.13074">
        <ele>490.4</ele>
        <time>2025-02-09T15:02:52Z</time>
      </trkpt>
      <trkpt lat="43.73741" lon="6.1308">
        <ele>490.8</ele>
        <time>2025-02-09T15:03:04Z</time>
      </trkpt>
      <trkpt lat="43.7375" lon="6.13084">
        <ele>489.7</ele>
        <time>2025-02-09T15:03:17Z</time>
      </trkpt>
      <trkpt lat="43.73759" lon="6.13089">
        <ele>489.8</ele>
        <time>2025-02-09T15:03:29Z</time>
      </trkpt>
      <trkpt lat="43.73767" lon="6.13096">
        <ele>490.2</ele>
        <time>2025-02-09T15:03:43Z</time>
      </trkpt>
      <trkpt lat="43.73776" lon="6.13097">
        <ele>488.4</ele>
        <time>2025-02-09T15:03:52Z</time>
      </trkpt>
      <trkpt lat="43.73785" lon="6.13093">
        <ele>488.8</ele>
        <time>2025-02-09T15:04:06Z</time>
      </trkpt>
      <trkpt lat="43.73795" lon="6.13091">
        <ele>490.3</ele>
        <time>2025-02-09T15:04:20Z</time>
      </trkpt>
      <trkpt lat="43.73804" lon="6.13091">
        <ele>490.6</ele>
        <time>2025-02-09T15:04:34Z</time>
      </trkpt>
      <trkpt lat="43.73813" lon="6.13088">
        <ele>492.2</ele>
        <time>2025-02-09T15:04:48Z</time>
      </trkpt>
      <trkpt lat="43.73822" lon="6.13083">
        <ele>492.9</ele>
        <time>2025-02-09T15:04:59Z</time>
      </trkpt>
      <trkpt lat="43.7383" lon="6.13082">
        <ele>492.8</ele>
        <time>2025-02-09T15:05:08Z</time>
      </trkpt>
      <trkpt lat="43.73831" lon="6.13082">
        <ele>492.8</ele>
        <time>2025-02-09T15:05:09Z</time>
      </trkpt>
      <trkpt lat="43.73839" lon="6.13076">
        <ele>493.5</ele>
        <time>2025-02-09T15:05:21Z</time>
      </trkpt>
      <trkpt lat="43.73848" lon="6.13076">
        <ele>494.1</ele>
        <time>2025-02-09T15:05:33Z</time>
      </trkpt>
      <trkpt lat="43.73851" lon="6.13076">
        <ele>494.3</ele>
        <time>2025-02-09T15:05:38Z</time>
      </trkpt>
      <trkpt lat="43.73851" lon="6.13077">
        <ele>494.5</ele>
        <time>2025-02-09T15:05:39Z</time>
      </trkpt>
      <trkpt lat="43.7386" lon="6.13073">
        <ele>495.3</ele>
        <time>2025-02-09T15:05:50Z</time>
      </trkpt>
      <trkpt lat="43.73869" lon="6.13075">
        <ele>496.9</ele>
        <time>2025-02-09T15:06:00Z</time>
      </trkpt>
      <trkpt lat="43.73873" lon="6.13076">
        <ele>497.7</ele>
        <time>2025-02-09T15:06:08Z</time>
      </trkpt>
      <trkpt lat="43.73873" lon="6.13076">
        <ele>497.9</ele>
        <time>2025-02-09T15:06:09Z</time>
      </trkpt>
      <trkpt lat="43.73877" lon="6.13077">
        <ele>499.2</ele>
        <time>2025-02-09T15:06:19Z</time>
      </trkpt>
      <trkpt lat="43.73878" lon="6.13077">
        <ele>499.3</ele>
        <time>2025-02-09T15:06:20Z</time>
      </trkpt>
      <trkpt lat="43.73878" lon="6.13081">
        <ele>499.9</ele>
        <time>2025-02-09T15:06:27Z</time>
      </trkpt>
      <trkpt lat="43.73878" lon="6.13081">
        <ele>500</ele>
        <time>2025-02-09T15:06:34Z</time>
      </trkpt>
      <trkpt lat="43.73878" lon="6.13081">
        <ele>500.1</ele>
        <time>2025-02-09T15:06:35Z</time>
      </trkpt>
      <trkpt lat="43.73878" lon="6.1308">
        <ele>500.4</ele>
        <time>2025-02-09T15:06:37Z</time>
      </trkpt>
      <trkpt lat="43.73878" lon="6.1308">
        <ele>501.1</ele>
        <time>2025-02-09T15:06:39Z</time>
      </trkpt>
      <trkpt lat="43.73878" lon="6.1308">
        <ele>500.9</ele>
        <time>2025-02-09T15:06:42Z</time>
      </trkpt>
      <trkpt lat="43.73878" lon="6.1308">
        <ele>500.8</ele>
        <time>2025-02-09T15:06:43Z</time>
      </trkpt>
      <trkpt lat="43.73877" lon="6.1308">
        <ele>500.9</ele>
        <time>2025-02-09T15:06:50Z</time>
      </trkpt>
      <trkpt lat="43.73878" lon="6.13085">
        <ele>501.7</ele>
        <time>2025-02-09T15:06:58Z</time>
      </trkpt>
      <trkpt lat="43.73878" lon="6.13085">
        <ele>501.8</ele>
        <time>2025-02-09T15:06:59Z</time>
      </trkpt>
      <trkpt lat="43.73878" lon="6.13085">
        <ele>501.8</ele>
        <time>2025-02-09T15:07:00Z</time>
      </trkpt>
      <trkpt lat="43.73878" lon="6.13085">
        <ele>501.8</ele>
        <time>2025-02-09T15:07:01Z</time>
      </trkpt>
      <trkpt lat="43.73878" lon="6.13085">
        <ele>501.8</ele>
        <time>2025-02-09T15:07:02Z</time>
      </trkpt>
      <trkpt lat="43.73878" lon="6.13085">
        <ele>502</ele>
        <time>2025-02-09T15:07:05Z</time>
      </trkpt>
      <trkpt lat="43.73876" lon="6.13098">
        <ele>503.6</ele>
        <time>2025-02-09T15:07:17Z</time>
      </trkpt>
      <trkpt lat="43.73873" lon="6.1311">
        <ele>504.6</ele>
        <time>2025-02-09T15:07:28Z</time>
      </trkpt>
      <trkpt lat="43.73871" lon="6.13122">
        <ele>506.8</ele>
        <time>2025-02-09T15:07:43Z</time>
      </trkpt>
      <trkpt lat="43.73867" lon="6.13134">
        <ele>509.8</ele>
        <time>2025-02-09T15:07:57Z</time>
      </trkpt>
      <trkpt lat="43.73862" lon="6.13146">
        <ele>512.2</ele>
        <time>2025-02-09T15:08:10Z</time>
      </trkpt>
      <trkpt lat="43.73857" lon="6.13156">
        <ele>513.6</ele>
        <time>2025-02-09T15:08:22Z</time>
      </trkpt>
      <trkpt lat="43.7385" lon="6.13166">
        <ele>516.1</ele>
        <time>2025-02-09T15:08:34Z</time>
      </trkpt>
      <trkpt lat="43.73843" lon="6.13175">
        <ele>517.8</ele>
        <time>2025-02-09T15:08:45Z</time>
      </trkpt>
      <trkpt lat="43.73837" lon="6.13184">
        <ele>518.1</ele>
        <time>2025-02-09T15:08:54Z</time>
      </trkpt>
      <trkpt lat="43.7383" lon="6.13194">
        <ele>520.2</ele>
        <time>2025-02-09T15:09:05Z</time>
      </trkpt>
      <trkpt lat="43.73827" lon="6.13206">
        <ele>522</ele>
        <time>2025-02-09T15:09:15Z</time>
      </trkpt>
      <trkpt lat="43.73826" lon="6.13219">
        <ele>522.5</ele>
        <time>2025-02-09T15:09:25Z</time>
      </trkpt>
      <trkpt lat="43.73824" lon="6.13232">
        <ele>524.7</ele>
        <time>2025-02-09T15:09:37Z</time>
      </trkpt>
      <trkpt lat="43.73824" lon="6.13245">
        <ele>525.8</ele>
        <time>2025-02-09T15:09:48Z</time>
      </trkpt>
      <trkpt lat="43.73825" lon="6.13259">
        <ele>527.3</ele>
        <time>2025-02-09T15:09:59Z</time>
      </trkpt>
      <trkpt lat="43.73825" lon="6.13271">
        <ele>528.9</ele>
        <time>2025-02-09T15:10:11Z</time>
      </trkpt>
      <trkpt lat="43.73827" lon="6.13277">
        <ele>530.1</ele>
        <time>2025-02-09T15:10:27Z</time>
      </trkpt>
      <trkpt lat="43.73827" lon="6.13277">
        <ele>530.1</ele>
        <time>2025-02-09T15:10:28Z</time>
      </trkpt>
      <trkpt lat="43.73827" lon="6.13277">
        <ele>530.1</ele>
        <time>2025-02-09T15:10:30Z</time>
      </trkpt>
      <trkpt lat="43.73827" lon="6.13278">
        <ele>530.2</ele>
        <time>2025-02-09T15:10:37Z</time>
      </trkpt>
      <trkpt lat="43.73831" lon="6.1329">
        <ele>534.4</ele>
        <time>2025-02-09T15:10:58Z</time>
      </trkpt>
      <trkpt lat="43.73827" lon="6.13301">
        <ele>535.7</ele>
        <time>2025-02-09T15:11:13Z</time>
      </trkpt>
      <trkpt lat="43.73827" lon="6.13304">
        <ele>535.4</ele>
        <time>2025-02-09T15:11:19Z</time>
      </trkpt>
      <trkpt lat="43.73828" lon="6.13304">
        <ele>535.4</ele>
        <time>2025-02-09T15:11:23Z</time>
      </trkpt>
      <trkpt lat="43.73828" lon="6.13304">
        <ele>535.3</ele>
        <time>2025-02-09T15:11:25Z</time>
      </trkpt>
      <trkpt lat="43.73828" lon="6.13305">
        <ele>535.3</ele>
        <time>2025-02-09T15:11:26Z</time>
      </trkpt>
      <trkpt lat="43.73829" lon="6.13311">
        <ele>534.8</ele>
        <time>2025-02-09T15:11:35Z</time>
      </trkpt>
      <trkpt lat="43.73829" lon="6.13311">
        <ele>534.8</ele>
        <time>2025-02-09T15:11:36Z</time>
      </trkpt>
      <trkpt lat="43.7383" lon="6.13324">
        <ele>535.4</ele>
        <time>2025-02-09T15:11:47Z</time>
      </trkpt>
      <trkpt lat="43.7383" lon="6.13337">
        <ele>535.9</ele>
        <time>2025-02-09T15:11:58Z</time>
      </trkpt>
      <trkpt lat="43.73834" lon="6.13349">
        <ele>536.9</ele>
        <time>2025-02-09T15:12:12Z</time>
      </trkpt>
      <trkpt lat="43.73832" lon="6.13363">
        <ele>537.6</ele>
        <time>2025-02-09T15:12:23Z</time>
      </trkpt>
      <trkpt lat="43.73831" lon="6.13376">
        <ele>538.3</ele>
        <time>2025-02-09T15:12:33Z</time>
      </trkpt>
      <trkpt lat="43.73828" lon="6.13388">
        <ele>539.7</ele>
        <time>2025-02-09T15:12:44Z</time>
      </trkpt>
      <trkpt lat="43.73827" lon="6.13392">
        <ele>540.1</ele>
        <time>2025-02-09T15:12:52Z</time>
      </trkpt>
      <trkpt lat="43.73827" lon="6.13392">
        <ele>540.2</ele>
        <time>2025-02-09T15:12:54Z</time>
      </trkpt>
      <trkpt lat="43.73826" lon="6.13398">
        <ele>540.4</ele>
        <time>2025-02-09T15:13:01Z</time>
      </trkpt>
      <trkpt lat="43.73826" lon="6.13398">
        <ele>540.5</ele>
        <time>2025-02-09T15:13:04Z</time>
      </trkpt>
      <trkpt lat="43.73827" lon="6.13412">
        <ele>541.5</ele>
        <time>2025-02-09T15:13:14Z</time>
      </trkpt>
      <trkpt lat="43.73827" lon="6.13425">
        <ele>542.3</ele>
        <time>2025-02-09T15:13:24Z</time>
      </trkpt>
      <trkpt lat="43.73826" lon="6.13438">
        <ele>543.3</ele>
        <time>2025-02-09T15:13:38Z</time>
      </trkpt>
      <trkpt lat="43.73827" lon="6.1345">
        <ele>544.1</ele>
        <time>2025-02-09T15:13:49Z</time>
      </trkpt>
      <trkpt lat="43.73827" lon="6.13463">
        <ele>544</ele>
        <time>2025-02-09T15:14:00Z</time>
      </trkpt>
      <trkpt lat="43.73827" lon="6.13467">
        <ele>544.2</ele>
        <time>2025-02-09T15:14:05Z</time>
      </trkpt>
      <trkpt lat="43.73827" lon="6.13468">
        <ele>544.2</ele>
        <time>2025-02-09T15:14:07Z</time>
      </trkpt>
      <trkpt lat="43.73828" lon="6.1348">
        <ele>544.7</ele>
        <time>2025-02-09T15:14:18Z</time>
      </trkpt>
      <trkpt lat="43.73832" lon="6.13492">
        <ele>544.9</ele>
        <time>2025-02-09T15:14:29Z</time>
      </trkpt>
      <trkpt lat="43.73834" lon="6.13506">
        <ele>545.1</ele>
        <time>2025-02-09T15:14:42Z</time>
      </trkpt>
      <trkpt lat="43.73836" lon="6.13513">
        <ele>546.2</ele>
        <time>2025-02-09T15:14:53Z</time>
      </trkpt>
      <trkpt lat="43.73836" lon="6.13513">
        <ele>546.1</ele>
        <time>2025-02-09T15:14:59Z</time>
      </trkpt>
      <trkpt lat="43.73837" lon="6.13514">
        <ele>546</ele>
        <time>2025-02-09T15:15:03Z</time>
      </trkpt>
      <trkpt lat="43.73837" lon="6.13515">
        <ele>545.9</ele>
        <time>2025-02-09T15:15:05Z</time>
      </trkpt>
      <trkpt lat="43.73837" lon="6.13517">
        <ele>546</ele>
        <time>2025-02-09T15:15:10Z</time>
      </trkpt>
      <trkpt lat="43.73837" lon="6.13517">
        <ele>545.9</ele>
        <time>2025-02-09T15:15:11Z</time>
      </trkpt>
      <trkpt lat="43.7384" lon="6.13527">
        <ele>544.8</ele>
        <time>2025-02-09T15:15:23Z</time>
      </trkpt>
      <trkpt lat="43.7384" lon="6.13528">
        <ele>544.7</ele>
        <time>2025-02-09T15:15:29Z</time>
      </trkpt>
      <trkpt lat="43.73842" lon="6.1354">
        <ele>545</ele>
        <time>2025-02-09T15:15:39Z</time>
      </trkpt>
      <trkpt lat="43.73847" lon="6.13552">
        <ele>545.4</ele>
        <time>2025-02-09T15:15:49Z</time>
      </trkpt>
      <trkpt lat="43.7385" lon="6.13564">
        <ele>544.5</ele>
        <time>2025-02-09T15:15:58Z</time>
      </trkpt>
      <trkpt lat="43.73856" lon="6.13575">
        <ele>545</ele>
        <time>2025-02-09T15:16:12Z</time>
      </trkpt>
      <trkpt lat="43.73863" lon="6.13583">
        <ele>545</ele>
        <time>2025-02-09T15:16:21Z</time>
      </trkpt>
      <trkpt lat="43.73864" lon="6.13597">
        <ele>545</ele>
        <time>2025-02-09T15:16:31Z</time>
      </trkpt>
      <trkpt lat="43.73866" lon="6.13609">
        <ele>544.9</ele>
        <time>2025-02-09T15:16:41Z</time>
      </trkpt>
      <trkpt lat="43.73858" lon="6.13616">
        <ele>542.1</ele>
        <time>2025-02-09T15:17:07Z</time>
      </trkpt>
      <trkpt lat="43.73859" lon="6.13629">
        <ele>541.1</ele>
        <time>2025-02-09T15:17:17Z</time>
      </trkpt>
      <trkpt lat="43.73859" lon="6.13632">
        <ele>540.6</ele>
        <time>2025-02-09T15:17:22Z</time>
      </trkpt>
      <trkpt lat="43.73859" lon="6.13633">
        <ele>540.5</ele>
        <time>2025-02-09T15:17:25Z</time>
      </trkpt>
      <trkpt lat="43.7386" lon="6.13641">
        <ele>539.4</ele>
        <time>2025-02-09T15:17:37Z</time>
      </trkpt>
      <trkpt lat="43.7386" lon="6.13641">
        <ele>539.3</ele>
        <time>2025-02-09T15:17:38Z</time>
      </trkpt>
      <trkpt lat="43.73861" lon="6.13642">
        <ele>538.7</ele>
        <time>2025-02-09T15:17:41Z</time>
      </trkpt>
      <trkpt lat="43.7386" lon="6.13642">
        <ele>538.7</ele>
        <time>2025-02-09T15:17:45Z</time>
      </trkpt>
      <trkpt lat="43.73853" lon="6.13641">
        <ele>536.7</ele>
        <time>2025-02-09T15:18:06Z</time>
      </trkpt>
      <trkpt lat="43.73853" lon="6.13641">
        <ele>536.6</ele>
        <time>2025-02-09T15:18:07Z</time>
      </trkpt>
      <trkpt lat="43.73853" lon="6.13643">
        <ele>536.1</ele>
        <time>2025-02-09T15:18:13Z</time>
      </trkpt>
      <trkpt lat="43.73853" lon="6.13644">
        <ele>535.8</ele>
        <time>2025-02-09T15:18:26Z</time>
      </trkpt>
      <trkpt lat="43.73853" lon="6.13644">
        <ele>535.6</ele>
        <time>2025-02-09T15:18:27Z</time>
      </trkpt>
      <trkpt lat="43.73853" lon="6.13644">
        <ele>535.3</ele>
        <time>2025-02-09T15:18:28Z</time>
      </trkpt>
      <trkpt lat="43.73853" lon="6.13644">
        <ele>535.2</ele>
        <time>2025-02-09T15:18:29Z</time>
      </trkpt>
      <trkpt lat="43.73852" lon="6.13645">
        <ele>535</ele>
        <time>2025-02-09T15:18:36Z</time>
      </trkpt>
      <trkpt lat="43.73852" lon="6.13645">
        <ele>535</ele>
        <time>2025-02-09T15:18:37Z</time>
      </trkpt>
      <trkpt lat="43.73852" lon="6.13645">
        <ele>534.7</ele>
        <time>2025-02-09T15:19:03Z</time>
      </trkpt>
      <trkpt lat="43.73852" lon="6.13646">
        <ele>534.5</ele>
        <time>2025-02-09T15:19:05Z</time>
      </trkpt>
      <trkpt lat="43.73852" lon="6.13646">
        <ele>533.9</ele>
        <time>2025-02-09T15:19:27Z</time>
      </trkpt>
      <trkpt lat="43.73852" lon="6.13646">
        <ele>533.9</ele>
        <time>2025-02-09T15:19:29Z</time>
      </trkpt>
      <trkpt lat="43.73852" lon="6.13646">
        <ele>533.8</ele>
        <time>2025-02-09T15:19:32Z</time>
      </trkpt>
      <trkpt lat="43.73852" lon="6.13646">
        <ele>533.8</ele>
        <time>2025-02-09T15:19:33Z</time>
      </trkpt>
      <trkpt lat="43.73852" lon="6.13646">
        <ele>533.6</ele>
        <time>2025-02-09T15:20:11Z</time>
      </trkpt>
      <trkpt lat="43.73852" lon="6.13646">
        <ele>533.5</ele>
        <time>2025-02-09T15:20:12Z</time>
      </trkpt>
      <trkpt lat="43.73852" lon="6.13646">
        <ele>533.5</ele>
        <time>2025-02-09T15:20:17Z</time>
      </trkpt>
      <trkpt lat="43.73852" lon="6.13646">
        <ele>533.5</ele>
        <time>2025-02-09T15:20:18Z</time>
      </trkpt>
      <trkpt lat="43.73852" lon="6.13646">
        <ele>533.4</ele>
        <time>2025-02-09T15:20:19Z</time>
      </trkpt>
      <trkpt lat="43.73843" lon="6.1365">
        <ele>532.1</ele>
        <time>2025-02-09T15:20:38Z</time>
      </trkpt>
      <trkpt lat="43.73842" lon="6.13652">
        <ele>531.8</ele>
        <time>2025-02-09T15:20:42Z</time>
      </trkpt>
      <trkpt lat="43.73842" lon="6.13653">
        <ele>531.6</ele>
        <time>2025-02-09T15:20:47Z</time>
      </trkpt>
      <trkpt lat="43.73842" lon="6.13653">
        <ele>531.4</ele>
        <time>2025-02-09T15:20:50Z</time>
      </trkpt>
      <trkpt lat="43.73842" lon="6.13653">
        <ele>531.2</ele>
        <time>2025-02-09T15:20:51Z</time>
      </trkpt>
      <trkpt lat="43.73833" lon="6.13656">
        <ele>528.6</ele>
        <time>2025-02-09T15:21:13Z</time>
      </trkpt>
      <trkpt lat="43.73825" lon="6.13663">
        <ele>526.8</ele>
        <time>2025-02-09T15:21:28Z</time>
      </trkpt>
      <trkpt lat="43.73824" lon="6.13671">
        <ele>524</ele>
        <time>2025-02-09T15:21:41Z</time>
      </trkpt>
      <trkpt lat="43.73824" lon="6.13671">
        <ele>523.9</ele>
        <time>2025-02-09T15:21:42Z</time>
      </trkpt>
      <trkpt lat="43.73825" lon="6.13681">
        <ele>522.9</ele>
        <time>2025-02-09T15:21:53Z</time>
      </trkpt>
      <trkpt lat="43.73825" lon="6.13681">
        <ele>522.9</ele>
        <time>2025-02-09T15:21:54Z</time>
      </trkpt>
      <trkpt lat="43.73822" lon="6.13693">
        <ele>520.6</ele>
        <time>2025-02-09T15:22:14Z</time>
      </trkpt>
      <trkpt lat="43.7382" lon="6.13705">
        <ele>520.3</ele>
        <time>2025-02-09T15:22:25Z</time>
      </trkpt>
      <trkpt lat="43.73823" lon="6.13718">
        <ele>519.5</ele>
        <time>2025-02-09T15:22:36Z</time>
      </trkpt>
      <trkpt lat="43.73828" lon="6.13729">
        <ele>518.1</ele>
        <time>2025-02-09T15:22:49Z</time>
      </trkpt>
      <trkpt lat="43.73832" lon="6.1374">
        <ele>517.9</ele>
        <time>2025-02-09T15:23:01Z</time>
      </trkpt>
      <trkpt lat="43.73839" lon="6.1375">
        <ele>518.2</ele>
        <time>2025-02-09T15:23:11Z</time>
      </trkpt>
      <trkpt lat="43.73847" lon="6.13755">
        <ele>518.5</ele>
        <time>2025-02-09T15:23:20Z</time>
      </trkpt>
      <trkpt lat="43.73855" lon="6.13762">
        <ele>518.4</ele>
        <time>2025-02-09T15:23:29Z</time>
      </trkpt>
      <trkpt lat="43.73859" lon="6.13766">
        <ele>518.7</ele>
        <time>2025-02-09T15:23:36Z</time>
      </trkpt>
      <trkpt lat="43.73859" lon="6.13766">
        <ele>518.7</ele>
        <time>2025-02-09T15:23:37Z</time>
      </trkpt>
      <trkpt lat="43.73859" lon="6.13766">
        <ele>518.7</ele>
        <time>2025-02-09T15:23:40Z</time>
      </trkpt>
      <trkpt lat="43.73859" lon="6.13767">
        <ele>518.5</ele>
        <time>2025-02-09T15:23:41Z</time>
      </trkpt>
      <trkpt lat="43.73858" lon="6.13779">
        <ele>517.6</ele>
        <time>2025-02-09T15:23:53Z</time>
      </trkpt>
      <trkpt lat="43.73858" lon="6.1378">
        <ele>517.3</ele>
        <time>2025-02-09T15:23:56Z</time>
      </trkpt>
      <trkpt lat="43.73858" lon="6.1378">
        <ele>517.2</ele>
        <time>2025-02-09T15:23:57Z</time>
      </trkpt>
      <trkpt lat="43.73858" lon="6.1378">
        <ele>516.9</ele>
        <time>2025-02-09T15:23:59Z</time>
      </trkpt>
      <trkpt lat="43.73857" lon="6.1378">
        <ele>516.8</ele>
        <time>2025-02-09T15:24:00Z</time>
      </trkpt>
      <trkpt lat="43.73853" lon="6.13783">
        <ele>516.5</ele>
        <time>2025-02-09T15:24:11Z</time>
      </trkpt>
      <trkpt lat="43.73853" lon="6.13784">
        <ele>516.2</ele>
        <time>2025-02-09T15:24:13Z</time>
      </trkpt>
      <trkpt lat="43.73853" lon="6.13784">
        <ele>515.9</ele>
        <time>2025-02-09T15:24:15Z</time>
      </trkpt>
      <trkpt lat="43.73853" lon="6.13783">
        <ele>516</ele>
        <time>2025-02-09T15:24:16Z</time>
      </trkpt>
      <trkpt lat="43.73846" lon="6.13792">
        <ele>513.5</ele>
        <time>2025-02-09T15:24:39Z</time>
      </trkpt>
      <trkpt lat="43.73846" lon="6.13805">
        <ele>513.5</ele>
        <time>2025-02-09T15:24:51Z</time>
      </trkpt>
      <trkpt lat="43.73848" lon="6.13817">
        <ele>513.5</ele>
        <time>2025-02-09T15:25:00Z</time>
      </trkpt>
      <trkpt lat="43.73848" lon="6.13824">
        <ele>512.8</ele>
        <time>2025-02-09T15:25:10Z</time>
      </trkpt>
      <trkpt lat="43.73848" lon="6.13824">
        <ele>512.7</ele>
        <time>2025-02-09T15:25:11Z</time>
      </trkpt>
      <trkpt lat="43.73849" lon="6.13837">
        <ele>511.1</ele>
        <time>2025-02-09T15:25:22Z</time>
      </trkpt>
      <trkpt lat="43.7385" lon="6.13839">
        <ele>510.4</ele>
        <time>2025-02-09T15:25:27Z</time>
      </trkpt>
      <trkpt lat="43.7385" lon="6.13839">
        <ele>510.6</ele>
        <time>2025-02-09T15:25:28Z</time>
      </trkpt>
      <trkpt lat="43.73852" lon="6.13851">
        <ele>509.2</ele>
        <time>2025-02-09T15:25:43Z</time>
      </trkpt>
      <trkpt lat="43.73852" lon="6.13851">
        <ele>508.9</ele>
        <time>2025-02-09T15:25:44Z</time>
      </trkpt>
      <trkpt lat="43.73861" lon="6.1385">
        <ele>506.4</ele>
        <time>2025-02-09T15:26:13Z</time>
      </trkpt>
      <trkpt lat="43.73868" lon="6.13859">
        <ele>508.3</ele>
        <time>2025-02-09T15:26:30Z</time>
      </trkpt>
      <trkpt lat="43.73871" lon="6.13872">
        <ele>509.1</ele>
        <time>2025-02-09T15:26:44Z</time>
      </trkpt>
      <trkpt lat="43.73873" lon="6.13885">
        <ele>509.5</ele>
        <time>2025-02-09T15:26:56Z</time>
      </trkpt>
      <trkpt lat="43.73878" lon="6.13896">
        <ele>508.1</ele>
        <time>2025-02-09T15:27:08Z</time>
      </trkpt>
      <trkpt lat="43.73882" lon="6.13907">
        <ele>507</ele>
        <time>2025-02-09T15:27:20Z</time>
      </trkpt>
      <trkpt lat="43.73889" lon="6.13915">
        <ele>503.9</ele>
        <time>2025-02-09T15:27:32Z</time>
      </trkpt>
      <trkpt lat="43.73891" lon="6.13927">
        <ele>505.2</ele>
        <time>2025-02-09T15:27:45Z</time>
      </trkpt>
      <trkpt lat="43.73898" lon="6.13935">
        <ele>506.2</ele>
        <time>2025-02-09T15:27:58Z</time>
      </trkpt>
      <trkpt lat="43.73902" lon="6.13937">
        <ele>506.2</ele>
        <time>2025-02-09T15:28:06Z</time>
      </trkpt>
      <trkpt lat="43.73902" lon="6.13937">
        <ele>506.2</ele>
        <time>2025-02-09T15:28:07Z</time>
      </trkpt>
      <trkpt lat="43.73904" lon="6.1395">
        <ele>505.5</ele>
        <time>2025-02-09T15:28:19Z</time>
      </trkpt>
      <trkpt lat="43.73908" lon="6.13962">
        <ele>504.2</ele>
        <time>2025-02-09T15:28:31Z</time>
      </trkpt>
      <trkpt lat="43.73912" lon="6.13974">
        <ele>503.2</ele>
        <time>2025-02-09T15:28:41Z</time>
      </trkpt>
      <trkpt lat="43.73911" lon="6.13987">
        <ele>504.1</ele>
        <time>2025-02-09T15:28:58Z</time>
      </trkpt>
      <trkpt lat="43.73915" lon="6.13992">
        <ele>503.3</ele>
        <time>2025-02-09T15:29:09Z</time>
      </trkpt>
      <trkpt lat="43.73914" lon="6.13992">
        <ele>503.2</ele>
        <time>2025-02-09T15:29:10Z</time>
      </trkpt>
      <trkpt lat="43.73914" lon="6.13992">
        <ele>503.4</ele>
        <time>2025-02-09T15:29:15Z</time>
      </trkpt>
      <trkpt lat="43.73915" lon="6.13993">
        <ele>503.5</ele>
        <time>2025-02-09T15:29:16Z</time>
      </trkpt>
      <trkpt lat="43.73915" lon="6.13995">
        <ele>504</ele>
        <time>2025-02-09T15:29:22Z</time>
      </trkpt>
      <trkpt lat="43.73915" lon="6.13995">
        <ele>504.1</ele>
        <time>2025-02-09T15:29:23Z</time>
      </trkpt>
      <trkpt lat="43.73915" lon="6.13995">
        <ele>504.3</ele>
        <time>2025-02-09T15:29:24Z</time>
      </trkpt>
      <trkpt lat="43.73915" lon="6.13995">
        <ele>504.4</ele>
        <time>2025-02-09T15:29:25Z</time>
      </trkpt>
      <trkpt lat="43.73915" lon="6.13995">
        <ele>504.5</ele>
        <time>2025-02-09T15:29:26Z</time>
      </trkpt>
      <trkpt lat="43.73915" lon="6.13995">
        <ele>504.4</ele>
        <time>2025-02-09T15:29:29Z</time>
      </trkpt>
      <trkpt lat="43.73913" lon="6.13994">
        <ele>504.1</ele>
        <time>2025-02-09T15:29:38Z</time>
      </trkpt>
      <trkpt lat="43.73913" lon="6.13994">
        <ele>504.1</ele>
        <time>2025-02-09T15:29:41Z</time>
      </trkpt>
      <trkpt lat="43.73913" lon="6.13994">
        <ele>504.1</ele>
        <time>2025-02-09T15:29:42Z</time>
      </trkpt>
      <trkpt lat="43.73913" lon="6.13995">
        <ele>504.1</ele>
        <time>2025-02-09T15:29:48Z</time>
      </trkpt>
      <trkpt lat="43.73913" lon="6.13996">
        <ele>504.1</ele>
        <time>2025-02-09T15:29:51Z</time>
      </trkpt>
      <trkpt lat="43.73913" lon="6.13996">
        <ele>504.2</ele>
        <time>2025-02-09T15:29:54Z</time>
      </trkpt>
      <trkpt lat="43.73913" lon="6.13996">
        <ele>504.2</ele>
        <time>2025-02-09T15:29:55Z</time>
      </trkpt>
      <trkpt lat="43.73913" lon="6.13996">
        <ele>504.2</ele>
        <time>2025-02-09T15:29:58Z</time>
      </trkpt>
      <trkpt lat="43.73913" lon="6.13996">
        <ele>504.2</ele>
        <time>2025-02-09T15:29:59Z</time>
      </trkpt>
      <trkpt lat="43.73913" lon="6.13996">
        <ele>503.9</ele>
        <time>2025-02-09T15:30:13Z</time>
      </trkpt>
      <trkpt lat="43.73913" lon="6.13996">
        <ele>503.9</ele>
        <time>2025-02-09T15:30:15Z</time>
      </trkpt>
      <trkpt lat="43.73913" lon="6.13996">
        <ele>504</ele>
        <time>2025-02-09T15:30:34Z</time>
      </trkpt>
      <trkpt lat="43.73905" lon="6.13997">
        <ele>503.9</ele>
        <time>2025-02-09T15:30:46Z</time>
      </trkpt>
      <trkpt lat="43.73905" lon="6.13997">
        <ele>503.9</ele>
        <time>2025-02-09T15:30:57Z</time>
      </trkpt>
      <trkpt lat="43.73906" lon="6.13999">
        <ele>504.1</ele>
        <time>2025-02-09T15:31:05Z</time>
      </trkpt>
      <trkpt lat="43.73906" lon="6.13999">
        <ele>504.2</ele>
        <time>2025-02-09T15:31:23Z</time>
      </trkpt>
      <trkpt lat="43.73907" lon="6.13998">
        <ele>504.3</ele>
        <time>2025-02-09T15:31:26Z</time>
      </trkpt>
      <trkpt lat="43.73907" lon="6.13998">
        <ele>504.5</ele>
        <time>2025-02-09T15:32:17Z</time>
      </trkpt>
      <trkpt lat="43.73907" lon="6.13998">
        <ele>504.5</ele>
        <time>2025-02-09T15:32:18Z</time>
      </trkpt>
      <trkpt lat="43.73906" lon="6.13998">
        <ele>504.1</ele>
        <time>2025-02-09T15:32:23Z</time>
      </trkpt>
      <trkpt lat="43.73903" lon="6.13986">
        <ele>503.9</ele>
        <time>2025-02-09T15:32:33Z</time>
      </trkpt>
      <trkpt lat="43.73898" lon="6.13975">
        <ele>503.9</ele>
        <time>2025-02-09T15:32:44Z</time>
      </trkpt>
      <trkpt lat="43.73894" lon="6.13963">
        <ele>504</ele>
        <time>2025-02-09T15:32:54Z</time>
      </trkpt>
      <trkpt lat="43.73889" lon="6.13952">
        <ele>503.2</ele>
        <time>2025-02-09T15:33:02Z</time>
      </trkpt>
      <trkpt lat="43.73884" lon="6.1394">
        <ele>503</ele>
        <time>2025-02-09T15:33:10Z</time>
      </trkpt>
      <trkpt lat="43.7388" lon="6.13932">
        <ele>502.2</ele>
        <time>2025-02-09T15:33:22Z</time>
      </trkpt>
      <trkpt lat="43.7388" lon="6.13932">
        <ele>502.3</ele>
        <time>2025-02-09T15:33:23Z</time>
      </trkpt>
      <trkpt lat="43.7388" lon="6.13928">
        <ele>502.2</ele>
        <time>2025-02-09T15:33:30Z</time>
      </trkpt>
      <trkpt lat="43.73879" lon="6.13927">
        <ele>502.1</ele>
        <time>2025-02-09T15:33:35Z</time>
      </trkpt>
      <trkpt lat="43.73873" lon="6.13917">
        <ele>501.6</ele>
        <time>2025-02-09T15:33:46Z</time>
      </trkpt>
      <trkpt lat="43.73867" lon="6.13906">
        <ele>501.4</ele>
        <time>2025-02-09T15:33:54Z</time>
      </trkpt>
      <trkpt lat="43.73858" lon="6.13908">
        <ele>501</ele>
        <time>2025-02-09T15:34:03Z</time>
      </trkpt>
      <trkpt lat="43.73849" lon="6.13913">
        <ele>501.3</ele>
        <time>2025-02-09T15:34:11Z</time>
      </trkpt>
      <trkpt lat="43.73839" lon="6.13919">
        <ele>500.6</ele>
        <time>2025-02-09T15:34:19Z</time>
      </trkpt>
      <trkpt lat="43.7383" lon="6.13925">
        <ele>500.2</ele>
        <time>2025-02-09T15:34:27Z</time>
      </trkpt>
      <trkpt lat="43.73822" lon="6.1393">
        <ele>502.2</ele>
        <time>2025-02-09T15:34:36Z</time>
      </trkpt>
      <trkpt lat="43.73813" lon="6.13938">
        <ele>503.5</ele>
        <time>2025-02-09T15:34:45Z</time>
      </trkpt>
      <trkpt lat="43.73804" lon="6.13944">
        <ele>505.7</ele>
        <time>2025-02-09T15:34:53Z</time>
      </trkpt>
      <trkpt lat="43.73795" lon="6.13947">
        <ele>505.8</ele>
        <time>2025-02-09T15:35:00Z</time>
      </trkpt>
      <trkpt lat="43.73785" lon="6.13951">
        <ele>505.5</ele>
        <time>2025-02-09T15:35:08Z</time>
      </trkpt>
      <trkpt lat="43.73779" lon="6.13961">
        <ele>506.3</ele>
        <time>2025-02-09T15:35:13Z</time>
      </trkpt>
      <trkpt lat="43.7377" lon="6.13969">
        <ele>508.8</ele>
        <time>2025-02-09T15:35:18Z</time>
      </trkpt>
      <trkpt lat="43.73761" lon="6.13977">
        <ele>510.9</ele>
        <time>2025-02-09T15:35:23Z</time>
      </trkpt>
      <trkpt lat="43.73752" lon="6.13981">
        <ele>512.9</ele>
        <time>2025-02-09T15:35:29Z</time>
      </trkpt>
      <trkpt lat="43.73743" lon="6.13986">
        <ele>514.7</ele>
        <time>2025-02-09T15:35:36Z</time>
      </trkpt>
      <trkpt lat="43.73735" lon="6.13992">
        <ele>514.6</ele>
        <time>2025-02-09T15:35:44Z</time>
      </trkpt>
      <trkpt lat="43.73725" lon="6.13995">
        <ele>515.1</ele>
        <time>2025-02-09T15:35:51Z</time>
      </trkpt>
      <trkpt lat="43.73715" lon="6.13999">
        <ele>514</ele>
        <time>2025-02-09T15:35:58Z</time>
      </trkpt>
      <trkpt lat="43.73705" lon="6.14003">
        <ele>514.7</ele>
        <time>2025-02-09T15:36:08Z</time>
      </trkpt>
      <trkpt lat="43.73695" lon="6.14006">
        <ele>514.4</ele>
        <time>2025-02-09T15:36:14Z</time>
      </trkpt>
      <trkpt lat="43.73686" lon="6.1401">
        <ele>514.1</ele>
        <time>2025-02-09T15:36:22Z</time>
      </trkpt>
      <trkpt lat="43.73678" lon="6.14014">
        <ele>514.7</ele>
        <time>2025-02-09T15:36:31Z</time>
      </trkpt>
      <trkpt lat="43.73668" lon="6.1402">
        <ele>514</ele>
        <time>2025-02-09T15:36:36Z</time>
      </trkpt>
      <trkpt lat="43.73659" lon="6.14024">
        <ele>513.5</ele>
        <time>2025-02-09T15:36:43Z</time>
      </trkpt>
      <trkpt lat="43.7365" lon="6.14025">
        <ele>511.8</ele>
        <time>2025-02-09T15:36:53Z</time>
      </trkpt>
      <trkpt lat="43.73641" lon="6.14022">
        <ele>509.7</ele>
        <time>2025-02-09T15:37:00Z</time>
      </trkpt>
      <trkpt lat="43.73632" lon="6.14017">
        <ele>508.2</ele>
        <time>2025-02-09T15:37:09Z</time>
      </trkpt>
      <trkpt lat="43.73623" lon="6.14014">
        <ele>506.6</ele>
        <time>2025-02-09T15:37:16Z</time>
      </trkpt>
      <trkpt lat="43.73613" lon="6.1401">
        <ele>506.5</ele>
        <time>2025-02-09T15:37:26Z</time>
      </trkpt>
      <trkpt lat="43.73609" lon="6.14005">
        <ele>506.3</ele>
        <time>2025-02-09T15:37:33Z</time>
      </trkpt>
      <trkpt lat="43.73609" lon="6.14005">
        <ele>506.3</ele>
        <time>2025-02-09T15:37:33Z</time>
      </trkpt>
    </trkseg>
  </trk>
</gpx>